<?xml version='1.0' encoding='UTF-8'?><gpx version="1.1" creator="JPX - https://github.com/jenetics/jpx" xmlns="http://www.topografix.com/GPX/1/1"><trk><trkseg><trkpt lat="42.1500951" lon="14.5851085"><ele>204.99999999999997</ele><time>2026-04-07T10:11:37.421Z</time></trkpt><trkpt lat="42.1500479" lon="14.5852147"><ele>205.0</ele><time>2026-04-07T10:11:46.443Z</time></trkpt><trkpt lat="42.1499837" lon="14.5853254"><ele>205.0</ele><time>2026-04-07T10:11:49.443Z</time></trkpt><trkpt lat="42.1499366" lon="14.5854384"><ele>205.0</ele><time>2026-04-07T10:11:55.443Z</time></trkpt><trkpt lat="42.149881" lon="14.5854979"><ele>204.99999999999997</ele><time>2026-04-07T10:11:56.831Z</time></trkpt><trkpt lat="42.1498183" lon="14.5854633"><ele>205.0</ele><time>2026-04-07T10:11:58.831Z</time></trkpt><trkpt lat="42.1497524" lon="14.5853905"><ele>203.66666666666666</ele><time>2026-04-07T10:12:07.83Z</time></trkpt><trkpt lat="42.1496364" lon="14.5853623"><ele>202.33333333333331</ele><time>2026-04-07T10:12:19.83Z</time></trkpt><trkpt lat="42.1495655" lon="14.5853407"><ele>201.0</ele><time>2026-04-07T10:12:25.83Z</time></trkpt><trkpt lat="42.1495087" lon="14.5852666"><ele>199.66666666666669</ele><time>2026-04-07T10:12:30.83Z</time></trkpt><trkpt lat="42.1494604" lon="14.5851773"><ele>198.33333333333334</ele><time>2026-04-07T10:12:34.83Z</time></trkpt><trkpt lat="42.1494268" lon="14.5850988"><ele>197.0</ele><time>2026-04-07T10:12:38.83Z</time></trkpt><trkpt lat="42.1495373" lon="14.5851269"><ele>197.0</ele><time>2026-04-07T10:12:54.83Z</time></trkpt><trkpt lat="42.1496559" lon="14.5851707"><ele>197.0</ele><time>2026-04-07T10:13:07.83Z</time></trkpt><trkpt lat="42.1497663" lon="14.5851625"><ele>197.0</ele><time>2026-04-07T10:13:24.83Z</time></trkpt><trkpt lat="42.1498274" lon="14.5852378"><ele>197.0</ele><time>2026-04-07T10:13:26.83Z</time></trkpt><trkpt lat="42.1499093" lon="14.5852689"><ele>197.0</ele><time>2026-04-07T10:13:30.83Z</time></trkpt><trkpt lat="42.1499906" lon="14.5852906"><ele>198.33333333333334</ele><time>2026-04-07T10:13:33.83Z</time></trkpt><trkpt lat="42.150071" lon="14.5853238"><ele>199.66666666666669</ele><time>2026-04-07T10:13:36.83Z</time></trkpt><trkpt lat="42.1501515" lon="14.5853076"><ele>201.0</ele><time>2026-04-07T10:13:38.83Z</time></trkpt><trkpt lat="42.1502166" lon="14.5852877"><ele>202.33333333333331</ele><time>2026-04-07T10:13:40.83Z</time></trkpt><trkpt lat="42.1503066" lon="14.5852355"><ele>203.66666666666666</ele><time>2026-04-07T10:13:42.831Z</time></trkpt><trkpt lat="42.1503643" lon="14.5851698"><ele>205.0</ele><time>2026-04-07T10:13:44.83Z</time></trkpt><trkpt lat="42.1504588" lon="14.5851425"><ele>205.0</ele><time>2026-04-07T10:13:47.83Z</time></trkpt><trkpt lat="42.1505254" lon="14.5850993"><ele>205.0</ele><time>2026-04-07T10:13:51.83Z</time></trkpt><trkpt lat="42.1505772" lon="14.5850194"><ele>205.0</ele><time>2026-04-07T10:13:55.83Z</time></trkpt><trkpt lat="42.150628" lon="14.584963"><ele>205.0</ele><time>2026-04-07T10:13:59.83Z</time></trkpt><trkpt lat="42.1506985" lon="14.5849625"><ele>205.0</ele><time>2026-04-07T10:14:02.83Z</time></trkpt><trkpt lat="42.1507609" lon="14.5849888"><ele>205.0</ele><time>2026-04-07T10:14:09.83Z</time></trkpt><trkpt lat="42.1508264" lon="14.5848972"><ele>205.0</ele><time>2026-04-07T10:14:12.83Z</time></trkpt><trkpt lat="42.1508912" lon="14.5848336"><ele>205.16666666666666</ele><time>2026-04-07T10:14:15.83Z</time></trkpt><trkpt lat="42.1509746" lon="14.584838"><ele>205.33333333333331</ele><time>2026-04-07T10:14:18.831Z</time></trkpt><trkpt lat="42.1510822" lon="14.5849114"><ele>205.5</ele><time>2026-04-07T10:14:21.83Z</time></trkpt><trkpt lat="42.1511716" lon="14.5849508"><ele>205.66666666666669</ele><time>2026-04-07T10:14:23.83Z</time></trkpt><trkpt lat="42.1512386" lon="14.5849692"><ele>205.83333333333334</ele><time>2026-04-07T10:14:25.83Z</time></trkpt><trkpt lat="42.1513018" lon="14.5849895"><ele>206.0</ele><time>2026-04-07T10:14:27.83Z</time></trkpt><trkpt lat="42.1513702" lon="14.5849887"><ele>206.0</ele><time>2026-04-07T10:14:30.83Z</time></trkpt><trkpt lat="42.1514753" lon="14.5849551"><ele>206.0</ele><time>2026-04-07T10:14:33.83Z</time></trkpt><trkpt lat="42.1515607" lon="14.5849385"><ele>206.0</ele><time>2026-04-07T10:14:35.83Z</time></trkpt><trkpt lat="42.1516458" lon="14.5848985"><ele>206.0</ele><time>2026-04-07T10:14:37.83Z</time></trkpt><trkpt lat="42.1516984" lon="14.5848017"><ele>206.0</ele><time>2026-04-07T10:14:39.831Z</time></trkpt><trkpt lat="42.1517256" lon="14.5846552"><ele>204.4</ele><time>2026-04-07T10:14:41.83Z</time></trkpt><trkpt lat="42.1517436" lon="14.5844852"><ele>202.8</ele><time>2026-04-07T10:14:43.83Z</time></trkpt><trkpt lat="42.1517534" lon="14.5843816"><ele>201.20000000000002</ele><time>2026-04-07T10:14:44.831Z</time></trkpt><trkpt lat="42.1517632" lon="14.5842758"><ele>199.60000000000002</ele><time>2026-04-07T10:14:45.83Z</time></trkpt><trkpt lat="42.1517773" lon="14.5841676"><ele>198.0</ele><time>2026-04-07T10:14:46.83Z</time></trkpt><trkpt lat="42.1518015" lon="14.5840517"><ele>198.0</ele><time>2026-04-07T10:14:47.83Z</time></trkpt><trkpt lat="42.1518259" lon="14.5839397"><ele>198.0</ele><time>2026-04-07T10:14:48.831Z</time></trkpt><trkpt lat="42.1518488" lon="14.5838339"><ele>198.0</ele><time>2026-04-07T10:14:49.83Z</time></trkpt><trkpt lat="42.1518667" lon="14.5837376"><ele>198.0</ele><time>2026-04-07T10:14:50.831Z</time></trkpt><trkpt lat="42.151871" lon="14.5836476"><ele>198.0</ele><time>2026-04-07T10:14:51.83Z</time></trkpt><trkpt lat="42.1518467" lon="14.5834959"><ele>198.0</ele><time>2026-04-07T10:14:53.83Z</time></trkpt><trkpt lat="42.1518492" lon="14.583339"><ele>196.8</ele><time>2026-04-07T10:14:55.831Z</time></trkpt><trkpt lat="42.1518726" lon="14.5832593"><ele>195.60000000000002</ele><time>2026-04-07T10:14:56.83Z</time></trkpt><trkpt lat="42.1519363" lon="14.5831302"><ele>194.39999999999998</ele><time>2026-04-07T10:14:58.831Z</time></trkpt><trkpt lat="42.1520151" lon="14.583057"><ele>193.2</ele><time>2026-04-07T10:15:00.83Z</time></trkpt><trkpt lat="42.1521048" lon="14.5830798"><ele>192.0</ele><time>2026-04-07T10:15:02.83Z</time></trkpt><trkpt lat="42.1521989" lon="14.5831737"><ele>192.0</ele><time>2026-04-07T10:15:04.83Z</time></trkpt><trkpt lat="42.1522464" lon="14.5832302"><ele>192.0</ele><time>2026-04-07T10:15:05.83Z</time></trkpt><trkpt lat="42.1523335" lon="14.5833503"><ele>192.0</ele><time>2026-04-07T10:15:07.83Z</time></trkpt><trkpt lat="42.1523841" lon="14.5834117"><ele>192.0</ele><time>2026-04-07T10:15:08.831Z</time></trkpt><trkpt lat="42.1524393" lon="14.5834753"><ele>192.0</ele><time>2026-04-07T10:15:09.831Z</time></trkpt><trkpt lat="42.1524935" lon="14.5835403"><ele>192.0</ele><time>2026-04-07T10:15:10.83Z</time></trkpt><trkpt lat="42.1525474" lon="14.5836085"><ele>190.66666666666666</ele><time>2026-04-07T10:15:11.83Z</time></trkpt><trkpt lat="42.1526009" lon="14.583684"><ele>189.33333333333334</ele><time>2026-04-07T10:15:12.831Z</time></trkpt><trkpt lat="42.152656" lon="14.583761"><ele>188.0</ele><time>2026-04-07T10:15:13.83Z</time></trkpt><trkpt lat="42.1527125" lon="14.5838377"><ele>186.66666666666669</ele><time>2026-04-07T10:15:14.83Z</time></trkpt><trkpt lat="42.1527681" lon="14.5839096"><ele>185.33333333333334</ele><time>2026-04-07T10:15:15.83Z</time></trkpt><trkpt lat="42.1528234" lon="14.5839838"><ele>184.0</ele><time>2026-04-07T10:15:16.83Z</time></trkpt><trkpt lat="42.1528787" lon="14.5840655"><ele>184.0</ele><time>2026-04-07T10:15:17.83Z</time></trkpt><trkpt lat="42.1529402" lon="14.5841471"><ele>184.0</ele><time>2026-04-07T10:15:18.83Z</time></trkpt><trkpt lat="42.1529984" lon="14.5842327"><ele>184.0</ele><time>2026-04-07T10:15:19.83Z</time></trkpt><trkpt lat="42.153058" lon="14.5843162"><ele>184.0</ele><time>2026-04-07T10:15:20.83Z</time></trkpt><trkpt lat="42.1531152" lon="14.5843976"><ele>184.0</ele><time>2026-04-07T10:15:21.83Z</time></trkpt><trkpt lat="42.1531661" lon="14.5844847"><ele>184.0</ele><time>2026-04-07T10:15:22.83Z</time></trkpt><trkpt lat="42.1532062" lon="14.5845786"><ele>182.83333333333334</ele><time>2026-04-07T10:15:23.83Z</time></trkpt><trkpt lat="42.1532405" lon="14.5846778"><ele>181.66666666666669</ele><time>2026-04-07T10:15:24.83Z</time></trkpt><trkpt lat="42.1532697" lon="14.5847758"><ele>180.5</ele><time>2026-04-07T10:15:25.83Z</time></trkpt><trkpt lat="42.1532951" lon="14.5848707"><ele>179.33333333333334</ele><time>2026-04-07T10:15:26.83Z</time></trkpt><trkpt lat="42.1533087" lon="14.5849628"><ele>178.16666666666666</ele><time>2026-04-07T10:15:27.83Z</time></trkpt><trkpt lat="42.1533199" lon="14.5851126"><ele>177.0</ele><time>2026-04-07T10:15:29.83Z</time></trkpt><trkpt lat="42.1533417" lon="14.5852132"><ele>177.0</ele><time>2026-04-07T10:15:31.83Z</time></trkpt><trkpt lat="42.1533889" lon="14.5852734"><ele>177.0</ele><time>2026-04-07T10:15:34.83Z</time></trkpt><trkpt lat="42.1534679" lon="14.5852655"><ele>177.0</ele><time>2026-04-07T10:15:36.83Z</time></trkpt><trkpt lat="42.1535701" lon="14.5852318"><ele>177.0</ele><time>2026-04-07T10:15:38.831Z</time></trkpt><trkpt lat="42.1536365" lon="14.5852304"><ele>177.0</ele><time>2026-04-07T10:15:39.83Z</time></trkpt><trkpt lat="42.1537009" lon="14.5852281"><ele>177.0</ele><time>2026-04-07T10:15:40.83Z</time></trkpt><trkpt lat="42.1537692" lon="14.5852206"><ele>177.0</ele><time>2026-04-07T10:15:41.831Z</time></trkpt><trkpt lat="42.1538434" lon="14.5852144"><ele>177.0</ele><time>2026-04-07T10:15:42.83Z</time></trkpt><trkpt lat="42.1539204" lon="14.5852073"><ele>177.0</ele><time>2026-04-07T10:15:43.83Z</time></trkpt><trkpt lat="42.1539957" lon="14.5852033"><ele>177.0</ele><time>2026-04-07T10:15:44.831Z</time></trkpt><trkpt lat="42.154074" lon="14.5852011"><ele>177.0</ele><time>2026-04-07T10:15:45.83Z</time></trkpt><trkpt lat="42.1541566" lon="14.5851971"><ele>177.0</ele><time>2026-04-07T10:15:46.831Z</time></trkpt><trkpt lat="42.1542403" lon="14.5852018"><ele>177.0</ele><time>2026-04-07T10:15:47.831Z</time></trkpt><trkpt lat="42.1543239" lon="14.5852149"><ele>176.16666666666666</ele><time>2026-04-07T10:15:48.83Z</time></trkpt><trkpt lat="42.1544058" lon="14.5852494"><ele>175.33333333333334</ele><time>2026-04-07T10:15:49.831Z</time></trkpt><trkpt lat="42.1544758" lon="14.5853001"><ele>174.5</ele><time>2026-04-07T10:15:50.83Z</time></trkpt><trkpt lat="42.1545327" lon="14.5853728"><ele>173.66666666666669</ele><time>2026-04-07T10:15:51.83Z</time></trkpt><trkpt lat="42.1545794" lon="14.5854627"><ele>172.83333333333334</ele><time>2026-04-07T10:15:52.831Z</time></trkpt><trkpt lat="42.1546188" lon="14.5855582"><ele>172.0</ele><time>2026-04-07T10:15:53.83Z</time></trkpt><trkpt lat="42.1546534" lon="14.5856516"><ele>171.66666666666669</ele><time>2026-04-07T10:15:54.83Z</time></trkpt><trkpt lat="42.1546849" lon="14.5857421"><ele>171.33333333333334</ele><time>2026-04-07T10:15:55.831Z</time></trkpt><trkpt lat="42.1547168" lon="14.5858315"><ele>171.0</ele><time>2026-04-07T10:15:56.831Z</time></trkpt><trkpt lat="42.1547522" lon="14.5859206"><ele>170.66666666666666</ele><time>2026-04-07T10:15:57.83Z</time></trkpt><trkpt lat="42.1547924" lon="14.5860128"><ele>170.33333333333331</ele><time>2026-04-07T10:15:58.83Z</time></trkpt><trkpt lat="42.1548367" lon="14.586102"><ele>170.0</ele><time>2026-04-07T10:15:59.83Z</time></trkpt><trkpt lat="42.1548818" lon="14.5861903"><ele>169.14285714285714</ele><time>2026-04-07T10:16:00.83Z</time></trkpt><trkpt lat="42.1549217" lon="14.5862775"><ele>168.28571428571428</ele><time>2026-04-07T10:16:01.83Z</time></trkpt><trkpt lat="42.1549589" lon="14.5863629"><ele>167.42857142857142</ele><time>2026-04-07T10:16:02.83Z</time></trkpt><trkpt lat="42.1549975" lon="14.5864455"><ele>166.57142857142856</ele><time>2026-04-07T10:16:03.831Z</time></trkpt><trkpt lat="42.1550361" lon="14.5865293"><ele>165.71428571428572</ele><time>2026-04-07T10:16:04.83Z</time></trkpt><trkpt lat="42.1550761" lon="14.5866098"><ele>164.85714285714283</ele><time>2026-04-07T10:16:05.83Z</time></trkpt><trkpt lat="42.1551216" lon="14.5866905"><ele>164.0</ele><time>2026-04-07T10:16:06.83Z</time></trkpt><trkpt lat="42.1551685" lon="14.5867661"><ele>163.99999999999997</ele><time>2026-04-07T10:16:07.83Z</time></trkpt><trkpt lat="42.1552194" lon="14.5868387"><ele>164.0</ele><time>2026-04-07T10:16:08.83Z</time></trkpt><trkpt lat="42.1552725" lon="14.5869098"><ele>164.0</ele><time>2026-04-07T10:16:09.83Z</time></trkpt><trkpt lat="42.1553258" lon="14.5869821"><ele>164.0</ele><time>2026-04-07T10:16:10.83Z</time></trkpt><trkpt lat="42.1553806" lon="14.5870513"><ele>164.0</ele><time>2026-04-07T10:16:11.831Z</time></trkpt><trkpt lat="42.1554329" lon="14.5871208"><ele>163.99999999999997</ele><time>2026-04-07T10:16:12.83Z</time></trkpt><trkpt lat="42.1554824" lon="14.5871881"><ele>164.0</ele><time>2026-04-07T10:16:13.83Z</time></trkpt><trkpt lat="42.1555334" lon="14.5872586"><ele>164.14285714285714</ele><time>2026-04-07T10:16:14.83Z</time></trkpt><trkpt lat="42.1555838" lon="14.5873285"><ele>164.28571428571428</ele><time>2026-04-07T10:16:15.83Z</time></trkpt><trkpt lat="42.1556376" lon="14.5873959"><ele>164.42857142857144</ele><time>2026-04-07T10:16:16.83Z</time></trkpt><trkpt lat="42.1556897" lon="14.5874644"><ele>164.57142857142856</ele><time>2026-04-07T10:16:17.831Z</time></trkpt><trkpt lat="42.1557374" lon="14.5875355"><ele>164.71428571428572</ele><time>2026-04-07T10:16:18.83Z</time></trkpt><trkpt lat="42.1557855" lon="14.5876022"><ele>164.85714285714286</ele><time>2026-04-07T10:16:19.83Z</time></trkpt><trkpt lat="42.1558349" lon="14.5876725"><ele>165.0</ele><time>2026-04-07T10:16:20.83Z</time></trkpt><trkpt lat="42.1558792" lon="14.5877467"><ele>165.0</ele><time>2026-04-07T10:16:21.83Z</time></trkpt><trkpt lat="42.1559233" lon="14.5878234"><ele>165.0</ele><time>2026-04-07T10:16:22.83Z</time></trkpt><trkpt lat="42.1559639" lon="14.5878982"><ele>165.0</ele><time>2026-04-07T10:16:23.83Z</time></trkpt><trkpt lat="42.1560037" lon="14.5879748"><ele>165.0</ele><time>2026-04-07T10:16:24.83Z</time></trkpt><trkpt lat="42.1560437" lon="14.5880506"><ele>165.0</ele><time>2026-04-07T10:16:25.831Z</time></trkpt><trkpt lat="42.1560827" lon="14.588119"><ele>165.0</ele><time>2026-04-07T10:16:26.83Z</time></trkpt><trkpt lat="42.1561607" lon="14.5882403"><ele>164.0</ele><time>2026-04-07T10:16:28.83Z</time></trkpt><trkpt lat="42.1562314" lon="14.5883573"><ele>163.0</ele><time>2026-04-07T10:16:30.831Z</time></trkpt><trkpt lat="42.1562973" lon="14.5884684"><ele>162.0</ele><time>2026-04-07T10:16:32.831Z</time></trkpt><trkpt lat="42.1563685" lon="14.5885736"><ele>161.0</ele><time>2026-04-07T10:16:34.831Z</time></trkpt><trkpt lat="42.1564433" lon="14.5886952"><ele>160.0</ele><time>2026-04-07T10:16:36.83Z</time></trkpt><trkpt lat="42.1565182" lon="14.5888087"><ele>159.8</ele><time>2026-04-07T10:16:38.83Z</time></trkpt><trkpt lat="42.156594" lon="14.5889174"><ele>159.6</ele><time>2026-04-07T10:16:40.83Z</time></trkpt><trkpt lat="42.1566711" lon="14.5890195"><ele>159.4</ele><time>2026-04-07T10:16:42.83Z</time></trkpt><trkpt lat="42.1567468" lon="14.5891284"><ele>159.2</ele><time>2026-04-07T10:16:44.83Z</time></trkpt><trkpt lat="42.1568228" lon="14.5892481"><ele>159.0</ele><time>2026-04-07T10:16:46.83Z</time></trkpt><trkpt lat="42.1568997" lon="14.5893626"><ele>159.0</ele><time>2026-04-07T10:16:48.83Z</time></trkpt><trkpt lat="42.1569822" lon="14.5894692"><ele>159.0</ele><time>2026-04-07T10:16:50.83Z</time></trkpt><trkpt lat="42.1570707" lon="14.5895657"><ele>159.0</ele><time>2026-04-07T10:16:52.83Z</time></trkpt><trkpt lat="42.1571651" lon="14.5896604"><ele>159.0</ele><time>2026-04-07T10:16:54.83Z</time></trkpt><trkpt lat="42.1572563" lon="14.5897427"><ele>158.75</ele><time>2026-04-07T10:16:56.83Z</time></trkpt><trkpt lat="42.1573482" lon="14.5898185"><ele>158.5</ele><time>2026-04-07T10:16:58.83Z</time></trkpt><trkpt lat="42.1574448" lon="14.5899026"><ele>158.25</ele><time>2026-04-07T10:17:00.83Z</time></trkpt><trkpt lat="42.1575487" lon="14.589981"><ele>158.0</ele><time>2026-04-07T10:17:02.831Z</time></trkpt><trkpt lat="42.1576546" lon="14.5900622"><ele>158.0</ele><time>2026-04-07T10:17:04.83Z</time></trkpt><trkpt lat="42.1577517" lon="14.5901467"><ele>158.0</ele><time>2026-04-07T10:17:06.83Z</time></trkpt><trkpt lat="42.1578467" lon="14.590225"><ele>158.0</ele><time>2026-04-07T10:17:08.83Z</time></trkpt><trkpt lat="42.15795" lon="14.5903067"><ele>158.0</ele><time>2026-04-07T10:17:10.83Z</time></trkpt><trkpt lat="42.1580533" lon="14.5904"><ele>157.83333333333331</ele><time>2026-04-07T10:17:12.831Z</time></trkpt><trkpt lat="42.1581067" lon="14.590445"><ele>157.66666666666666</ele><time>2026-04-07T10:17:13.83Z</time></trkpt><trkpt lat="42.1582117" lon="14.59054"><ele>157.5</ele><time>2026-04-07T10:17:15.831Z</time></trkpt><trkpt lat="42.158265" lon="14.5905917"><ele>157.33333333333334</ele><time>2026-04-07T10:17:16.83Z</time></trkpt><trkpt lat="42.158315" lon="14.5906433"><ele>157.16666666666669</ele><time>2026-04-07T10:17:17.83Z</time></trkpt><trkpt lat="42.1584067" lon="14.5907483"><ele>157.0</ele><time>2026-04-07T10:17:19.831Z</time></trkpt><trkpt lat="42.158505" lon="14.5908533"><ele>157.0</ele><time>2026-04-07T10:17:21.83Z</time></trkpt><trkpt lat="42.1585517" lon="14.5909117"><ele>157.0</ele><time>2026-04-07T10:17:22.83Z</time></trkpt><trkpt lat="42.158635" lon="14.5910283"><ele>157.0</ele><time>2026-04-07T10:17:24.83Z</time></trkpt><trkpt lat="42.1586817" lon="14.5910917"><ele>157.0</ele><time>2026-04-07T10:17:25.83Z</time></trkpt><trkpt lat="42.1587733" lon="14.5912133"><ele>157.0</ele><time>2026-04-07T10:17:27.83Z</time></trkpt><trkpt lat="42.158825" lon="14.591275"><ele>157.0</ele><time>2026-04-07T10:17:28.83Z</time></trkpt><trkpt lat="42.158875" lon="14.5913367"><ele>156.66666666666669</ele><time>2026-04-07T10:17:29.83Z</time></trkpt><trkpt lat="42.158925" lon="14.5913967"><ele>156.33333333333334</ele><time>2026-04-07T10:17:30.831Z</time></trkpt><trkpt lat="42.1590167" lon="14.5915067"><ele>156.0</ele><time>2026-04-07T10:17:32.83Z</time></trkpt><trkpt lat="42.1590667" lon="14.591565"><ele>155.66666666666666</ele><time>2026-04-07T10:17:33.83Z</time></trkpt><trkpt lat="42.1591217" lon="14.591625"><ele>155.33333333333331</ele><time>2026-04-07T10:17:34.83Z</time></trkpt><trkpt lat="42.1591733" lon="14.59169"><ele>155.0</ele><time>2026-04-07T10:17:35.83Z</time></trkpt><trkpt lat="42.1592283" lon="14.5917417"><ele>154.85714285714286</ele><time>2026-04-07T10:17:36.83Z</time></trkpt><trkpt lat="42.1592833" lon="14.5917983"><ele>154.71428571428572</ele><time>2026-04-07T10:17:37.831Z</time></trkpt><trkpt lat="42.159335" lon="14.591855"><ele>154.57142857142856</ele><time>2026-04-07T10:17:38.83Z</time></trkpt><trkpt lat="42.1593933" lon="14.59191"><ele>154.42857142857144</ele><time>2026-04-07T10:17:39.83Z</time></trkpt><trkpt lat="42.159445" lon="14.59196"><ele>154.28571428571428</ele><time>2026-04-07T10:17:40.83Z</time></trkpt><trkpt lat="42.1594983" lon="14.59201"><ele>154.14285714285714</ele><time>2026-04-07T10:17:41.83Z</time></trkpt><trkpt lat="42.1595483" lon="14.5920633"><ele>154.0</ele><time>2026-04-07T10:17:42.83Z</time></trkpt><trkpt lat="42.1596033" lon="14.5921167"><ele>153.85714285714286</ele><time>2026-04-07T10:17:43.83Z</time></trkpt><trkpt lat="42.159655" lon="14.5921683"><ele>153.71428571428572</ele><time>2026-04-07T10:17:44.83Z</time></trkpt><trkpt lat="42.1597083" lon="14.59222"><ele>153.57142857142856</ele><time>2026-04-07T10:17:45.83Z</time></trkpt><trkpt lat="42.1597583" lon="14.5922717"><ele>153.42857142857144</ele><time>2026-04-07T10:17:46.83Z</time></trkpt><trkpt lat="42.1598067" lon="14.5923333"><ele>153.28571428571428</ele><time>2026-04-07T10:17:47.83Z</time></trkpt><trkpt lat="42.1598567" lon="14.592385"><ele>153.14285714285714</ele><time>2026-04-07T10:17:48.83Z</time></trkpt><trkpt lat="42.1599117" lon="14.5924467"><ele>153.0</ele><time>2026-04-07T10:17:49.83Z</time></trkpt><trkpt lat="42.1600117" lon="14.592555"><ele>152.85714285714286</ele><time>2026-04-07T10:17:51.83Z</time></trkpt><trkpt lat="42.1600667" lon="14.59261"><ele>152.71428571428572</ele><time>2026-04-07T10:17:52.83Z</time></trkpt><trkpt lat="42.16012" lon="14.5926683"><ele>152.57142857142856</ele><time>2026-04-07T10:17:53.83Z</time></trkpt><trkpt lat="42.160175" lon="14.5927267"><ele>152.42857142857144</ele><time>2026-04-07T10:17:54.83Z</time></trkpt><trkpt lat="42.1602267" lon="14.5927833"><ele>152.2857142857143</ele><time>2026-04-07T10:17:55.83Z</time></trkpt><trkpt lat="42.16028" lon="14.5928417"><ele>152.14285714285714</ele><time>2026-04-07T10:17:56.83Z</time></trkpt><trkpt lat="42.1603283" lon="14.5929033"><ele>152.0</ele><time>2026-04-07T10:17:57.83Z</time></trkpt><trkpt lat="42.1603767" lon="14.5929667"><ele>151.7142857142857</ele><time>2026-04-07T10:17:58.83Z</time></trkpt><trkpt lat="42.1604267" lon="14.59303"><ele>151.42857142857144</ele><time>2026-04-07T10:17:59.83Z</time></trkpt><trkpt lat="42.16048" lon="14.5930917"><ele>151.14285714285714</ele><time>2026-04-07T10:18:00.83Z</time></trkpt><trkpt lat="42.1605333" lon="14.5931567"><ele>150.85714285714283</ele><time>2026-04-07T10:18:01.83Z</time></trkpt><trkpt lat="42.1605883" lon="14.5932217"><ele>150.57142857142856</ele><time>2026-04-07T10:18:02.83Z</time></trkpt><trkpt lat="42.1606367" lon="14.5932833"><ele>150.28571428571428</ele><time>2026-04-07T10:18:03.831Z</time></trkpt><trkpt lat="42.1606817" lon="14.5933483"><ele>150.0</ele><time>2026-04-07T10:18:04.83Z</time></trkpt><trkpt lat="42.1607267" lon="14.5934133"><ele>149.66666666666666</ele><time>2026-04-07T10:18:05.83Z</time></trkpt><trkpt lat="42.1608167" lon="14.5935317"><ele>149.33333333333334</ele><time>2026-04-07T10:18:07.83Z</time></trkpt><trkpt lat="42.160865" lon="14.5935967"><ele>149.0</ele><time>2026-04-07T10:18:08.83Z</time></trkpt><trkpt lat="42.1609133" lon="14.5936583"><ele>148.66666666666669</ele><time>2026-04-07T10:18:09.83Z</time></trkpt><trkpt lat="42.1609633" lon="14.59372"><ele>148.33333333333334</ele><time>2026-04-07T10:18:10.83Z</time></trkpt><trkpt lat="42.1610067" lon="14.593785"><ele>148.0</ele><time>2026-04-07T10:18:11.83Z</time></trkpt><trkpt lat="42.161055" lon="14.59384"><ele>147.8</ele><time>2026-04-07T10:18:12.831Z</time></trkpt><trkpt lat="42.1611017" lon="14.5939083"><ele>147.60000000000002</ele><time>2026-04-07T10:18:13.831Z</time></trkpt><trkpt lat="42.16119" lon="14.5940233"><ele>147.39999999999998</ele><time>2026-04-07T10:18:15.83Z</time></trkpt><trkpt lat="42.1612383" lon="14.594085"><ele>147.2</ele><time>2026-04-07T10:18:16.83Z</time></trkpt><trkpt lat="42.1613267" lon="14.594205"><ele>147.0</ele><time>2026-04-07T10:18:18.83Z</time></trkpt><trkpt lat="42.161375" lon="14.59427"><ele>147.0</ele><time>2026-04-07T10:18:19.831Z</time></trkpt><trkpt lat="42.1614233" lon="14.5943267"><ele>147.0</ele><time>2026-04-07T10:18:20.83Z</time></trkpt><trkpt lat="42.1615183" lon="14.594445"><ele>147.0</ele><time>2026-04-07T10:18:22.83Z</time></trkpt><trkpt lat="42.1615683" lon="14.5945133"><ele>147.0</ele><time>2026-04-07T10:18:23.83Z</time></trkpt><trkpt lat="42.1616167" lon="14.5945717"><ele>147.0</ele><time>2026-04-07T10:18:24.831Z</time></trkpt><trkpt lat="42.161665" lon="14.5946367"><ele>147.0</ele><time>2026-04-07T10:18:25.831Z</time></trkpt><trkpt lat="42.161715" lon="14.5946967"><ele>146.16666666666666</ele><time>2026-04-07T10:18:26.83Z</time></trkpt><trkpt lat="42.1617617" lon="14.5947617"><ele>145.33333333333334</ele><time>2026-04-07T10:18:27.83Z</time></trkpt><trkpt lat="42.16181" lon="14.5948217"><ele>144.5</ele><time>2026-04-07T10:18:28.83Z</time></trkpt><trkpt lat="42.1619017" lon="14.5949383"><ele>143.66666666666669</ele><time>2026-04-07T10:18:30.83Z</time></trkpt><trkpt lat="42.1619467" lon="14.595"><ele>142.83333333333334</ele><time>2026-04-07T10:18:31.83Z</time></trkpt><trkpt lat="42.1619917" lon="14.5950617"><ele>142.0</ele><time>2026-04-07T10:18:32.83Z</time></trkpt><trkpt lat="42.1620633" lon="14.5951883"><ele>142.0</ele><time>2026-04-07T10:18:34.831Z</time></trkpt><trkpt lat="42.1621483" lon="14.5953083"><ele>142.0</ele><time>2026-04-07T10:18:36.83Z</time></trkpt><trkpt lat="42.1622267" lon="14.59544"><ele>142.0</ele><time>2026-04-07T10:18:38.831Z</time></trkpt><trkpt lat="42.1622633" lon="14.59551"><ele>142.0</ele><time>2026-04-07T10:18:39.83Z</time></trkpt><trkpt lat="42.162345" lon="14.5956367"><ele>142.0</ele><time>2026-04-07T10:18:41.83Z</time></trkpt><trkpt lat="42.162415" lon="14.5957617"><ele>141.83333333333334</ele><time>2026-04-07T10:18:43.83Z</time></trkpt><trkpt lat="42.1624917" lon="14.59589"><ele>141.66666666666669</ele><time>2026-04-07T10:18:45.83Z</time></trkpt><trkpt lat="42.1625317" lon="14.5959633"><ele>141.5</ele><time>2026-04-07T10:18:46.83Z</time></trkpt><trkpt lat="42.1625733" lon="14.59603"><ele>141.33333333333334</ele><time>2026-04-07T10:18:47.83Z</time></trkpt><trkpt lat="42.16265" lon="14.5961633"><ele>141.16666666666666</ele><time>2026-04-07T10:18:49.83Z</time></trkpt><trkpt lat="42.1626917" lon="14.5962283"><ele>141.0</ele><time>2026-04-07T10:18:50.83Z</time></trkpt><trkpt lat="42.1627717" lon="14.5963533"><ele>141.0</ele><time>2026-04-07T10:18:52.831Z</time></trkpt><trkpt lat="42.1628517" lon="14.5964817"><ele>141.0</ele><time>2026-04-07T10:18:54.83Z</time></trkpt><trkpt lat="42.162895" lon="14.59655"><ele>141.0</ele><time>2026-04-07T10:18:55.83Z</time></trkpt><trkpt lat="42.162935" lon="14.5966183"><ele>141.0</ele><time>2026-04-07T10:18:56.83Z</time></trkpt><trkpt lat="42.16298" lon="14.596685"><ele>141.0</ele><time>2026-04-07T10:18:57.83Z</time></trkpt><trkpt lat="42.1630517" lon="14.5968167"><ele>141.0</ele><time>2026-04-07T10:18:59.83Z</time></trkpt><trkpt lat="42.1631217" lon="14.5969317"><ele>140.25</ele><time>2026-04-07T10:19:01.83Z</time></trkpt><trkpt lat="42.1631967" lon="14.59706"><ele>139.5</ele><time>2026-04-07T10:19:03.831Z</time></trkpt><trkpt lat="42.16328" lon="14.5971833"><ele>138.75</ele><time>2026-04-07T10:19:05.83Z</time></trkpt><trkpt lat="42.16336" lon="14.5973033"><ele>138.0</ele><time>2026-04-07T10:19:07.83Z</time></trkpt><trkpt lat="42.163435" lon="14.59741"><ele>137.8</ele><time>2026-04-07T10:19:09.831Z</time></trkpt><trkpt lat="42.1634933" lon="14.5975233"><ele>137.60000000000002</ele><time>2026-04-07T10:19:11.83Z</time></trkpt><trkpt lat="42.1635617" lon="14.5976367"><ele>137.39999999999998</ele><time>2026-04-07T10:19:13.83Z</time></trkpt><trkpt lat="42.1636283" lon="14.5977383"><ele>137.2</ele><time>2026-04-07T10:19:15.83Z</time></trkpt><trkpt lat="42.1637133" lon="14.5978167"><ele>137.0</ele><time>2026-04-07T10:19:17.83Z</time></trkpt><trkpt lat="42.1638133" lon="14.597865"><ele>136.79999999999998</ele><time>2026-04-07T10:19:19.831Z</time></trkpt><trkpt lat="42.1639383" lon="14.5979167"><ele>136.6</ele><time>2026-04-07T10:19:21.83Z</time></trkpt><trkpt lat="42.1639983" lon="14.597945"><ele>136.39999999999998</ele><time>2026-04-07T10:19:22.83Z</time></trkpt><trkpt lat="42.16406" lon="14.5979733"><ele>136.2</ele><time>2026-04-07T10:19:23.83Z</time></trkpt><trkpt lat="42.1641233" lon="14.5980017"><ele>136.0</ele><time>2026-04-07T10:19:24.831Z</time></trkpt><trkpt lat="42.1642367" lon="14.598095"><ele>135.7142857142857</ele><time>2026-04-07T10:19:26.831Z</time></trkpt><trkpt lat="42.164295" lon="14.59814"><ele>135.42857142857142</ele><time>2026-04-07T10:19:27.83Z</time></trkpt><trkpt lat="42.1643517" lon="14.5981817"><ele>135.14285714285714</ele><time>2026-04-07T10:19:28.83Z</time></trkpt><trkpt lat="42.164455" lon="14.5982617"><ele>134.85714285714283</ele><time>2026-04-07T10:19:30.83Z</time></trkpt><trkpt lat="42.1645067" lon="14.5983133"><ele>134.57142857142856</ele><time>2026-04-07T10:19:31.831Z</time></trkpt><trkpt lat="42.1645567" lon="14.5983683"><ele>134.28571428571428</ele><time>2026-04-07T10:19:32.83Z</time></trkpt><trkpt lat="42.16461" lon="14.598415"><ele>134.0</ele><time>2026-04-07T10:19:33.83Z</time></trkpt><trkpt lat="42.16466" lon="14.5984733"><ele>134.0</ele><time>2026-04-07T10:19:34.83Z</time></trkpt><trkpt lat="42.16471" lon="14.598535"><ele>134.0</ele><time>2026-04-07T10:19:35.83Z</time></trkpt><trkpt lat="42.164755" lon="14.5985983"><ele>134.0</ele><time>2026-04-07T10:19:36.83Z</time></trkpt><trkpt lat="42.1648283" lon="14.5987233"><ele>134.0</ele><time>2026-04-07T10:19:38.83Z</time></trkpt><trkpt lat="42.1648717" lon="14.59879"><ele>134.0</ele><time>2026-04-07T10:19:39.83Z</time></trkpt><trkpt lat="42.1649117" lon="14.5988567"><ele>134.0</ele><time>2026-04-07T10:19:40.83Z</time></trkpt><trkpt lat="42.1649967" lon="14.5989783"><ele>133.6</ele><time>2026-04-07T10:19:42.83Z</time></trkpt><trkpt lat="42.1650417" lon="14.5990383"><ele>133.2</ele><time>2026-04-07T10:19:43.83Z</time></trkpt><trkpt lat="42.1650867" lon="14.5991017"><ele>132.79999999999998</ele><time>2026-04-07T10:19:44.83Z</time></trkpt><trkpt lat="42.16516" lon="14.5992317"><ele>132.4</ele><time>2026-04-07T10:19:46.83Z</time></trkpt><trkpt lat="42.1652033" lon="14.599365"><ele>132.0</ele><time>2026-04-07T10:19:48.83Z</time></trkpt><trkpt lat="42.16523" lon="14.5994933"><ele>132.0</ele><time>2026-04-07T10:19:50.83Z</time></trkpt><trkpt lat="42.1652617" lon="14.5996133"><ele>132.0</ele><time>2026-04-07T10:19:52.83Z</time></trkpt><trkpt lat="42.1652967" lon="14.5997533"><ele>132.0</ele><time>2026-04-07T10:19:54.83Z</time></trkpt><trkpt lat="42.1653433" lon="14.5998817"><ele>132.0</ele><time>2026-04-07T10:19:56.83Z</time></trkpt><trkpt lat="42.16541" lon="14.5999983"><ele>132.0</ele><time>2026-04-07T10:19:58.83Z</time></trkpt><trkpt lat="42.165475" lon="14.6001117"><ele>132.0</ele><time>2026-04-07T10:20:00.83Z</time></trkpt><trkpt lat="42.1655517" lon="14.600215"><ele>132.0</ele><time>2026-04-07T10:20:02.83Z</time></trkpt><trkpt lat="42.16563" lon="14.600315"><ele>132.0</ele><time>2026-04-07T10:20:04.831Z</time></trkpt><trkpt lat="42.1657067" lon="14.6004167"><ele>132.0</ele><time>2026-04-07T10:20:06.83Z</time></trkpt><trkpt lat="42.1658017" lon="14.6005083"><ele>132.0</ele><time>2026-04-07T10:20:08.83Z</time></trkpt><trkpt lat="42.1658917" lon="14.6006033"><ele>131.6</ele><time>2026-04-07T10:20:10.83Z</time></trkpt><trkpt lat="42.1659733" lon="14.6006967"><ele>131.2</ele><time>2026-04-07T10:20:12.831Z</time></trkpt><trkpt lat="42.1660583" lon="14.6007917"><ele>130.8</ele><time>2026-04-07T10:20:14.83Z</time></trkpt><trkpt lat="42.166135" lon="14.6008717"><ele>130.4</ele><time>2026-04-07T10:20:16.83Z</time></trkpt><trkpt lat="42.16622" lon="14.6009533"><ele>130.0</ele><time>2026-04-07T10:20:18.83Z</time></trkpt><trkpt lat="42.1663083" lon="14.6010567"><ele>130.0</ele><time>2026-04-07T10:20:20.83Z</time></trkpt><trkpt lat="42.1663917" lon="14.60113"><ele>130.0</ele><time>2026-04-07T10:20:22.83Z</time></trkpt><trkpt lat="42.166475" lon="14.6012133"><ele>130.0</ele><time>2026-04-07T10:20:24.83Z</time></trkpt><trkpt lat="42.1665617" lon="14.60132"><ele>130.0</ele><time>2026-04-07T10:20:26.83Z</time></trkpt><trkpt lat="42.1666483" lon="14.60142"><ele>130.0</ele><time>2026-04-07T10:20:28.83Z</time></trkpt><trkpt lat="42.1667333" lon="14.601535"><ele>129.4</ele><time>2026-04-07T10:20:30.83Z</time></trkpt><trkpt lat="42.1668217" lon="14.6016367"><ele>128.8</ele><time>2026-04-07T10:20:32.83Z</time></trkpt><trkpt lat="42.16691" lon="14.6017283"><ele>128.2</ele><time>2026-04-07T10:20:34.83Z</time></trkpt><trkpt lat="42.1670017" lon="14.601835"><ele>127.6</ele><time>2026-04-07T10:20:36.83Z</time></trkpt><trkpt lat="42.1670467" lon="14.6019"><ele>127.0</ele><time>2026-04-07T10:20:37.83Z</time></trkpt><trkpt lat="42.16709" lon="14.6019617"><ele>126.75</ele><time>2026-04-07T10:20:38.83Z</time></trkpt><trkpt lat="42.167175" lon="14.6020783"><ele>126.5</ele><time>2026-04-07T10:20:40.83Z</time></trkpt><trkpt lat="42.16726" lon="14.6021917"><ele>126.25</ele><time>2026-04-07T10:20:42.83Z</time></trkpt><trkpt lat="42.1673367" lon="14.6023117"><ele>126.0</ele><time>2026-04-07T10:20:44.83Z</time></trkpt><trkpt lat="42.1674233" lon="14.602405"><ele>125.8</ele><time>2026-04-07T10:20:46.83Z</time></trkpt><trkpt lat="42.1675117" lon="14.6024967"><ele>125.6</ele><time>2026-04-07T10:20:48.83Z</time></trkpt><trkpt lat="42.1675867" lon="14.602595"><ele>125.4</ele><time>2026-04-07T10:20:50.83Z</time></trkpt><trkpt lat="42.167665" lon="14.602705"><ele>125.2</ele><time>2026-04-07T10:20:52.83Z</time></trkpt><trkpt lat="42.16771" lon="14.602765"><ele>125.0</ele><time>2026-04-07T10:20:53.831Z</time></trkpt><trkpt lat="42.1678" lon="14.6028667"><ele>125.0</ele><time>2026-04-07T10:20:55.83Z</time></trkpt><trkpt lat="42.1678917" lon="14.60296"><ele>125.0</ele><time>2026-04-07T10:20:57.83Z</time></trkpt><trkpt lat="42.16798" lon="14.6030583"><ele>125.0</ele><time>2026-04-07T10:20:59.83Z</time></trkpt><trkpt lat="42.16807" lon="14.6031733"><ele>125.0</ele><time>2026-04-07T10:21:01.83Z</time></trkpt><trkpt lat="42.16815" lon="14.6032933"><ele>124.25</ele><time>2026-04-07T10:21:03.83Z</time></trkpt><trkpt lat="42.168225" lon="14.60341"><ele>123.5</ele><time>2026-04-07T10:21:05.83Z</time></trkpt><trkpt lat="42.1682917" lon="14.60354"><ele>122.75</ele><time>2026-04-07T10:21:07.83Z</time></trkpt><trkpt lat="42.1683467" lon="14.60368"><ele>122.0</ele><time>2026-04-07T10:21:09.83Z</time></trkpt><trkpt lat="42.16841" lon="14.6038083"><ele>122.0</ele><time>2026-04-07T10:21:11.83Z</time></trkpt><trkpt lat="42.1684867" lon="14.6039317"><ele>121.99999999999999</ele><time>2026-04-07T10:21:13.83Z</time></trkpt><trkpt lat="42.16854" lon="14.603985"><ele>121.99999999999999</ele><time>2026-04-07T10:21:14.83Z</time></trkpt><trkpt lat="42.1686267" lon="14.604075"><ele>122.0</ele><time>2026-04-07T10:21:16.831Z</time></trkpt><trkpt lat="42.168705" lon="14.6041833"><ele>122.0</ele><time>2026-04-07T10:21:18.831Z</time></trkpt><trkpt lat="42.1687767" lon="14.6042883"><ele>122.0</ele><time>2026-04-07T10:21:20.831Z</time></trkpt><trkpt lat="42.1688517" lon="14.604395"><ele>122.0</ele><time>2026-04-07T10:21:22.83Z</time></trkpt><trkpt lat="42.1689267" lon="14.60451"><ele>122.0</ele><time>2026-04-07T10:21:24.83Z</time></trkpt><trkpt lat="42.1690117" lon="14.6046333"><ele>122.0</ele><time>2026-04-07T10:21:26.831Z</time></trkpt><trkpt lat="42.16909" lon="14.604745"><ele>121.25</ele><time>2026-04-07T10:21:28.83Z</time></trkpt><trkpt lat="42.1691683" lon="14.60486"><ele>120.5</ele><time>2026-04-07T10:21:30.83Z</time></trkpt><trkpt lat="42.169235" lon="14.6049717"><ele>119.75</ele><time>2026-04-07T10:21:32.83Z</time></trkpt><trkpt lat="42.1693117" lon="14.6050933"><ele>119.0</ele><time>2026-04-07T10:21:34.83Z</time></trkpt><trkpt lat="42.1694017" lon="14.605205"><ele>119.0</ele><time>2026-04-07T10:21:36.83Z</time></trkpt><trkpt lat="42.1694467" lon="14.6052667"><ele>119.0</ele><time>2026-04-07T10:21:37.83Z</time></trkpt><trkpt lat="42.1695383" lon="14.60537"><ele>119.0</ele><time>2026-04-07T10:21:39.831Z</time></trkpt><trkpt lat="42.169625" lon="14.605475"><ele>119.0</ele><time>2026-04-07T10:21:41.831Z</time></trkpt><trkpt lat="42.1697133" lon="14.605575"><ele>119.0</ele><time>2026-04-07T10:21:43.83Z</time></trkpt><trkpt lat="42.1697983" lon="14.6056717"><ele>118.5</ele><time>2026-04-07T10:21:45.83Z</time></trkpt><trkpt lat="42.169895" lon="14.6057667"><ele>118.0</ele><time>2026-04-07T10:21:47.83Z</time></trkpt><trkpt lat="42.1699933" lon="14.6058567"><ele>117.5</ele><time>2026-04-07T10:21:49.83Z</time></trkpt><trkpt lat="42.1700733" lon="14.6059717"><ele>117.0</ele><time>2026-04-07T10:21:51.83Z</time></trkpt><trkpt lat="42.1701533" lon="14.6060717"><ele>117.0</ele><time>2026-04-07T10:21:53.831Z</time></trkpt><trkpt lat="42.170235" lon="14.60617"><ele>116.99999999999999</ele><time>2026-04-07T10:21:55.83Z</time></trkpt><trkpt lat="42.1703217" lon="14.606265"><ele>116.99999999999999</ele><time>2026-04-07T10:21:57.83Z</time></trkpt><trkpt lat="42.1704083" lon="14.6063617"><ele>117.0</ele><time>2026-04-07T10:21:59.831Z</time></trkpt><trkpt lat="42.170485" lon="14.6064683"><ele>117.0</ele><time>2026-04-07T10:22:01.83Z</time></trkpt><trkpt lat="42.1705617" lon="14.6065733"><ele>117.0</ele><time>2026-04-07T10:22:03.83Z</time></trkpt><trkpt lat="42.1706317" lon="14.6066767"><ele>116.99999999999999</ele><time>2026-04-07T10:22:05.83Z</time></trkpt><trkpt lat="42.1707017" lon="14.6067983"><ele>116.99999999999999</ele><time>2026-04-07T10:22:07.83Z</time></trkpt><trkpt lat="42.1707883" lon="14.6068967"><ele>117.0</ele><time>2026-04-07T10:22:09.83Z</time></trkpt><trkpt lat="42.1708683" lon="14.606995"><ele>117.0</ele><time>2026-04-07T10:22:11.831Z</time></trkpt><trkpt lat="42.1709417" lon="14.607095"><ele>116.6</ele><time>2026-04-07T10:22:13.83Z</time></trkpt><trkpt lat="42.1710117" lon="14.6071883"><ele>116.19999999999999</ele><time>2026-04-07T10:22:15.831Z</time></trkpt><trkpt lat="42.1710833" lon="14.607285"><ele>115.8</ele><time>2026-04-07T10:22:17.831Z</time></trkpt><trkpt lat="42.171155" lon="14.607385"><ele>115.4</ele><time>2026-04-07T10:22:19.83Z</time></trkpt><trkpt lat="42.1712233" lon="14.6074783"><ele>115.0</ele><time>2026-04-07T10:22:21.83Z</time></trkpt><trkpt lat="42.1712967" lon="14.60758"><ele>115.0</ele><time>2026-04-07T10:22:23.83Z</time></trkpt><trkpt lat="42.1713683" lon="14.6076833"><ele>115.0</ele><time>2026-04-07T10:22:25.83Z</time></trkpt><trkpt lat="42.17144" lon="14.60778"><ele>115.0</ele><time>2026-04-07T10:22:27.83Z</time></trkpt><trkpt lat="42.1715033" lon="14.607885"><ele>115.0</ele><time>2026-04-07T10:22:29.83Z</time></trkpt><trkpt lat="42.171565" lon="14.6079783"><ele>115.0</ele><time>2026-04-07T10:22:31.83Z</time></trkpt><trkpt lat="42.1716233" lon="14.6080667"><ele>114.50000000000001</ele><time>2026-04-07T10:22:33.83Z</time></trkpt><trkpt lat="42.1716717" lon="14.6081383"><ele>114.0</ele><time>2026-04-07T10:22:35.83Z</time></trkpt><trkpt lat="42.171715" lon="14.6082"><ele>113.5</ele><time>2026-04-07T10:22:37.83Z</time></trkpt><trkpt lat="42.1717483" lon="14.608285"><ele>113.0</ele><time>2026-04-07T10:25:27.834Z</time></trkpt><trkpt lat="42.17182" lon="14.6083783"><ele>112.50000000000001</ele><time>2026-04-07T10:25:59.834Z</time></trkpt><trkpt lat="42.1718917" lon="14.6084617"><ele>112.0</ele><time>2026-04-07T10:26:02.834Z</time></trkpt><trkpt lat="42.1719483" lon="14.6085233"><ele>112.00000000000001</ele><time>2026-04-07T10:26:04.834Z</time></trkpt><trkpt lat="42.1720117" lon="14.6085917"><ele>112.0</ele><time>2026-04-07T10:26:06.835Z</time></trkpt><trkpt lat="42.172075" lon="14.608645"><ele>112.0</ele><time>2026-04-07T10:26:08.834Z</time></trkpt><trkpt lat="42.1721433" lon="14.60871"><ele>112.0</ele><time>2026-04-07T10:26:10.834Z</time></trkpt><trkpt lat="42.17221" lon="14.6087867"><ele>112.00000000000001</ele><time>2026-04-07T10:26:12.834Z</time></trkpt><trkpt lat="42.1722733" lon="14.60887"><ele>112.0</ele><time>2026-04-07T10:26:14.834Z</time></trkpt><trkpt lat="42.1723417" lon="14.6089617"><ele>111.19999999999999</ele><time>2026-04-07T10:26:16.834Z</time></trkpt><trkpt lat="42.1724083" lon="14.6090617"><ele>110.39999999999999</ele><time>2026-04-07T10:26:18.834Z</time></trkpt><trkpt lat="42.172485" lon="14.609165"><ele>109.60000000000001</ele><time>2026-04-07T10:26:20.834Z</time></trkpt><trkpt lat="42.172565" lon="14.6092667"><ele>108.80000000000001</ele><time>2026-04-07T10:26:22.834Z</time></trkpt><trkpt lat="42.1726383" lon="14.60937"><ele>108.0</ele><time>2026-04-07T10:26:24.834Z</time></trkpt><trkpt lat="42.17272" lon="14.6094733"><ele>106.0</ele><time>2026-04-07T10:26:26.834Z</time></trkpt><trkpt lat="42.1728117" lon="14.6095467"><ele>104.0</ele><time>2026-04-07T10:26:28.834Z</time></trkpt><trkpt lat="42.172925" lon="14.60961"><ele>102.0</ele><time>2026-04-07T10:26:30.834Z</time></trkpt><trkpt lat="42.1730433" lon="14.6096683"><ele>100.0</ele><time>2026-04-07T10:26:32.834Z</time></trkpt><trkpt lat="42.17314" lon="14.6097583"><ele>99.8</ele><time>2026-04-07T10:26:34.834Z</time></trkpt><trkpt lat="42.1732267" lon="14.6098433"><ele>99.6</ele><time>2026-04-07T10:26:36.834Z</time></trkpt><trkpt lat="42.1733167" lon="14.6099183"><ele>99.4</ele><time>2026-04-07T10:26:38.834Z</time></trkpt><trkpt lat="42.17338" lon="14.609985"><ele>99.2</ele><time>2026-04-07T10:26:40.834Z</time></trkpt><trkpt lat="42.173445" lon="14.61005"><ele>99.0</ele><time>2026-04-07T10:26:42.835Z</time></trkpt><trkpt lat="42.1735417" lon="14.6100617"><ele>99.0</ele><time>2026-04-07T10:26:44.835Z</time></trkpt><trkpt lat="42.1736433" lon="14.6100383"><ele>99.0</ele><time>2026-04-07T10:26:46.834Z</time></trkpt><trkpt lat="42.17374" lon="14.61001"><ele>99.0</ele><time>2026-04-07T10:26:48.834Z</time></trkpt><trkpt lat="42.173825" lon="14.6100083"><ele>99.0</ele><time>2026-04-07T10:26:50.834Z</time></trkpt><trkpt lat="42.1739117" lon="14.6100133"><ele>99.0</ele><time>2026-04-07T10:26:52.834Z</time></trkpt><trkpt lat="42.1740083" lon="14.610025"><ele>97.80000000000001</ele><time>2026-04-07T10:26:54.834Z</time></trkpt><trkpt lat="42.1741117" lon="14.6100467"><ele>96.60000000000001</ele><time>2026-04-07T10:26:56.834Z</time></trkpt><trkpt lat="42.1742167" lon="14.610075"><ele>95.4</ele><time>2026-04-07T10:26:58.834Z</time></trkpt><trkpt lat="42.1743183" lon="14.6101217"><ele>94.2</ele><time>2026-04-07T10:27:00.834Z</time></trkpt><trkpt lat="42.174415" lon="14.6101633"><ele>93.0</ele><time>2026-04-07T10:27:02.834Z</time></trkpt><trkpt lat="42.1745133" lon="14.6102033"><ele>93.0</ele><time>2026-04-07T10:27:04.834Z</time></trkpt><trkpt lat="42.1746217" lon="14.61025"><ele>93.0</ele><time>2026-04-07T10:27:06.834Z</time></trkpt><trkpt lat="42.1747267" lon="14.610275"><ele>93.0</ele><time>2026-04-07T10:27:08.834Z</time></trkpt><trkpt lat="42.1748283" lon="14.6103017"><ele>93.0</ele><time>2026-04-07T10:27:10.834Z</time></trkpt><trkpt lat="42.17493" lon="14.6103233"><ele>93.0</ele><time>2026-04-07T10:27:12.834Z</time></trkpt><trkpt lat="42.1750267" lon="14.610345"><ele>89.4</ele><time>2026-04-07T10:27:14.834Z</time></trkpt><trkpt lat="42.1751183" lon="14.6103667"><ele>85.80000000000001</ele><time>2026-04-07T10:27:16.834Z</time></trkpt><trkpt lat="42.1752217" lon="14.6103933"><ele>82.2</ele><time>2026-04-07T10:27:18.834Z</time></trkpt><trkpt lat="42.1753217" lon="14.6104183"><ele>78.6</ele><time>2026-04-07T10:27:20.834Z</time></trkpt><trkpt lat="42.17542" lon="14.6104367"><ele>75.0</ele><time>2026-04-07T10:27:22.834Z</time></trkpt><trkpt lat="42.1755083" lon="14.6104483"><ele>75.0</ele><time>2026-04-07T10:27:24.835Z</time></trkpt><trkpt lat="42.175595" lon="14.6104583"><ele>75.0</ele><time>2026-04-07T10:27:26.834Z</time></trkpt><trkpt lat="42.1756683" lon="14.610455"><ele>75.0</ele><time>2026-04-07T10:27:28.834Z</time></trkpt><trkpt lat="42.1757433" lon="14.6104717"><ele>75.0</ele><time>2026-04-07T10:27:30.834Z</time></trkpt><trkpt lat="42.1758233" lon="14.6105117"><ele>75.0</ele><time>2026-04-07T10:27:32.834Z</time></trkpt><trkpt lat="42.1758867" lon="14.6105717"><ele>75.0</ele><time>2026-04-07T10:27:34.834Z</time></trkpt><trkpt lat="42.1759517" lon="14.610645"><ele>73.5</ele><time>2026-04-07T10:27:36.834Z</time></trkpt><trkpt lat="42.1760167" lon="14.610725"><ele>72.0</ele><time>2026-04-07T10:27:38.835Z</time></trkpt><trkpt lat="42.176075" lon="14.6107933"><ele>70.5</ele><time>2026-04-07T10:27:40.834Z</time></trkpt><trkpt lat="42.1761333" lon="14.61085"><ele>69.0</ele><time>2026-04-07T10:27:42.834Z</time></trkpt><trkpt lat="42.1761917" lon="14.610945"><ele>67.5</ele><time>2026-04-07T10:27:45.834Z</time></trkpt><trkpt lat="42.1762417" lon="14.611"><ele>66.0</ele><time>2026-04-07T10:27:47.834Z</time></trkpt><trkpt lat="42.17631" lon="14.61109"><ele>66.0</ele><time>2026-04-07T10:27:50.835Z</time></trkpt><trkpt lat="42.1763567" lon="14.611155"><ele>66.0</ele><time>2026-04-07T10:27:52.835Z</time></trkpt><trkpt lat="42.1764133" lon="14.6112267"><ele>66.0</ele><time>2026-04-07T10:27:54.834Z</time></trkpt><trkpt lat="42.176465" lon="14.6112917"><ele>66.0</ele><time>2026-04-07T10:27:56.834Z</time></trkpt><trkpt lat="42.1765217" lon="14.61135"><ele>66.0</ele><time>2026-04-07T10:27:58.834Z</time></trkpt><trkpt lat="42.1765867" lon="14.61141"><ele>66.0</ele><time>2026-04-07T10:28:00.835Z</time></trkpt><trkpt lat="42.17666" lon="14.6114533"><ele>66.0</ele><time>2026-04-07T10:28:02.834Z</time></trkpt><trkpt lat="42.17673" lon="14.6114633"><ele>64.83333333333333</ele><time>2026-04-07T10:28:04.835Z</time></trkpt><trkpt lat="42.1768067" lon="14.611445"><ele>63.66666666666667</ele><time>2026-04-07T10:28:06.834Z</time></trkpt><trkpt lat="42.176895" lon="14.61141"><ele>62.5</ele><time>2026-04-07T10:28:08.834Z</time></trkpt><trkpt lat="42.1769867" lon="14.6113783"><ele>61.333333333333336</ele><time>2026-04-07T10:28:10.834Z</time></trkpt><trkpt lat="42.177075" lon="14.6113633"><ele>60.16666666666667</ele><time>2026-04-07T10:28:12.834Z</time></trkpt><trkpt lat="42.1771567" lon="14.6113517"><ele>59.0</ele><time>2026-04-07T10:28:14.835Z</time></trkpt><trkpt lat="42.1772267" lon="14.611345"><ele>59.00000000000001</ele><time>2026-04-07T10:28:16.835Z</time></trkpt><trkpt lat="42.1773133" lon="14.6113283"><ele>59.0</ele><time>2026-04-07T10:28:19.834Z</time></trkpt><trkpt lat="42.1774017" lon="14.6113083"><ele>59.0</ele><time>2026-04-07T10:28:22.834Z</time></trkpt><trkpt lat="42.1774717" lon="14.6112967"><ele>59.0</ele><time>2026-04-07T10:28:24.834Z</time></trkpt><trkpt lat="42.177545" lon="14.6112917"><ele>59.00000000000001</ele><time>2026-04-07T10:28:26.834Z</time></trkpt><trkpt lat="42.1776183" lon="14.6112833"><ele>59.0</ele><time>2026-04-07T10:28:28.834Z</time></trkpt><trkpt lat="42.1776983" lon="14.6112683"><ele>58.57142857142857</ele><time>2026-04-07T10:28:30.834Z</time></trkpt><trkpt lat="42.17778" lon="14.6112583"><ele>58.142857142857146</ele><time>2026-04-07T10:28:32.834Z</time></trkpt><trkpt lat="42.1778567" lon="14.61125"><ele>57.714285714285715</ele><time>2026-04-07T10:28:34.834Z</time></trkpt><trkpt lat="42.1779283" lon="14.611245"><ele>57.285714285714285</ele><time>2026-04-07T10:28:36.834Z</time></trkpt><trkpt lat="42.177995" lon="14.6112483"><ele>56.85714285714286</ele><time>2026-04-07T10:28:38.834Z</time></trkpt><trkpt lat="42.17806" lon="14.6112767"><ele>56.42857142857143</ele><time>2026-04-07T10:28:40.834Z</time></trkpt><trkpt lat="42.1781217" lon="14.6113333"><ele>56.0</ele><time>2026-04-07T10:28:42.834Z</time></trkpt><trkpt lat="42.1781883" lon="14.611385"><ele>55.833333333333336</ele><time>2026-04-07T10:28:44.834Z</time></trkpt><trkpt lat="42.1782667" lon="14.61144"><ele>55.66666666666667</ele><time>2026-04-07T10:28:46.834Z</time></trkpt><trkpt lat="42.17833" lon="14.6114733"><ele>55.5</ele><time>2026-04-07T10:28:48.834Z</time></trkpt><trkpt lat="42.178395" lon="14.61152"><ele>55.33333333333333</ele><time>2026-04-07T10:29:45.834Z</time></trkpt><trkpt lat="42.1784783" lon="14.6115583"><ele>55.166666666666664</ele><time>2026-04-07T10:29:48.834Z</time></trkpt><trkpt lat="42.17855" lon="14.61157"><ele>55.0</ele><time>2026-04-07T10:29:50.834Z</time></trkpt><trkpt lat="42.1786183" lon="14.61158"><ele>54.99999999999999</ele><time>2026-04-07T10:29:52.834Z</time></trkpt><trkpt lat="42.1786833" lon="14.6115917"><ele>55.0</ele><time>2026-04-07T10:29:54.834Z</time></trkpt><trkpt lat="42.1787483" lon="14.6115983"><ele>55.0</ele><time>2026-04-07T10:29:56.834Z</time></trkpt><trkpt lat="42.1788233" lon="14.61161"><ele>55.0</ele><time>2026-04-07T10:29:59.834Z</time></trkpt><trkpt lat="42.1789117" lon="14.6116217"><ele>55.0</ele><time>2026-04-07T10:30:02.834Z</time></trkpt><trkpt lat="42.1789817" lon="14.6116283"><ele>54.99999999999999</ele><time>2026-04-07T10:30:04.834Z</time></trkpt><trkpt lat="42.1790533" lon="14.6116383"><ele>55.0</ele><time>2026-04-07T10:30:06.835Z</time></trkpt><trkpt lat="42.179125" lon="14.6116483"><ele>54.857142857142854</ele><time>2026-04-07T10:30:08.834Z</time></trkpt><trkpt lat="42.179195" lon="14.6116517"><ele>54.714285714285715</ele><time>2026-04-07T10:30:10.833Z</time></trkpt><trkpt lat="42.179265" lon="14.6116433"><ele>54.57142857142857</ele><time>2026-04-07T10:30:12.833Z</time></trkpt><trkpt lat="42.17933" lon="14.611635"><ele>54.42857142857143</ele><time>2026-04-07T10:30:14.833Z</time></trkpt><trkpt lat="42.179425" lon="14.6116217"><ele>54.285714285714285</ele><time>2026-04-07T10:30:17.833Z</time></trkpt><trkpt lat="42.179495" lon="14.611615"><ele>54.14285714285714</ele><time>2026-04-07T10:30:19.833Z</time></trkpt><trkpt lat="42.1795667" lon="14.6116083"><ele>54.0</ele><time>2026-04-07T10:30:21.834Z</time></trkpt><trkpt lat="42.17964" lon="14.6116033"><ele>54.0</ele><time>2026-04-07T10:30:23.834Z</time></trkpt><trkpt lat="42.179715" lon="14.611605"><ele>54.0</ele><time>2026-04-07T10:30:25.833Z</time></trkpt><trkpt lat="42.17979" lon="14.61162"><ele>54.0</ele><time>2026-04-07T10:30:27.833Z</time></trkpt><trkpt lat="42.1798633" lon="14.6116367"><ele>54.0</ele><time>2026-04-07T10:30:29.833Z</time></trkpt><trkpt lat="42.179945" lon="14.6116533"><ele>54.0</ele><time>2026-04-07T10:30:31.833Z</time></trkpt><trkpt lat="42.1800367" lon="14.6116383"><ele>54.0</ele><time>2026-04-07T10:30:33.833Z</time></trkpt><trkpt lat="42.1801283" lon="14.6116183"><ele>53.57142857142857</ele><time>2026-04-07T10:30:35.833Z</time></trkpt><trkpt lat="42.1802067" lon="14.61159"><ele>53.14285714285714</ele><time>2026-04-07T10:30:37.833Z</time></trkpt><trkpt lat="42.1802817" lon="14.61155"><ele>52.714285714285715</ele><time>2026-04-07T10:30:39.833Z</time></trkpt><trkpt lat="42.180355" lon="14.611505"><ele>52.285714285714285</ele><time>2026-04-07T10:30:41.834Z</time></trkpt><trkpt lat="42.18042" lon="14.61146"><ele>51.85714285714286</ele><time>2026-04-07T10:30:43.833Z</time></trkpt><trkpt lat="42.180475" lon="14.611405"><ele>51.42857142857143</ele><time>2026-04-07T10:30:46.833Z</time></trkpt><trkpt lat="42.1805317" lon="14.6113633"><ele>51.0</ele><time>2026-04-07T10:30:49.833Z</time></trkpt><trkpt lat="42.1806117" lon="14.6113033"><ele>51.0</ele><time>2026-04-07T10:30:52.833Z</time></trkpt><trkpt lat="42.1806767" lon="14.6112517"><ele>51.0</ele><time>2026-04-07T10:30:54.833Z</time></trkpt><trkpt lat="42.1807417" lon="14.6112083"><ele>51.0</ele><time>2026-04-07T10:30:56.833Z</time></trkpt><trkpt lat="42.180805" lon="14.6111783"><ele>51.0</ele><time>2026-04-07T10:30:58.834Z</time></trkpt><trkpt lat="42.1808683" lon="14.6111367"><ele>51.0</ele><time>2026-04-07T10:31:00.833Z</time></trkpt><trkpt lat="42.18093" lon="14.6110883"><ele>51.0</ele><time>2026-04-07T10:31:02.833Z</time></trkpt><trkpt lat="42.181005" lon="14.6110333"><ele>51.0</ele><time>2026-04-07T10:31:04.833Z</time></trkpt><trkpt lat="42.1810767" lon="14.61098"><ele>51.0</ele><time>2026-04-07T10:31:06.833Z</time></trkpt><trkpt lat="42.181145" lon="14.610935"><ele>51.0</ele><time>2026-04-07T10:31:08.833Z</time></trkpt><trkpt lat="42.1812183" lon="14.6109183"><ele>51.0</ele><time>2026-04-07T10:31:10.833Z</time></trkpt><trkpt lat="42.1812867" lon="14.610905"><ele>51.0</ele><time>2026-04-07T10:31:12.833Z</time></trkpt><trkpt lat="42.1813567" lon="14.6108783"><ele>51.0</ele><time>2026-04-07T10:31:14.833Z</time></trkpt><trkpt lat="42.1814283" lon="14.6108533"><ele>51.0</ele><time>2026-04-07T10:31:16.833Z</time></trkpt><trkpt lat="42.1814983" lon="14.610825"><ele>51.0</ele><time>2026-04-07T10:31:18.833Z</time></trkpt><trkpt lat="42.1815617" lon="14.610795"><ele>51.0</ele><time>2026-04-07T10:31:20.833Z</time></trkpt><trkpt lat="42.1816367" lon="14.6107633"><ele>51.0</ele><time>2026-04-07T10:31:22.834Z</time></trkpt><trkpt lat="42.1817167" lon="14.6107467"><ele>51.0</ele><time>2026-04-07T10:31:24.833Z</time></trkpt><trkpt lat="42.1818067" lon="14.6107333"><ele>51.0</ele><time>2026-04-07T10:31:26.833Z</time></trkpt><trkpt lat="42.181905" lon="14.6107167"><ele>51.0</ele><time>2026-04-07T10:31:28.834Z</time></trkpt><trkpt lat="42.1820083" lon="14.6107117"><ele>51.0</ele><time>2026-04-07T10:31:30.833Z</time></trkpt><trkpt lat="42.1821117" lon="14.6107017"><ele>51.0</ele><time>2026-04-07T10:31:32.833Z</time></trkpt><trkpt lat="42.1822233" lon="14.6106967"><ele>51.0</ele><time>2026-04-07T10:31:34.833Z</time></trkpt><trkpt lat="42.18234" lon="14.6106967"><ele>51.0</ele><time>2026-04-07T10:31:36.833Z</time></trkpt><trkpt lat="42.182455" lon="14.610705"><ele>51.0</ele><time>2026-04-07T10:31:38.833Z</time></trkpt><trkpt lat="42.18257" lon="14.61072"><ele>50.599999999999994</ele><time>2026-04-07T10:31:40.833Z</time></trkpt><trkpt lat="42.1826833" lon="14.610725"><ele>50.2</ele><time>2026-04-07T10:31:42.833Z</time></trkpt><trkpt lat="42.1827917" lon="14.6107283"><ele>49.8</ele><time>2026-04-07T10:31:44.834Z</time></trkpt><trkpt lat="42.1829" lon="14.61072"><ele>49.400000000000006</ele><time>2026-04-07T10:31:46.833Z</time></trkpt><trkpt lat="42.1829983" lon="14.6107083"><ele>49.0</ele><time>2026-04-07T10:31:48.833Z</time></trkpt><trkpt lat="42.1830817" lon="14.6107183"><ele>49.0</ele><time>2026-04-07T10:31:50.833Z</time></trkpt><trkpt lat="42.18318" lon="14.61075"><ele>49.0</ele><time>2026-04-07T10:31:52.833Z</time></trkpt><trkpt lat="42.1832817" lon="14.610785"><ele>49.0</ele><time>2026-04-07T10:31:54.833Z</time></trkpt><trkpt lat="42.1833767" lon="14.6108133"><ele>49.0</ele><time>2026-04-07T10:31:56.834Z</time></trkpt><trkpt lat="42.1834683" lon="14.61082"><ele>49.0</ele><time>2026-04-07T10:31:58.833Z</time></trkpt><trkpt lat="42.183545" lon="14.61081"><ele>48.33333333333333</ele><time>2026-04-07T10:32:00.833Z</time></trkpt><trkpt lat="42.1836167" lon="14.6107967"><ele>47.666666666666664</ele><time>2026-04-07T10:32:02.833Z</time></trkpt><trkpt lat="42.1837083" lon="14.610775"><ele>47.0</ele><time>2026-04-07T10:32:05.833Z</time></trkpt><trkpt lat="42.1837883" lon="14.610765"><ele>46.33333333333333</ele><time>2026-04-07T10:32:07.833Z</time></trkpt><trkpt lat="42.1838767" lon="14.6107433"><ele>45.666666666666664</ele><time>2026-04-07T10:32:09.834Z</time></trkpt><trkpt lat="42.1839733" lon="14.6107217"><ele>45.0</ele><time>2026-04-07T10:32:11.834Z</time></trkpt><trkpt lat="42.1840683" lon="14.6107033"><ele>44.666666666666664</ele><time>2026-04-07T10:32:13.833Z</time></trkpt><trkpt lat="42.1841367" lon="14.6106817"><ele>44.333333333333336</ele><time>2026-04-07T10:32:15.834Z</time></trkpt><trkpt lat="42.1841983" lon="14.6106567"><ele>44.0</ele><time>2026-04-07T10:32:19.833Z</time></trkpt><trkpt lat="42.1842633" lon="14.610655"><ele>43.66666666666667</ele><time>2026-04-07T10:32:24.833Z</time></trkpt><trkpt lat="42.18438" lon="14.610655"><ele>43.333333333333336</ele><time>2026-04-07T10:33:33.833Z</time></trkpt><trkpt lat="42.1843183" lon="14.6106083"><ele>43.0</ele><time>2026-04-07T10:33:38.833Z</time></trkpt><trkpt lat="42.184245" lon="14.6106167"><ele>43.00000000000001</ele><time>2026-04-07T10:33:45.834Z</time></trkpt><trkpt lat="42.1841717" lon="14.61065"><ele>43.0</ele><time>2026-04-07T10:33:50.833Z</time></trkpt><trkpt lat="42.1841117" lon="14.6106783"><ele>43.0</ele><time>2026-04-07T10:33:53.833Z</time></trkpt><trkpt lat="42.184035" lon="14.6107033"><ele>43.0</ele><time>2026-04-07T10:33:56.833Z</time></trkpt><trkpt lat="42.1839683" lon="14.6107217"><ele>43.0</ele><time>2026-04-07T10:33:59.833Z</time></trkpt><trkpt lat="42.1839033" lon="14.6107367"><ele>43.00000000000001</ele><time>2026-04-07T10:34:02.833Z</time></trkpt><trkpt lat="42.1838217" lon="14.610745"><ele>43.0</ele><time>2026-04-07T10:34:06.833Z</time></trkpt><trkpt lat="42.1837433" lon="14.61076"><ele>43.4</ele><time>2026-04-07T10:34:09.833Z</time></trkpt><trkpt lat="42.1836517" lon="14.61078"><ele>43.8</ele><time>2026-04-07T10:34:12.833Z</time></trkpt><trkpt lat="42.1835683" lon="14.6107933"><ele>44.2</ele><time>2026-04-07T10:34:14.833Z</time></trkpt><trkpt lat="42.183465" lon="14.610795"><ele>44.6</ele><time>2026-04-07T10:34:16.833Z</time></trkpt><trkpt lat="42.1833633" lon="14.61077"><ele>45.0</ele><time>2026-04-07T10:34:18.833Z</time></trkpt><trkpt lat="42.1832883" lon="14.6107417"><ele>45.0</ele><time>2026-04-07T10:34:20.833Z</time></trkpt><trkpt lat="42.1832117" lon="14.6107333"><ele>45.0</ele><time>2026-04-07T10:34:22.833Z</time></trkpt><trkpt lat="42.183125" lon="14.6107317"><ele>45.0</ele><time>2026-04-07T10:34:25.833Z</time></trkpt><trkpt lat="42.1830433" lon="14.6107367"><ele>45.0</ele><time>2026-04-07T10:34:28.833Z</time></trkpt><trkpt lat="42.1829567" lon="14.61074"><ele>45.0</ele><time>2026-04-07T10:34:31.834Z</time></trkpt><trkpt lat="42.18288" lon="14.6107383"><ele>45.0</ele><time>2026-04-07T10:34:34.833Z</time></trkpt><trkpt lat="42.1828117" lon="14.6107367"><ele>45.666666666666664</ele><time>2026-04-07T10:34:37.833Z</time></trkpt><trkpt lat="42.18274" lon="14.610735"><ele>46.33333333333333</ele><time>2026-04-07T10:34:40.833Z</time></trkpt><trkpt lat="42.1826583" lon="14.6107217"><ele>47.0</ele><time>2026-04-07T10:34:45.833Z</time></trkpt><trkpt lat="42.1825833" lon="14.6106967"><ele>47.666666666666664</ele><time>2026-04-07T10:34:49.833Z</time></trkpt><trkpt lat="42.1825183" lon="14.6106983"><ele>48.33333333333333</ele><time>2026-04-07T10:34:52.833Z</time></trkpt><trkpt lat="42.1824483" lon="14.6106983"><ele>49.0</ele><time>2026-04-07T10:34:55.833Z</time></trkpt><trkpt lat="42.182365" lon="14.610705"><ele>49.33333333333333</ele><time>2026-04-07T10:34:58.833Z</time></trkpt><trkpt lat="42.1822833" lon="14.6107033"><ele>49.666666666666664</ele><time>2026-04-07T10:35:01.834Z</time></trkpt><trkpt lat="42.18221" lon="14.610695"><ele>50.0</ele><time>2026-04-07T10:35:04.833Z</time></trkpt><trkpt lat="42.182135" lon="14.6106933"><ele>50.33333333333333</ele><time>2026-04-07T10:35:07.833Z</time></trkpt><trkpt lat="42.1820683" lon="14.61069"><ele>50.666666666666664</ele><time>2026-04-07T10:35:10.833Z</time></trkpt><trkpt lat="42.181985" lon="14.6106933"><ele>51.0</ele><time>2026-04-07T10:35:14.834Z</time></trkpt><trkpt lat="42.1819017" lon="14.6107033"><ele>51.0</ele><time>2026-04-07T10:35:18.833Z</time></trkpt><trkpt lat="42.1818317" lon="14.6107167"><ele>51.0</ele><time>2026-04-07T10:35:21.834Z</time></trkpt><trkpt lat="42.1817533" lon="14.610745"><ele>51.0</ele><time>2026-04-07T10:35:25.833Z</time></trkpt><trkpt lat="42.1816733" lon="14.61075"><ele>51.0</ele><time>2026-04-07T10:35:29.833Z</time></trkpt><trkpt lat="42.1816067" lon="14.610755"><ele>51.0</ele><time>2026-04-07T10:35:32.833Z</time></trkpt><trkpt lat="42.1815317" lon="14.610775"><ele>51.0</ele><time>2026-04-07T10:35:36.833Z</time></trkpt><trkpt lat="42.1814667" lon="14.6108083"><ele>51.0</ele><time>2026-04-07T10:35:39.833Z</time></trkpt><trkpt lat="42.1813817" lon="14.6108633"><ele>51.85714285714286</ele><time>2026-04-07T10:35:42.833Z</time></trkpt><trkpt lat="42.1813133" lon="14.6108917"><ele>52.714285714285715</ele><time>2026-04-07T10:35:44.833Z</time></trkpt><trkpt lat="42.1812467" lon="14.6109133"><ele>53.57142857142857</ele><time>2026-04-07T10:35:46.833Z</time></trkpt><trkpt lat="42.1811717" lon="14.6109283"><ele>54.42857142857143</ele><time>2026-04-07T10:35:48.833Z</time></trkpt><trkpt lat="42.1810933" lon="14.6109633"><ele>55.28571428571428</ele><time>2026-04-07T10:35:50.834Z</time></trkpt><trkpt lat="42.1810317" lon="14.6110017"><ele>56.14285714285714</ele><time>2026-04-07T10:35:52.833Z</time></trkpt><trkpt lat="42.1809717" lon="14.61104"><ele>57.0</ele><time>2026-04-07T10:35:54.834Z</time></trkpt><trkpt lat="42.1808883" lon="14.6110933"><ele>57.0</ele><time>2026-04-07T10:35:57.834Z</time></trkpt><trkpt lat="42.1808217" lon="14.61113"><ele>57.0</ele><time>2026-04-07T10:36:00.834Z</time></trkpt><trkpt lat="42.1807433" lon="14.61118"><ele>57.0</ele><time>2026-04-07T10:36:03.834Z</time></trkpt><trkpt lat="42.180675" lon="14.6112217"><ele>57.0</ele><time>2026-04-07T10:36:06.833Z</time></trkpt><trkpt lat="42.1806133" lon="14.6112633"><ele>57.0</ele><time>2026-04-07T10:36:09.833Z</time></trkpt><trkpt lat="42.1805367" lon="14.6113"><ele>57.0</ele><time>2026-04-07T10:36:13.833Z</time></trkpt><trkpt lat="42.1804917" lon="14.61123"><ele>57.285714285714285</ele><time>2026-04-07T10:36:18.834Z</time></trkpt><trkpt lat="42.1804567" lon="14.6111567"><ele>57.57142857142857</ele><time>2026-04-07T10:36:22.833Z</time></trkpt><trkpt lat="42.1804267" lon="14.611065"><ele>57.857142857142854</ele><time>2026-04-07T10:36:27.833Z</time></trkpt><trkpt lat="42.1803983" lon="14.6109817"><ele>58.14285714285714</ele><time>2026-04-07T10:36:30.833Z</time></trkpt><trkpt lat="42.1803717" lon="14.6108783"><ele>58.42857142857143</ele><time>2026-04-07T10:36:34.833Z</time></trkpt><trkpt lat="42.18035" lon="14.6107783"><ele>58.71428571428571</ele><time>2026-04-07T10:36:38.833Z</time></trkpt><trkpt lat="42.180325" lon="14.6106867"><ele>59.0</ele><time>2026-04-07T10:36:42.833Z</time></trkpt><trkpt lat="42.180295" lon="14.6105917"><ele>59.0</ele><time>2026-04-07T10:36:46.833Z</time></trkpt><trkpt lat="42.18027" lon="14.6105033"><ele>59.0</ele><time>2026-04-07T10:36:50.833Z</time></trkpt><trkpt lat="42.18025" lon="14.610415"><ele>59.0</ele><time>2026-04-07T10:36:54.833Z</time></trkpt><trkpt lat="42.1802283" lon="14.6103267"><ele>59.0</ele><time>2026-04-07T10:36:58.834Z</time></trkpt><trkpt lat="42.1802183" lon="14.6102283"><ele>59.0</ele><time>2026-04-07T10:37:02.833Z</time></trkpt><trkpt lat="42.1802067" lon="14.6101417"><ele>59.0</ele><time>2026-04-07T10:37:06.833Z</time></trkpt><trkpt lat="42.1801967" lon="14.6100517"><ele>59.0</ele><time>2026-04-07T10:37:10.833Z</time></trkpt><trkpt lat="42.180185" lon="14.6099483"><ele>61.333333333333336</ele><time>2026-04-07T10:37:14.833Z</time></trkpt><trkpt lat="42.1801367" lon="14.6098917"><ele>63.66666666666667</ele><time>2026-04-07T10:37:18.833Z</time></trkpt><trkpt lat="42.1800667" lon="14.60991"><ele>66.0</ele><time>2026-04-07T10:37:21.833Z</time></trkpt><trkpt lat="42.1799883" lon="14.6099433"><ele>68.33333333333333</ele><time>2026-04-07T10:37:24.833Z</time></trkpt><trkpt lat="42.1799067" lon="14.6099633"><ele>70.66666666666666</ele><time>2026-04-07T10:37:27.834Z</time></trkpt><trkpt lat="42.1798333" lon="14.6099967"><ele>73.0</ele><time>2026-04-07T10:37:30.833Z</time></trkpt><trkpt lat="42.1797517" lon="14.6100317"><ele>73.33333333333333</ele><time>2026-04-07T10:37:33.833Z</time></trkpt><trkpt lat="42.1796767" lon="14.6100867"><ele>73.66666666666666</ele><time>2026-04-07T10:37:36.833Z</time></trkpt><trkpt lat="42.17961" lon="14.610115"><ele>74.0</ele><time>2026-04-07T10:37:39.833Z</time></trkpt><trkpt lat="42.179535" lon="14.6101183"><ele>74.33333333333333</ele><time>2026-04-07T10:37:42.833Z</time></trkpt><trkpt lat="42.179465" lon="14.61012"><ele>74.66666666666667</ele><time>2026-04-07T10:37:45.833Z</time></trkpt><trkpt lat="42.1793883" lon="14.6101333"><ele>75.0</ele><time>2026-04-07T10:37:49.834Z</time></trkpt><trkpt lat="42.1793133" lon="14.61016"><ele>74.99999999999999</ele><time>2026-04-07T10:37:52.833Z</time></trkpt><trkpt lat="42.179235" lon="14.6101833"><ele>75.0</ele><time>2026-04-07T10:38:08.834Z</time></trkpt><trkpt lat="42.1791633" lon="14.6101983"><ele>75.0</ele><time>2026-04-07T10:38:11.834Z</time></trkpt><trkpt lat="42.1790983" lon="14.6101817"><ele>75.0</ele><time>2026-04-07T10:38:14.833Z</time></trkpt><trkpt lat="42.17902" lon="14.6101533"><ele>75.0</ele><time>2026-04-07T10:38:18.834Z</time></trkpt><trkpt lat="42.1789467" lon="14.6101383"><ele>74.99999999999999</ele><time>2026-04-07T10:38:21.833Z</time></trkpt><trkpt lat="42.178875" lon="14.6101233"><ele>75.0</ele><time>2026-04-07T10:38:24.833Z</time></trkpt><trkpt lat="42.178805" lon="14.610105"><ele>74.66666666666667</ele><time>2026-04-07T10:38:27.833Z</time></trkpt><trkpt lat="42.1787383" lon="14.6100967"><ele>74.33333333333333</ele><time>2026-04-07T10:38:30.833Z</time></trkpt><trkpt lat="42.1786617" lon="14.610065"><ele>74.0</ele><time>2026-04-07T10:38:34.833Z</time></trkpt><trkpt lat="42.1786067" lon="14.6099917"><ele>73.66666666666666</ele><time>2026-04-07T10:38:38.834Z</time></trkpt><trkpt lat="42.178565" lon="14.60991"><ele>73.33333333333333</ele><time>2026-04-07T10:38:43.833Z</time></trkpt><trkpt lat="42.1785233" lon="14.6098283"><ele>73.0</ele><time>2026-04-07T10:38:47.833Z</time></trkpt><trkpt lat="42.1784733" lon="14.609745"><ele>73.0</ele><time>2026-04-07T10:38:52.833Z</time></trkpt><trkpt lat="42.17842" lon="14.609675"><ele>73.0</ele><time>2026-04-07T10:38:56.833Z</time></trkpt><trkpt lat="42.1783617" lon="14.6096133"><ele>73.0</ele><time>2026-04-07T10:39:00.833Z</time></trkpt><trkpt lat="42.178305" lon="14.6095717"><ele>73.0</ele><time>2026-04-07T10:39:03.834Z</time></trkpt><trkpt lat="42.1782533" lon="14.6095217"><ele>73.0</ele><time>2026-04-07T10:39:06.833Z</time></trkpt><trkpt lat="42.1781867" lon="14.6094583"><ele>73.0</ele><time>2026-04-07T10:39:10.833Z</time></trkpt><trkpt lat="42.1781167" lon="14.6094083"><ele>73.0</ele><time>2026-04-07T10:39:14.833Z</time></trkpt><trkpt lat="42.17805" lon="14.6093617"><ele>73.57142857142857</ele><time>2026-04-07T10:39:18.833Z</time></trkpt><trkpt lat="42.1779817" lon="14.60932"><ele>74.14285714285714</ele><time>2026-04-07T10:39:22.833Z</time></trkpt><trkpt lat="42.17793" lon="14.609245"><ele>74.71428571428572</ele><time>2026-04-07T10:39:27.833Z</time></trkpt><trkpt lat="42.17795" lon="14.6091517"><ele>75.28571428571428</ele><time>2026-04-07T10:39:32.833Z</time></trkpt><trkpt lat="42.17802" lon="14.6091633"><ele>75.85714285714286</ele><time>2026-04-07T10:39:37.833Z</time></trkpt><trkpt lat="42.1780883" lon="14.6091717"><ele>76.42857142857143</ele><time>2026-04-07T10:39:41.834Z</time></trkpt><trkpt lat="42.1781517" lon="14.6091483"><ele>77.0</ele><time>2026-04-07T10:39:45.834Z</time></trkpt><trkpt lat="42.1781917" lon="14.6090783"><ele>78.85714285714286</ele><time>2026-04-07T10:39:49.834Z</time></trkpt><trkpt lat="42.1781967" lon="14.6089883"><ele>80.71428571428572</ele><time>2026-04-07T10:39:53.832Z</time></trkpt><trkpt lat="42.1782033" lon="14.60889"><ele>82.57142857142857</ele><time>2026-04-07T10:39:57.832Z</time></trkpt><trkpt lat="42.17821" lon="14.6087933"><ele>84.42857142857143</ele><time>2026-04-07T10:40:01.832Z</time></trkpt><trkpt lat="42.1782267" lon="14.6087083"><ele>86.28571428571429</ele><time>2026-04-07T10:40:04.832Z</time></trkpt><trkpt lat="42.1782517" lon="14.6086267"><ele>88.14285714285714</ele><time>2026-04-07T10:40:07.832Z</time></trkpt><trkpt lat="42.1782767" lon="14.6085333"><ele>90.0</ele><time>2026-04-07T10:40:11.832Z</time></trkpt><trkpt lat="42.1782917" lon="14.6084267"><ele>91.28571428571428</ele><time>2026-04-07T10:40:15.832Z</time></trkpt><trkpt lat="42.1782883" lon="14.60831"><ele>92.57142857142858</ele><time>2026-04-07T10:40:19.832Z</time></trkpt><trkpt lat="42.1782967" lon="14.608215"><ele>93.85714285714286</ele><time>2026-04-07T10:40:22.832Z</time></trkpt><trkpt lat="42.178305" lon="14.6081017"><ele>95.14285714285714</ele><time>2026-04-07T10:40:26.832Z</time></trkpt><trkpt lat="42.1783017" lon="14.608015"><ele>96.42857142857142</ele><time>2026-04-07T10:40:29.833Z</time></trkpt><trkpt lat="42.1783" lon="14.6079283"><ele>97.71428571428572</ele><time>2026-04-07T10:40:32.832Z</time></trkpt><trkpt lat="42.1783017" lon="14.6078433"><ele>99.0</ele><time>2026-04-07T10:40:35.832Z</time></trkpt><trkpt lat="42.178315" lon="14.607735"><ele>99.5</ele><time>2026-04-07T10:40:39.833Z</time></trkpt><trkpt lat="42.1783383" lon="14.6076333"><ele>100.0</ele><time>2026-04-07T10:40:43.832Z</time></trkpt><trkpt lat="42.1783367" lon="14.6075217"><ele>100.5</ele><time>2026-04-07T10:40:47.832Z</time></trkpt><trkpt lat="42.17832" lon="14.6074283"><ele>101.0</ele><time>2026-04-07T10:40:50.832Z</time></trkpt><trkpt lat="42.178305" lon="14.6073217"><ele>101.5</ele><time>2026-04-07T10:40:53.832Z</time></trkpt><trkpt lat="42.17828" lon="14.607205"><ele>102.0</ele><time>2026-04-07T10:40:56.832Z</time></trkpt><trkpt lat="42.1782617" lon="14.6070867"><ele>102.0</ele><time>2026-04-07T10:40:59.832Z</time></trkpt><trkpt lat="42.1782517" lon="14.6069983"><ele>102.0</ele><time>2026-04-07T10:41:01.832Z</time></trkpt><trkpt lat="42.1782367" lon="14.6069117"><ele>102.0</ele><time>2026-04-07T10:41:03.832Z</time></trkpt><trkpt lat="42.1782183" lon="14.6068267"><ele>102.0</ele><time>2026-04-07T10:41:05.832Z</time></trkpt><trkpt lat="42.1782017" lon="14.606715"><ele>102.0</ele><time>2026-04-07T10:41:08.832Z</time></trkpt><trkpt lat="42.1781933" lon="14.606615"><ele>102.0</ele><time>2026-04-07T10:41:11.832Z</time></trkpt><trkpt lat="42.1782367" lon="14.6065167"><ele>102.0</ele><time>2026-04-07T10:41:14.832Z</time></trkpt><trkpt lat="42.1782967" lon="14.6064867"><ele>102.33333333333333</ele><time>2026-04-07T10:41:16.832Z</time></trkpt><trkpt lat="42.17837" lon="14.6064983"><ele>102.66666666666666</ele><time>2026-04-07T10:41:18.832Z</time></trkpt><trkpt lat="42.1784467" lon="14.6065067"><ele>103.0</ele><time>2026-04-07T10:41:20.832Z</time></trkpt><trkpt lat="42.1785217" lon="14.606515"><ele>103.33333333333333</ele><time>2026-04-07T10:41:22.832Z</time></trkpt><trkpt lat="42.1786017" lon="14.60653"><ele>103.66666666666666</ele><time>2026-04-07T10:41:24.833Z</time></trkpt><trkpt lat="42.17868" lon="14.6065417"><ele>104.0</ele><time>2026-04-07T10:41:26.832Z</time></trkpt><trkpt lat="42.17876" lon="14.6065433"><ele>103.99999999999999</ele><time>2026-04-07T10:41:28.832Z</time></trkpt><trkpt lat="42.1788433" lon="14.6065333"><ele>104.0</ele><time>2026-04-07T10:41:30.833Z</time></trkpt><trkpt lat="42.1789317" lon="14.6065133"><ele>104.0</ele><time>2026-04-07T10:41:32.833Z</time></trkpt><trkpt lat="42.1790183" lon="14.6064933"><ele>104.0</ele><time>2026-04-07T10:41:34.833Z</time></trkpt><trkpt lat="42.1791017" lon="14.6064667"><ele>103.99999999999999</ele><time>2026-04-07T10:41:36.832Z</time></trkpt><trkpt lat="42.1791867" lon="14.6064433"><ele>104.0</ele><time>2026-04-07T10:41:38.833Z</time></trkpt><trkpt lat="42.17927" lon="14.6064217"><ele>103.49999999999999</ele><time>2026-04-07T10:41:40.832Z</time></trkpt><trkpt lat="42.17935" lon="14.6063933"><ele>103.0</ele><time>2026-04-07T10:41:42.832Z</time></trkpt><trkpt lat="42.17943" lon="14.6063567"><ele>102.5</ele><time>2026-04-07T10:41:44.833Z</time></trkpt><trkpt lat="42.1795183" lon="14.6063267"><ele>102.0</ele><time>2026-04-07T10:41:46.833Z</time></trkpt><trkpt lat="42.179605" lon="14.6062967"><ele>101.49999999999999</ele><time>2026-04-07T10:41:48.832Z</time></trkpt><trkpt lat="42.1796917" lon="14.606265"><ele>101.0</ele><time>2026-04-07T10:41:50.832Z</time></trkpt><trkpt lat="42.17978" lon="14.606245"><ele>100.8</ele><time>2026-04-07T10:41:52.832Z</time></trkpt><trkpt lat="42.1798667" lon="14.6062183"><ele>100.6</ele><time>2026-04-07T10:41:54.833Z</time></trkpt><trkpt lat="42.1799633" lon="14.606175"><ele>100.4</ele><time>2026-04-07T10:41:56.832Z</time></trkpt><trkpt lat="42.18005" lon="14.6061467"><ele>100.2</ele><time>2026-04-07T10:41:58.832Z</time></trkpt><trkpt lat="42.180145" lon="14.60612"><ele>100.0</ele><time>2026-04-07T10:42:00.832Z</time></trkpt><trkpt lat="42.1802283" lon="14.6060933"><ele>100.4</ele><time>2026-04-07T10:42:02.833Z</time></trkpt><trkpt lat="42.1803183" lon="14.6060667"><ele>100.8</ele><time>2026-04-07T10:42:04.833Z</time></trkpt><trkpt lat="42.1804033" lon="14.606035"><ele>101.19999999999999</ele><time>2026-04-07T10:42:06.832Z</time></trkpt><trkpt lat="42.18049" lon="14.6060017"><ele>101.6</ele><time>2026-04-07T10:42:08.832Z</time></trkpt><trkpt lat="42.1805817" lon="14.605975"><ele>102.0</ele><time>2026-04-07T10:42:10.832Z</time></trkpt><trkpt lat="42.1806733" lon="14.6059417"><ele>101.6</ele><time>2026-04-07T10:42:12.832Z</time></trkpt><trkpt lat="42.1807633" lon="14.6059083"><ele>101.19999999999999</ele><time>2026-04-07T10:42:14.832Z</time></trkpt><trkpt lat="42.18085" lon="14.605875"><ele>100.8</ele><time>2026-04-07T10:42:16.832Z</time></trkpt><trkpt lat="42.1809383" lon="14.6058433"><ele>100.4</ele><time>2026-04-07T10:42:18.832Z</time></trkpt><trkpt lat="42.18103" lon="14.6058183"><ele>100.0</ele><time>2026-04-07T10:42:20.832Z</time></trkpt><trkpt lat="42.18112" lon="14.6057917"><ele>100.0</ele><time>2026-04-07T10:42:22.832Z</time></trkpt><trkpt lat="42.1812117" lon="14.60576"><ele>100.0</ele><time>2026-04-07T10:42:24.832Z</time></trkpt><trkpt lat="42.18131" lon="14.6057283"><ele>100.0</ele><time>2026-04-07T10:42:26.832Z</time></trkpt><trkpt lat="42.1814083" lon="14.6056967"><ele>100.0</ele><time>2026-04-07T10:42:28.832Z</time></trkpt><trkpt lat="42.1815083" lon="14.6056717"><ele>100.0</ele><time>2026-04-07T10:42:30.833Z</time></trkpt><trkpt lat="42.18161" lon="14.6056433"><ele>99.4</ele><time>2026-04-07T10:42:32.832Z</time></trkpt><trkpt lat="42.1817117" lon="14.605615"><ele>98.8</ele><time>2026-04-07T10:42:34.832Z</time></trkpt><trkpt lat="42.1818167" lon="14.6055783"><ele>98.19999999999999</ele><time>2026-04-07T10:42:36.832Z</time></trkpt><trkpt lat="42.1819217" lon="14.6055417"><ele>97.6</ele><time>2026-04-07T10:42:38.832Z</time></trkpt><trkpt lat="42.1820267" lon="14.6055017"><ele>97.0</ele><time>2026-04-07T10:42:40.832Z</time></trkpt><trkpt lat="42.182135" lon="14.6054667"><ele>97.0</ele><time>2026-04-07T10:42:42.832Z</time></trkpt><trkpt lat="42.18224" lon="14.605435"><ele>97.0</ele><time>2026-04-07T10:42:44.832Z</time></trkpt><trkpt lat="42.1823433" lon="14.6054067"><ele>97.0</ele><time>2026-04-07T10:42:46.832Z</time></trkpt><trkpt lat="42.1824483" lon="14.605375"><ele>97.0</ele><time>2026-04-07T10:42:48.832Z</time></trkpt><trkpt lat="42.1825617" lon="14.6053467"><ele>97.0</ele><time>2026-04-07T10:42:50.832Z</time></trkpt><trkpt lat="42.1826717" lon="14.605315"><ele>96.8</ele><time>2026-04-07T10:42:52.833Z</time></trkpt><trkpt lat="42.182775" lon="14.6052767"><ele>96.6</ele><time>2026-04-07T10:42:54.832Z</time></trkpt><trkpt lat="42.182875" lon="14.605235"><ele>96.39999999999999</ele><time>2026-04-07T10:42:56.832Z</time></trkpt><trkpt lat="42.1829633" lon="14.605175"><ele>96.19999999999999</ele><time>2026-04-07T10:42:58.832Z</time></trkpt><trkpt lat="42.1830433" lon="14.60511"><ele>96.0</ele><time>2026-04-07T10:43:00.832Z</time></trkpt><trkpt lat="42.18312" lon="14.6050517"><ele>95.5</ele><time>2026-04-07T10:43:02.832Z</time></trkpt><trkpt lat="42.1831867" lon="14.6049917"><ele>95.0</ele><time>2026-04-07T10:43:04.832Z</time></trkpt><trkpt lat="42.1832567" lon="14.60494"><ele>94.5</ele><time>2026-04-07T10:43:06.832Z</time></trkpt><trkpt lat="42.1833533" lon="14.604925"><ele>94.0</ele><time>2026-04-07T10:43:09.832Z</time></trkpt><trkpt lat="42.1834317" lon="14.6049333"><ele>93.5</ele><time>2026-04-07T10:43:11.832Z</time></trkpt><trkpt lat="42.1835233" lon="14.60495"><ele>93.0</ele><time>2026-04-07T10:43:13.832Z</time></trkpt><trkpt lat="42.1836183" lon="14.604945"><ele>93.00000000000001</ele><time>2026-04-07T10:43:15.832Z</time></trkpt><trkpt lat="42.183705" lon="14.604915"><ele>93.0</ele><time>2026-04-07T10:43:17.833Z</time></trkpt><trkpt lat="42.1837783" lon="14.6048717"><ele>93.0</ele><time>2026-04-07T10:43:19.832Z</time></trkpt><trkpt lat="42.18382" lon="14.604805"><ele>93.0</ele><time>2026-04-07T10:43:21.832Z</time></trkpt><trkpt lat="42.1838483" lon="14.6047267"><ele>93.0</ele><time>2026-04-07T10:43:23.832Z</time></trkpt><trkpt lat="42.18388" lon="14.60465"><ele>93.00000000000001</ele><time>2026-04-07T10:43:25.832Z</time></trkpt><trkpt lat="42.183915" lon="14.6045733"><ele>93.0</ele><time>2026-04-07T10:43:27.833Z</time></trkpt><trkpt lat="42.183955" lon="14.604495"><ele>93.33333333333333</ele><time>2026-04-07T10:43:29.832Z</time></trkpt><trkpt lat="42.1839917" lon="14.6044083"><ele>93.66666666666667</ele><time>2026-04-07T10:43:31.832Z</time></trkpt><trkpt lat="42.1840333" lon="14.6043233"><ele>94.0</ele><time>2026-04-07T10:43:33.832Z</time></trkpt><trkpt lat="42.184075" lon="14.6042367"><ele>94.33333333333334</ele><time>2026-04-07T10:43:35.833Z</time></trkpt><trkpt lat="42.1841267" lon="14.604135"><ele>94.66666666666667</ele><time>2026-04-07T10:43:38.832Z</time></trkpt><trkpt lat="42.1841633" lon="14.6040533"><ele>95.0</ele><time>2026-04-07T10:43:40.832Z</time></trkpt><trkpt lat="42.1841967" lon="14.6039667"><ele>95.0</ele><time>2026-04-07T10:43:42.832Z</time></trkpt><trkpt lat="42.1842383" lon="14.6038867"><ele>95.0</ele><time>2026-04-07T10:43:44.832Z</time></trkpt><trkpt lat="42.1842783" lon="14.6038"><ele>95.0</ele><time>2026-04-07T10:43:46.833Z</time></trkpt><trkpt lat="42.18432" lon="14.6037033"><ele>95.0</ele><time>2026-04-07T10:43:48.833Z</time></trkpt><trkpt lat="42.1843633" lon="14.6036083"><ele>95.0</ele><time>2026-04-07T10:43:50.832Z</time></trkpt><trkpt lat="42.1844033" lon="14.60352"><ele>95.0</ele><time>2026-04-07T10:43:52.832Z</time></trkpt><trkpt lat="42.184445" lon="14.60343"><ele>94.5</ele><time>2026-04-07T10:43:54.832Z</time></trkpt><trkpt lat="42.184485" lon="14.6033433"><ele>94.0</ele><time>2026-04-07T10:43:56.833Z</time></trkpt><trkpt lat="42.1845233" lon="14.6032733"><ele>93.5</ele><time>2026-04-07T10:43:58.833Z</time></trkpt><trkpt lat="42.1845633" lon="14.6031967"><ele>93.0</ele><time>2026-04-07T10:44:00.833Z</time></trkpt><trkpt lat="42.184615" lon="14.6030917"><ele>92.5</ele><time>2026-04-07T10:44:03.832Z</time></trkpt><trkpt lat="42.1846583" lon="14.6030017"><ele>92.0</ele><time>2026-04-07T10:44:06.832Z</time></trkpt><trkpt lat="42.18473" lon="14.60298"><ele>92.0</ele><time>2026-04-07T10:44:11.832Z</time></trkpt><trkpt lat="42.1848" lon="14.6030433"><ele>92.0</ele><time>2026-04-07T10:44:14.832Z</time></trkpt><trkpt lat="42.1848567" lon="14.6030817"><ele>92.0</ele><time>2026-04-07T10:44:16.833Z</time></trkpt><trkpt lat="42.1849267" lon="14.60313"><ele>92.0</ele><time>2026-04-07T10:44:18.833Z</time></trkpt><trkpt lat="42.1850033" lon="14.6031783"><ele>92.0</ele><time>2026-04-07T10:44:20.832Z</time></trkpt><trkpt lat="42.1850683" lon="14.6032167"><ele>92.0</ele><time>2026-04-07T10:44:22.833Z</time></trkpt><trkpt lat="42.1851467" lon="14.6032733"><ele>91.33333333333334</ele><time>2026-04-07T10:44:25.832Z</time></trkpt><trkpt lat="42.1852217" lon="14.603315"><ele>90.66666666666667</ele><time>2026-04-07T10:44:28.832Z</time></trkpt><trkpt lat="42.1853017" lon="14.6033717"><ele>90.0</ele><time>2026-04-07T10:44:31.832Z</time></trkpt><trkpt lat="42.1853483" lon="14.60346"><ele>89.33333333333333</ele><time>2026-04-07T10:44:35.833Z</time></trkpt><trkpt lat="42.1854183" lon="14.603515"><ele>88.66666666666666</ele><time>2026-04-07T10:44:39.832Z</time></trkpt><trkpt lat="42.18548" lon="14.6035417"><ele>88.0</ele><time>2026-04-07T10:44:42.832Z</time></trkpt><trkpt lat="42.1855467" lon="14.60355"><ele>88.0</ele><time>2026-04-07T10:44:46.832Z</time></trkpt><trkpt lat="42.1855683" lon="14.6034567"><ele>88.0</ele><time>2026-04-07T10:44:53.832Z</time></trkpt><trkpt lat="42.1855767" lon="14.60337"><ele>88.0</ele><time>2026-04-07T10:44:56.833Z</time></trkpt><trkpt lat="42.185565" lon="14.603285"><ele>88.0</ele><time>2026-04-07T10:45:00.832Z</time></trkpt><trkpt lat="42.18556" lon="14.6031867"><ele>88.0</ele><time>2026-04-07T10:45:05.832Z</time></trkpt><trkpt lat="42.1855133" lon="14.6031283"><ele>88.0</ele><time>2026-04-07T10:45:15.832Z</time></trkpt><trkpt lat="42.1854417" lon="14.6030283"><ele>88.0</ele><time>2026-04-07T10:45:35.832Z</time></trkpt><trkpt lat="42.18543" lon="14.6029217"><ele>88.0</ele><time>2026-04-07T10:45:40.832Z</time></trkpt><trkpt lat="42.18541" lon="14.602835"><ele>88.0</ele><time>2026-04-07T10:45:44.832Z</time></trkpt><trkpt lat="42.1853783" lon="14.60276"><ele>88.0</ele><time>2026-04-07T10:45:49.832Z</time></trkpt><trkpt lat="42.18528" lon="14.60274"><ele>88.0</ele><time>2026-04-07T10:45:54.832Z</time></trkpt><trkpt lat="42.1852133" lon="14.6027033"><ele>88.0</ele><time>2026-04-07T10:46:04.833Z</time></trkpt><trkpt lat="42.18527" lon="14.6027683"><ele>88.0</ele><time>2026-04-07T10:46:11.832Z</time></trkpt><trkpt lat="42.1853483" lon="14.6028167"><ele>88.0</ele><time>2026-04-07T10:46:14.832Z</time></trkpt><trkpt lat="42.1854167" lon="14.602865"><ele>88.0</ele><time>2026-04-07T10:46:16.832Z</time></trkpt><trkpt lat="42.185505" lon="14.6028967"><ele>88.0</ele><time>2026-04-07T10:46:18.832Z</time></trkpt><trkpt lat="42.1855717" lon="14.6029517"><ele>88.0</ele><time>2026-04-07T10:46:20.832Z</time></trkpt><trkpt lat="42.18564" lon="14.6030067"><ele>88.0</ele><time>2026-04-07T10:46:22.832Z</time></trkpt><trkpt lat="42.185715" lon="14.6030733"><ele>88.0</ele><time>2026-04-07T10:46:24.832Z</time></trkpt><trkpt lat="42.1857967" lon="14.603125"><ele>87.0</ele><time>2026-04-07T10:46:26.832Z</time></trkpt><trkpt lat="42.185875" lon="14.60321"><ele>86.0</ele><time>2026-04-07T10:46:28.832Z</time></trkpt><trkpt lat="42.1859433" lon="14.6033183"><ele>85.0</ele><time>2026-04-07T10:46:30.832Z</time></trkpt><trkpt lat="42.1860167" lon="14.603435"><ele>84.0</ele><time>2026-04-07T10:46:32.832Z</time></trkpt><trkpt lat="42.1861017" lon="14.6035217"><ele>83.0</ele><time>2026-04-07T10:46:34.832Z</time></trkpt><trkpt lat="42.1861867" lon="14.6036017"><ele>83.75</ele><time>2026-04-07T10:46:36.832Z</time></trkpt><trkpt lat="42.1862833" lon="14.6036933"><ele>84.5</ele><time>2026-04-07T10:46:38.832Z</time></trkpt><trkpt lat="42.1863867" lon="14.6037783"><ele>85.25</ele><time>2026-04-07T10:46:40.832Z</time></trkpt><trkpt lat="42.1864883" lon="14.6038667"><ele>86.0</ele><time>2026-04-07T10:46:42.832Z</time></trkpt><trkpt lat="42.186585" lon="14.60395"><ele>84.6</ele><time>2026-04-07T10:46:44.832Z</time></trkpt><trkpt lat="42.1866633" lon="14.6040083"><ele>83.19999999999999</ele><time>2026-04-07T10:46:46.832Z</time></trkpt><trkpt lat="42.18676" lon="14.60406"><ele>81.80000000000001</ele><time>2026-04-07T10:46:49.832Z</time></trkpt><trkpt lat="42.1868383" lon="14.60412"><ele>80.4</ele><time>2026-04-07T10:46:51.832Z</time></trkpt><trkpt lat="42.1869467" lon="14.60411"><ele>79.0</ele><time>2026-04-07T10:46:53.832Z</time></trkpt><trkpt lat="42.18705" lon="14.6041017"><ele>79.0</ele><time>2026-04-07T10:46:55.832Z</time></trkpt><trkpt lat="42.1871417" lon="14.6041083"><ele>79.0</ele><time>2026-04-07T10:46:57.832Z</time></trkpt><trkpt lat="42.187245" lon="14.6041133"><ele>79.0</ele><time>2026-04-07T10:46:59.832Z</time></trkpt><trkpt lat="42.18731" lon="14.6041233"><ele>79.0</ele><time>2026-04-07T10:47:00.832Z</time></trkpt><trkpt lat="42.1873767" lon="14.6041267"><ele>79.0</ele><time>2026-04-07T10:47:01.832Z</time></trkpt><trkpt lat="42.1874417" lon="14.6041283"><ele>79.0</ele><time>2026-04-07T10:47:02.832Z</time></trkpt><trkpt lat="42.1875567" lon="14.6041317"><ele>77.60000000000001</ele><time>2026-04-07T10:47:04.832Z</time></trkpt><trkpt lat="42.1876633" lon="14.6041467"><ele>76.2</ele><time>2026-04-07T10:47:06.832Z</time></trkpt><trkpt lat="42.1877583" lon="14.604165"><ele>74.80000000000001</ele><time>2026-04-07T10:47:08.832Z</time></trkpt><trkpt lat="42.1878367" lon="14.60421"><ele>73.4</ele><time>2026-04-07T10:47:10.832Z</time></trkpt><trkpt lat="42.1879133" lon="14.6042667"><ele>72.0</ele><time>2026-04-07T10:47:12.832Z</time></trkpt><trkpt lat="42.1879933" lon="14.6043083"><ele>72.0</ele><time>2026-04-07T10:47:14.832Z</time></trkpt><trkpt lat="42.1880633" lon="14.60433"><ele>72.0</ele><time>2026-04-07T10:47:16.832Z</time></trkpt><trkpt lat="42.18816" lon="14.6043183"><ele>72.0</ele><time>2026-04-07T10:47:19.832Z</time></trkpt><trkpt lat="42.1882467" lon="14.6043283"><ele>72.0</ele><time>2026-04-07T10:47:21.832Z</time></trkpt><trkpt lat="42.1883267" lon="14.6043383"><ele>72.0</ele><time>2026-04-07T10:47:23.832Z</time></trkpt><trkpt lat="42.1883967" lon="14.6043417"><ele>72.0</ele><time>2026-04-07T10:47:25.832Z</time></trkpt><trkpt lat="42.188475" lon="14.6043467"><ele>71.2</ele><time>2026-04-07T10:47:27.832Z</time></trkpt><trkpt lat="42.1885667" lon="14.6043183"><ele>70.4</ele><time>2026-04-07T10:47:29.833Z</time></trkpt><trkpt lat="42.1886633" lon="14.604275"><ele>69.6</ele><time>2026-04-07T10:47:31.832Z</time></trkpt><trkpt lat="42.1887717" lon="14.60426"><ele>68.8</ele><time>2026-04-07T10:47:33.832Z</time></trkpt><trkpt lat="42.1888583" lon="14.6042433"><ele>68.0</ele><time>2026-04-07T10:47:35.832Z</time></trkpt><trkpt lat="42.188935" lon="14.604215"><ele>67.16666666666667</ele><time>2026-04-07T10:47:37.832Z</time></trkpt><trkpt lat="42.189025" lon="14.6042033"><ele>66.33333333333334</ele><time>2026-04-07T10:47:39.832Z</time></trkpt><trkpt lat="42.1891283" lon="14.60419"><ele>65.5</ele><time>2026-04-07T10:47:41.832Z</time></trkpt><trkpt lat="42.18923" lon="14.60418"><ele>64.66666666666667</ele><time>2026-04-07T10:47:43.832Z</time></trkpt><trkpt lat="42.189315" lon="14.6041567"><ele>63.833333333333336</ele><time>2026-04-07T10:47:45.832Z</time></trkpt><trkpt lat="42.1893783" lon="14.6041333"><ele>63.0</ele><time>2026-04-07T10:47:47.833Z</time></trkpt><trkpt lat="42.189455" lon="14.604105"><ele>63.0</ele><time>2026-04-07T10:47:50.833Z</time></trkpt><trkpt lat="42.1895133" lon="14.6040667"><ele>63.0</ele><time>2026-04-07T10:47:52.832Z</time></trkpt><trkpt lat="42.189585" lon="14.6040183"><ele>63.0</ele><time>2026-04-07T10:47:54.832Z</time></trkpt><trkpt lat="42.1896633" lon="14.603975"><ele>63.0</ele><time>2026-04-07T10:47:56.832Z</time></trkpt><trkpt lat="42.1897283" lon="14.6039433"><ele>63.0</ele><time>2026-04-07T10:47:58.833Z</time></trkpt><trkpt lat="42.189795" lon="14.60388"><ele>63.0</ele><time>2026-04-07T10:48:00.832Z</time></trkpt><trkpt lat="42.1898417" lon="14.6038167"><ele>63.0</ele><time>2026-04-07T10:48:04.832Z</time></trkpt><trkpt lat="42.189895" lon="14.603765"><ele>61.666666666666664</ele><time>2026-04-07T10:48:07.832Z</time></trkpt><trkpt lat="42.1899467" lon="14.6037083"><ele>60.33333333333333</ele><time>2026-04-07T10:48:10.832Z</time></trkpt><trkpt lat="42.190015" lon="14.6036267"><ele>59.0</ele><time>2026-04-07T10:48:13.832Z</time></trkpt><trkpt lat="42.190065" lon="14.6035733"><ele>57.666666666666664</ele><time>2026-04-07T10:48:15.833Z</time></trkpt><trkpt lat="42.1901217" lon="14.603505"><ele>56.33333333333333</ele><time>2026-04-07T10:48:18.832Z</time></trkpt><trkpt lat="42.1901083" lon="14.6033083"><ele>55.0</ele><time>2026-04-07T10:48:50.832Z</time></trkpt><trkpt lat="42.1901567" lon="14.60322"><ele>54.99999999999999</ele><time>2026-04-07T10:49:10.832Z</time></trkpt><trkpt lat="42.1902183" lon="14.6031683"><ele>55.0</ele><time>2026-04-07T10:49:13.832Z</time></trkpt><trkpt lat="42.1902783" lon="14.6031"><ele>55.0</ele><time>2026-04-07T10:49:16.833Z</time></trkpt><trkpt lat="42.190325" lon="14.603035"><ele>55.0</ele><time>2026-04-07T10:49:19.832Z</time></trkpt><trkpt lat="42.19035" lon="14.6029433"><ele>54.99999999999999</ele><time>2026-04-07T10:49:23.832Z</time></trkpt><trkpt lat="42.1903833" lon="14.6028517"><ele>55.0</ele><time>2026-04-07T10:49:26.832Z</time></trkpt><trkpt lat="42.1904183" lon="14.60274"><ele>57.49999999999999</ele><time>2026-04-07T10:49:29.832Z</time></trkpt><trkpt lat="42.1904383" lon="14.60263"><ele>60.0</ele><time>2026-04-07T10:49:32.833Z</time></trkpt><trkpt lat="42.1904633" lon="14.602525"><ele>62.5</ele><time>2026-04-07T10:49:35.832Z</time></trkpt><trkpt lat="42.1904733" lon="14.6024383"><ele>65.0</ele><time>2026-04-07T10:49:37.832Z</time></trkpt><trkpt lat="42.1904683" lon="14.6023483"><ele>67.5</ele><time>2026-04-07T10:49:39.833Z</time></trkpt><trkpt lat="42.1904583" lon="14.6022283"><ele>70.0</ele><time>2026-04-07T10:49:41.832Z</time></trkpt><trkpt lat="42.1904467" lon="14.60212"><ele>70.0</ele><time>2026-04-07T10:49:43.832Z</time></trkpt><trkpt lat="42.190435" lon="14.60203"><ele>70.0</ele><time>2026-04-07T10:49:45.832Z</time></trkpt><trkpt lat="42.1904183" lon="14.6019433"><ele>70.0</ele><time>2026-04-07T10:49:47.832Z</time></trkpt><trkpt lat="42.190405" lon="14.6018567"><ele>70.0</ele><time>2026-04-07T10:49:49.832Z</time></trkpt><trkpt lat="42.1904083" lon="14.6017383"><ele>70.0</ele><time>2026-04-07T10:49:52.832Z</time></trkpt><trkpt lat="42.190415" lon="14.60162"><ele>70.0</ele><time>2026-04-07T10:49:55.832Z</time></trkpt><trkpt lat="42.19041" lon="14.60149"><ele>70.0</ele><time>2026-04-07T10:49:58.832Z</time></trkpt><trkpt lat="42.1904083" lon="14.601365"><ele>70.0</ele><time>2026-04-07T10:50:01.832Z</time></trkpt><trkpt lat="42.1904133" lon="14.601255"><ele>70.0</ele><time>2026-04-07T10:50:04.833Z</time></trkpt><trkpt lat="42.1904283" lon="14.6011667"><ele>70.0</ele><time>2026-04-07T10:50:07.832Z</time></trkpt><trkpt lat="42.1904517" lon="14.60107"><ele>70.0</ele><time>2026-04-07T10:50:11.832Z</time></trkpt><trkpt lat="42.19045" lon="14.60096"><ele>70.0</ele><time>2026-04-07T10:50:15.832Z</time></trkpt><trkpt lat="42.1904383" lon="14.600865"><ele>70.0</ele><time>2026-04-07T10:50:18.832Z</time></trkpt><trkpt lat="42.1904283" lon="14.6007783"><ele>70.0</ele><time>2026-04-07T10:50:21.832Z</time></trkpt><trkpt lat="42.1904217" lon="14.6006867"><ele>70.0</ele><time>2026-04-07T10:50:24.832Z</time></trkpt><trkpt lat="42.1904117" lon="14.6005767"><ele>70.0</ele><time>2026-04-07T10:50:28.833Z</time></trkpt><trkpt lat="42.1904" lon="14.60048"><ele>70.0</ele><time>2026-04-07T10:50:32.832Z</time></trkpt><trkpt lat="42.1903867" lon="14.6003883"><ele>70.0</ele><time>2026-04-07T10:50:36.832Z</time></trkpt><trkpt lat="42.1904183" lon="14.6003067"><ele>70.0</ele><time>2026-04-07T10:50:42.832Z</time></trkpt><trkpt lat="42.190505" lon="14.6003067"><ele>68.5</ele><time>2026-04-07T10:50:45.832Z</time></trkpt><trkpt lat="42.1905833" lon="14.6002933"><ele>67.0</ele><time>2026-04-07T10:50:47.832Z</time></trkpt><trkpt lat="42.1906617" lon="14.60027"><ele>65.5</ele><time>2026-04-07T10:50:49.833Z</time></trkpt><trkpt lat="42.1907367" lon="14.6002533"><ele>64.0</ele><time>2026-04-07T10:50:51.832Z</time></trkpt><trkpt lat="42.1908" lon="14.6002533"><ele>62.49999999999999</ele><time>2026-04-07T10:50:53.832Z</time></trkpt><trkpt lat="42.190885" lon="14.600275"><ele>61.0</ele><time>2026-04-07T10:50:56.832Z</time></trkpt><trkpt lat="42.1909567" lon="14.600325"><ele>58.83333333333333</ele><time>2026-04-07T10:50:59.832Z</time></trkpt><trkpt lat="42.1910233" lon="14.600375"><ele>56.666666666666664</ele><time>2026-04-07T10:51:02.832Z</time></trkpt><trkpt lat="42.1910767" lon="14.6004333"><ele>54.5</ele><time>2026-04-07T10:51:05.832Z</time></trkpt><trkpt lat="42.1911267" lon="14.60051"><ele>52.33333333333333</ele><time>2026-04-07T10:51:08.833Z</time></trkpt><trkpt lat="42.1911783" lon="14.6006033"><ele>50.166666666666664</ele><time>2026-04-07T10:51:11.832Z</time></trkpt><trkpt lat="42.191225" lon="14.6006933"><ele>48.0</ele><time>2026-04-07T10:51:14.833Z</time></trkpt><trkpt lat="42.1912683" lon="14.6007783"><ele>48.0</ele><time>2026-04-07T10:51:17.832Z</time></trkpt><trkpt lat="42.1913083" lon="14.6008733"><ele>48.0</ele><time>2026-04-07T10:51:20.832Z</time></trkpt><trkpt lat="42.191345" lon="14.6009567"><ele>48.0</ele><time>2026-04-07T10:51:23.832Z</time></trkpt><trkpt lat="42.1913783" lon="14.6010417"><ele>48.0</ele><time>2026-04-07T10:51:26.832Z</time></trkpt><trkpt lat="42.19143" lon="14.60112"><ele>48.0</ele><time>2026-04-07T10:51:29.833Z</time></trkpt><trkpt lat="42.19148" lon="14.6012083"><ele>48.0</ele><time>2026-04-07T10:51:32.833Z</time></trkpt><trkpt lat="42.1915267" lon="14.601285"><ele>48.666666666666664</ele><time>2026-04-07T10:51:35.832Z</time></trkpt><trkpt lat="42.191585" lon="14.60136"><ele>49.33333333333333</ele><time>2026-04-07T10:51:38.832Z</time></trkpt><trkpt lat="42.1916433" lon="14.6014367"><ele>50.0</ele><time>2026-04-07T10:51:41.833Z</time></trkpt><trkpt lat="42.1917033" lon="14.6015067"><ele>50.666666666666664</ele><time>2026-04-07T10:51:44.832Z</time></trkpt><trkpt lat="42.1917667" lon="14.6015667"><ele>51.33333333333333</ele><time>2026-04-07T10:51:47.832Z</time></trkpt><trkpt lat="42.19183" lon="14.6016183"><ele>52.0</ele><time>2026-04-07T10:51:50.833Z</time></trkpt><trkpt lat="42.1918883" lon="14.6016683"><ele>52.0</ele><time>2026-04-07T10:51:53.832Z</time></trkpt><trkpt lat="42.1919467" lon="14.60173"><ele>52.0</ele><time>2026-04-07T10:51:56.832Z</time></trkpt><trkpt lat="42.192005" lon="14.6017883"><ele>52.0</ele><time>2026-04-07T10:51:59.832Z</time></trkpt><trkpt lat="42.1920667" lon="14.601835"><ele>52.0</ele><time>2026-04-07T10:52:02.832Z</time></trkpt><trkpt lat="42.1921283" lon="14.601885"><ele>52.0</ele><time>2026-04-07T10:52:05.832Z</time></trkpt><trkpt lat="42.19219" lon="14.6019367"><ele>52.0</ele><time>2026-04-07T10:52:08.832Z</time></trkpt><trkpt lat="42.192255" lon="14.6019833"><ele>52.0</ele><time>2026-04-07T10:52:11.832Z</time></trkpt><trkpt lat="42.192315" lon="14.6020317"><ele>54.0</ele><time>2026-04-07T10:52:14.832Z</time></trkpt><trkpt lat="42.1923717" lon="14.602085"><ele>56.0</ele><time>2026-04-07T10:52:17.832Z</time></trkpt><trkpt lat="42.192425" lon="14.6021433"><ele>58.0</ele><time>2026-04-07T10:52:20.832Z</time></trkpt><trkpt lat="42.1924783" lon="14.6022033"><ele>60.0</ele><time>2026-04-07T10:52:23.831Z</time></trkpt><trkpt lat="42.192525" lon="14.602265"><ele>62.0</ele><time>2026-04-07T10:52:26.831Z</time></trkpt><trkpt lat="42.1925683" lon="14.60233"><ele>64.0</ele><time>2026-04-07T10:52:29.831Z</time></trkpt><trkpt lat="42.192595" lon="14.6024167"><ele>66.0</ele><time>2026-04-07T10:52:32.831Z</time></trkpt><trkpt lat="42.1926067" lon="14.6025067"><ele>66.0</ele><time>2026-04-07T10:52:35.831Z</time></trkpt><trkpt lat="42.1926033" lon="14.602595"><ele>66.0</ele><time>2026-04-07T10:52:38.831Z</time></trkpt><trkpt lat="42.1925883" lon="14.6026933"><ele>66.0</ele><time>2026-04-07T10:52:41.831Z</time></trkpt><trkpt lat="42.192575" lon="14.6027967"><ele>66.0</ele><time>2026-04-07T10:52:44.832Z</time></trkpt><trkpt lat="42.19262" lon="14.6028567"><ele>66.0</ele><time>2026-04-07T10:52:47.831Z</time></trkpt><trkpt lat="42.1926617" lon="14.6027633"><ele>66.0</ele><time>2026-04-07T10:52:50.831Z</time></trkpt><trkpt lat="42.1926717" lon="14.6026617"><ele>66.0</ele><time>2026-04-07T10:52:53.831Z</time></trkpt><trkpt lat="42.1926817" lon="14.6025617"><ele>66.0</ele><time>2026-04-07T10:52:56.831Z</time></trkpt><trkpt lat="42.1926983" lon="14.6024417"><ele>66.0</ele><time>2026-04-07T10:52:59.831Z</time></trkpt><trkpt lat="42.1927133" lon="14.6023567"><ele>66.0</ele><time>2026-04-07T10:53:01.831Z</time></trkpt><trkpt lat="42.1927317" lon="14.602275"><ele>66.0</ele><time>2026-04-07T10:53:03.831Z</time></trkpt><trkpt lat="42.1927667" lon="14.6021667"><ele>66.0</ele><time>2026-04-07T10:53:06.832Z</time></trkpt><trkpt lat="42.1927883" lon="14.6020833"><ele>66.0</ele><time>2026-04-07T10:53:08.831Z</time></trkpt><trkpt lat="42.1928" lon="14.6019883"><ele>66.0</ele><time>2026-04-07T10:53:10.831Z</time></trkpt><trkpt lat="42.1928067" lon="14.601885"><ele>66.0</ele><time>2026-04-07T10:53:12.832Z</time></trkpt><trkpt lat="42.1928167" lon="14.6017833"><ele>66.0</ele><time>2026-04-07T10:53:14.831Z</time></trkpt><trkpt lat="42.1928183" lon="14.6016767"><ele>66.0</ele><time>2026-04-07T10:53:16.831Z</time></trkpt><trkpt lat="42.192815" lon="14.6015633"><ele>66.0</ele><time>2026-04-07T10:53:18.831Z</time></trkpt><trkpt lat="42.1928117" lon="14.60145"><ele>66.0</ele><time>2026-04-07T10:53:20.832Z</time></trkpt><trkpt lat="42.19281" lon="14.601335"><ele>66.0</ele><time>2026-04-07T10:53:22.831Z</time></trkpt><trkpt lat="42.19281" lon="14.6012183"><ele>66.16666666666667</ele><time>2026-04-07T10:53:24.831Z</time></trkpt><trkpt lat="42.1928033" lon="14.601095"><ele>66.33333333333333</ele><time>2026-04-07T10:53:26.832Z</time></trkpt><trkpt lat="42.1927933" lon="14.6009733"><ele>66.5</ele><time>2026-04-07T10:53:28.831Z</time></trkpt><trkpt lat="42.1927833" lon="14.600865"><ele>66.66666666666666</ele><time>2026-04-07T10:53:30.831Z</time></trkpt><trkpt lat="42.1927717" lon="14.60075"><ele>66.83333333333333</ele><time>2026-04-07T10:53:32.832Z</time></trkpt><trkpt lat="42.192765" lon="14.6006283"><ele>67.0</ele><time>2026-04-07T10:53:34.831Z</time></trkpt><trkpt lat="42.1927533" lon="14.600515"><ele>67.0</ele><time>2026-04-07T10:53:36.831Z</time></trkpt><trkpt lat="42.192745" lon="14.600395"><ele>67.0</ele><time>2026-04-07T10:53:38.832Z</time></trkpt><trkpt lat="42.1927317" lon="14.60027"><ele>67.0</ele><time>2026-04-07T10:53:40.831Z</time></trkpt><trkpt lat="42.1927183" lon="14.6001517"><ele>67.0</ele><time>2026-04-07T10:53:42.832Z</time></trkpt><trkpt lat="42.19271" lon="14.6000283"><ele>67.0</ele><time>2026-04-07T10:53:44.832Z</time></trkpt><trkpt lat="42.192705" lon="14.599905"><ele>67.4</ele><time>2026-04-07T10:53:46.832Z</time></trkpt><trkpt lat="42.1926983" lon="14.599785"><ele>67.80000000000001</ele><time>2026-04-07T10:53:48.832Z</time></trkpt><trkpt lat="42.1926883" lon="14.5996617"><ele>68.2</ele><time>2026-04-07T10:53:50.831Z</time></trkpt><trkpt lat="42.19268" lon="14.5995383"><ele>68.60000000000001</ele><time>2026-04-07T10:53:52.831Z</time></trkpt><trkpt lat="42.1926683" lon="14.5994083"><ele>69.0</ele><time>2026-04-07T10:53:54.831Z</time></trkpt><trkpt lat="42.1926567" lon="14.5992767"><ele>69.60000000000001</ele><time>2026-04-07T10:53:56.831Z</time></trkpt><trkpt lat="42.1926383" lon="14.59915"><ele>70.2</ele><time>2026-04-07T10:53:58.831Z</time></trkpt><trkpt lat="42.1926233" lon="14.5990183"><ele>70.80000000000001</ele><time>2026-04-07T10:54:00.831Z</time></trkpt><trkpt lat="42.1926067" lon="14.59889"><ele>71.4</ele><time>2026-04-07T10:54:02.831Z</time></trkpt><trkpt lat="42.19259" lon="14.5987617"><ele>72.0</ele><time>2026-04-07T10:54:04.831Z</time></trkpt><trkpt lat="42.1925667" lon="14.598635"><ele>72.8</ele><time>2026-04-07T10:54:06.831Z</time></trkpt><trkpt lat="42.1925433" lon="14.5985067"><ele>73.6</ele><time>2026-04-07T10:54:08.831Z</time></trkpt><trkpt lat="42.19252" lon="14.5983733"><ele>74.39999999999999</ele><time>2026-04-07T10:54:10.831Z</time></trkpt><trkpt lat="42.19249" lon="14.5982433"><ele>75.2</ele><time>2026-04-07T10:54:12.831Z</time></trkpt><trkpt lat="42.19246" lon="14.5981217"><ele>76.0</ele><time>2026-04-07T10:54:14.831Z</time></trkpt><trkpt lat="42.1924267" lon="14.5979983"><ele>76.0</ele><time>2026-04-07T10:54:16.831Z</time></trkpt><trkpt lat="42.1923917" lon="14.5978767"><ele>76.0</ele><time>2026-04-07T10:54:18.831Z</time></trkpt><trkpt lat="42.192355" lon="14.5977567"><ele>76.0</ele><time>2026-04-07T10:54:20.831Z</time></trkpt><trkpt lat="42.1923133" lon="14.5976417"><ele>76.0</ele><time>2026-04-07T10:54:22.831Z</time></trkpt><trkpt lat="42.192275" lon="14.597525"><ele>76.0</ele><time>2026-04-07T10:54:24.831Z</time></trkpt><trkpt lat="42.192235" lon="14.5974067"><ele>75.0</ele><time>2026-04-07T10:54:26.831Z</time></trkpt><trkpt lat="42.192195" lon="14.5972867"><ele>74.0</ele><time>2026-04-07T10:54:28.831Z</time></trkpt><trkpt lat="42.1921567" lon="14.5971683"><ele>73.0</ele><time>2026-04-07T10:54:30.831Z</time></trkpt><trkpt lat="42.1921217" lon="14.5970533"><ele>72.0</ele><time>2026-04-07T10:54:32.832Z</time></trkpt><trkpt lat="42.192085" lon="14.5969383"><ele>71.0</ele><time>2026-04-07T10:54:34.831Z</time></trkpt><trkpt lat="42.19205" lon="14.596825"><ele>71.0</ele><time>2026-04-07T10:54:36.832Z</time></trkpt><trkpt lat="42.1920167" lon="14.59671"><ele>71.0</ele><time>2026-04-07T10:54:38.831Z</time></trkpt><trkpt lat="42.1919817" lon="14.5966033"><ele>71.0</ele><time>2026-04-07T10:54:40.831Z</time></trkpt><trkpt lat="42.191945" lon="14.59649"><ele>71.0</ele><time>2026-04-07T10:54:42.831Z</time></trkpt><trkpt lat="42.1919167" lon="14.59638"><ele>71.0</ele><time>2026-04-07T10:54:44.831Z</time></trkpt><trkpt lat="42.19191" lon="14.596295"><ele>71.0</ele><time>2026-04-07T10:54:48.831Z</time></trkpt><trkpt lat="42.1919817" lon="14.59632"><ele>71.0</ele><time>2026-04-07T10:55:01.832Z</time></trkpt><trkpt lat="42.1920483" lon="14.5963767"><ele>71.0</ele><time>2026-04-07T10:55:05.831Z</time></trkpt><trkpt lat="42.1921233" lon="14.5964033"><ele>71.0</ele><time>2026-04-07T10:55:08.831Z</time></trkpt><trkpt lat="42.1921817" lon="14.5964383"><ele>71.0</ele><time>2026-04-07T10:55:12.831Z</time></trkpt><trkpt lat="42.1922433" lon="14.5964917"><ele>71.0</ele><time>2026-04-07T10:55:17.831Z</time></trkpt><trkpt lat="42.1923" lon="14.5965583"><ele>71.0</ele><time>2026-04-07T10:55:22.831Z</time></trkpt><trkpt lat="42.1923333" lon="14.5966317"><ele>71.0</ele><time>2026-04-07T10:55:27.831Z</time></trkpt><trkpt lat="42.19237" lon="14.5967183"><ele>71.0</ele><time>2026-04-07T10:55:32.831Z</time></trkpt><trkpt lat="42.1923517" lon="14.5965917"><ele>71.0</ele><time>2026-04-07T10:55:37.832Z</time></trkpt><trkpt lat="42.1923033" lon="14.5965017"><ele>71.0</ele><time>2026-04-07T10:55:39.831Z</time></trkpt><trkpt lat="42.1922433" lon="14.5964267"><ele>71.0</ele><time>2026-04-07T10:55:41.831Z</time></trkpt><trkpt lat="42.1921833" lon="14.5963617"><ele>71.0</ele><time>2026-04-07T10:55:43.831Z</time></trkpt><trkpt lat="42.1921167" lon="14.5963117"><ele>71.0</ele><time>2026-04-07T10:55:45.831Z</time></trkpt><trkpt lat="42.1920533" lon="14.5962783"><ele>71.0</ele><time>2026-04-07T10:55:47.831Z</time></trkpt><trkpt lat="42.1919933" lon="14.5962483"><ele>71.0</ele><time>2026-04-07T10:55:50.831Z</time></trkpt><trkpt lat="42.1919383" lon="14.5962067"><ele>71.0</ele><time>2026-04-07T10:55:53.831Z</time></trkpt><trkpt lat="42.19188" lon="14.596125"><ele>71.0</ele><time>2026-04-07T10:55:56.831Z</time></trkpt><trkpt lat="42.1918267" lon="14.5960417"><ele>71.0</ele><time>2026-04-07T10:55:59.831Z</time></trkpt><trkpt lat="42.1917433" lon="14.595975"><ele>71.0</ele><time>2026-04-07T10:56:02.831Z</time></trkpt><trkpt lat="42.1916583" lon="14.5958967"><ele>71.16666666666667</ele><time>2026-04-07T10:56:04.832Z</time></trkpt><trkpt lat="42.1915633" lon="14.595805"><ele>71.33333333333334</ele><time>2026-04-07T10:56:06.832Z</time></trkpt><trkpt lat="42.1915117" lon="14.595755"><ele>71.5</ele><time>2026-04-07T10:56:07.832Z</time></trkpt><trkpt lat="42.19146" lon="14.5957033"><ele>71.66666666666667</ele><time>2026-04-07T10:56:08.831Z</time></trkpt><trkpt lat="42.1914067" lon="14.595655"><ele>71.83333333333333</ele><time>2026-04-07T10:56:09.831Z</time></trkpt><trkpt lat="42.1913467" lon="14.595595"><ele>72.0</ele><time>2026-04-07T10:56:10.831Z</time></trkpt><trkpt lat="42.1912917" lon="14.595535"><ele>70.00000000000001</ele><time>2026-04-07T10:56:11.831Z</time></trkpt><trkpt lat="42.1912367" lon="14.5954783"><ele>68.0</ele><time>2026-04-07T10:56:12.831Z</time></trkpt><trkpt lat="42.1911733" lon="14.59542"><ele>66.0</ele><time>2026-04-07T10:56:13.831Z</time></trkpt><trkpt lat="42.19111" lon="14.5953567"><ele>64.0</ele><time>2026-04-07T10:56:14.831Z</time></trkpt><trkpt lat="42.1910533" lon="14.5952933"><ele>62.0</ele><time>2026-04-07T10:56:15.831Z</time></trkpt><trkpt lat="42.1910017" lon="14.595225"><ele>60.00000000000001</ele><time>2026-04-07T10:56:16.831Z</time></trkpt><trkpt lat="42.1909583" lon="14.595155"><ele>58.00000000000001</ele><time>2026-04-07T10:56:17.831Z</time></trkpt><trkpt lat="42.190915" lon="14.5950883"><ele>57.8</ele><time>2026-04-07T10:56:18.831Z</time></trkpt><trkpt lat="42.190855" lon="14.594945"><ele>57.599999999999994</ele><time>2026-04-07T10:56:20.831Z</time></trkpt><trkpt lat="42.1908117" lon="14.5948233"><ele>57.400000000000006</ele><time>2026-04-07T10:56:22.831Z</time></trkpt><trkpt lat="42.190775" lon="14.59472"><ele>57.2</ele><time>2026-04-07T10:56:24.831Z</time></trkpt><trkpt lat="42.1907367" lon="14.5946283"><ele>57.0</ele><time>2026-04-07T10:56:26.832Z</time></trkpt><trkpt lat="42.1906983" lon="14.5945467"><ele>57.14285714285714</ele><time>2026-04-07T10:56:28.831Z</time></trkpt><trkpt lat="42.1906483" lon="14.5944483"><ele>57.28571428571428</ele><time>2026-04-07T10:56:31.831Z</time></trkpt><trkpt lat="42.1906083" lon="14.5943683"><ele>57.42857142857143</ele><time>2026-04-07T10:56:34.831Z</time></trkpt><trkpt lat="42.1906283" lon="14.5942683"><ele>57.57142857142857</ele><time>2026-04-07T10:56:57.832Z</time></trkpt><trkpt lat="42.1906417" lon="14.594185"><ele>57.714285714285715</ele><time>2026-04-07T10:57:01.831Z</time></trkpt><trkpt lat="42.1906683" lon="14.5941033"><ele>57.85714285714286</ele><time>2026-04-07T10:57:04.831Z</time></trkpt><trkpt lat="42.1906917" lon="14.594015"><ele>58.00000000000001</ele><time>2026-04-07T10:57:07.831Z</time></trkpt><trkpt lat="42.1907133" lon="14.59393"><ele>57.99999999999999</ele><time>2026-04-07T10:57:10.831Z</time></trkpt><trkpt lat="42.1907517" lon="14.59384"><ele>58.0</ele><time>2026-04-07T10:57:13.832Z</time></trkpt><trkpt lat="42.1908" lon="14.5937433"><ele>58.0</ele><time>2026-04-07T10:57:16.831Z</time></trkpt><trkpt lat="42.1908517" lon="14.5936633"><ele>58.0</ele><time>2026-04-07T10:57:19.831Z</time></trkpt><trkpt lat="42.190895" lon="14.5935717"><ele>57.99999999999999</ele><time>2026-04-07T10:57:22.832Z</time></trkpt><trkpt lat="42.1909233" lon="14.5934617"><ele>58.0</ele><time>2026-04-07T10:57:25.831Z</time></trkpt><trkpt lat="42.19095" lon="14.5933483"><ele>57.83333333333333</ele><time>2026-04-07T10:57:28.831Z</time></trkpt><trkpt lat="42.1909683" lon="14.5932333"><ele>57.666666666666664</ele><time>2026-04-07T10:57:31.831Z</time></trkpt><trkpt lat="42.1909833" lon="14.5931233"><ele>57.5</ele><time>2026-04-07T10:57:34.831Z</time></trkpt><trkpt lat="42.1910067" lon="14.593015"><ele>57.33333333333333</ele><time>2026-04-07T10:57:37.831Z</time></trkpt><trkpt lat="42.1910267" lon="14.5929217"><ele>57.166666666666664</ele><time>2026-04-07T10:57:40.831Z</time></trkpt><trkpt lat="42.1910533" lon="14.5928267"><ele>57.0</ele><time>2026-04-07T10:57:43.832Z</time></trkpt><trkpt lat="42.191085" lon="14.5927317"><ele>57.5</ele><time>2026-04-07T10:57:46.831Z</time></trkpt><trkpt lat="42.1911183" lon="14.59263"><ele>58.0</ele><time>2026-04-07T10:57:49.831Z</time></trkpt><trkpt lat="42.1911567" lon="14.59253"><ele>58.5</ele><time>2026-04-07T10:57:52.831Z</time></trkpt><trkpt lat="42.19119" lon="14.5924367"><ele>59.0</ele><time>2026-04-07T10:57:55.831Z</time></trkpt><trkpt lat="42.1912267" lon="14.5923533"><ele>59.5</ele><time>2026-04-07T10:57:58.831Z</time></trkpt><trkpt lat="42.191265" lon="14.59226"><ele>60.0</ele><time>2026-04-07T10:58:02.831Z</time></trkpt><trkpt lat="42.191295" lon="14.59217"><ele>60.0</ele><time>2026-04-07T10:58:05.831Z</time></trkpt><trkpt lat="42.1913217" lon="14.5920883"><ele>60.0</ele><time>2026-04-07T10:58:08.831Z</time></trkpt><trkpt lat="42.191345" lon="14.5920067"><ele>60.0</ele><time>2026-04-07T10:58:11.832Z</time></trkpt><trkpt lat="42.1913583" lon="14.5919067"><ele>60.0</ele><time>2026-04-07T10:58:14.831Z</time></trkpt><trkpt lat="42.1913617" lon="14.5917833"><ele>60.0</ele><time>2026-04-07T10:58:17.831Z</time></trkpt><trkpt lat="42.1913433" lon="14.59167"><ele>60.0</ele><time>2026-04-07T10:58:20.831Z</time></trkpt><trkpt lat="42.1913067" lon="14.59157"><ele>60.28571428571429</ele><time>2026-04-07T10:58:23.832Z</time></trkpt><trkpt lat="42.19128" lon="14.591485"><ele>60.57142857142857</ele><time>2026-04-07T10:58:26.831Z</time></trkpt><trkpt lat="42.1912333" lon="14.5913817"><ele>60.85714285714286</ele><time>2026-04-07T10:58:29.831Z</time></trkpt><trkpt lat="42.1912067" lon="14.591285"><ele>61.142857142857146</ele><time>2026-04-07T10:58:32.831Z</time></trkpt><trkpt lat="42.1912083" lon="14.591185"><ele>61.42857142857143</ele><time>2026-04-07T10:58:37.831Z</time></trkpt><trkpt lat="42.1912467" lon="14.5910983"><ele>61.714285714285715</ele><time>2026-04-07T10:58:41.832Z</time></trkpt><trkpt lat="42.1912683" lon="14.5910167"><ele>62.0</ele><time>2026-04-07T10:58:44.831Z</time></trkpt><trkpt lat="42.1912967" lon="14.5909383"><ele>62.333333333333336</ele><time>2026-04-07T10:58:47.831Z</time></trkpt><trkpt lat="42.1913167" lon="14.59085"><ele>62.66666666666667</ele><time>2026-04-07T10:58:50.831Z</time></trkpt><trkpt lat="42.1913383" lon="14.5907567"><ele>63.0</ele><time>2026-04-07T10:58:53.831Z</time></trkpt><trkpt lat="42.19137" lon="14.590655"><ele>63.33333333333333</ele><time>2026-04-07T10:58:56.831Z</time></trkpt><trkpt lat="42.1914033" lon="14.5905533"><ele>63.666666666666664</ele><time>2026-04-07T10:58:59.831Z</time></trkpt><trkpt lat="42.1914383" lon="14.5904667"><ele>64.0</ele><time>2026-04-07T10:59:02.831Z</time></trkpt><trkpt lat="42.191475" lon="14.5903767"><ele>65.5</ele><time>2026-04-07T10:59:05.831Z</time></trkpt><trkpt lat="42.1915133" lon="14.5902867"><ele>67.0</ele><time>2026-04-07T10:59:08.832Z</time></trkpt><trkpt lat="42.1915417" lon="14.5901883"><ele>68.5</ele><time>2026-04-07T10:59:11.831Z</time></trkpt><trkpt lat="42.1915667" lon="14.5900733"><ele>70.0</ele><time>2026-04-07T10:59:14.831Z</time></trkpt><trkpt lat="42.1915767" lon="14.5899633"><ele>71.5</ele><time>2026-04-07T10:59:17.832Z</time></trkpt><trkpt lat="42.1915683" lon="14.589855"><ele>73.0</ele><time>2026-04-07T10:59:19.831Z</time></trkpt><trkpt lat="42.1915517" lon="14.58975"><ele>73.0</ele><time>2026-04-07T10:59:21.832Z</time></trkpt><trkpt lat="42.1915183" lon="14.5896633"><ele>73.0</ele><time>2026-04-07T10:59:23.831Z</time></trkpt><trkpt lat="42.19149" lon="14.5895817"><ele>73.0</ele><time>2026-04-07T10:59:25.831Z</time></trkpt><trkpt lat="42.19146" lon="14.589495"><ele>73.0</ele><time>2026-04-07T10:59:27.831Z</time></trkpt><trkpt lat="42.1914283" lon="14.5894167"><ele>73.0</ele><time>2026-04-07T10:59:29.831Z</time></trkpt><trkpt lat="42.1913767" lon="14.5893117"><ele>73.0</ele><time>2026-04-07T10:59:32.832Z</time></trkpt><trkpt lat="42.1913383" lon="14.5892433"><ele>73.0</ele><time>2026-04-07T10:59:34.832Z</time></trkpt><trkpt lat="42.191295" lon="14.589145"><ele>72.57142857142857</ele><time>2026-04-07T10:59:37.831Z</time></trkpt><trkpt lat="42.19127" lon="14.5890667"><ele>72.14285714285714</ele><time>2026-04-07T10:59:39.831Z</time></trkpt><trkpt lat="42.1912383" lon="14.5889833"><ele>71.71428571428572</ele><time>2026-04-07T10:59:41.831Z</time></trkpt><trkpt lat="42.1912083" lon="14.58889"><ele>71.28571428571428</ele><time>2026-04-07T10:59:43.831Z</time></trkpt><trkpt lat="42.1911717" lon="14.5887967"><ele>70.85714285714286</ele><time>2026-04-07T10:59:45.831Z</time></trkpt><trkpt lat="42.1911483" lon="14.5887033"><ele>70.42857142857143</ele><time>2026-04-07T10:59:47.831Z</time></trkpt><trkpt lat="42.1911217" lon="14.5886133"><ele>70.0</ele><time>2026-04-07T10:59:49.831Z</time></trkpt><trkpt lat="42.1910967" lon="14.5885233"><ele>70.0</ele><time>2026-04-07T10:59:51.831Z</time></trkpt><trkpt lat="42.1910667" lon="14.5884383"><ele>70.0</ele><time>2026-04-07T10:59:53.832Z</time></trkpt><trkpt lat="42.1910333" lon="14.5883283"><ele>70.0</ele><time>2026-04-07T10:59:56.832Z</time></trkpt><trkpt lat="42.19099" lon="14.5882583"><ele>70.0</ele><time>2026-04-07T10:59:59.832Z</time></trkpt><trkpt lat="42.190905" lon="14.5882333"><ele>70.0</ele><time>2026-04-07T11:00:02.831Z</time></trkpt><trkpt lat="42.1908217" lon="14.5882117"><ele>70.0</ele><time>2026-04-07T11:00:05.831Z</time></trkpt><trkpt lat="42.1907467" lon="14.58819"><ele>70.0</ele><time>2026-04-07T11:00:08.831Z</time></trkpt><trkpt lat="42.190675" lon="14.5881867"><ele>70.0</ele><time>2026-04-07T11:00:44.831Z</time></trkpt><trkpt lat="42.190755" lon="14.5882267"><ele>70.0</ele><time>2026-04-07T11:00:49.832Z</time></trkpt><trkpt lat="42.19084" lon="14.588235"><ele>70.0</ele><time>2026-04-07T11:00:52.831Z</time></trkpt><trkpt lat="42.1909283" lon="14.5882517"><ele>70.0</ele><time>2026-04-07T11:00:55.831Z</time></trkpt><trkpt lat="42.190995" lon="14.58827"><ele>70.0</ele><time>2026-04-07T11:00:57.831Z</time></trkpt><trkpt lat="42.1910617" lon="14.58828"><ele>70.0</ele><time>2026-04-07T11:00:59.831Z</time></trkpt><trkpt lat="42.191125" lon="14.5882783"><ele>70.0</ele><time>2026-04-07T11:01:01.831Z</time></trkpt><trkpt lat="42.1912167" lon="14.5882817"><ele>70.0</ele><time>2026-04-07T11:01:04.831Z</time></trkpt><trkpt lat="42.191295" lon="14.5882817"><ele>70.0</ele><time>2026-04-07T11:01:07.831Z</time></trkpt><trkpt lat="42.1913633" lon="14.5882767"><ele>70.0</ele><time>2026-04-07T11:01:10.831Z</time></trkpt><trkpt lat="42.1914467" lon="14.5882733"><ele>70.0</ele><time>2026-04-07T11:01:14.831Z</time></trkpt><trkpt lat="42.19153" lon="14.5882717"><ele>71.28571428571429</ele><time>2026-04-07T11:01:17.831Z</time></trkpt><trkpt lat="42.1916067" lon="14.588265"><ele>72.57142857142857</ele><time>2026-04-07T11:01:20.831Z</time></trkpt><trkpt lat="42.1916817" lon="14.5882567"><ele>73.85714285714286</ele><time>2026-04-07T11:01:23.831Z</time></trkpt><trkpt lat="42.1917533" lon="14.588245"><ele>75.14285714285714</ele><time>2026-04-07T11:01:26.831Z</time></trkpt><trkpt lat="42.191825" lon="14.588245"><ele>76.42857142857143</ele><time>2026-04-07T11:01:29.831Z</time></trkpt><trkpt lat="42.1919033" lon="14.5882533"><ele>77.71428571428572</ele><time>2026-04-07T11:01:32.831Z</time></trkpt><trkpt lat="42.1919783" lon="14.5882533"><ele>79.0</ele><time>2026-04-07T11:01:35.831Z</time></trkpt><trkpt lat="42.1920467" lon="14.5882467"><ele>79.0</ele><time>2026-04-07T11:01:38.832Z</time></trkpt><trkpt lat="42.1921133" lon="14.588245"><ele>79.0</ele><time>2026-04-07T11:01:41.831Z</time></trkpt><trkpt lat="42.1921967" lon="14.588235"><ele>79.0</ele><time>2026-04-07T11:01:44.831Z</time></trkpt><trkpt lat="42.1922783" lon="14.588235"><ele>79.0</ele><time>2026-04-07T11:01:47.831Z</time></trkpt><trkpt lat="42.19236" lon="14.5882433"><ele>79.0</ele><time>2026-04-07T11:01:50.831Z</time></trkpt><trkpt lat="42.19244" lon="14.5882517"><ele>79.0</ele><time>2026-04-07T11:01:53.831Z</time></trkpt><trkpt lat="42.1925133" lon="14.58827"><ele>80.66666666666666</ele><time>2026-04-07T11:01:56.831Z</time></trkpt><trkpt lat="42.1925833" lon="14.58829"><ele>82.33333333333333</ele><time>2026-04-07T11:01:59.831Z</time></trkpt><trkpt lat="42.192675" lon="14.58831"><ele>84.0</ele><time>2026-04-07T11:02:02.831Z</time></trkpt><trkpt lat="42.1927633" lon="14.5883367"><ele>85.66666666666667</ele><time>2026-04-07T11:02:05.832Z</time></trkpt><trkpt lat="42.1928367" lon="14.588365"><ele>87.33333333333334</ele><time>2026-04-07T11:02:08.832Z</time></trkpt><trkpt lat="42.1929167" lon="14.5883783"><ele>89.0</ele><time>2026-04-07T11:02:11.831Z</time></trkpt><trkpt lat="42.1930033" lon="14.5883983"><ele>89.0</ele><time>2026-04-07T11:02:14.831Z</time></trkpt><trkpt lat="42.1930883" lon="14.5884317"><ele>89.0</ele><time>2026-04-07T11:02:17.831Z</time></trkpt><trkpt lat="42.1931783" lon="14.5884483"><ele>89.0</ele><time>2026-04-07T11:02:20.832Z</time></trkpt><trkpt lat="42.1932733" lon="14.58846"><ele>89.0</ele><time>2026-04-07T11:02:23.831Z</time></trkpt><trkpt lat="42.19335" lon="14.5884817"><ele>89.0</ele><time>2026-04-07T11:02:25.832Z</time></trkpt><trkpt lat="42.1934267" lon="14.5885017"><ele>89.0</ele><time>2026-04-07T11:02:27.831Z</time></trkpt><trkpt lat="42.1934917" lon="14.58852"><ele>89.28571428571428</ele><time>2026-04-07T11:02:29.831Z</time></trkpt><trkpt lat="42.1935617" lon="14.58854"><ele>89.57142857142857</ele><time>2026-04-07T11:02:31.831Z</time></trkpt><trkpt lat="42.19364" lon="14.58857"><ele>89.85714285714286</ele><time>2026-04-07T11:02:33.831Z</time></trkpt><trkpt lat="42.1937133" lon="14.5885933"><ele>90.14285714285714</ele><time>2026-04-07T11:02:35.832Z</time></trkpt><trkpt lat="42.19378" lon="14.5886117"><ele>90.42857142857143</ele><time>2026-04-07T11:02:37.832Z</time></trkpt><trkpt lat="42.1938617" lon="14.588655"><ele>90.71428571428571</ele><time>2026-04-07T11:02:40.831Z</time></trkpt><trkpt lat="42.193925" lon="14.5886733"><ele>91.0</ele><time>2026-04-07T11:02:42.831Z</time></trkpt><trkpt lat="42.1939933" lon="14.5886917"><ele>91.0</ele><time>2026-04-07T11:02:44.831Z</time></trkpt><trkpt lat="42.19407" lon="14.58871"><ele>91.0</ele><time>2026-04-07T11:02:46.831Z</time></trkpt><trkpt lat="42.19416" lon="14.5887383"><ele>91.0</ele><time>2026-04-07T11:02:48.831Z</time></trkpt><trkpt lat="42.1942617" lon="14.5887667"><ele>91.0</ele><time>2026-04-07T11:02:50.831Z</time></trkpt><trkpt lat="42.1943633" lon="14.5887933"><ele>91.0</ele><time>2026-04-07T11:02:52.831Z</time></trkpt><trkpt lat="42.1944667" lon="14.58882"><ele>91.0</ele><time>2026-04-07T11:02:54.831Z</time></trkpt><trkpt lat="42.1945667" lon="14.5888467"><ele>91.0</ele><time>2026-04-07T11:02:56.832Z</time></trkpt><trkpt lat="42.19466" lon="14.5888717"><ele>91.0</ele><time>2026-04-07T11:02:58.831Z</time></trkpt><trkpt lat="42.19475" lon="14.588895"><ele>91.0</ele><time>2026-04-07T11:03:00.831Z</time></trkpt><trkpt lat="42.1948383" lon="14.5889233"><ele>91.0</ele><time>2026-04-07T11:03:02.831Z</time></trkpt><trkpt lat="42.1949233" lon="14.5889417"><ele>90.16666666666666</ele><time>2026-04-07T11:03:04.831Z</time></trkpt><trkpt lat="42.1949933" lon="14.5889417"><ele>89.33333333333333</ele><time>2026-04-07T11:03:06.831Z</time></trkpt><trkpt lat="42.1950583" lon="14.588885"><ele>88.5</ele><time>2026-04-07T11:03:10.831Z</time></trkpt><trkpt lat="42.195105" lon="14.5887967"><ele>87.66666666666667</ele><time>2026-04-07T11:03:13.831Z</time></trkpt><trkpt lat="42.1951183" lon="14.5886883"><ele>86.83333333333334</ele><time>2026-04-07T11:03:15.832Z</time></trkpt><trkpt lat="42.195125" lon="14.5885617"><ele>86.0</ele><time>2026-04-07T11:03:17.831Z</time></trkpt><trkpt lat="42.19513" lon="14.5884183"><ele>85.6</ele><time>2026-04-07T11:03:19.832Z</time></trkpt><trkpt lat="42.1951167" lon="14.588285"><ele>85.19999999999999</ele><time>2026-04-07T11:03:21.831Z</time></trkpt><trkpt lat="42.195105" lon="14.5881583"><ele>84.80000000000001</ele><time>2026-04-07T11:03:23.831Z</time></trkpt><trkpt lat="42.1951017" lon="14.58803"><ele>84.4</ele><time>2026-04-07T11:03:25.831Z</time></trkpt><trkpt lat="42.1951033" lon="14.58791"><ele>84.0</ele><time>2026-04-07T11:03:27.831Z</time></trkpt><trkpt lat="42.19511" lon="14.5877833"><ele>83.80000000000001</ele><time>2026-04-07T11:03:29.831Z</time></trkpt><trkpt lat="42.1951117" lon="14.5876683"><ele>83.60000000000001</ele><time>2026-04-07T11:03:31.832Z</time></trkpt><trkpt lat="42.19512" lon="14.5875633"><ele>83.4</ele><time>2026-04-07T11:03:33.831Z</time></trkpt><trkpt lat="42.1951183" lon="14.5874533"><ele>83.2</ele><time>2026-04-07T11:03:36.831Z</time></trkpt><trkpt lat="42.1951767" lon="14.58742"><ele>83.0</ele><time>2026-04-07T11:03:41.832Z</time></trkpt><trkpt lat="42.19539" lon="14.587335"><ele>83.0</ele><time>2026-04-07T11:03:50.831Z</time></trkpt><trkpt lat="42.1954783" lon="14.58741"><ele>83.0</ele><time>2026-04-07T11:03:51.831Z</time></trkpt><trkpt lat="42.1955183" lon="14.5874983"><ele>83.0</ele><time>2026-04-07T11:03:52.831Z</time></trkpt><trkpt lat="42.19558" lon="14.58765"><ele>83.0</ele><time>2026-04-07T11:03:54.831Z</time></trkpt><trkpt lat="42.1956083" lon="14.5877867"><ele>83.0</ele><time>2026-04-07T11:03:56.831Z</time></trkpt><trkpt lat="42.1956733" lon="14.587905"><ele>79.2</ele><time>2026-04-07T11:03:58.831Z</time></trkpt><trkpt lat="42.195755" lon="14.5880033"><ele>75.4</ele><time>2026-04-07T11:04:00.831Z</time></trkpt><trkpt lat="42.19585" lon="14.5880983"><ele>71.60000000000001</ele><time>2026-04-07T11:04:02.832Z</time></trkpt><trkpt lat="42.1959067" lon="14.5881467"><ele>67.80000000000001</ele><time>2026-04-07T11:04:03.831Z</time></trkpt><trkpt lat="42.1959583" lon="14.5882017"><ele>64.0</ele><time>2026-04-07T11:04:04.831Z</time></trkpt><trkpt lat="42.1960417" lon="14.5882933"><ele>63.99999999999999</ele><time>2026-04-07T11:04:06.831Z</time></trkpt><trkpt lat="42.1960983" lon="14.5883633"><ele>64.0</ele><time>2026-04-07T11:04:08.831Z</time></trkpt><trkpt lat="42.196175" lon="14.588415"><ele>64.0</ele><time>2026-04-07T11:04:11.831Z</time></trkpt><trkpt lat="42.1962533" lon="14.5883883"><ele>64.0</ele><time>2026-04-07T11:04:14.831Z</time></trkpt><trkpt lat="42.1962967" lon="14.5883217"><ele>63.99999999999999</ele><time>2026-04-07T11:04:16.831Z</time></trkpt><trkpt lat="42.1963483" lon="14.5882317"><ele>64.0</ele><time>2026-04-07T11:04:18.831Z</time></trkpt><trkpt lat="42.196405" lon="14.588145"><ele>63.99999999999999</ele><time>2026-04-07T11:04:20.832Z</time></trkpt><trkpt lat="42.1964483" lon="14.58807"><ele>64.0</ele><time>2026-04-07T11:04:22.831Z</time></trkpt><trkpt lat="42.1964983" lon="14.5879767"><ele>64.0</ele><time>2026-04-07T11:04:25.832Z</time></trkpt><trkpt lat="42.196525" lon="14.587865"><ele>64.0</ele><time>2026-04-07T11:04:27.831Z</time></trkpt><trkpt lat="42.1965517" lon="14.58774"><ele>63.99999999999999</ele><time>2026-04-07T11:04:29.831Z</time></trkpt><trkpt lat="42.1965767" lon="14.5876033"><ele>64.0</ele><time>2026-04-07T11:04:31.831Z</time></trkpt><trkpt lat="42.196605" lon="14.5874767"><ele>60.83333333333333</ele><time>2026-04-07T11:04:33.831Z</time></trkpt><trkpt lat="42.1966367" lon="14.5873583"><ele>57.666666666666664</ele><time>2026-04-07T11:04:35.831Z</time></trkpt><trkpt lat="42.19667" lon="14.587245"><ele>54.5</ele><time>2026-04-07T11:04:37.831Z</time></trkpt><trkpt lat="42.1966917" lon="14.5871567"><ele>51.33333333333333</ele><time>2026-04-07T11:04:39.831Z</time></trkpt><trkpt lat="42.1967067" lon="14.587045"><ele>48.166666666666664</ele><time>2026-04-07T11:04:44.831Z</time></trkpt><trkpt lat="42.196735" lon="14.58693"><ele>45.0</ele><time>2026-04-07T11:04:47.831Z</time></trkpt><trkpt lat="42.1967633" lon="14.5868267"><ele>45.0</ele><time>2026-04-07T11:04:50.832Z</time></trkpt><trkpt lat="42.1968033" lon="14.58671"><ele>45.0</ele><time>2026-04-07T11:04:53.831Z</time></trkpt><trkpt lat="42.1968333" lon="14.5866217"><ele>45.0</ele><time>2026-04-07T11:04:55.832Z</time></trkpt><trkpt lat="42.1968633" lon="14.58652"><ele>45.0</ele><time>2026-04-07T11:04:57.831Z</time></trkpt><trkpt lat="42.196875" lon="14.5864283"><ele>45.0</ele><time>2026-04-07T11:04:59.831Z</time></trkpt><trkpt lat="42.1968917" lon="14.5863367"><ele>45.0</ele><time>2026-04-07T11:05:01.831Z</time></trkpt><trkpt lat="42.1969117" lon="14.586255"><ele>45.0</ele><time>2026-04-07T11:05:03.83Z</time></trkpt><trkpt lat="42.1969467" lon="14.5861517"><ele>45.0</ele><time>2026-04-07T11:05:06.831Z</time></trkpt><trkpt lat="42.1969967" lon="14.5860667"><ele>45.0</ele><time>2026-04-07T11:05:09.83Z</time></trkpt><trkpt lat="42.1970583" lon="14.5860383"><ele>45.0</ele><time>2026-04-07T11:05:11.831Z</time></trkpt><trkpt lat="42.1971267" lon="14.586015"><ele>45.0</ele><time>2026-04-07T11:05:13.83Z</time></trkpt><trkpt lat="42.1971983" lon="14.585995"><ele>45.0</ele><time>2026-04-07T11:05:15.83Z</time></trkpt><trkpt lat="42.1972933" lon="14.5859817"><ele>43.0</ele><time>2026-04-07T11:05:18.83Z</time></trkpt><trkpt lat="42.19737" lon="14.5859783"><ele>41.0</ele><time>2026-04-07T11:05:20.831Z</time></trkpt><trkpt lat="42.1974483" lon="14.5859683"><ele>39.0</ele><time>2026-04-07T11:05:22.83Z</time></trkpt><trkpt lat="42.1975217" lon="14.5859433"><ele>37.0</ele><time>2026-04-07T11:05:25.83Z</time></trkpt><trkpt lat="42.1976217" lon="14.5859383"><ele>35.0</ele><time>2026-04-07T11:05:28.83Z</time></trkpt><trkpt lat="42.197705" lon="14.5859267"><ele>33.0</ele><time>2026-04-07T11:05:30.83Z</time></trkpt><trkpt lat="42.19779" lon="14.585925"><ele>33.0</ele><time>2026-04-07T11:05:32.83Z</time></trkpt><trkpt lat="42.1978683" lon="14.58592"><ele>33.0</ele><time>2026-04-07T11:05:34.83Z</time></trkpt><trkpt lat="42.1979517" lon="14.5858883"><ele>33.0</ele><time>2026-04-07T11:05:36.83Z</time></trkpt><trkpt lat="42.1980367" lon="14.58586"><ele>33.0</ele><time>2026-04-07T11:05:38.831Z</time></trkpt><trkpt lat="42.1981317" lon="14.5858517"><ele>33.0</ele><time>2026-04-07T11:05:40.83Z</time></trkpt><trkpt lat="42.1982267" lon="14.5858417"><ele>33.0</ele><time>2026-04-07T11:05:42.83Z</time></trkpt><trkpt lat="42.1983083" lon="14.5858317"><ele>31.666666666666668</ele><time>2026-04-07T11:05:44.83Z</time></trkpt><trkpt lat="42.1983917" lon="14.5858183"><ele>30.333333333333336</ele><time>2026-04-07T11:05:46.83Z</time></trkpt><trkpt lat="42.19847" lon="14.5858167"><ele>29.0</ele><time>2026-04-07T11:05:48.83Z</time></trkpt><trkpt lat="42.1985533" lon="14.5858117"><ele>27.666666666666668</ele><time>2026-04-07T11:05:50.83Z</time></trkpt><trkpt lat="42.1986433" lon="14.5858083"><ele>26.333333333333336</ele><time>2026-04-07T11:05:52.83Z</time></trkpt><trkpt lat="42.1987267" lon="14.585795"><ele>25.0</ele><time>2026-04-07T11:05:54.83Z</time></trkpt><trkpt lat="42.19879" lon="14.5857867"><ele>25.000000000000004</ele><time>2026-04-07T11:05:56.83Z</time></trkpt><trkpt lat="42.198855" lon="14.5858283"><ele>25.0</ele><time>2026-04-07T11:06:00.83Z</time></trkpt><trkpt lat="42.1988433" lon="14.5859467"><ele>25.0</ele><time>2026-04-07T11:06:04.83Z</time></trkpt><trkpt lat="42.1988333" lon="14.5860383"><ele>25.0</ele><time>2026-04-07T11:06:06.83Z</time></trkpt><trkpt lat="42.1988317" lon="14.5861267"><ele>25.0</ele><time>2026-04-07T11:06:08.83Z</time></trkpt><trkpt lat="42.198835" lon="14.586225"><ele>25.000000000000004</ele><time>2026-04-07T11:06:10.831Z</time></trkpt><trkpt lat="42.1988317" lon="14.586315"><ele>25.0</ele><time>2026-04-07T11:06:12.83Z</time></trkpt><trkpt lat="42.1988233" lon="14.58641"><ele>25.166666666666668</ele><time>2026-04-07T11:06:14.83Z</time></trkpt><trkpt lat="42.1988133" lon="14.5865067"><ele>25.333333333333336</ele><time>2026-04-07T11:06:16.83Z</time></trkpt><trkpt lat="42.19879" lon="14.5866"><ele>25.5</ele><time>2026-04-07T11:06:18.83Z</time></trkpt><trkpt lat="42.1987717" lon="14.5867017"><ele>25.666666666666664</ele><time>2026-04-07T11:06:20.83Z</time></trkpt><trkpt lat="42.1987617" lon="14.5868133"><ele>25.833333333333332</ele><time>2026-04-07T11:06:22.83Z</time></trkpt><trkpt lat="42.1987517" lon="14.586925"><ele>26.0</ele><time>2026-04-07T11:06:24.831Z</time></trkpt><trkpt lat="42.1987433" lon="14.5870483"><ele>25.999999999999996</ele><time>2026-04-07T11:06:26.83Z</time></trkpt><trkpt lat="42.19874" lon="14.5871783"><ele>26.0</ele><time>2026-04-07T11:06:28.83Z</time></trkpt><trkpt lat="42.1987333" lon="14.587305"><ele>26.0</ele><time>2026-04-07T11:06:30.831Z</time></trkpt><trkpt lat="42.1987317" lon="14.5874267"><ele>26.0</ele><time>2026-04-07T11:06:32.83Z</time></trkpt><trkpt lat="42.1987383" lon="14.587515"><ele>25.999999999999996</ele><time>2026-04-07T11:06:34.83Z</time></trkpt><trkpt lat="42.1987767" lon="14.58759"><ele>26.0</ele><time>2026-04-07T11:06:36.831Z</time></trkpt><trkpt lat="42.198825" lon="14.58769"><ele>26.0</ele><time>2026-04-07T11:06:39.83Z</time></trkpt><trkpt lat="42.198895" lon="14.5877483"><ele>26.0</ele><time>2026-04-07T11:06:42.83Z</time></trkpt><trkpt lat="42.1989617" lon="14.5877283"><ele>26.0</ele><time>2026-04-07T11:06:46.83Z</time></trkpt><trkpt lat="42.1990267" lon="14.5876917"><ele>26.0</ele><time>2026-04-07T11:06:50.83Z</time></trkpt><trkpt lat="42.1991083" lon="14.5876883"><ele>26.0</ele><time>2026-04-07T11:06:53.83Z</time></trkpt><trkpt lat="42.199175" lon="14.587695"><ele>26.0</ele><time>2026-04-07T11:06:55.831Z</time></trkpt><trkpt lat="42.1992433" lon="14.5877"><ele>26.0</ele><time>2026-04-07T11:06:57.83Z</time></trkpt><trkpt lat="42.1993333" lon="14.5877017"><ele>24.285714285714285</ele><time>2026-04-07T11:07:00.83Z</time></trkpt><trkpt lat="42.1994017" lon="14.5877067"><ele>22.571428571428573</ele><time>2026-04-07T11:07:02.83Z</time></trkpt><trkpt lat="42.1994883" lon="14.5877017"><ele>20.857142857142858</ele><time>2026-04-07T11:07:05.83Z</time></trkpt><trkpt lat="42.1995783" lon="14.5877017"><ele>19.142857142857142</ele><time>2026-04-07T11:07:08.83Z</time></trkpt><trkpt lat="42.1996467" lon="14.5877033"><ele>17.42857142857143</ele><time>2026-04-07T11:07:10.831Z</time></trkpt><trkpt lat="42.1997133" lon="14.587705"><ele>15.714285714285715</ele><time>2026-04-07T11:07:12.83Z</time></trkpt><trkpt lat="42.1997783" lon="14.5877067"><ele>14.0</ele><time>2026-04-07T11:07:14.83Z</time></trkpt><trkpt lat="42.1998467" lon="14.5877033"><ele>13.500000000000002</ele><time>2026-04-07T11:07:16.83Z</time></trkpt><trkpt lat="42.1999267" lon="14.5877033"><ele>13.0</ele><time>2026-04-07T11:07:19.83Z</time></trkpt><trkpt lat="42.1999933" lon="14.5877067"><ele>12.5</ele><time>2026-04-07T11:07:21.83Z</time></trkpt><trkpt lat="42.200075" lon="14.5877"><ele>12.0</ele><time>2026-04-07T11:07:24.83Z</time></trkpt><trkpt lat="42.2001667" lon="14.5876983"><ele>11.5</ele><time>2026-04-07T11:07:27.831Z</time></trkpt><trkpt lat="42.2002533" lon="14.5877"><ele>11.0</ele><time>2026-04-07T11:07:30.83Z</time></trkpt><trkpt lat="42.2003467" lon="14.5877"><ele>11.0</ele><time>2026-04-07T11:07:33.83Z</time></trkpt><trkpt lat="42.2004117" lon="14.587705"><ele>11.0</ele><time>2026-04-07T11:07:35.83Z</time></trkpt><trkpt lat="42.20048" lon="14.5877083"><ele>11.0</ele><time>2026-04-07T11:07:37.83Z</time></trkpt><trkpt lat="42.20055" lon="14.587705"><ele>11.0</ele><time>2026-04-07T11:07:39.83Z</time></trkpt><trkpt lat="42.2006133" lon="14.587705"><ele>11.0</ele><time>2026-04-07T11:07:41.83Z</time></trkpt><trkpt lat="42.2007067" lon="14.5877017"><ele>11.0</ele><time>2026-04-07T11:07:44.83Z</time></trkpt><trkpt lat="42.2007917" lon="14.5877067"><ele>11.0</ele><time>2026-04-07T11:07:47.83Z</time></trkpt><trkpt lat="42.2008733" lon="14.5877117"><ele>11.0</ele><time>2026-04-07T11:07:50.83Z</time></trkpt><trkpt lat="42.2009367" lon="14.5877133"><ele>11.0</ele><time>2026-04-07T11:07:52.83Z</time></trkpt><trkpt lat="42.2010183" lon="14.5877117"><ele>11.0</ele><time>2026-04-07T11:07:55.83Z</time></trkpt><trkpt lat="42.2011033" lon="14.5877117"><ele>11.0</ele><time>2026-04-07T11:07:58.83Z</time></trkpt><trkpt lat="42.2011783" lon="14.5877133"><ele>11.0</ele><time>2026-04-07T11:08:02.83Z</time></trkpt><trkpt lat="42.20121" lon="14.587805"><ele>11.0</ele><time>2026-04-07T11:08:18.83Z</time></trkpt><trkpt lat="42.2012433" lon="14.5879017"><ele>11.0</ele><time>2026-04-07T11:08:21.831Z</time></trkpt><trkpt lat="42.2013383" lon="14.58793"><ele>11.0</ele><time>2026-04-07T11:08:24.831Z</time></trkpt><trkpt lat="42.2014017" lon="14.5878933"><ele>11.0</ele><time>2026-04-07T11:08:27.83Z</time></trkpt><trkpt lat="42.2014417" lon="14.5878117"><ele>11.0</ele><time>2026-04-07T11:08:30.83Z</time></trkpt><trkpt lat="42.201455" lon="14.58772"><ele>11.0</ele><time>2026-04-07T11:08:33.83Z</time></trkpt><trkpt lat="42.2014717" lon="14.5876233"><ele>11.0</ele><time>2026-04-07T11:08:36.83Z</time></trkpt><trkpt lat="42.2014917" lon="14.5875133"><ele>11.166666666666666</ele><time>2026-04-07T11:08:39.83Z</time></trkpt><trkpt lat="42.2015083" lon="14.5874217"><ele>11.333333333333332</ele><time>2026-04-07T11:08:41.831Z</time></trkpt><trkpt lat="42.2015267" lon="14.5873367"><ele>11.5</ele><time>2026-04-07T11:08:43.831Z</time></trkpt><trkpt lat="42.2015417" lon="14.5872483"><ele>11.666666666666666</ele><time>2026-04-07T11:08:45.831Z</time></trkpt><trkpt lat="42.201555" lon="14.58714"><ele>11.833333333333334</ele><time>2026-04-07T11:08:47.83Z</time></trkpt><trkpt lat="42.2015683" lon="14.5870483"><ele>12.0</ele><time>2026-04-07T11:08:49.83Z</time></trkpt><trkpt lat="42.2015783" lon="14.5869167"><ele>12.166666666666666</ele><time>2026-04-07T11:08:52.83Z</time></trkpt><trkpt lat="42.201595" lon="14.5868117"><ele>12.333333333333332</ele><time>2026-04-07T11:08:54.83Z</time></trkpt><trkpt lat="42.2016133" lon="14.5866983"><ele>12.5</ele><time>2026-04-07T11:08:56.831Z</time></trkpt><trkpt lat="42.2016333" lon="14.5865833"><ele>12.666666666666666</ele><time>2026-04-07T11:08:58.83Z</time></trkpt><trkpt lat="42.201645" lon="14.5864917"><ele>12.833333333333332</ele><time>2026-04-07T11:09:00.83Z</time></trkpt><trkpt lat="42.2016633" lon="14.586395"><ele>13.0</ele><time>2026-04-07T11:09:02.83Z</time></trkpt><trkpt lat="42.2016767" lon="14.58631"><ele>12.999999999999998</ele><time>2026-04-07T11:09:04.83Z</time></trkpt><trkpt lat="42.201695" lon="14.5862233"><ele>13.0</ele><time>2026-04-07T11:09:06.83Z</time></trkpt><trkpt lat="42.2017167" lon="14.5861233"><ele>13.0</ele><time>2026-04-07T11:09:08.83Z</time></trkpt><trkpt lat="42.201745" lon="14.5860317"><ele>13.0</ele><time>2026-04-07T11:09:10.83Z</time></trkpt><trkpt lat="42.20178" lon="14.5859267"><ele>12.999999999999998</ele><time>2026-04-07T11:09:12.83Z</time></trkpt><trkpt lat="42.201815" lon="14.5858267"><ele>13.0</ele><time>2026-04-07T11:09:14.83Z</time></trkpt><trkpt lat="42.2018567" lon="14.5857233"><ele>12.833333333333332</ele><time>2026-04-07T11:09:16.83Z</time></trkpt><trkpt lat="42.2019" lon="14.585625"><ele>12.666666666666666</ele><time>2026-04-07T11:09:18.831Z</time></trkpt><trkpt lat="42.2019467" lon="14.58553"><ele>12.5</ele><time>2026-04-07T11:09:20.83Z</time></trkpt><trkpt lat="42.2019967" lon="14.5854417"><ele>12.333333333333332</ele><time>2026-04-07T11:09:22.83Z</time></trkpt><trkpt lat="42.20206" lon="14.5853583"><ele>12.166666666666666</ele><time>2026-04-07T11:09:24.83Z</time></trkpt><trkpt lat="42.202115" lon="14.58529"><ele>12.0</ele><time>2026-04-07T11:09:26.83Z</time></trkpt><trkpt lat="42.2021717" lon="14.5852217"><ele>12.0</ele><time>2026-04-07T11:09:28.83Z</time></trkpt><trkpt lat="42.2022233" lon="14.5851583"><ele>12.0</ele><time>2026-04-07T11:09:30.831Z</time></trkpt><trkpt lat="42.2022867" lon="14.585095"><ele>12.0</ele><time>2026-04-07T11:09:32.83Z</time></trkpt><trkpt lat="42.2023633" lon="14.585025"><ele>12.0</ele><time>2026-04-07T11:09:34.83Z</time></trkpt><trkpt lat="42.20244" lon="14.5849667"><ele>12.0</ele><time>2026-04-07T11:09:36.83Z</time></trkpt><trkpt lat="42.2025183" lon="14.5849167"><ele>12.0</ele><time>2026-04-07T11:09:38.83Z</time></trkpt><trkpt lat="42.2025933" lon="14.58488"><ele>11.833333333333334</ele><time>2026-04-07T11:09:40.83Z</time></trkpt><trkpt lat="42.2026583" lon="14.5848367"><ele>11.666666666666666</ele><time>2026-04-07T11:09:42.831Z</time></trkpt><trkpt lat="42.2027117" lon="14.5847867"><ele>11.5</ele><time>2026-04-07T11:09:44.83Z</time></trkpt><trkpt lat="42.2027767" lon="14.584755"><ele>11.333333333333332</ele><time>2026-04-07T11:09:46.83Z</time></trkpt><trkpt lat="42.2028567" lon="14.58472"><ele>11.166666666666666</ele><time>2026-04-07T11:09:49.83Z</time></trkpt><trkpt lat="42.2029317" lon="14.5846433"><ele>11.0</ele><time>2026-04-07T11:09:52.83Z</time></trkpt><trkpt lat="42.2029817" lon="14.5845867"><ele>11.166666666666666</ele><time>2026-04-07T11:09:54.83Z</time></trkpt><trkpt lat="42.2030283" lon="14.5845033"><ele>11.333333333333332</ele><time>2026-04-07T11:09:57.83Z</time></trkpt><trkpt lat="42.2030717" lon="14.58441"><ele>11.5</ele><time>2026-04-07T11:10:01.83Z</time></trkpt><trkpt lat="42.20313" lon="14.5843483"><ele>11.666666666666666</ele><time>2026-04-07T11:10:05.83Z</time></trkpt><trkpt lat="42.203205" lon="14.58434"><ele>11.833333333333334</ele><time>2026-04-07T11:10:08.83Z</time></trkpt><trkpt lat="42.20328" lon="14.5843467"><ele>12.0</ele><time>2026-04-07T11:10:11.83Z</time></trkpt><trkpt lat="42.2033483" lon="14.58436"><ele>11.857142857142856</ele><time>2026-04-07T11:10:14.83Z</time></trkpt><trkpt lat="42.2034033" lon="14.5844017"><ele>11.714285714285714</ele><time>2026-04-07T11:10:19.83Z</time></trkpt><trkpt lat="42.203465" lon="14.58444"><ele>11.571428571428571</ele><time>2026-04-07T11:10:23.83Z</time></trkpt><trkpt lat="42.2035333" lon="14.5844933"><ele>11.428571428571427</ele><time>2026-04-07T11:10:26.83Z</time></trkpt><trkpt lat="42.2035967" lon="14.584535"><ele>11.285714285714285</ele><time>2026-04-07T11:10:29.83Z</time></trkpt><trkpt lat="42.2036617" lon="14.5845583"><ele>11.142857142857142</ele><time>2026-04-07T11:10:33.83Z</time></trkpt><trkpt lat="42.203725" lon="14.5845917"><ele>11.0</ele><time>2026-04-07T11:10:36.83Z</time></trkpt><trkpt lat="42.2038067" lon="14.584615"><ele>11.0</ele><time>2026-04-07T11:10:39.831Z</time></trkpt><trkpt lat="42.2038833" lon="14.58462"><ele>11.0</ele><time>2026-04-07T11:10:42.83Z</time></trkpt><trkpt lat="42.2039483" lon="14.5846033"><ele>11.0</ele><time>2026-04-07T11:10:45.831Z</time></trkpt><trkpt lat="42.2040117" lon="14.584575"><ele>11.0</ele><time>2026-04-07T11:10:48.831Z</time></trkpt><trkpt lat="42.2040733" lon="14.5845417"><ele>11.0</ele><time>2026-04-07T11:10:51.83Z</time></trkpt><trkpt lat="42.2041367" lon="14.5844867"><ele>11.0</ele><time>2026-04-07T11:10:55.83Z</time></trkpt><trkpt lat="42.2041883" lon="14.5844267"><ele>11.0</ele><time>2026-04-07T11:10:59.83Z</time></trkpt><trkpt lat="42.2042483" lon="14.5843583"><ele>12.285714285714286</ele><time>2026-04-07T11:11:03.831Z</time></trkpt><trkpt lat="42.2043" lon="14.5842883"><ele>13.571428571428571</ele><time>2026-04-07T11:11:06.831Z</time></trkpt><trkpt lat="42.2043483" lon="14.5842333"><ele>14.857142857142858</ele><time>2026-04-07T11:11:09.831Z</time></trkpt><trkpt lat="42.2044017" lon="14.584155"><ele>16.142857142857142</ele><time>2026-04-07T11:11:13.83Z</time></trkpt><trkpt lat="42.20445" lon="14.584095"><ele>17.42857142857143</ele><time>2026-04-07T11:11:16.831Z</time></trkpt><trkpt lat="42.2045" lon="14.5840417"><ele>18.714285714285715</ele><time>2026-04-07T11:11:19.83Z</time></trkpt><trkpt lat="42.2045617" lon="14.5839783"><ele>20.0</ele><time>2026-04-07T11:11:22.83Z</time></trkpt><trkpt lat="42.2046233" lon="14.5839333"><ele>20.0</ele><time>2026-04-07T11:11:25.83Z</time></trkpt><trkpt lat="42.2047017" lon="14.5839017"><ele>20.0</ele><time>2026-04-07T11:11:29.831Z</time></trkpt><trkpt lat="42.2047633" lon="14.5838783"><ele>20.0</ele><time>2026-04-07T11:11:32.831Z</time></trkpt><trkpt lat="42.2048267" lon="14.58386"><ele>20.0</ele><time>2026-04-07T11:11:35.83Z</time></trkpt><trkpt lat="42.2048883" lon="14.5838417"><ele>20.0</ele><time>2026-04-07T11:11:38.83Z</time></trkpt><trkpt lat="42.2049567" lon="14.5838283"><ele>20.0</ele><time>2026-04-07T11:11:42.83Z</time></trkpt><trkpt lat="42.205025" lon="14.5838333"><ele>20.0</ele><time>2026-04-07T11:11:46.831Z</time></trkpt><trkpt lat="42.2050933" lon="14.58384"><ele>21.142857142857142</ele><time>2026-04-07T11:11:51.83Z</time></trkpt><trkpt lat="42.2051333" lon="14.5839117"><ele>22.285714285714285</ele><time>2026-04-07T11:11:56.83Z</time></trkpt><trkpt lat="42.2051483" lon="14.5839967"><ele>23.42857142857143</ele><time>2026-04-07T11:11:59.83Z</time></trkpt><trkpt lat="42.2051583" lon="14.5840817"><ele>24.57142857142857</ele><time>2026-04-07T11:12:01.83Z</time></trkpt><trkpt lat="42.2051633" lon="14.5841717"><ele>25.714285714285715</ele><time>2026-04-07T11:12:03.83Z</time></trkpt><trkpt lat="42.20517" lon="14.5842633"><ele>26.857142857142858</ele><time>2026-04-07T11:12:05.83Z</time></trkpt><trkpt lat="42.205175" lon="14.5843633"><ele>28.0</ele><time>2026-04-07T11:12:07.83Z</time></trkpt><trkpt lat="42.20518" lon="14.5844717"><ele>28.500000000000004</ele><time>2026-04-07T11:12:09.83Z</time></trkpt><trkpt lat="42.20519" lon="14.5845833"><ele>29.0</ele><time>2026-04-07T11:12:11.83Z</time></trkpt><trkpt lat="42.2052017" lon="14.5847"><ele>29.5</ele><time>2026-04-07T11:12:13.83Z</time></trkpt><trkpt lat="42.2052133" lon="14.5848083"><ele>30.0</ele><time>2026-04-07T11:12:15.83Z</time></trkpt><trkpt lat="42.2052133" lon="14.5849117"><ele>30.500000000000004</ele><time>2026-04-07T11:12:17.831Z</time></trkpt><trkpt lat="42.2052133" lon="14.5850267"><ele>31.0</ele><time>2026-04-07T11:12:19.83Z</time></trkpt><trkpt lat="42.2052167" lon="14.5851383"><ele>31.000000000000004</ele><time>2026-04-07T11:12:21.83Z</time></trkpt><trkpt lat="42.20522" lon="14.5852567"><ele>31.0</ele><time>2026-04-07T11:12:23.83Z</time></trkpt><trkpt lat="42.2052283" lon="14.585375"><ele>31.0</ele><time>2026-04-07T11:12:25.831Z</time></trkpt><trkpt lat="42.2052333" lon="14.585495"><ele>31.0</ele><time>2026-04-07T11:12:27.83Z</time></trkpt><trkpt lat="42.205235" lon="14.5856067"><ele>31.000000000000004</ele><time>2026-04-07T11:12:29.83Z</time></trkpt><trkpt lat="42.20523" lon="14.5857267"><ele>31.0</ele><time>2026-04-07T11:12:31.83Z</time></trkpt><trkpt lat="42.2052267" lon="14.585835"><ele>31.0</ele><time>2026-04-07T11:12:33.83Z</time></trkpt><trkpt lat="42.2052283" lon="14.5859517"><ele>31.0</ele><time>2026-04-07T11:12:35.831Z</time></trkpt><trkpt lat="42.2052317" lon="14.5860633"><ele>31.0</ele><time>2026-04-07T11:12:37.83Z</time></trkpt><trkpt lat="42.2052383" lon="14.586185"><ele>31.0</ele><time>2026-04-07T11:12:39.83Z</time></trkpt><trkpt lat="42.20524" lon="14.586315"><ele>31.0</ele><time>2026-04-07T11:12:41.83Z</time></trkpt><trkpt lat="42.2052483" lon="14.5864467"><ele>30.6</ele><time>2026-04-07T11:12:43.83Z</time></trkpt><trkpt lat="42.2052517" lon="14.5865683"><ele>30.200000000000003</ele><time>2026-04-07T11:12:45.831Z</time></trkpt><trkpt lat="42.2052517" lon="14.58669"><ele>29.799999999999997</ele><time>2026-04-07T11:12:47.83Z</time></trkpt><trkpt lat="42.2052533" lon="14.586815"><ele>29.4</ele><time>2026-04-07T11:12:49.831Z</time></trkpt><trkpt lat="42.2052517" lon="14.586945"><ele>29.0</ele><time>2026-04-07T11:12:51.83Z</time></trkpt><trkpt lat="42.2052583" lon="14.5870783"><ele>29.0</ele><time>2026-04-07T11:12:53.83Z</time></trkpt><trkpt lat="42.2052633" lon="14.5872133"><ele>29.0</ele><time>2026-04-07T11:12:55.83Z</time></trkpt><trkpt lat="42.2052683" lon="14.587345"><ele>29.0</ele><time>2026-04-07T11:12:57.831Z</time></trkpt><trkpt lat="42.205275" lon="14.58747"><ele>29.0</ele><time>2026-04-07T11:12:59.83Z</time></trkpt><trkpt lat="42.2052767" lon="14.5875967"><ele>29.0</ele><time>2026-04-07T11:13:01.831Z</time></trkpt><trkpt lat="42.20528" lon="14.5877133"><ele>29.0</ele><time>2026-04-07T11:13:03.831Z</time></trkpt><trkpt lat="42.205285" lon="14.5878267"><ele>29.0</ele><time>2026-04-07T11:13:05.83Z</time></trkpt><trkpt lat="42.2052767" lon="14.5879467"><ele>29.0</ele><time>2026-04-07T11:13:07.83Z</time></trkpt><trkpt lat="42.2052717" lon="14.5880733"><ele>29.0</ele><time>2026-04-07T11:13:09.83Z</time></trkpt><trkpt lat="42.20527" lon="14.588215"><ele>29.0</ele><time>2026-04-07T11:13:11.83Z</time></trkpt><trkpt lat="42.205265" lon="14.5883467"><ele>28.6</ele><time>2026-04-07T11:13:13.83Z</time></trkpt><trkpt lat="42.20525" lon="14.58847"><ele>28.2</ele><time>2026-04-07T11:13:15.831Z</time></trkpt><trkpt lat="42.205235" lon="14.5885983"><ele>27.800000000000004</ele><time>2026-04-07T11:13:17.83Z</time></trkpt><trkpt lat="42.205215" lon="14.588725"><ele>27.400000000000002</ele><time>2026-04-07T11:13:19.83Z</time></trkpt><trkpt lat="42.20519" lon="14.5888583"><ele>27.0</ele><time>2026-04-07T11:13:21.83Z</time></trkpt><trkpt lat="42.2051667" lon="14.58899"><ele>26.8</ele><time>2026-04-07T11:13:23.83Z</time></trkpt><trkpt lat="42.2051383" lon="14.58913"><ele>26.6</ele><time>2026-04-07T11:13:25.83Z</time></trkpt><trkpt lat="42.2051117" lon="14.589275"><ele>26.400000000000002</ele><time>2026-04-07T11:13:27.83Z</time></trkpt><trkpt lat="42.2050817" lon="14.5894233"><ele>26.200000000000003</ele><time>2026-04-07T11:13:29.83Z</time></trkpt><trkpt lat="42.2050533" lon="14.5895667"><ele>26.0</ele><time>2026-04-07T11:13:31.83Z</time></trkpt><trkpt lat="42.205025" lon="14.589715"><ele>25.75</ele><time>2026-04-07T11:13:33.83Z</time></trkpt><trkpt lat="42.2049967" lon="14.589855"><ele>25.5</ele><time>2026-04-07T11:13:35.83Z</time></trkpt><trkpt lat="42.2049667" lon="14.590005"><ele>25.25</ele><time>2026-04-07T11:13:37.83Z</time></trkpt><trkpt lat="42.2049383" lon="14.59017"><ele>25.0</ele><time>2026-04-07T11:13:39.831Z</time></trkpt><trkpt lat="42.2049017" lon="14.5903367"><ele>24.714285714285715</ele><time>2026-04-07T11:13:41.83Z</time></trkpt><trkpt lat="42.204885" lon="14.590425"><ele>24.42857142857143</ele><time>2026-04-07T11:13:42.83Z</time></trkpt><trkpt lat="42.2048717" lon="14.590515"><ele>24.142857142857146</ele><time>2026-04-07T11:13:43.83Z</time></trkpt><trkpt lat="42.2048533" lon="14.5906067"><ele>23.857142857142858</ele><time>2026-04-07T11:13:44.83Z</time></trkpt><trkpt lat="42.2048317" lon="14.5907033"><ele>23.57142857142857</ele><time>2026-04-07T11:13:45.831Z</time></trkpt><trkpt lat="42.2048167" lon="14.5908017"><ele>23.28571428571429</ele><time>2026-04-07T11:13:46.83Z</time></trkpt><trkpt lat="42.2048" lon="14.590895"><ele>23.0</ele><time>2026-04-07T11:13:47.83Z</time></trkpt><trkpt lat="42.2047817" lon="14.590985"><ele>22.142857142857142</ele><time>2026-04-07T11:13:48.83Z</time></trkpt><trkpt lat="42.2047633" lon="14.591085"><ele>21.285714285714285</ele><time>2026-04-07T11:13:49.83Z</time></trkpt><trkpt lat="42.2047517" lon="14.5911817"><ele>20.428571428571427</ele><time>2026-04-07T11:13:50.83Z</time></trkpt><trkpt lat="42.204735" lon="14.5912783"><ele>19.57142857142857</ele><time>2026-04-07T11:13:51.83Z</time></trkpt><trkpt lat="42.2047133" lon="14.5913783"><ele>18.714285714285715</ele><time>2026-04-07T11:13:52.83Z</time></trkpt><trkpt lat="42.2046917" lon="14.5914717"><ele>17.857142857142854</ele><time>2026-04-07T11:13:53.831Z</time></trkpt><trkpt lat="42.204675" lon="14.59157"><ele>17.0</ele><time>2026-04-07T11:13:54.83Z</time></trkpt><trkpt lat="42.2046533" lon="14.591675"><ele>16.666666666666668</ele><time>2026-04-07T11:13:55.83Z</time></trkpt><trkpt lat="42.204635" lon="14.591785"><ele>16.333333333333336</ele><time>2026-04-07T11:13:56.83Z</time></trkpt><trkpt lat="42.2046183" lon="14.5918933"><ele>16.0</ele><time>2026-04-07T11:13:57.83Z</time></trkpt><trkpt lat="42.2046" lon="14.5919883"><ele>15.666666666666668</ele><time>2026-04-07T11:13:58.831Z</time></trkpt><trkpt lat="42.20458" lon="14.5920833"><ele>15.333333333333334</ele><time>2026-04-07T11:13:59.83Z</time></trkpt><trkpt lat="42.2045583" lon="14.5921817"><ele>15.0</ele><time>2026-04-07T11:14:00.831Z</time></trkpt><trkpt lat="42.2045367" lon="14.5922833"><ele>14.5</ele><time>2026-04-07T11:14:01.83Z</time></trkpt><trkpt lat="42.2045117" lon="14.592385"><ele>14.0</ele><time>2026-04-07T11:14:02.831Z</time></trkpt><trkpt lat="42.2044933" lon="14.5924883"><ele>13.5</ele><time>2026-04-07T11:14:03.83Z</time></trkpt><trkpt lat="42.20447" lon="14.5925933"><ele>13.0</ele><time>2026-04-07T11:14:04.831Z</time></trkpt><trkpt lat="42.2044467" lon="14.5926983"><ele>12.5</ele><time>2026-04-07T11:14:05.83Z</time></trkpt><trkpt lat="42.2044283" lon="14.5928083"><ele>12.0</ele><time>2026-04-07T11:14:06.83Z</time></trkpt><trkpt lat="42.20441" lon="14.5929317"><ele>11.833333333333334</ele><time>2026-04-07T11:14:07.83Z</time></trkpt><trkpt lat="42.20439" lon="14.5930483"><ele>11.666666666666666</ele><time>2026-04-07T11:14:08.83Z</time></trkpt><trkpt lat="42.2043733" lon="14.59316"><ele>11.5</ele><time>2026-04-07T11:14:09.831Z</time></trkpt><trkpt lat="42.2043583" lon="14.5932667"><ele>11.333333333333332</ele><time>2026-04-07T11:14:10.83Z</time></trkpt><trkpt lat="42.2043433" lon="14.5933683"><ele>11.166666666666666</ele><time>2026-04-07T11:14:11.83Z</time></trkpt><trkpt lat="42.20433" lon="14.5934733"><ele>11.0</ele><time>2026-04-07T11:14:12.831Z</time></trkpt><trkpt lat="42.2043167" lon="14.593575"><ele>11.0</ele><time>2026-04-07T11:14:13.83Z</time></trkpt><trkpt lat="42.2043083" lon="14.593675"><ele>11.0</ele><time>2026-04-07T11:14:14.831Z</time></trkpt><trkpt lat="42.2043067" lon="14.5937783"><ele>11.0</ele><time>2026-04-07T11:14:15.83Z</time></trkpt><trkpt lat="42.2043017" lon="14.59388"><ele>11.0</ele><time>2026-04-07T11:14:16.831Z</time></trkpt><trkpt lat="42.2043" lon="14.5939767"><ele>11.0</ele><time>2026-04-07T11:14:17.831Z</time></trkpt><trkpt lat="42.2043" lon="14.5940783"><ele>11.0</ele><time>2026-04-07T11:14:18.831Z</time></trkpt><trkpt lat="42.2043033" lon="14.5941717"><ele>11.0</ele><time>2026-04-07T11:14:19.831Z</time></trkpt><trkpt lat="42.2043067" lon="14.5942583"><ele>11.0</ele><time>2026-04-07T11:14:20.83Z</time></trkpt><trkpt lat="42.2043067" lon="14.59435"><ele>11.0</ele><time>2026-04-07T11:14:21.831Z</time></trkpt><trkpt lat="42.2043117" lon="14.5944383"><ele>11.0</ele><time>2026-04-07T11:14:22.83Z</time></trkpt><trkpt lat="42.204315" lon="14.594525"><ele>11.0</ele><time>2026-04-07T11:14:23.83Z</time></trkpt><trkpt lat="42.2043283" lon="14.5946883"><ele>11.0</ele><time>2026-04-07T11:14:25.83Z</time></trkpt><trkpt lat="42.2043367" lon="14.594845"><ele>11.0</ele><time>2026-04-07T11:14:27.831Z</time></trkpt><trkpt lat="42.2043333" lon="14.594995"><ele>10.5</ele><time>2026-04-07T11:14:29.83Z</time></trkpt><trkpt lat="42.2043317" lon="14.595155"><ele>10.0</ele><time>2026-04-07T11:14:31.831Z</time></trkpt><trkpt lat="42.2043267" lon="14.5953067"><ele>9.5</ele><time>2026-04-07T11:14:33.83Z</time></trkpt><trkpt lat="42.2043267" lon="14.5954667"><ele>9.0</ele><time>2026-04-07T11:14:35.831Z</time></trkpt><trkpt lat="42.2043317" lon="14.59563"><ele>8.8</ele><time>2026-04-07T11:14:37.83Z</time></trkpt><trkpt lat="42.2043317" lon="14.59579"><ele>8.600000000000001</ele><time>2026-04-07T11:14:39.83Z</time></trkpt><trkpt lat="42.2043317" lon="14.5959433"><ele>8.4</ele><time>2026-04-07T11:14:41.83Z</time></trkpt><trkpt lat="42.2043217" lon="14.5960933"><ele>8.200000000000001</ele><time>2026-04-07T11:14:43.83Z</time></trkpt><trkpt lat="42.2043283" lon="14.5962183"><ele>8.0</ele><time>2026-04-07T11:14:45.831Z</time></trkpt><trkpt lat="42.2043167" lon="14.59634"><ele>8.0</ele><time>2026-04-07T11:14:47.83Z</time></trkpt><trkpt lat="42.2043033" lon="14.596475"><ele>8.0</ele><time>2026-04-07T11:14:49.83Z</time></trkpt><trkpt lat="42.204325" lon="14.5966267"><ele>8.0</ele><time>2026-04-07T11:14:51.83Z</time></trkpt><trkpt lat="42.204375" lon="14.59675"><ele>8.0</ele><time>2026-04-07T11:14:53.83Z</time></trkpt><trkpt lat="42.204395" lon="14.59689"><ele>8.0</ele><time>2026-04-07T11:14:55.83Z</time></trkpt><trkpt lat="42.2043633" lon="14.59702"><ele>8.0</ele><time>2026-04-07T11:14:57.83Z</time></trkpt><trkpt lat="42.2043283" lon="14.5971667"><ele>8.0</ele><time>2026-04-07T11:14:59.831Z</time></trkpt><trkpt lat="42.2043017" lon="14.59732"><ele>8.0</ele><time>2026-04-07T11:15:01.83Z</time></trkpt><trkpt lat="42.20429" lon="14.5974683"><ele>8.0</ele><time>2026-04-07T11:15:03.831Z</time></trkpt><trkpt lat="42.2042833" lon="14.5976183"><ele>8.0</ele><time>2026-04-07T11:15:05.83Z</time></trkpt><trkpt lat="42.20428" lon="14.5977667"><ele>8.0</ele><time>2026-04-07T11:15:07.83Z</time></trkpt><trkpt lat="42.2042683" lon="14.5979133"><ele>8.0</ele><time>2026-04-07T11:15:09.831Z</time></trkpt><trkpt lat="42.204265" lon="14.5980633"><ele>8.0</ele><time>2026-04-07T11:15:11.83Z</time></trkpt><trkpt lat="42.2042617" lon="14.598215"><ele>8.0</ele><time>2026-04-07T11:15:13.83Z</time></trkpt><trkpt lat="42.2042533" lon="14.598375"><ele>7.800000000000001</ele><time>2026-04-07T11:15:15.83Z</time></trkpt><trkpt lat="42.20425" lon="14.5985433"><ele>7.6000000000000005</ele><time>2026-04-07T11:15:17.83Z</time></trkpt><trkpt lat="42.204245" lon="14.5986983"><ele>7.3999999999999995</ele><time>2026-04-07T11:15:19.83Z</time></trkpt><trkpt lat="42.2042483" lon="14.59879"><ele>7.199999999999999</ele><time>2026-04-07T11:15:20.83Z</time></trkpt><trkpt lat="42.2042483" lon="14.5989533"><ele>7.0</ele><time>2026-04-07T11:15:22.83Z</time></trkpt><trkpt lat="42.2042433" lon="14.5991083"><ele>6.8</ele><time>2026-04-07T11:15:24.83Z</time></trkpt><trkpt lat="42.20423" lon="14.59925"><ele>6.6</ele><time>2026-04-07T11:15:26.831Z</time></trkpt><trkpt lat="42.2042167" lon="14.59939"><ele>6.3999999999999995</ele><time>2026-04-07T11:15:28.83Z</time></trkpt><trkpt lat="42.2042117" lon="14.5995433"><ele>6.199999999999999</ele><time>2026-04-07T11:15:30.83Z</time></trkpt><trkpt lat="42.2042117" lon="14.5996983"><ele>6.0</ele><time>2026-04-07T11:15:32.83Z</time></trkpt><trkpt lat="42.2042033" lon="14.5998483"><ele>6.0</ele><time>2026-04-07T11:15:34.831Z</time></trkpt><trkpt lat="42.2041983" lon="14.599995"><ele>6.0</ele><time>2026-04-07T11:15:36.831Z</time></trkpt><trkpt lat="42.204195" lon="14.60014"><ele>6.0</ele><time>2026-04-07T11:15:38.83Z</time></trkpt><trkpt lat="42.2041983" lon="14.600285"><ele>6.0</ele><time>2026-04-07T11:15:40.83Z</time></trkpt><trkpt lat="42.2041933" lon="14.60043"><ele>6.0</ele><time>2026-04-07T11:15:42.83Z</time></trkpt><trkpt lat="42.2041867" lon="14.6005733"><ele>6.0</ele><time>2026-04-07T11:15:44.83Z</time></trkpt><trkpt lat="42.204175" lon="14.6007183"><ele>6.0</ele><time>2026-04-07T11:15:46.83Z</time></trkpt><trkpt lat="42.20416" lon="14.6008583"><ele>6.0</ele><time>2026-04-07T11:15:48.83Z</time></trkpt><trkpt lat="42.2041617" lon="14.601005"><ele>6.0</ele><time>2026-04-07T11:15:50.83Z</time></trkpt><trkpt lat="42.2041583" lon="14.6011567"><ele>6.0</ele><time>2026-04-07T11:15:52.83Z</time></trkpt><trkpt lat="42.204155" lon="14.601295"><ele>5.8</ele><time>2026-04-07T11:15:54.83Z</time></trkpt><trkpt lat="42.204145" lon="14.6014467"><ele>5.6</ele><time>2026-04-07T11:15:56.83Z</time></trkpt><trkpt lat="42.2041367" lon="14.6015967"><ele>5.4</ele><time>2026-04-07T11:15:58.83Z</time></trkpt><trkpt lat="42.2041283" lon="14.6017367"><ele>5.2</ele><time>2026-04-07T11:16:00.83Z</time></trkpt><trkpt lat="42.20412" lon="14.6018883"><ele>5.0</ele><time>2026-04-07T11:16:02.83Z</time></trkpt><trkpt lat="42.2041067" lon="14.6020333"><ele>4.6</ele><time>2026-04-07T11:16:04.83Z</time></trkpt><trkpt lat="42.204095" lon="14.6021783"><ele>4.2</ele><time>2026-04-07T11:16:06.83Z</time></trkpt><trkpt lat="42.20408" lon="14.6023167"><ele>3.8</ele><time>2026-04-07T11:16:08.83Z</time></trkpt><trkpt lat="42.20408" lon="14.6024683"><ele>3.4</ele><time>2026-04-07T11:16:10.83Z</time></trkpt><trkpt lat="42.2040767" lon="14.6026133"><ele>3.0</ele><time>2026-04-07T11:16:12.83Z</time></trkpt><trkpt lat="42.20408" lon="14.6027517"><ele>2.6</ele><time>2026-04-07T11:16:14.83Z</time></trkpt><trkpt lat="42.204075" lon="14.602885"><ele>2.1999999999999997</ele><time>2026-04-07T11:16:16.83Z</time></trkpt><trkpt lat="42.2040767" lon="14.6030183"><ele>1.8</ele><time>2026-04-07T11:16:18.83Z</time></trkpt><trkpt lat="42.2040767" lon="14.6031433"><ele>1.4</ele><time>2026-04-07T11:16:20.831Z</time></trkpt><trkpt lat="42.2040783" lon="14.6032733"><ele>1.0</ele><time>2026-04-07T11:16:22.83Z</time></trkpt><trkpt lat="42.20409" lon="14.60341"><ele>1.0</ele><time>2026-04-07T11:16:24.83Z</time></trkpt><trkpt lat="42.2041067" lon="14.6035367"><ele>1.0</ele><time>2026-04-07T11:16:26.83Z</time></trkpt><trkpt lat="42.2041617" lon="14.6036383"><ele>1.0</ele><time>2026-04-07T11:16:28.83Z</time></trkpt><trkpt lat="42.20424" lon="14.6037033"><ele>1.0</ele><time>2026-04-07T11:16:30.831Z</time></trkpt><trkpt lat="42.2043283" lon="14.60376"><ele>1.0</ele><time>2026-04-07T11:16:32.83Z</time></trkpt><trkpt lat="42.2044133" lon="14.6037583"><ele>0.8333333333333333</ele><time>2026-04-07T11:16:34.83Z</time></trkpt><trkpt lat="42.2044817" lon="14.6037267"><ele>0.6666666666666666</ele><time>2026-04-07T11:16:36.83Z</time></trkpt><trkpt lat="42.2045417" lon="14.6036817"><ele>0.5</ele><time>2026-04-07T11:16:39.83Z</time></trkpt><trkpt lat="42.2045317" lon="14.6037683"><ele>0.3333333333333333</ele><time>2026-04-07T11:16:44.83Z</time></trkpt><trkpt lat="42.2044817" lon="14.60388"><ele>0.16666666666666666</ele><time>2026-04-07T11:16:47.83Z</time></trkpt><trkpt lat="42.20445" lon="14.6039683"><ele>0.0</ele><time>2026-04-07T11:16:49.831Z</time></trkpt><trkpt lat="42.204415" lon="14.60406"><ele>0.0</ele><time>2026-04-07T11:16:51.83Z</time></trkpt><trkpt lat="42.2043733" lon="14.6041517"><ele>0.0</ele><time>2026-04-07T11:16:53.83Z</time></trkpt><trkpt lat="42.20433" lon="14.6042433"><ele>0.0</ele><time>2026-04-07T11:16:55.83Z</time></trkpt><trkpt lat="42.2042833" lon="14.6043383"><ele>0.0</ele><time>2026-04-07T11:16:57.83Z</time></trkpt><trkpt lat="42.2042433" lon="14.604435"><ele>0.0</ele><time>2026-04-07T11:16:59.83Z</time></trkpt><trkpt lat="42.2042033" lon="14.6045367"><ele>0.0</ele><time>2026-04-07T11:17:01.83Z</time></trkpt><trkpt lat="42.2041667" lon="14.60464"><ele>0.16666666666666666</ele><time>2026-04-07T11:17:03.831Z</time></trkpt><trkpt lat="42.2041233" lon="14.6047483"><ele>0.3333333333333333</ele><time>2026-04-07T11:17:05.83Z</time></trkpt><trkpt lat="42.2040867" lon="14.6048483"><ele>0.5</ele><time>2026-04-07T11:17:07.83Z</time></trkpt><trkpt lat="42.2040433" lon="14.6049467"><ele>0.6666666666666666</ele><time>2026-04-07T11:17:09.829Z</time></trkpt><trkpt lat="42.203995" lon="14.605045"><ele>0.8333333333333333</ele><time>2026-04-07T11:17:11.829Z</time></trkpt><trkpt lat="42.20395" lon="14.6051483"><ele>1.0</ele><time>2026-04-07T11:17:13.829Z</time></trkpt><trkpt lat="42.2039033" lon="14.6052567"><ele>0.8333333333333333</ele><time>2026-04-07T11:17:15.829Z</time></trkpt><trkpt lat="42.2038583" lon="14.6053567"><ele>0.6666666666666666</ele><time>2026-04-07T11:17:17.829Z</time></trkpt><trkpt lat="42.2038183" lon="14.60546"><ele>0.5</ele><time>2026-04-07T11:17:19.829Z</time></trkpt><trkpt lat="42.203775" lon="14.60556"><ele>0.3333333333333333</ele><time>2026-04-07T11:17:21.829Z</time></trkpt><trkpt lat="42.2037283" lon="14.6056567"><ele>0.16666666666666666</ele><time>2026-04-07T11:17:23.829Z</time></trkpt><trkpt lat="42.203685" lon="14.6057533"><ele>0.0</ele><time>2026-04-07T11:17:25.829Z</time></trkpt><trkpt lat="42.2036433" lon="14.60585"><ele>0.0</ele><time>2026-04-07T11:17:27.83Z</time></trkpt><trkpt lat="42.2035983" lon="14.6059383"><ele>0.0</ele><time>2026-04-07T11:17:29.83Z</time></trkpt><trkpt lat="42.2035467" lon="14.60603"><ele>0.0</ele><time>2026-04-07T11:17:31.83Z</time></trkpt><trkpt lat="42.203495" lon="14.6061233"><ele>0.0</ele><time>2026-04-07T11:17:33.829Z</time></trkpt><trkpt lat="42.2034533" lon="14.606225"><ele>0.0</ele><time>2026-04-07T11:17:35.829Z</time></trkpt><trkpt lat="42.20341" lon="14.606335"><ele>0.0</ele><time>2026-04-07T11:17:37.83Z</time></trkpt><trkpt lat="42.203365" lon="14.6064333"><ele>0.16666666666666666</ele><time>2026-04-07T11:17:39.829Z</time></trkpt><trkpt lat="42.203315" lon="14.6065317"><ele>0.3333333333333333</ele><time>2026-04-07T11:17:41.829Z</time></trkpt><trkpt lat="42.2032683" lon="14.6066333"><ele>0.5</ele><time>2026-04-07T11:17:43.829Z</time></trkpt><trkpt lat="42.2032217" lon="14.6067483"><ele>0.6666666666666666</ele><time>2026-04-07T11:17:45.829Z</time></trkpt><trkpt lat="42.2031817" lon="14.6068533"><ele>0.8333333333333333</ele><time>2026-04-07T11:17:47.829Z</time></trkpt><trkpt lat="42.2031433" lon="14.6069517"><ele>1.0</ele><time>2026-04-07T11:17:49.829Z</time></trkpt><trkpt lat="42.2030967" lon="14.6070567"><ele>1.3333333333333333</ele><time>2026-04-07T11:17:51.829Z</time></trkpt><trkpt lat="42.20305" lon="14.6071533"><ele>1.6666666666666665</ele><time>2026-04-07T11:17:53.83Z</time></trkpt><trkpt lat="42.203005" lon="14.6072517"><ele>2.0</ele><time>2026-04-07T11:17:55.829Z</time></trkpt><trkpt lat="42.2029667" lon="14.6073483"><ele>2.3333333333333335</ele><time>2026-04-07T11:17:57.829Z</time></trkpt><trkpt lat="42.2029233" lon="14.6074567"><ele>2.6666666666666665</ele><time>2026-04-07T11:17:59.829Z</time></trkpt><trkpt lat="42.2028767" lon="14.6075567"><ele>3.0</ele><time>2026-04-07T11:18:01.829Z</time></trkpt><trkpt lat="42.2028267" lon="14.6076533"><ele>3.0</ele><time>2026-04-07T11:18:03.829Z</time></trkpt><trkpt lat="42.20278" lon="14.6077567"><ele>3.0</ele><time>2026-04-07T11:18:05.83Z</time></trkpt><trkpt lat="42.2027283" lon="14.6078533"><ele>3.0</ele><time>2026-04-07T11:18:07.829Z</time></trkpt><trkpt lat="42.2026817" lon="14.607965"><ele>3.0</ele><time>2026-04-07T11:18:09.829Z</time></trkpt><trkpt lat="42.202635" lon="14.6080767"><ele>3.0</ele><time>2026-04-07T11:18:11.829Z</time></trkpt><trkpt lat="42.2025933" lon="14.6081867"><ele>3.2</ele><time>2026-04-07T11:18:13.829Z</time></trkpt><trkpt lat="42.202545" lon="14.6082967"><ele>3.4</ele><time>2026-04-07T11:18:15.829Z</time></trkpt><trkpt lat="42.2025017" lon="14.608405"><ele>3.6000000000000005</ele><time>2026-04-07T11:18:17.829Z</time></trkpt><trkpt lat="42.2024583" lon="14.6085067"><ele>3.8000000000000003</ele><time>2026-04-07T11:18:19.83Z</time></trkpt><trkpt lat="42.20241" lon="14.608605"><ele>4.0</ele><time>2026-04-07T11:18:21.829Z</time></trkpt><trkpt lat="42.2023633" lon="14.60872"><ele>3.833333333333333</ele><time>2026-04-07T11:18:23.83Z</time></trkpt><trkpt lat="42.202325" lon="14.6088267"><ele>3.6666666666666665</ele><time>2026-04-07T11:18:25.829Z</time></trkpt><trkpt lat="42.2022833" lon="14.60893"><ele>3.5</ele><time>2026-04-07T11:18:27.829Z</time></trkpt><trkpt lat="42.2022417" lon="14.6090317"><ele>3.333333333333333</ele><time>2026-04-07T11:18:29.829Z</time></trkpt><trkpt lat="42.2022017" lon="14.6091433"><ele>3.1666666666666665</ele><time>2026-04-07T11:18:31.83Z</time></trkpt><trkpt lat="42.2021583" lon="14.6092483"><ele>3.0</ele><time>2026-04-07T11:18:33.83Z</time></trkpt><trkpt lat="42.2021117" lon="14.6093517"><ele>3.0</ele><time>2026-04-07T11:18:35.83Z</time></trkpt><trkpt lat="42.202065" lon="14.6094533"><ele>3.0</ele><time>2026-04-07T11:18:37.829Z</time></trkpt><trkpt lat="42.2020233" lon="14.6095683"><ele>3.0</ele><time>2026-04-07T11:18:39.829Z</time></trkpt><trkpt lat="42.201985" lon="14.609675"><ele>3.0</ele><time>2026-04-07T11:18:41.829Z</time></trkpt><trkpt lat="42.2019533" lon="14.6097967"><ele>3.0</ele><time>2026-04-07T11:18:43.829Z</time></trkpt><trkpt lat="42.2019283" lon="14.60991"><ele>3.0</ele><time>2026-04-07T11:18:45.83Z</time></trkpt><trkpt lat="42.2019267" lon="14.6100467"><ele>3.0</ele><time>2026-04-07T11:18:47.829Z</time></trkpt><trkpt lat="42.2019233" lon="14.6102033"><ele>3.0</ele><time>2026-04-07T11:18:49.83Z</time></trkpt><trkpt lat="42.201925" lon="14.6102883"><ele>3.0</ele><time>2026-04-07T11:18:50.829Z</time></trkpt><trkpt lat="42.201925" lon="14.61038"><ele>3.0</ele><time>2026-04-07T11:18:51.829Z</time></trkpt><trkpt lat="42.201905" lon="14.610545"><ele>3.4</ele><time>2026-04-07T11:18:53.83Z</time></trkpt><trkpt lat="42.2018767" lon="14.6106217"><ele>3.8</ele><time>2026-04-07T11:18:54.829Z</time></trkpt><trkpt lat="42.201815" lon="14.6107633"><ele>4.2</ele><time>2026-04-07T11:18:56.829Z</time></trkpt><trkpt lat="42.201765" lon="14.6109"><ele>4.6</ele><time>2026-04-07T11:18:58.829Z</time></trkpt><trkpt lat="42.20172" lon="14.6110333"><ele>5.0</ele><time>2026-04-07T11:19:00.829Z</time></trkpt><trkpt lat="42.2016783" lon="14.6111583"><ele>5.0</ele><time>2026-04-07T11:19:02.829Z</time></trkpt><trkpt lat="42.201645" lon="14.6112667"><ele>5.0</ele><time>2026-04-07T11:19:04.829Z</time></trkpt><trkpt lat="42.2016083" lon="14.6113733"><ele>5.0</ele><time>2026-04-07T11:19:06.829Z</time></trkpt><trkpt lat="42.2015717" lon="14.6114917"><ele>5.0</ele><time>2026-04-07T11:19:08.829Z</time></trkpt><trkpt lat="42.2015433" lon="14.6116033"><ele>5.0</ele><time>2026-04-07T11:19:10.83Z</time></trkpt><trkpt lat="42.2015083" lon="14.6117033"><ele>5.0</ele><time>2026-04-07T11:19:12.829Z</time></trkpt><trkpt lat="42.2014733" lon="14.6118067"><ele>5.0</ele><time>2026-04-07T11:19:14.829Z</time></trkpt><trkpt lat="42.2014417" lon="14.6119167"><ele>5.0</ele><time>2026-04-07T11:19:16.829Z</time></trkpt><trkpt lat="42.2014117" lon="14.61203"><ele>5.0</ele><time>2026-04-07T11:19:18.829Z</time></trkpt><trkpt lat="42.201385" lon="14.6121367"><ele>5.0</ele><time>2026-04-07T11:19:20.829Z</time></trkpt><trkpt lat="42.20135" lon="14.6122483"><ele>5.0</ele><time>2026-04-07T11:19:22.829Z</time></trkpt><trkpt lat="42.20132" lon="14.612355"><ele>5.0</ele><time>2026-04-07T11:19:24.829Z</time></trkpt><trkpt lat="42.20129" lon="14.61246"><ele>5.166666666666667</ele><time>2026-04-07T11:19:26.829Z</time></trkpt><trkpt lat="42.201265" lon="14.61257"><ele>5.333333333333334</ele><time>2026-04-07T11:19:28.83Z</time></trkpt><trkpt lat="42.201235" lon="14.6126817"><ele>5.5</ele><time>2026-04-07T11:19:30.829Z</time></trkpt><trkpt lat="42.2012067" lon="14.612795"><ele>5.666666666666667</ele><time>2026-04-07T11:19:32.829Z</time></trkpt><trkpt lat="42.2011717" lon="14.6128883"><ele>5.833333333333333</ele><time>2026-04-07T11:19:34.829Z</time></trkpt><trkpt lat="42.2011383" lon="14.6129867"><ele>6.0</ele><time>2026-04-07T11:19:36.83Z</time></trkpt><trkpt lat="42.201105" lon="14.6130933"><ele>6.166666666666667</ele><time>2026-04-07T11:19:38.829Z</time></trkpt><trkpt lat="42.2010733" lon="14.6131817"><ele>6.333333333333334</ele><time>2026-04-07T11:19:40.829Z</time></trkpt><trkpt lat="42.2010417" lon="14.6132733"><ele>6.5</ele><time>2026-04-07T11:19:42.829Z</time></trkpt><trkpt lat="42.2010033" lon="14.6133583"><ele>6.666666666666667</ele><time>2026-04-07T11:19:44.829Z</time></trkpt><trkpt lat="42.2009633" lon="14.613445"><ele>6.833333333333334</ele><time>2026-04-07T11:19:46.829Z</time></trkpt><trkpt lat="42.200935" lon="14.61355"><ele>7.0</ele><time>2026-04-07T11:19:48.829Z</time></trkpt><trkpt lat="42.2009067" lon="14.6136467"><ele>6.666666666666667</ele><time>2026-04-07T11:19:50.829Z</time></trkpt><trkpt lat="42.2008767" lon="14.6137383"><ele>6.333333333333334</ele><time>2026-04-07T11:19:52.829Z</time></trkpt><trkpt lat="42.2008517" lon="14.6138317"><ele>6.0</ele><time>2026-04-07T11:19:54.829Z</time></trkpt><trkpt lat="42.200825" lon="14.6139283"><ele>5.666666666666667</ele><time>2026-04-07T11:19:56.829Z</time></trkpt><trkpt lat="42.200805" lon="14.6140283"><ele>5.333333333333334</ele><time>2026-04-07T11:19:58.829Z</time></trkpt><trkpt lat="42.2007833" lon="14.6141267"><ele>5.0</ele><time>2026-04-07T11:20:00.83Z</time></trkpt><trkpt lat="42.200755" lon="14.6142267"><ele>5.0</ele><time>2026-04-07T11:20:02.829Z</time></trkpt><trkpt lat="42.200725" lon="14.61433"><ele>5.0</ele><time>2026-04-07T11:20:04.83Z</time></trkpt><trkpt lat="42.2007" lon="14.6144433"><ele>5.0</ele><time>2026-04-07T11:20:06.829Z</time></trkpt><trkpt lat="42.2006717" lon="14.614555"><ele>5.0</ele><time>2026-04-07T11:20:08.829Z</time></trkpt><trkpt lat="42.2006583" lon="14.614675"><ele>5.0</ele><time>2026-04-07T11:20:10.829Z</time></trkpt><trkpt lat="42.20066" lon="14.6147933"><ele>5.0</ele><time>2026-04-07T11:20:12.829Z</time></trkpt><trkpt lat="42.2006367" lon="14.6149233"><ele>4.833333333333334</ele><time>2026-04-07T11:20:14.829Z</time></trkpt><trkpt lat="42.2005933" lon="14.6150333"><ele>4.666666666666667</ele><time>2026-04-07T11:20:16.83Z</time></trkpt><trkpt lat="42.2005483" lon="14.6151217"><ele>4.5</ele><time>2026-04-07T11:20:18.829Z</time></trkpt><trkpt lat="42.200505" lon="14.6152"><ele>4.333333333333333</ele><time>2026-04-07T11:20:20.829Z</time></trkpt><trkpt lat="42.200465" lon="14.6152733"><ele>4.166666666666666</ele><time>2026-04-07T11:20:22.829Z</time></trkpt><trkpt lat="42.2004117" lon="14.6153517"><ele>4.0</ele><time>2026-04-07T11:20:24.83Z</time></trkpt><trkpt lat="42.2003683" lon="14.6154417"><ele>4.0</ele><time>2026-04-07T11:20:26.83Z</time></trkpt><trkpt lat="42.2003367" lon="14.6155217"><ele>3.9999999999999996</ele><time>2026-04-07T11:20:28.829Z</time></trkpt><trkpt lat="42.2003083" lon="14.6156"><ele>4.0</ele><time>2026-04-07T11:20:30.829Z</time></trkpt><trkpt lat="42.2002617" lon="14.6157067"><ele>4.0</ele><time>2026-04-07T11:20:33.829Z</time></trkpt><trkpt lat="42.2002267" lon="14.6157933"><ele>3.9999999999999996</ele><time>2026-04-07T11:20:35.829Z</time></trkpt><trkpt lat="42.2001967" lon="14.61588"><ele>4.0</ele><time>2026-04-07T11:20:37.829Z</time></trkpt><trkpt lat="42.200165" lon="14.615975"><ele>4.0</ele><time>2026-04-07T11:20:39.829Z</time></trkpt><trkpt lat="42.2001333" lon="14.6160767"><ele>3.4999999999999996</ele><time>2026-04-07T11:20:41.83Z</time></trkpt><trkpt lat="42.2001067" lon="14.6161717"><ele>3.0</ele><time>2026-04-07T11:20:43.829Z</time></trkpt><trkpt lat="42.200075" lon="14.616265"><ele>2.5</ele><time>2026-04-07T11:20:45.829Z</time></trkpt><trkpt lat="42.2000433" lon="14.6163667"><ele>2.0</ele><time>2026-04-07T11:20:47.83Z</time></trkpt><trkpt lat="42.2000083" lon="14.6164667"><ele>1.5</ele><time>2026-04-07T11:20:49.829Z</time></trkpt><trkpt lat="42.199965" lon="14.61657"><ele>1.0</ele><time>2026-04-07T11:20:51.829Z</time></trkpt><trkpt lat="42.1999267" lon="14.6166667"><ele>1.0</ele><time>2026-04-07T11:20:53.83Z</time></trkpt><trkpt lat="42.1998933" lon="14.6167733"><ele>1.0</ele><time>2026-04-07T11:20:55.829Z</time></trkpt><trkpt lat="42.1998517" lon="14.61688"><ele>1.0</ele><time>2026-04-07T11:20:57.829Z</time></trkpt><trkpt lat="42.199815" lon="14.617"><ele>1.0</ele><time>2026-04-07T11:20:59.829Z</time></trkpt><trkpt lat="42.1997767" lon="14.6171217"><ele>1.0</ele><time>2026-04-07T11:21:01.829Z</time></trkpt><trkpt lat="42.1997333" lon="14.617235"><ele>1.4</ele><time>2026-04-07T11:21:03.829Z</time></trkpt><trkpt lat="42.1996867" lon="14.6173533"><ele>1.8</ele><time>2026-04-07T11:21:05.829Z</time></trkpt><trkpt lat="42.1996433" lon="14.6174667"><ele>2.1999999999999997</ele><time>2026-04-07T11:21:07.829Z</time></trkpt><trkpt lat="42.1996067" lon="14.61758"><ele>2.6</ele><time>2026-04-07T11:21:09.829Z</time></trkpt><trkpt lat="42.1995717" lon="14.6177083"><ele>3.0</ele><time>2026-04-07T11:21:11.83Z</time></trkpt><trkpt lat="42.1995383" lon="14.61782"><ele>3.0</ele><time>2026-04-07T11:21:13.829Z</time></trkpt><trkpt lat="42.1994967" lon="14.617935"><ele>3.0</ele><time>2026-04-07T11:21:15.829Z</time></trkpt><trkpt lat="42.1994583" lon="14.61806"><ele>3.0</ele><time>2026-04-07T11:21:17.829Z</time></trkpt><trkpt lat="42.19942" lon="14.6181783"><ele>3.0</ele><time>2026-04-07T11:21:19.829Z</time></trkpt><trkpt lat="42.19938" lon="14.6183"><ele>3.0</ele><time>2026-04-07T11:21:21.829Z</time></trkpt><trkpt lat="42.1993383" lon="14.6184133"><ele>3.0</ele><time>2026-04-07T11:21:23.83Z</time></trkpt><trkpt lat="42.199295" lon="14.618525"><ele>3.0</ele><time>2026-04-07T11:21:25.829Z</time></trkpt><trkpt lat="42.1992467" lon="14.618645"><ele>3.0</ele><time>2026-04-07T11:21:27.829Z</time></trkpt><trkpt lat="42.19921" lon="14.6187733"><ele>3.0</ele><time>2026-04-07T11:21:29.829Z</time></trkpt><trkpt lat="42.19918" lon="14.6188817"><ele>3.0</ele><time>2026-04-07T11:21:31.829Z</time></trkpt><trkpt lat="42.1991467" lon="14.618985"><ele>2.8333333333333335</ele><time>2026-04-07T11:21:33.829Z</time></trkpt><trkpt lat="42.199115" lon="14.6190883"><ele>2.6666666666666665</ele><time>2026-04-07T11:21:35.829Z</time></trkpt><trkpt lat="42.1990817" lon="14.6191917"><ele>2.5</ele><time>2026-04-07T11:21:37.829Z</time></trkpt><trkpt lat="42.199045" lon="14.6193"><ele>2.333333333333333</ele><time>2026-04-07T11:21:39.829Z</time></trkpt><trkpt lat="42.199005" lon="14.6194133"><ele>2.1666666666666665</ele><time>2026-04-07T11:21:41.829Z</time></trkpt><trkpt lat="42.1989633" lon="14.6195217"><ele>2.0</ele><time>2026-04-07T11:21:43.83Z</time></trkpt><trkpt lat="42.1989217" lon="14.619645"><ele>3.4000000000000004</ele><time>2026-04-07T11:21:45.829Z</time></trkpt><trkpt lat="42.198875" lon="14.6197583"><ele>4.800000000000001</ele><time>2026-04-07T11:21:47.83Z</time></trkpt><trkpt lat="42.1988267" lon="14.619855"><ele>6.2</ele><time>2026-04-07T11:21:49.829Z</time></trkpt><trkpt lat="42.1987967" lon="14.61999"><ele>7.6000000000000005</ele><time>2026-04-07T11:21:51.83Z</time></trkpt><trkpt lat="42.1987817" lon="14.6201267"><ele>9.0</ele><time>2026-04-07T11:21:53.829Z</time></trkpt><trkpt lat="42.19875" lon="14.62025"><ele>9.0</ele><time>2026-04-07T11:21:55.83Z</time></trkpt><trkpt lat="42.1987117" lon="14.6203817"><ele>9.0</ele><time>2026-04-07T11:21:57.829Z</time></trkpt><trkpt lat="42.1986833" lon="14.62051"><ele>9.0</ele><time>2026-04-07T11:21:59.829Z</time></trkpt><trkpt lat="42.1986533" lon="14.62064"><ele>9.0</ele><time>2026-04-07T11:22:01.83Z</time></trkpt><trkpt lat="42.1986167" lon="14.6207583"><ele>9.0</ele><time>2026-04-07T11:22:03.829Z</time></trkpt><trkpt lat="42.19858" lon="14.6208717"><ele>9.0</ele><time>2026-04-07T11:22:05.829Z</time></trkpt><trkpt lat="42.198535" lon="14.6209867"><ele>9.0</ele><time>2026-04-07T11:22:07.829Z</time></trkpt><trkpt lat="42.1985" lon="14.6211167"><ele>9.0</ele><time>2026-04-07T11:22:09.83Z</time></trkpt><trkpt lat="42.1984717" lon="14.6212433"><ele>9.0</ele><time>2026-04-07T11:22:11.829Z</time></trkpt><trkpt lat="42.198445" lon="14.6213733"><ele>9.0</ele><time>2026-04-07T11:22:13.829Z</time></trkpt><trkpt lat="42.198415" lon="14.6215017"><ele>8.8</ele><time>2026-04-07T11:22:15.829Z</time></trkpt><trkpt lat="42.198375" lon="14.62163"><ele>8.600000000000001</ele><time>2026-04-07T11:22:17.829Z</time></trkpt><trkpt lat="42.1983333" lon="14.621735"><ele>8.4</ele><time>2026-04-07T11:22:19.829Z</time></trkpt><trkpt lat="42.1982983" lon="14.62185"><ele>8.200000000000001</ele><time>2026-04-07T11:22:21.829Z</time></trkpt><trkpt lat="42.19826" lon="14.6219667"><ele>8.0</ele><time>2026-04-07T11:22:23.829Z</time></trkpt><trkpt lat="42.1982317" lon="14.6220917"><ele>7.2</ele><time>2026-04-07T11:22:25.829Z</time></trkpt><trkpt lat="42.1982" lon="14.6222167"><ele>6.4</ele><time>2026-04-07T11:22:27.829Z</time></trkpt><trkpt lat="42.19816" lon="14.6223333"><ele>5.6000000000000005</ele><time>2026-04-07T11:22:29.829Z</time></trkpt><trkpt lat="42.1981217" lon="14.62245"><ele>4.800000000000001</ele><time>2026-04-07T11:22:31.829Z</time></trkpt><trkpt lat="42.1980883" lon="14.6225733"><ele>4.0</ele><time>2026-04-07T11:22:33.829Z</time></trkpt><trkpt lat="42.1980517" lon="14.6226917"><ele>5.4</ele><time>2026-04-07T11:22:35.829Z</time></trkpt><trkpt lat="42.1980183" lon="14.6228117"><ele>6.800000000000001</ele><time>2026-04-07T11:22:37.829Z</time></trkpt><trkpt lat="42.19798" lon="14.6229167"><ele>8.200000000000001</ele><time>2026-04-07T11:22:39.829Z</time></trkpt><trkpt lat="42.1979283" lon="14.623025"><ele>9.600000000000001</ele><time>2026-04-07T11:22:41.829Z</time></trkpt><trkpt lat="42.1978983" lon="14.6231517"><ele>11.0</ele><time>2026-04-07T11:22:43.83Z</time></trkpt><trkpt lat="42.1978767" lon="14.623285"><ele>11.0</ele><time>2026-04-07T11:22:45.83Z</time></trkpt><trkpt lat="42.1978467" lon="14.6234083"><ele>11.0</ele><time>2026-04-07T11:22:47.829Z</time></trkpt><trkpt lat="42.1978117" lon="14.62353"><ele>11.0</ele><time>2026-04-07T11:22:49.829Z</time></trkpt><trkpt lat="42.1977817" lon="14.6236617"><ele>11.0</ele><time>2026-04-07T11:22:51.829Z</time></trkpt><trkpt lat="42.19775" lon="14.623785"><ele>11.0</ele><time>2026-04-07T11:22:53.83Z</time></trkpt><trkpt lat="42.1977117" lon="14.6239067"><ele>10.600000000000001</ele><time>2026-04-07T11:22:55.829Z</time></trkpt><trkpt lat="42.1976767" lon="14.62403"><ele>10.200000000000001</ele><time>2026-04-07T11:22:57.829Z</time></trkpt><trkpt lat="42.19764" lon="14.6241467"><ele>9.8</ele><time>2026-04-07T11:22:59.829Z</time></trkpt><trkpt lat="42.1976083" lon="14.624275"><ele>9.4</ele><time>2026-04-07T11:23:01.83Z</time></trkpt><trkpt lat="42.1975667" lon="14.6243883"><ele>9.0</ele><time>2026-04-07T11:23:03.829Z</time></trkpt><trkpt lat="42.1975217" lon="14.6245017"><ele>8.2</ele><time>2026-04-07T11:23:05.829Z</time></trkpt><trkpt lat="42.19748" lon="14.6246133"><ele>7.4</ele><time>2026-04-07T11:23:07.83Z</time></trkpt><trkpt lat="42.19744" lon="14.624725"><ele>6.6</ele><time>2026-04-07T11:23:09.829Z</time></trkpt><trkpt lat="42.1974" lon="14.6248417"><ele>5.8</ele><time>2026-04-07T11:23:11.829Z</time></trkpt><trkpt lat="42.197355" lon="14.6249617"><ele>5.0</ele><time>2026-04-07T11:23:13.829Z</time></trkpt><trkpt lat="42.197315" lon="14.62508"><ele>5.4</ele><time>2026-04-07T11:23:15.829Z</time></trkpt><trkpt lat="42.197275" lon="14.6251933"><ele>5.8</ele><time>2026-04-07T11:23:17.829Z</time></trkpt><trkpt lat="42.1972333" lon="14.6253117"><ele>6.199999999999999</ele><time>2026-04-07T11:23:19.829Z</time></trkpt><trkpt lat="42.197185" lon="14.6254267"><ele>6.6</ele><time>2026-04-07T11:23:21.829Z</time></trkpt><trkpt lat="42.19714" lon="14.625545"><ele>7.0</ele><time>2026-04-07T11:23:23.829Z</time></trkpt><trkpt lat="42.1971017" lon="14.62566"><ele>7.0</ele><time>2026-04-07T11:23:25.829Z</time></trkpt><trkpt lat="42.1970617" lon="14.6257817"><ele>6.999999999999999</ele><time>2026-04-07T11:23:27.829Z</time></trkpt><trkpt lat="42.1970183" lon="14.6258967"><ele>6.999999999999999</ele><time>2026-04-07T11:23:29.829Z</time></trkpt><trkpt lat="42.196975" lon="14.6260033"><ele>7.0</ele><time>2026-04-07T11:23:31.829Z</time></trkpt><trkpt lat="42.1969333" lon="14.6261267"><ele>7.0</ele><time>2026-04-07T11:23:33.829Z</time></trkpt><trkpt lat="42.1968917" lon="14.6262433"><ele>5.6</ele><time>2026-04-07T11:23:35.83Z</time></trkpt><trkpt lat="42.1968483" lon="14.6263567"><ele>4.199999999999999</ele><time>2026-04-07T11:23:37.829Z</time></trkpt><trkpt lat="42.1968067" lon="14.6264733"><ele>2.8</ele><time>2026-04-07T11:23:39.83Z</time></trkpt><trkpt lat="42.1967683" lon="14.6265883"><ele>1.4</ele><time>2026-04-07T11:23:41.829Z</time></trkpt><trkpt lat="42.196725" lon="14.6267033"><ele>0.0</ele><time>2026-04-07T11:23:43.829Z</time></trkpt><trkpt lat="42.1966867" lon="14.6268217"><ele>0.0</ele><time>2026-04-07T11:23:45.829Z</time></trkpt><trkpt lat="42.196645" lon="14.6269383"><ele>0.0</ele><time>2026-04-07T11:23:47.829Z</time></trkpt><trkpt lat="42.1966017" lon="14.62705"><ele>0.0</ele><time>2026-04-07T11:23:49.829Z</time></trkpt><trkpt lat="42.1965617" lon="14.6271717"><ele>0.0</ele><time>2026-04-07T11:23:51.829Z</time></trkpt><trkpt lat="42.1965233" lon="14.6272883"><ele>0.0</ele><time>2026-04-07T11:23:53.829Z</time></trkpt><trkpt lat="42.1964933" lon="14.6274"><ele>0.6666666666666666</ele><time>2026-04-07T11:23:55.829Z</time></trkpt><trkpt lat="42.1964717" lon="14.6275067"><ele>1.3333333333333333</ele><time>2026-04-07T11:23:57.829Z</time></trkpt><trkpt lat="42.1964433" lon="14.62761"><ele>2.0</ele><time>2026-04-07T11:23:59.829Z</time></trkpt><trkpt lat="42.1964117" lon="14.6277133"><ele>2.6666666666666665</ele><time>2026-04-07T11:24:01.829Z</time></trkpt><trkpt lat="42.1963733" lon="14.62782"><ele>3.333333333333333</ele><time>2026-04-07T11:24:03.829Z</time></trkpt><trkpt lat="42.196335" lon="14.6279167"><ele>4.0</ele><time>2026-04-07T11:24:05.829Z</time></trkpt><trkpt lat="42.1963033" lon="14.6280117"><ele>3.9999999999999996</ele><time>2026-04-07T11:24:07.83Z</time></trkpt><trkpt lat="42.1962683" lon="14.6281017"><ele>4.0</ele><time>2026-04-07T11:24:09.829Z</time></trkpt><trkpt lat="42.1962383" lon="14.6281933"><ele>4.0</ele><time>2026-04-07T11:24:11.829Z</time></trkpt><trkpt lat="42.1962167" lon="14.628275"><ele>4.0</ele><time>2026-04-07T11:24:13.83Z</time></trkpt><trkpt lat="42.196175" lon="14.6283767"><ele>3.9999999999999996</ele><time>2026-04-07T11:24:16.829Z</time></trkpt><trkpt lat="42.1961383" lon="14.6284783"><ele>4.0</ele><time>2026-04-07T11:24:19.83Z</time></trkpt><trkpt lat="42.19612" lon="14.6285917"><ele>3.9999999999999996</ele><time>2026-04-07T11:24:22.829Z</time></trkpt><trkpt lat="42.196095" lon="14.6287083"><ele>4.0</ele><time>2026-04-07T11:24:25.829Z</time></trkpt><trkpt lat="42.1960783" lon="14.628795"><ele>4.0</ele><time>2026-04-07T11:24:27.829Z</time></trkpt><trkpt lat="42.1960733" lon="14.628895"><ele>4.0</ele><time>2026-04-07T11:24:29.829Z</time></trkpt><trkpt lat="42.1960783" lon="14.6289967"><ele>3.9999999999999996</ele><time>2026-04-07T11:24:31.83Z</time></trkpt><trkpt lat="42.1960667" lon="14.6290983"><ele>4.0</ele><time>2026-04-07T11:24:33.829Z</time></trkpt><trkpt lat="42.196045" lon="14.629185"><ele>3.9999999999999996</ele><time>2026-04-07T11:24:35.829Z</time></trkpt><trkpt lat="42.1960217" lon="14.629265"><ele>4.0</ele><time>2026-04-07T11:24:37.83Z</time></trkpt><trkpt lat="42.1959767" lon="14.6293667"><ele>4.0</ele><time>2026-04-07T11:24:40.83Z</time></trkpt><trkpt lat="42.1959367" lon="14.6294383"><ele>4.0</ele><time>2026-04-07T11:24:42.829Z</time></trkpt><trkpt lat="42.1959033" lon="14.6295317"><ele>3.9999999999999996</ele><time>2026-04-07T11:24:44.829Z</time></trkpt><trkpt lat="42.1958717" lon="14.629635"><ele>4.0</ele><time>2026-04-07T11:24:46.829Z</time></trkpt><trkpt lat="42.195845" lon="14.6297383"><ele>3.9999999999999996</ele><time>2026-04-07T11:24:48.829Z</time></trkpt><trkpt lat="42.1958167" lon="14.6298433"><ele>4.0</ele><time>2026-04-07T11:24:50.829Z</time></trkpt><trkpt lat="42.1957917" lon="14.62994"><ele>4.0</ele><time>2026-04-07T11:24:52.829Z</time></trkpt><trkpt lat="42.1957583" lon="14.6300333"><ele>4.0</ele><time>2026-04-07T11:24:54.829Z</time></trkpt><trkpt lat="42.195725" lon="14.6301283"><ele>3.9999999999999996</ele><time>2026-04-07T11:24:56.829Z</time></trkpt><trkpt lat="42.1956933" lon="14.6302283"><ele>4.0</ele><time>2026-04-07T11:24:58.829Z</time></trkpt><trkpt lat="42.1956667" lon="14.63033"><ele>3.9999999999999996</ele><time>2026-04-07T11:25:00.829Z</time></trkpt><trkpt lat="42.1956417" lon="14.630435"><ele>4.0</ele><time>2026-04-07T11:25:02.829Z</time></trkpt><trkpt lat="42.1956083" lon="14.6305467"><ele>4.0</ele><time>2026-04-07T11:25:04.829Z</time></trkpt><trkpt lat="42.1955817" lon="14.6306633"><ele>4.0</ele><time>2026-04-07T11:25:06.829Z</time></trkpt><trkpt lat="42.1955533" lon="14.6307717"><ele>3.9999999999999996</ele><time>2026-04-07T11:25:08.829Z</time></trkpt><trkpt lat="42.1955217" lon="14.6308767"><ele>4.0</ele><time>2026-04-07T11:25:10.829Z</time></trkpt><trkpt lat="42.19549" lon="14.63098"><ele>3.9999999999999996</ele><time>2026-04-07T11:25:12.829Z</time></trkpt><trkpt lat="42.1954617" lon="14.6310783"><ele>4.0</ele><time>2026-04-07T11:25:14.829Z</time></trkpt><trkpt lat="42.1954333" lon="14.631185"><ele>4.0</ele><time>2026-04-07T11:25:16.829Z</time></trkpt><trkpt lat="42.1954067" lon="14.6312883"><ele>4.0</ele><time>2026-04-07T11:25:18.829Z</time></trkpt><trkpt lat="42.1953817" lon="14.6313933"><ele>3.9999999999999996</ele><time>2026-04-07T11:25:20.829Z</time></trkpt><trkpt lat="42.19535" lon="14.6314967"><ele>4.0</ele><time>2026-04-07T11:25:22.83Z</time></trkpt><trkpt lat="42.1953133" lon="14.6316"><ele>3.9999999999999996</ele><time>2026-04-07T11:25:24.829Z</time></trkpt><trkpt lat="42.19528" lon="14.6316983"><ele>4.0</ele><time>2026-04-07T11:25:26.83Z</time></trkpt><trkpt lat="42.1952467" lon="14.6318083"><ele>4.0</ele><time>2026-04-07T11:25:28.829Z</time></trkpt><trkpt lat="42.1952183" lon="14.63192"><ele>4.0</ele><time>2026-04-07T11:25:30.829Z</time></trkpt><trkpt lat="42.1951933" lon="14.6320233"><ele>3.9999999999999996</ele><time>2026-04-07T11:25:32.83Z</time></trkpt><trkpt lat="42.195165" lon="14.632125"><ele>4.0</ele><time>2026-04-07T11:25:34.829Z</time></trkpt><trkpt lat="42.1951333" lon="14.6322317"><ele>4.166666666666666</ele><time>2026-04-07T11:25:36.829Z</time></trkpt><trkpt lat="42.1951017" lon="14.6323383"><ele>4.333333333333333</ele><time>2026-04-07T11:25:38.829Z</time></trkpt><trkpt lat="42.1950767" lon="14.63245"><ele>4.5</ele><time>2026-04-07T11:25:40.829Z</time></trkpt><trkpt lat="42.195045" lon="14.6325583"><ele>4.666666666666667</ele><time>2026-04-07T11:25:42.83Z</time></trkpt><trkpt lat="42.19501" lon="14.6326617"><ele>4.833333333333334</ele><time>2026-04-07T11:25:44.829Z</time></trkpt><trkpt lat="42.1949733" lon="14.6327733"><ele>5.0</ele><time>2026-04-07T11:25:46.829Z</time></trkpt><trkpt lat="42.1949383" lon="14.6328833"><ele>5.166666666666667</ele><time>2026-04-07T11:25:48.829Z</time></trkpt><trkpt lat="42.19491" lon="14.6329933"><ele>5.333333333333334</ele><time>2026-04-07T11:25:50.829Z</time></trkpt><trkpt lat="42.194885" lon="14.6331017"><ele>5.5</ele><time>2026-04-07T11:25:52.829Z</time></trkpt><trkpt lat="42.1948533" lon="14.633205"><ele>5.666666666666667</ele><time>2026-04-07T11:25:54.829Z</time></trkpt><trkpt lat="42.1948217" lon="14.63331"><ele>5.833333333333333</ele><time>2026-04-07T11:25:56.829Z</time></trkpt><trkpt lat="42.1947917" lon="14.6334167"><ele>6.0</ele><time>2026-04-07T11:25:58.829Z</time></trkpt><trkpt lat="42.1947633" lon="14.63352"><ele>6.0</ele><time>2026-04-07T11:26:00.83Z</time></trkpt><trkpt lat="42.1947367" lon="14.6336317"><ele>6.0</ele><time>2026-04-07T11:26:02.829Z</time></trkpt><trkpt lat="42.194705" lon="14.6337467"><ele>6.0</ele><time>2026-04-07T11:26:04.829Z</time></trkpt><trkpt lat="42.194675" lon="14.63385"><ele>6.0</ele><time>2026-04-07T11:26:06.829Z</time></trkpt><trkpt lat="42.194645" lon="14.6339533"><ele>6.0</ele><time>2026-04-07T11:26:08.83Z</time></trkpt><trkpt lat="42.19461" lon="14.6340417"><ele>6.0</ele><time>2026-04-07T11:26:10.829Z</time></trkpt><trkpt lat="42.19457" lon="14.6341383"><ele>5.666666666666667</ele><time>2026-04-07T11:26:12.829Z</time></trkpt><trkpt lat="42.1945383" lon="14.6342383"><ele>5.333333333333333</ele><time>2026-04-07T11:26:14.829Z</time></trkpt><trkpt lat="42.194505" lon="14.634325"><ele>5.0</ele><time>2026-04-07T11:26:16.829Z</time></trkpt><trkpt lat="42.1944767" lon="14.63441"><ele>4.666666666666666</ele><time>2026-04-07T11:26:18.829Z</time></trkpt><trkpt lat="42.194445" lon="14.634515"><ele>4.333333333333333</ele><time>2026-04-07T11:26:20.83Z</time></trkpt><trkpt lat="42.1944217" lon="14.6346283"><ele>4.0</ele><time>2026-04-07T11:26:22.83Z</time></trkpt><trkpt lat="42.1944" lon="14.6347333"><ele>3.6666666666666665</ele><time>2026-04-07T11:26:24.829Z</time></trkpt><trkpt lat="42.1943683" lon="14.63483"><ele>3.333333333333333</ele><time>2026-04-07T11:26:26.829Z</time></trkpt><trkpt lat="42.1943367" lon="14.63493"><ele>3.0</ele><time>2026-04-07T11:26:28.829Z</time></trkpt><trkpt lat="42.1943117" lon="14.6350383"><ele>2.6666666666666665</ele><time>2026-04-07T11:26:30.829Z</time></trkpt><trkpt lat="42.1942833" lon="14.635155"><ele>2.333333333333333</ele><time>2026-04-07T11:26:32.83Z</time></trkpt><trkpt lat="42.1942517" lon="14.63526"><ele>2.0</ele><time>2026-04-07T11:26:34.829Z</time></trkpt><trkpt lat="42.1942183" lon="14.6353617"><ele>1.8333333333333333</ele><time>2026-04-07T11:26:36.829Z</time></trkpt><trkpt lat="42.194185" lon="14.635465"><ele>1.6666666666666665</ele><time>2026-04-07T11:26:38.829Z</time></trkpt><trkpt lat="42.1941533" lon="14.6355733"><ele>1.5</ele><time>2026-04-07T11:26:40.829Z</time></trkpt><trkpt lat="42.1941233" lon="14.6356783"><ele>1.3333333333333333</ele><time>2026-04-07T11:26:42.829Z</time></trkpt><trkpt lat="42.1940967" lon="14.6357867"><ele>1.1666666666666665</ele><time>2026-04-07T11:26:44.83Z</time></trkpt><trkpt lat="42.19407" lon="14.63589"><ele>1.0</ele><time>2026-04-07T11:26:46.83Z</time></trkpt><trkpt lat="42.1940417" lon="14.636"><ele>0.9999999999999999</ele><time>2026-04-07T11:26:48.83Z</time></trkpt><trkpt lat="42.1940133" lon="14.636115"><ele>1.0</ele><time>2026-04-07T11:26:50.829Z</time></trkpt><trkpt lat="42.1939817" lon="14.6362233"><ele>1.0</ele><time>2026-04-07T11:26:52.829Z</time></trkpt><trkpt lat="42.1939517" lon="14.6363283"><ele>1.0</ele><time>2026-04-07T11:26:54.829Z</time></trkpt><trkpt lat="42.19392" lon="14.6364367"><ele>0.9999999999999999</ele><time>2026-04-07T11:26:56.829Z</time></trkpt><trkpt lat="42.1938867" lon="14.6365417"><ele>1.0</ele><time>2026-04-07T11:26:58.829Z</time></trkpt><trkpt lat="42.193855" lon="14.636645"><ele>0.9999999999999999</ele><time>2026-04-07T11:27:00.829Z</time></trkpt><trkpt lat="42.1938233" lon="14.636755"><ele>1.0</ele><time>2026-04-07T11:27:02.829Z</time></trkpt><trkpt lat="42.193795" lon="14.6368667"><ele>1.0</ele><time>2026-04-07T11:27:04.829Z</time></trkpt><trkpt lat="42.19377" lon="14.6369733"><ele>1.0</ele><time>2026-04-07T11:27:06.829Z</time></trkpt><trkpt lat="42.19374" lon="14.6370833"><ele>0.9999999999999999</ele><time>2026-04-07T11:27:08.829Z</time></trkpt><trkpt lat="42.1937017" lon="14.6371883"><ele>1.0</ele><time>2026-04-07T11:27:10.829Z</time></trkpt><trkpt lat="42.193665" lon="14.6372967"><ele>0.9999999999999999</ele><time>2026-04-07T11:27:12.829Z</time></trkpt><trkpt lat="42.1936333" lon="14.63741"><ele>1.0</ele><time>2026-04-07T11:27:14.83Z</time></trkpt><trkpt lat="42.193605" lon="14.63752"><ele>1.0</ele><time>2026-04-07T11:27:16.829Z</time></trkpt><trkpt lat="42.1935733" lon="14.63763"><ele>1.0</ele><time>2026-04-07T11:27:18.829Z</time></trkpt><trkpt lat="42.1935433" lon="14.637745"><ele>0.9999999999999999</ele><time>2026-04-07T11:27:20.83Z</time></trkpt><trkpt lat="42.19351" lon="14.637855"><ele>1.0</ele><time>2026-04-07T11:27:22.829Z</time></trkpt><trkpt lat="42.19347" lon="14.6379583"><ele>0.9999999999999999</ele><time>2026-04-07T11:27:24.829Z</time></trkpt><trkpt lat="42.1934483" lon="14.63806"><ele>1.0</ele><time>2026-04-07T11:27:26.83Z</time></trkpt><trkpt lat="42.1934267" lon="14.6381733"><ele>1.0</ele><time>2026-04-07T11:27:28.829Z</time></trkpt><trkpt lat="42.193405" lon="14.638285"><ele>1.0</ele><time>2026-04-07T11:27:30.83Z</time></trkpt><trkpt lat="42.193395" lon="14.638395"><ele>0.9999999999999999</ele><time>2026-04-07T11:27:32.829Z</time></trkpt><trkpt lat="42.1933767" lon="14.6385083"><ele>1.0</ele><time>2026-04-07T11:27:34.829Z</time></trkpt><trkpt lat="42.1933483" lon="14.638625"><ele>0.6000000000000001</ele><time>2026-04-07T11:27:36.829Z</time></trkpt><trkpt lat="42.19332" lon="14.638745"><ele>0.20000000000000007</ele><time>2026-04-07T11:27:38.829Z</time></trkpt><trkpt lat="42.1932933" lon="14.6388617"><ele>-0.20000000000000007</ele><time>2026-04-07T11:27:40.829Z</time></trkpt><trkpt lat="42.1932617" lon="14.6389933"><ele>-0.6000000000000001</ele><time>2026-04-07T11:27:42.829Z</time></trkpt><trkpt lat="42.19323" lon="14.6391117"><ele>-1.0</ele><time>2026-04-07T11:27:44.83Z</time></trkpt><trkpt lat="42.1931967" lon="14.6392167"><ele>-0.9999999999999999</ele><time>2026-04-07T11:27:46.829Z</time></trkpt><trkpt lat="42.1931617" lon="14.639325"><ele>-1.0</ele><time>2026-04-07T11:27:48.829Z</time></trkpt><trkpt lat="42.193135" lon="14.63943"><ele>-1.0</ele><time>2026-04-07T11:27:50.829Z</time></trkpt><trkpt lat="42.19311" lon="14.63952"><ele>-1.0</ele><time>2026-04-07T11:27:52.829Z</time></trkpt><trkpt lat="42.1930833" lon="14.6396133"><ele>-0.9999999999999999</ele><time>2026-04-07T11:27:54.829Z</time></trkpt><trkpt lat="42.1930533" lon="14.63973"><ele>-1.0</ele><time>2026-04-07T11:27:56.829Z</time></trkpt><trkpt lat="42.1930183" lon="14.6398467"><ele>-0.9999999999999999</ele><time>2026-04-07T11:27:58.83Z</time></trkpt><trkpt lat="42.1929883" lon="14.6399467"><ele>-1.0</ele><time>2026-04-07T11:28:00.829Z</time></trkpt><trkpt lat="42.1929617" lon="14.6400467"><ele>-1.0</ele><time>2026-04-07T11:28:02.829Z</time></trkpt><trkpt lat="42.1929333" lon="14.6401567"><ele>-1.0</ele><time>2026-04-07T11:28:04.829Z</time></trkpt><trkpt lat="42.192905" lon="14.6402583"><ele>-0.9999999999999999</ele><time>2026-04-07T11:28:06.829Z</time></trkpt><trkpt lat="42.1928833" lon="14.6403667"><ele>-1.0</ele><time>2026-04-07T11:28:08.829Z</time></trkpt><trkpt lat="42.1928567" lon="14.6404733"><ele>-0.8333333333333333</ele><time>2026-04-07T11:28:10.829Z</time></trkpt><trkpt lat="42.1928267" lon="14.64058"><ele>-0.6666666666666666</ele><time>2026-04-07T11:28:12.829Z</time></trkpt><trkpt lat="42.192795" lon="14.6407"><ele>-0.5</ele><time>2026-04-07T11:28:14.829Z</time></trkpt><trkpt lat="42.1927583" lon="14.6408133"><ele>-0.3333333333333333</ele><time>2026-04-07T11:28:16.829Z</time></trkpt><trkpt lat="42.1927217" lon="14.6409117"><ele>-0.16666666666666666</ele><time>2026-04-07T11:28:18.829Z</time></trkpt><trkpt lat="42.1926867" lon="14.6410117"><ele>0.0</ele><time>2026-04-07T11:28:20.83Z</time></trkpt><trkpt lat="42.1926517" lon="14.6411183"><ele>0.0</ele><time>2026-04-07T11:28:22.829Z</time></trkpt><trkpt lat="42.1926183" lon="14.6412333"><ele>0.0</ele><time>2026-04-07T11:28:24.829Z</time></trkpt><trkpt lat="42.1925917" lon="14.6413433"><ele>0.0</ele><time>2026-04-07T11:28:26.829Z</time></trkpt><trkpt lat="42.1925667" lon="14.6414583"><ele>0.0</ele><time>2026-04-07T11:28:28.829Z</time></trkpt><trkpt lat="42.1925417" lon="14.64158"><ele>0.0</ele><time>2026-04-07T11:28:30.829Z</time></trkpt><trkpt lat="42.1925117" lon="14.6417"><ele>0.0</ele><time>2026-04-07T11:28:32.829Z</time></trkpt><trkpt lat="42.1924733" lon="14.6418083"><ele>0.0</ele><time>2026-04-07T11:28:34.829Z</time></trkpt><trkpt lat="42.1924417" lon="14.6419267"><ele>0.0</ele><time>2026-04-07T11:28:36.829Z</time></trkpt><trkpt lat="42.19242" lon="14.6420333"><ele>0.0</ele><time>2026-04-07T11:28:38.829Z</time></trkpt><trkpt lat="42.19239" lon="14.6421433"><ele>0.0</ele><time>2026-04-07T11:28:40.829Z</time></trkpt><trkpt lat="42.1923683" lon="14.64225"><ele>0.0</ele><time>2026-04-07T11:28:42.829Z</time></trkpt><trkpt lat="42.1923383" lon="14.6423533"><ele>0.0</ele><time>2026-04-07T11:28:44.829Z</time></trkpt><trkpt lat="42.1922933" lon="14.6424433"><ele>0.0</ele><time>2026-04-07T11:28:46.83Z</time></trkpt><trkpt lat="42.1922367" lon="14.6425267"><ele>0.0</ele><time>2026-04-07T11:28:48.829Z</time></trkpt><trkpt lat="42.192175" lon="14.6426067"><ele>0.0</ele><time>2026-04-07T11:28:50.829Z</time></trkpt><trkpt lat="42.1921067" lon="14.6426833"><ele>0.0</ele><time>2026-04-07T11:28:52.83Z</time></trkpt><trkpt lat="42.1920483" lon="14.6427633"><ele>0.0</ele><time>2026-04-07T11:28:54.829Z</time></trkpt><trkpt lat="42.1919817" lon="14.6428483"><ele>0.0</ele><time>2026-04-07T11:28:56.829Z</time></trkpt><trkpt lat="42.191915" lon="14.6429383"><ele>0.0</ele><time>2026-04-07T11:28:58.83Z</time></trkpt><trkpt lat="42.1918533" lon="14.6430233"><ele>0.0</ele><time>2026-04-07T11:29:00.83Z</time></trkpt><trkpt lat="42.1917867" lon="14.6431"><ele>0.0</ele><time>2026-04-07T11:29:02.83Z</time></trkpt><trkpt lat="42.1917217" lon="14.6431767"><ele>0.0</ele><time>2026-04-07T11:29:04.829Z</time></trkpt><trkpt lat="42.1916567" lon="14.643245"><ele>0.0</ele><time>2026-04-07T11:29:06.829Z</time></trkpt><trkpt lat="42.19159" lon="14.6433167"><ele>0.0</ele><time>2026-04-07T11:29:08.829Z</time></trkpt><trkpt lat="42.1915283" lon="14.6433933"><ele>0.0</ele><time>2026-04-07T11:29:10.829Z</time></trkpt><trkpt lat="42.191475" lon="14.6434783"><ele>0.0</ele><time>2026-04-07T11:29:12.83Z</time></trkpt><trkpt lat="42.1914217" lon="14.64357"><ele>0.0</ele><time>2026-04-07T11:29:14.829Z</time></trkpt><trkpt lat="42.19137" lon="14.6436533"><ele>0.0</ele><time>2026-04-07T11:29:16.83Z</time></trkpt><trkpt lat="42.1913183" lon="14.6437483"><ele>0.0</ele><time>2026-04-07T11:29:18.829Z</time></trkpt><trkpt lat="42.1912717" lon="14.6438433"><ele>0.3333333333333333</ele><time>2026-04-07T11:29:20.829Z</time></trkpt><trkpt lat="42.191225" lon="14.6439383"><ele>0.6666666666666666</ele><time>2026-04-07T11:29:22.829Z</time></trkpt><trkpt lat="42.1911783" lon="14.6440367"><ele>1.0</ele><time>2026-04-07T11:29:24.829Z</time></trkpt><trkpt lat="42.1911233" lon="14.6441283"><ele>1.3333333333333333</ele><time>2026-04-07T11:29:26.829Z</time></trkpt><trkpt lat="42.1910667" lon="14.6442117"><ele>1.6666666666666665</ele><time>2026-04-07T11:29:28.83Z</time></trkpt><trkpt lat="42.1910067" lon="14.644275"><ele>2.0</ele><time>2026-04-07T11:29:30.829Z</time></trkpt><trkpt lat="42.1909367" lon="14.6443317"><ele>1.9999999999999998</ele><time>2026-04-07T11:29:32.829Z</time></trkpt><trkpt lat="42.190865" lon="14.6443717"><ele>2.0</ele><time>2026-04-07T11:29:34.829Z</time></trkpt><trkpt lat="42.190785" lon="14.6443983"><ele>2.0</ele><time>2026-04-07T11:29:36.829Z</time></trkpt><trkpt lat="42.190705" lon="14.6444267"><ele>2.0</ele><time>2026-04-07T11:29:38.829Z</time></trkpt><trkpt lat="42.1906233" lon="14.6444517"><ele>1.9999999999999998</ele><time>2026-04-07T11:29:40.829Z</time></trkpt><trkpt lat="42.1905433" lon="14.6444733"><ele>2.0</ele><time>2026-04-07T11:29:42.829Z</time></trkpt><trkpt lat="42.190465" lon="14.644505"><ele>2.1666666666666665</ele><time>2026-04-07T11:29:44.83Z</time></trkpt><trkpt lat="42.19039" lon="14.64454"><ele>2.333333333333333</ele><time>2026-04-07T11:29:46.829Z</time></trkpt><trkpt lat="42.1903217" lon="14.6445783"><ele>2.5</ele><time>2026-04-07T11:29:48.829Z</time></trkpt><trkpt lat="42.1902417" lon="14.64463"><ele>2.6666666666666665</ele><time>2026-04-07T11:29:51.829Z</time></trkpt><trkpt lat="42.1901933" lon="14.64473"><ele>2.8333333333333335</ele><time>2026-04-07T11:29:54.829Z</time></trkpt><trkpt lat="42.19017" lon="14.644815"><ele>3.0</ele><time>2026-04-07T11:29:56.829Z</time></trkpt><trkpt lat="42.1901333" lon="14.644915"><ele>3.0</ele><time>2026-04-07T11:29:58.83Z</time></trkpt><trkpt lat="42.1900917" lon="14.6450117"><ele>3.0</ele><time>2026-04-07T11:30:00.83Z</time></trkpt><trkpt lat="42.1900633" lon="14.64511"><ele>3.0</ele><time>2026-04-07T11:30:02.83Z</time></trkpt><trkpt lat="42.1900283" lon="14.6452067"><ele>3.0</ele><time>2026-04-07T11:30:04.829Z</time></trkpt><trkpt lat="42.189995" lon="14.6452917"><ele>3.0</ele><time>2026-04-07T11:30:06.829Z</time></trkpt><trkpt lat="42.1899583" lon="14.6453767"><ele>3.0</ele><time>2026-04-07T11:30:08.829Z</time></trkpt><trkpt lat="42.18992" lon="14.6454583"><ele>3.0</ele><time>2026-04-07T11:30:10.83Z</time></trkpt><trkpt lat="42.189885" lon="14.6455333"><ele>3.0</ele><time>2026-04-07T11:30:12.829Z</time></trkpt><trkpt lat="42.1898483" lon="14.6456267"><ele>3.0</ele><time>2026-04-07T11:30:14.829Z</time></trkpt><trkpt lat="42.1898133" lon="14.6457217"><ele>3.0</ele><time>2026-04-07T11:30:16.829Z</time></trkpt><trkpt lat="42.1897883" lon="14.64582"><ele>3.0</ele><time>2026-04-07T11:30:18.829Z</time></trkpt><trkpt lat="42.1897667" lon="14.64592"><ele>3.0</ele><time>2026-04-07T11:30:20.829Z</time></trkpt><trkpt lat="42.1897483" lon="14.6460433"><ele>3.3333333333333335</ele><time>2026-04-07T11:30:23.829Z</time></trkpt><trkpt lat="42.18974" lon="14.6461417"><ele>3.666666666666667</ele><time>2026-04-07T11:30:25.829Z</time></trkpt><trkpt lat="42.1897383" lon="14.646235"><ele>4.0</ele><time>2026-04-07T11:30:27.829Z</time></trkpt><trkpt lat="42.18973" lon="14.6463383"><ele>4.333333333333334</ele><time>2026-04-07T11:30:29.829Z</time></trkpt><trkpt lat="42.1897133" lon="14.6464433"><ele>4.666666666666667</ele><time>2026-04-07T11:30:31.829Z</time></trkpt><trkpt lat="42.1897017" lon="14.6465467"><ele>5.0</ele><time>2026-04-07T11:30:33.829Z</time></trkpt><trkpt lat="42.1896983" lon="14.6466517"><ele>5.0</ele><time>2026-04-07T11:30:35.83Z</time></trkpt><trkpt lat="42.1897" lon="14.6467467"><ele>5.0</ele><time>2026-04-07T11:30:37.829Z</time></trkpt><trkpt lat="42.1896917" lon="14.6468333"><ele>5.0</ele><time>2026-04-07T11:30:39.829Z</time></trkpt><trkpt lat="42.1896767" lon="14.646955"><ele>5.0</ele><time>2026-04-07T11:30:42.829Z</time></trkpt><trkpt lat="42.1896717" lon="14.6470617"><ele>5.0</ele><time>2026-04-07T11:30:45.83Z</time></trkpt><trkpt lat="42.1896817" lon="14.647165"><ele>5.0</ele><time>2026-04-07T11:30:48.829Z</time></trkpt><trkpt lat="42.1896767" lon="14.6472883"><ele>4.857142857142857</ele><time>2026-04-07T11:30:51.829Z</time></trkpt><trkpt lat="42.189675" lon="14.647405"><ele>4.714285714285714</ele><time>2026-04-07T11:30:54.829Z</time></trkpt><trkpt lat="42.1896733" lon="14.6475"><ele>4.571428571428571</ele><time>2026-04-07T11:30:57.829Z</time></trkpt><trkpt lat="42.1896683" lon="14.6476033"><ele>4.428571428571429</ele><time>2026-04-07T11:31:01.829Z</time></trkpt><trkpt lat="42.1896617" lon="14.6477117"><ele>4.285714285714286</ele><time>2026-04-07T11:31:05.83Z</time></trkpt><trkpt lat="42.1896583" lon="14.6478"><ele>4.142857142857142</ele><time>2026-04-07T11:31:08.829Z</time></trkpt><trkpt lat="42.18966" lon="14.6478917"><ele>4.0</ele><time>2026-04-07T11:31:11.829Z</time></trkpt><trkpt lat="42.18967" lon="14.64798"><ele>4.428571428571429</ele><time>2026-04-07T11:31:14.83Z</time></trkpt><trkpt lat="42.1896633" lon="14.6480883"><ele>4.857142857142857</ele><time>2026-04-07T11:31:17.83Z</time></trkpt><trkpt lat="42.1896667" lon="14.6481817"><ele>5.285714285714286</ele><time>2026-04-07T11:31:19.829Z</time></trkpt><trkpt lat="42.18968" lon="14.648275"><ele>5.714285714285714</ele><time>2026-04-07T11:31:21.829Z</time></trkpt><trkpt lat="42.1896817" lon="14.6483717"><ele>6.142857142857142</ele><time>2026-04-07T11:31:23.83Z</time></trkpt><trkpt lat="42.1896683" lon="14.648475"><ele>6.571428571428571</ele><time>2026-04-07T11:31:25.829Z</time></trkpt><trkpt lat="42.1896617" lon="14.6485733"><ele>7.0</ele><time>2026-04-07T11:31:27.829Z</time></trkpt><trkpt lat="42.189655" lon="14.6486817"><ele>7.571428571428571</ele><time>2026-04-07T11:31:29.83Z</time></trkpt><trkpt lat="42.1896467" lon="14.6487883"><ele>8.142857142857142</ele><time>2026-04-07T11:31:31.829Z</time></trkpt><trkpt lat="42.1896433" lon="14.6488817"><ele>8.714285714285715</ele><time>2026-04-07T11:31:33.829Z</time></trkpt><trkpt lat="42.18964" lon="14.6489717"><ele>9.285714285714285</ele><time>2026-04-07T11:31:35.829Z</time></trkpt><trkpt lat="42.1896283" lon="14.6490683"><ele>9.857142857142858</ele><time>2026-04-07T11:31:37.829Z</time></trkpt><trkpt lat="42.1896283" lon="14.6491733"><ele>10.428571428571429</ele><time>2026-04-07T11:31:39.829Z</time></trkpt><trkpt lat="42.18962" lon="14.6492683"><ele>11.0</ele><time>2026-04-07T11:31:41.829Z</time></trkpt><trkpt lat="42.1896033" lon="14.64937"><ele>11.0</ele><time>2026-04-07T11:31:44.829Z</time></trkpt><trkpt lat="42.18957" lon="14.649455"><ele>11.0</ele><time>2026-04-07T11:31:46.829Z</time></trkpt><trkpt lat="42.189515" lon="14.6495233"><ele>11.0</ele><time>2026-04-07T11:31:48.83Z</time></trkpt><trkpt lat="42.1894567" lon="14.64958"><ele>11.0</ele><time>2026-04-07T11:31:50.829Z</time></trkpt><trkpt lat="42.1894067" lon="14.6496317"><ele>11.0</ele><time>2026-04-07T11:31:52.829Z</time></trkpt><trkpt lat="42.18934" lon="14.6497"><ele>11.0</ele><time>2026-04-07T11:31:55.829Z</time></trkpt><trkpt lat="42.1893183" lon="14.649785"><ele>11.0</ele><time>2026-04-07T11:31:58.829Z</time></trkpt><trkpt lat="42.1893117" lon="14.6498717"><ele>12.571428571428571</ele><time>2026-04-07T11:32:00.829Z</time></trkpt><trkpt lat="42.1893017" lon="14.6499567"><ele>14.142857142857142</ele><time>2026-04-07T11:32:03.83Z</time></trkpt><trkpt lat="42.1892567" lon="14.6500183"><ele>15.714285714285715</ele><time>2026-04-07T11:32:06.83Z</time></trkpt><trkpt lat="42.189215" lon="14.6500933"><ele>17.285714285714285</ele><time>2026-04-07T11:32:10.83Z</time></trkpt><trkpt lat="42.1891767" lon="14.6501833"><ele>18.857142857142858</ele><time>2026-04-07T11:32:14.829Z</time></trkpt><trkpt lat="42.1891583" lon="14.6502867"><ele>20.42857142857143</ele><time>2026-04-07T11:32:18.829Z</time></trkpt><trkpt lat="42.18914" lon="14.65037"><ele>22.0</ele><time>2026-04-07T11:32:21.83Z</time></trkpt><trkpt lat="42.18912" lon="14.6504517"><ele>22.857142857142858</ele><time>2026-04-07T11:32:24.829Z</time></trkpt><trkpt lat="42.1890917" lon="14.6505317"><ele>23.714285714285715</ele><time>2026-04-07T11:32:27.829Z</time></trkpt><trkpt lat="42.1890633" lon="14.65062"><ele>24.57142857142857</ele><time>2026-04-07T11:32:30.829Z</time></trkpt><trkpt lat="42.1890217" lon="14.6506883"><ele>25.42857142857143</ele><time>2026-04-07T11:32:33.829Z</time></trkpt><trkpt lat="42.1889983" lon="14.6507817"><ele>26.285714285714285</ele><time>2026-04-07T11:32:36.829Z</time></trkpt><trkpt lat="42.1889683" lon="14.6508733"><ele>27.142857142857142</ele><time>2026-04-07T11:32:39.829Z</time></trkpt><trkpt lat="42.1889183" lon="14.650935"><ele>28.0</ele><time>2026-04-07T11:32:42.829Z</time></trkpt><trkpt lat="42.1888733" lon="14.651015"><ele>31.333333333333336</ele><time>2026-04-07T11:32:45.829Z</time></trkpt><trkpt lat="42.188835" lon="14.651085"><ele>34.66666666666667</ele><time>2026-04-07T11:32:48.83Z</time></trkpt><trkpt lat="42.1887933" lon="14.6511817"><ele>38.0</ele><time>2026-04-07T11:32:49.829Z</time></trkpt><trkpt lat="42.1887383" lon="14.6512617"><ele>41.333333333333336</ele><time>2026-04-07T11:32:52.829Z</time></trkpt><trkpt lat="42.1887167" lon="14.6513583"><ele>44.666666666666664</ele><time>2026-04-07T11:32:54.829Z</time></trkpt><trkpt lat="42.188705" lon="14.6515033"><ele>48.0</ele><time>2026-04-07T11:32:56.829Z</time></trkpt><trkpt lat="42.1886783" lon="14.651605"><ele>48.0</ele><time>2026-04-07T11:32:59.829Z</time></trkpt><trkpt lat="42.1886617" lon="14.6517467"><ele>48.0</ele><time>2026-04-07T11:33:01.829Z</time></trkpt><trkpt lat="42.1886467" lon="14.6518317"><ele>48.0</ele><time>2026-04-07T11:33:03.829Z</time></trkpt><trkpt lat="42.18861" lon="14.6519367"><ele>48.0</ele><time>2026-04-07T11:33:05.829Z</time></trkpt><trkpt lat="42.1885733" lon="14.652035"><ele>48.0</ele><time>2026-04-07T11:33:07.829Z</time></trkpt><trkpt lat="42.188545" lon="14.652115"><ele>48.0</ele><time>2026-04-07T11:33:09.829Z</time></trkpt><trkpt lat="42.188515" lon="14.6522033"><ele>47.166666666666664</ele><time>2026-04-07T11:33:10.829Z</time></trkpt><trkpt lat="42.1884967" lon="14.652305"><ele>46.333333333333336</ele><time>2026-04-07T11:33:12.829Z</time></trkpt><trkpt lat="42.1884483" lon="14.6523633"><ele>45.5</ele><time>2026-04-07T11:33:15.829Z</time></trkpt><trkpt lat="42.1884317" lon="14.6524517"><ele>44.66666666666667</ele><time>2026-04-07T11:33:17.829Z</time></trkpt><trkpt lat="42.18841" lon="14.652535"><ele>43.833333333333336</ele><time>2026-04-07T11:33:19.83Z</time></trkpt><trkpt lat="42.1883717" lon="14.6526433"><ele>43.0</ele><time>2026-04-07T11:33:23.829Z</time></trkpt><trkpt lat="42.188375" lon="14.652785"><ele>44.4</ele><time>2026-04-07T11:33:25.83Z</time></trkpt><trkpt lat="42.188315" lon="14.6528783"><ele>45.8</ele><time>2026-04-07T11:33:28.829Z</time></trkpt><trkpt lat="42.18826" lon="14.652925"><ele>47.2</ele><time>2026-04-07T11:33:31.829Z</time></trkpt><trkpt lat="42.1881133" lon="14.6531233"><ele>48.6</ele><time>2026-04-07T11:33:40.829Z</time></trkpt><trkpt lat="42.1880633" lon="14.6532"><ele>50.0</ele><time>2026-04-07T11:33:45.829Z</time></trkpt><trkpt lat="42.187995" lon="14.65329"><ele>50.0</ele><time>2026-04-07T11:33:47.83Z</time></trkpt><trkpt lat="42.1879333" lon="14.6533567"><ele>50.0</ele><time>2026-04-07T11:33:49.829Z</time></trkpt><trkpt lat="42.1878467" lon="14.6534133"><ele>50.0</ele><time>2026-04-07T11:33:51.83Z</time></trkpt><trkpt lat="42.18777" lon="14.6534767"><ele>50.0</ele><time>2026-04-07T11:33:53.829Z</time></trkpt><trkpt lat="42.1876983" lon="14.6535367"><ele>50.0</ele><time>2026-04-07T11:33:55.83Z</time></trkpt><trkpt lat="42.1876317" lon="14.6536483"><ele>49.16666666666667</ele><time>2026-04-07T11:33:57.829Z</time></trkpt><trkpt lat="42.1875983" lon="14.6537217"><ele>48.333333333333336</ele><time>2026-04-07T11:33:59.83Z</time></trkpt><trkpt lat="42.1875617" lon="14.65382"><ele>47.5</ele><time>2026-04-07T11:34:02.83Z</time></trkpt><trkpt lat="42.1874983" lon="14.6539117"><ele>46.66666666666667</ele><time>2026-04-07T11:34:05.83Z</time></trkpt><trkpt lat="42.1874483" lon="14.6539683"><ele>45.833333333333336</ele><time>2026-04-07T11:34:07.829Z</time></trkpt><trkpt lat="42.1873967" lon="14.6540433"><ele>45.0</ele><time>2026-04-07T11:34:10.829Z</time></trkpt><trkpt lat="42.187355" lon="14.65413"><ele>46.0</ele><time>2026-04-07T11:34:13.829Z</time></trkpt><trkpt lat="42.18733" lon="14.6542217"><ele>47.0</ele><time>2026-04-07T11:34:15.83Z</time></trkpt><trkpt lat="42.1872933" lon="14.65432"><ele>48.0</ele><time>2026-04-07T11:34:17.829Z</time></trkpt><trkpt lat="42.1872533" lon="14.6544067"><ele>49.0</ele><time>2026-04-07T11:34:19.829Z</time></trkpt><trkpt lat="42.1872183" lon="14.654485"><ele>50.0</ele><time>2026-04-07T11:34:21.829Z</time></trkpt><trkpt lat="42.1871817" lon="14.6545717"><ele>51.0</ele><time>2026-04-07T11:34:23.829Z</time></trkpt><trkpt lat="42.1871383" lon="14.6546717"><ele>51.0</ele><time>2026-04-07T11:34:25.83Z</time></trkpt><trkpt lat="42.1870817" lon="14.6547517"><ele>51.0</ele><time>2026-04-07T11:34:27.829Z</time></trkpt><trkpt lat="42.1870233" lon="14.6548"><ele>51.0</ele><time>2026-04-07T11:34:29.829Z</time></trkpt><trkpt lat="42.1869333" lon="14.65483"><ele>51.0</ele><time>2026-04-07T11:34:32.83Z</time></trkpt><trkpt lat="42.1868367" lon="14.65483"><ele>51.0</ele><time>2026-04-07T11:34:35.829Z</time></trkpt><trkpt lat="42.1867467" lon="14.6547933"><ele>51.0</ele><time>2026-04-07T11:34:38.829Z</time></trkpt><trkpt lat="42.1866867" lon="14.654705"><ele>51.0</ele><time>2026-04-07T11:34:41.829Z</time></trkpt><trkpt lat="42.1866417" lon="14.654605"><ele>51.0</ele><time>2026-04-07T11:34:44.829Z</time></trkpt><trkpt lat="42.1865933" lon="14.6545"><ele>51.0</ele><time>2026-04-07T11:34:47.829Z</time></trkpt><trkpt lat="42.1865567" lon="14.65443"><ele>51.0</ele><time>2026-04-07T11:34:49.829Z</time></trkpt><trkpt lat="42.1865033" lon="14.6543217"><ele>51.0</ele><time>2026-04-07T11:34:52.829Z</time></trkpt><trkpt lat="42.1864667" lon="14.65425"><ele>51.0</ele><time>2026-04-07T11:34:54.83Z</time></trkpt><trkpt lat="42.1864367" lon="14.654175"><ele>51.285714285714285</ele><time>2026-04-07T11:34:56.829Z</time></trkpt><trkpt lat="42.1864033" lon="14.6540983"><ele>51.57142857142857</ele><time>2026-04-07T11:34:58.829Z</time></trkpt><trkpt lat="42.18637" lon="14.654025"><ele>51.85714285714286</ele><time>2026-04-07T11:35:00.829Z</time></trkpt><trkpt lat="42.1863317" lon="14.6539433"><ele>52.14285714285714</ele><time>2026-04-07T11:35:02.829Z</time></trkpt><trkpt lat="42.1862967" lon="14.6538683"><ele>52.42857142857142</ele><time>2026-04-07T11:35:04.829Z</time></trkpt><trkpt lat="42.1862633" lon="14.653795"><ele>52.714285714285715</ele><time>2026-04-07T11:35:06.829Z</time></trkpt><trkpt lat="42.1862317" lon="14.6537133"><ele>53.0</ele><time>2026-04-07T11:35:08.83Z</time></trkpt><trkpt lat="42.1861983" lon="14.6536367"><ele>53.142857142857146</ele><time>2026-04-07T11:35:10.829Z</time></trkpt><trkpt lat="42.1861683" lon="14.653555"><ele>53.285714285714285</ele><time>2026-04-07T11:35:12.829Z</time></trkpt><trkpt lat="42.1861367" lon="14.65347"><ele>53.42857142857143</ele><time>2026-04-07T11:35:14.83Z</time></trkpt><trkpt lat="42.1861083" lon="14.653385"><ele>53.57142857142857</ele><time>2026-04-07T11:35:16.829Z</time></trkpt><trkpt lat="42.1860833" lon="14.6533"><ele>53.71428571428571</ele><time>2026-04-07T11:35:18.829Z</time></trkpt><trkpt lat="42.18606" lon="14.65322"><ele>53.857142857142854</ele><time>2026-04-07T11:35:20.83Z</time></trkpt><trkpt lat="42.1860217" lon="14.6531133"><ele>54.0</ele><time>2026-04-07T11:35:23.829Z</time></trkpt><trkpt lat="42.18596" lon="14.6530867"><ele>54.0</ele><time>2026-04-07T11:35:27.829Z</time></trkpt><trkpt lat="42.185905" lon="14.6531717"><ele>54.0</ele><time>2026-04-07T11:35:30.829Z</time></trkpt><trkpt lat="42.1858467" lon="14.653245"><ele>54.0</ele><time>2026-04-07T11:35:32.83Z</time></trkpt><trkpt lat="42.1857833" lon="14.6533233"><ele>54.0</ele><time>2026-04-07T11:35:34.829Z</time></trkpt><trkpt lat="42.18573" lon="14.6534017"><ele>54.0</ele><time>2026-04-07T11:35:36.829Z</time></trkpt><trkpt lat="42.1856633" lon="14.6534633"><ele>54.0</ele><time>2026-04-07T11:35:38.829Z</time></trkpt><trkpt lat="42.18558" lon="14.653525"><ele>54.0</ele><time>2026-04-07T11:35:40.829Z</time></trkpt><trkpt lat="42.1854883" lon="14.6535883"><ele>54.00000000000001</ele><time>2026-04-07T11:35:42.829Z</time></trkpt><trkpt lat="42.1853983" lon="14.6536533"><ele>54.00000000000001</ele><time>2026-04-07T11:35:44.829Z</time></trkpt><trkpt lat="42.1853133" lon="14.6537233"><ele>54.0</ele><time>2026-04-07T11:35:46.829Z</time></trkpt><trkpt lat="42.1852267" lon="14.6537867"><ele>54.0</ele><time>2026-04-07T11:35:48.829Z</time></trkpt><trkpt lat="42.18514" lon="14.6538567"><ele>53.800000000000004</ele><time>2026-04-07T11:35:50.83Z</time></trkpt><trkpt lat="42.185055" lon="14.653925"><ele>53.60000000000001</ele><time>2026-04-07T11:35:52.829Z</time></trkpt><trkpt lat="42.18497" lon="14.6540017"><ele>53.4</ele><time>2026-04-07T11:35:54.829Z</time></trkpt><trkpt lat="42.1848833" lon="14.65407"><ele>53.2</ele><time>2026-04-07T11:35:56.829Z</time></trkpt><trkpt lat="42.1847967" lon="14.6541417"><ele>53.0</ele><time>2026-04-07T11:35:58.829Z</time></trkpt><trkpt lat="42.1847083" lon="14.6542183"><ele>53.2</ele><time>2026-04-07T11:36:00.829Z</time></trkpt><trkpt lat="42.1846217" lon="14.6542867"><ele>53.4</ele><time>2026-04-07T11:36:02.83Z</time></trkpt><trkpt lat="42.1845333" lon="14.6543633"><ele>53.60000000000001</ele><time>2026-04-07T11:36:04.829Z</time></trkpt><trkpt lat="42.184445" lon="14.6544383"><ele>53.800000000000004</ele><time>2026-04-07T11:36:06.829Z</time></trkpt><trkpt lat="42.18436" lon="14.6545167"><ele>54.0</ele><time>2026-04-07T11:36:08.829Z</time></trkpt><trkpt lat="42.1842767" lon="14.6545917"><ele>54.0</ele><time>2026-04-07T11:36:10.829Z</time></trkpt><trkpt lat="42.1841983" lon="14.654645"><ele>54.00000000000001</ele><time>2026-04-07T11:36:12.829Z</time></trkpt><trkpt lat="42.18412" lon="14.654705"><ele>54.00000000000001</ele><time>2026-04-07T11:36:14.829Z</time></trkpt><trkpt lat="42.18404" lon="14.6547717"><ele>54.0</ele><time>2026-04-07T11:36:16.83Z</time></trkpt><trkpt lat="42.1839567" lon="14.6548417"><ele>54.0</ele><time>2026-04-07T11:36:18.829Z</time></trkpt><trkpt lat="42.1838767" lon="14.654915"><ele>53.800000000000004</ele><time>2026-04-07T11:36:20.829Z</time></trkpt><trkpt lat="42.1837933" lon="14.65498"><ele>53.60000000000001</ele><time>2026-04-07T11:36:22.829Z</time></trkpt><trkpt lat="42.18371" lon="14.655055"><ele>53.4</ele><time>2026-04-07T11:36:24.829Z</time></trkpt><trkpt lat="42.1836233" lon="14.655125"><ele>53.2</ele><time>2026-04-07T11:36:26.83Z</time></trkpt><trkpt lat="42.18353" lon="14.6551967"><ele>53.0</ele><time>2026-04-07T11:36:28.829Z</time></trkpt><trkpt lat="42.1834383" lon="14.655265"><ele>53.0</ele><time>2026-04-07T11:36:30.829Z</time></trkpt><trkpt lat="42.1833533" lon="14.6553367"><ele>53.0</ele><time>2026-04-07T11:36:32.829Z</time></trkpt><trkpt lat="42.1832717" lon="14.6554083"><ele>53.0</ele><time>2026-04-07T11:36:34.829Z</time></trkpt><trkpt lat="42.1831767" lon="14.6554783"><ele>53.0</ele><time>2026-04-07T11:36:36.829Z</time></trkpt><trkpt lat="42.1830867" lon="14.6555567"><ele>53.0</ele><time>2026-04-07T11:36:38.829Z</time></trkpt><trkpt lat="42.183" lon="14.65563"><ele>53.2</ele><time>2026-04-07T11:36:40.829Z</time></trkpt><trkpt lat="42.1829133" lon="14.6556967"><ele>53.4</ele><time>2026-04-07T11:36:42.829Z</time></trkpt><trkpt lat="42.1828267" lon="14.655775"><ele>53.60000000000001</ele><time>2026-04-07T11:36:44.829Z</time></trkpt><trkpt lat="42.182735" lon="14.655845"><ele>53.800000000000004</ele><time>2026-04-07T11:36:46.829Z</time></trkpt><trkpt lat="42.1826467" lon="14.6559117"><ele>54.0</ele><time>2026-04-07T11:36:48.829Z</time></trkpt><trkpt lat="42.18256" lon="14.6559917"><ele>54.0</ele><time>2026-04-07T11:36:50.829Z</time></trkpt><trkpt lat="42.1824783" lon="14.6560733"><ele>54.00000000000001</ele><time>2026-04-07T11:36:52.829Z</time></trkpt><trkpt lat="42.1824017" lon="14.6561533"><ele>54.00000000000001</ele><time>2026-04-07T11:36:54.829Z</time></trkpt><trkpt lat="42.1823283" lon="14.6562267"><ele>54.0</ele><time>2026-04-07T11:36:56.829Z</time></trkpt><trkpt lat="42.1822567" lon="14.6563117"><ele>54.0</ele><time>2026-04-07T11:36:58.829Z</time></trkpt><trkpt lat="42.18217" lon="14.6564"><ele>54.2</ele><time>2026-04-07T11:37:00.829Z</time></trkpt><trkpt lat="42.182085" lon="14.656485"><ele>54.400000000000006</ele><time>2026-04-07T11:37:02.829Z</time></trkpt><trkpt lat="42.1819983" lon="14.65658"><ele>54.6</ele><time>2026-04-07T11:37:04.83Z</time></trkpt><trkpt lat="42.1819117" lon="14.65667"><ele>54.8</ele><time>2026-04-07T11:37:06.829Z</time></trkpt><trkpt lat="42.18183" lon="14.6567667"><ele>55.0</ele><time>2026-04-07T11:37:08.829Z</time></trkpt><trkpt lat="42.1817517" lon="14.6568483"><ele>55.0</ele><time>2026-04-07T11:37:10.829Z</time></trkpt><trkpt lat="42.181675" lon="14.6569367"><ele>55.0</ele><time>2026-04-07T11:37:12.829Z</time></trkpt><trkpt lat="42.18159" lon="14.6570217"><ele>55.0</ele><time>2026-04-07T11:37:14.829Z</time></trkpt><trkpt lat="42.1815067" lon="14.6571183"><ele>55.0</ele><time>2026-04-07T11:37:16.829Z</time></trkpt><trkpt lat="42.181415" lon="14.6572167"><ele>55.0</ele><time>2026-04-07T11:37:18.83Z</time></trkpt><trkpt lat="42.1813333" lon="14.6572983"><ele>55.0</ele><time>2026-04-07T11:37:20.829Z</time></trkpt><trkpt lat="42.181255" lon="14.6573867"><ele>55.0</ele><time>2026-04-07T11:37:22.829Z</time></trkpt><trkpt lat="42.1811767" lon="14.6574733"><ele>55.0</ele><time>2026-04-07T11:37:24.829Z</time></trkpt><trkpt lat="42.1810983" lon="14.6575517"><ele>55.0</ele><time>2026-04-07T11:37:26.829Z</time></trkpt><trkpt lat="42.1810133" lon="14.6576367"><ele>55.0</ele><time>2026-04-07T11:37:28.829Z</time></trkpt><trkpt lat="42.180925" lon="14.657725"><ele>54.8</ele><time>2026-04-07T11:37:30.829Z</time></trkpt><trkpt lat="42.1808383" lon="14.6578033"><ele>54.6</ele><time>2026-04-07T11:37:32.829Z</time></trkpt><trkpt lat="42.1807417" lon="14.65788"><ele>54.400000000000006</ele><time>2026-04-07T11:37:34.829Z</time></trkpt><trkpt lat="42.18065" lon="14.6579633"><ele>54.2</ele><time>2026-04-07T11:37:36.829Z</time></trkpt><trkpt lat="42.18056" lon="14.6580417"><ele>54.0</ele><time>2026-04-07T11:37:38.829Z</time></trkpt><trkpt lat="42.1804733" lon="14.6581217"><ele>54.0</ele><time>2026-04-07T11:37:40.83Z</time></trkpt><trkpt lat="42.1803817" lon="14.6582117"><ele>54.0</ele><time>2026-04-07T11:37:42.829Z</time></trkpt><trkpt lat="42.1803" lon="14.65832"><ele>54.0</ele><time>2026-04-07T11:37:44.829Z</time></trkpt><trkpt lat="42.1802233" lon="14.6584417"><ele>54.0</ele><time>2026-04-07T11:37:46.83Z</time></trkpt><trkpt lat="42.1801467" lon="14.6585583"><ele>53.800000000000004</ele><time>2026-04-07T11:37:48.829Z</time></trkpt><trkpt lat="42.18007" lon="14.658675"><ele>53.60000000000001</ele><time>2026-04-07T11:37:50.829Z</time></trkpt><trkpt lat="42.18" lon="14.6587933"><ele>53.4</ele><time>2026-04-07T11:37:52.829Z</time></trkpt><trkpt lat="42.1799333" lon="14.65891"><ele>53.2</ele><time>2026-04-07T11:37:54.829Z</time></trkpt><trkpt lat="42.1798617" lon="14.6590217"><ele>53.0</ele><time>2026-04-07T11:37:56.829Z</time></trkpt><trkpt lat="42.1797933" lon="14.6591433"><ele>52.75</ele><time>2026-04-07T11:37:58.829Z</time></trkpt><trkpt lat="42.1797283" lon="14.6592583"><ele>52.5</ele><time>2026-04-07T11:38:00.83Z</time></trkpt><trkpt lat="42.17966" lon="14.6593817"><ele>52.25</ele><time>2026-04-07T11:38:02.829Z</time></trkpt><trkpt lat="42.1796" lon="14.6595167"><ele>52.0</ele><time>2026-04-07T11:38:04.829Z</time></trkpt><trkpt lat="42.179535" lon="14.6596467"><ele>51.5</ele><time>2026-04-07T11:38:06.83Z</time></trkpt><trkpt lat="42.1794683" lon="14.6597633"><ele>51.0</ele><time>2026-04-07T11:38:08.83Z</time></trkpt><trkpt lat="42.1794" lon="14.659885"><ele>50.5</ele><time>2026-04-07T11:38:10.829Z</time></trkpt><trkpt lat="42.1793267" lon="14.66001"><ele>50.0</ele><time>2026-04-07T11:38:12.829Z</time></trkpt><trkpt lat="42.1792533" lon="14.6601417"><ele>50.0</ele><time>2026-04-07T11:38:14.829Z</time></trkpt><trkpt lat="42.1792133" lon="14.6602083"><ele>50.0</ele><time>2026-04-07T11:38:15.829Z</time></trkpt><trkpt lat="42.1791367" lon="14.660335"><ele>50.0</ele><time>2026-04-07T11:38:17.829Z</time></trkpt><trkpt lat="42.1790633" lon="14.660465"><ele>50.0</ele><time>2026-04-07T11:38:19.83Z</time></trkpt><trkpt lat="42.1789983" lon="14.6605867"><ele>50.0</ele><time>2026-04-07T11:38:21.829Z</time></trkpt><trkpt lat="42.178935" lon="14.660715"><ele>50.0</ele><time>2026-04-07T11:38:23.83Z</time></trkpt><trkpt lat="42.1788767" lon="14.6608433"><ele>50.0</ele><time>2026-04-07T11:38:25.829Z</time></trkpt><trkpt lat="42.1788333" lon="14.660985"><ele>50.0</ele><time>2026-04-07T11:38:27.829Z</time></trkpt><trkpt lat="42.1787983" lon="14.6611333"><ele>50.0</ele><time>2026-04-07T11:38:29.829Z</time></trkpt><trkpt lat="42.17877" lon="14.6612783"><ele>50.2</ele><time>2026-04-07T11:38:31.829Z</time></trkpt><trkpt lat="42.1787483" lon="14.66142"><ele>50.4</ele><time>2026-04-07T11:38:33.829Z</time></trkpt><trkpt lat="42.1787233" lon="14.661555"><ele>50.599999999999994</ele><time>2026-04-07T11:38:35.829Z</time></trkpt><trkpt lat="42.1786917" lon="14.6616933"><ele>50.8</ele><time>2026-04-07T11:38:37.83Z</time></trkpt><trkpt lat="42.178665" lon="14.6618367"><ele>51.0</ele><time>2026-04-07T11:38:39.829Z</time></trkpt><trkpt lat="42.1786417" lon="14.6619883"><ele>50.599999999999994</ele><time>2026-04-07T11:38:41.829Z</time></trkpt><trkpt lat="42.1786267" lon="14.6621383"><ele>50.2</ele><time>2026-04-07T11:38:43.829Z</time></trkpt><trkpt lat="42.1786033" lon="14.662285"><ele>49.8</ele><time>2026-04-07T11:38:45.829Z</time></trkpt><trkpt lat="42.17857" lon="14.6624283"><ele>49.400000000000006</ele><time>2026-04-07T11:38:47.829Z</time></trkpt><trkpt lat="42.1785367" lon="14.662575"><ele>49.0</ele><time>2026-04-07T11:38:49.829Z</time></trkpt><trkpt lat="42.1784933" lon="14.6627233"><ele>48.75</ele><time>2026-04-07T11:38:51.829Z</time></trkpt><trkpt lat="42.1784317" lon="14.66286"><ele>48.5</ele><time>2026-04-07T11:38:53.829Z</time></trkpt><trkpt lat="42.1783667" lon="14.6629967"><ele>48.25</ele><time>2026-04-07T11:38:55.829Z</time></trkpt><trkpt lat="42.1783017" lon="14.6631183"><ele>48.0</ele><time>2026-04-07T11:38:57.83Z</time></trkpt><trkpt lat="42.1782433" lon="14.6632383"><ele>48.0</ele><time>2026-04-07T11:38:59.829Z</time></trkpt><trkpt lat="42.1781833" lon="14.6633667"><ele>48.0</ele><time>2026-04-07T11:39:01.829Z</time></trkpt><trkpt lat="42.1781233" lon="14.663495"><ele>48.0</ele><time>2026-04-07T11:39:03.83Z</time></trkpt><trkpt lat="42.1780583" lon="14.66363"><ele>48.0</ele><time>2026-04-07T11:39:05.83Z</time></trkpt><trkpt lat="42.1779933" lon="14.66375"><ele>48.0</ele><time>2026-04-07T11:39:07.829Z</time></trkpt><trkpt lat="42.1779267" lon="14.6638767"><ele>48.0</ele><time>2026-04-07T11:39:09.829Z</time></trkpt><trkpt lat="42.1778767" lon="14.6639917"><ele>48.0</ele><time>2026-04-07T11:39:11.829Z</time></trkpt><trkpt lat="42.177825" lon="14.664115"><ele>48.0</ele><time>2026-04-07T11:39:13.83Z</time></trkpt><trkpt lat="42.1777767" lon="14.664235"><ele>48.0</ele><time>2026-04-07T11:39:15.829Z</time></trkpt><trkpt lat="42.1777367" lon="14.664355"><ele>47.8</ele><time>2026-04-07T11:39:17.829Z</time></trkpt><trkpt lat="42.1776583" lon="14.6644583"><ele>47.599999999999994</ele><time>2026-04-07T11:39:19.829Z</time></trkpt><trkpt lat="42.177585" lon="14.6645733"><ele>47.400000000000006</ele><time>2026-04-07T11:39:21.829Z</time></trkpt><trkpt lat="42.1775067" lon="14.6646817"><ele>47.2</ele><time>2026-04-07T11:39:23.829Z</time></trkpt><trkpt lat="42.1774217" lon="14.66478"><ele>47.0</ele><time>2026-04-07T11:39:25.829Z</time></trkpt><trkpt lat="42.1773417" lon="14.6648733"><ele>47.400000000000006</ele><time>2026-04-07T11:39:27.829Z</time></trkpt><trkpt lat="42.17726" lon="14.664975"><ele>47.800000000000004</ele><time>2026-04-07T11:39:29.83Z</time></trkpt><trkpt lat="42.1771667" lon="14.6650667"><ele>48.2</ele><time>2026-04-07T11:39:31.829Z</time></trkpt><trkpt lat="42.177075" lon="14.665165"><ele>48.6</ele><time>2026-04-07T11:39:33.829Z</time></trkpt><trkpt lat="42.1770167" lon="14.6652233"><ele>49.0</ele><time>2026-04-07T11:39:34.83Z</time></trkpt><trkpt lat="42.1769633" lon="14.6652817"><ele>49.0</ele><time>2026-04-07T11:39:35.829Z</time></trkpt><trkpt lat="42.176875" lon="14.6653867"><ele>49.0</ele><time>2026-04-07T11:39:37.829Z</time></trkpt><trkpt lat="42.1767933" lon="14.6654783"><ele>49.0</ele><time>2026-04-07T11:39:39.829Z</time></trkpt><trkpt lat="42.176705" lon="14.665575"><ele>49.0</ele><time>2026-04-07T11:39:41.829Z</time></trkpt><trkpt lat="42.1766167" lon="14.6656767"><ele>49.0</ele><time>2026-04-07T11:39:43.829Z</time></trkpt><trkpt lat="42.176535" lon="14.6657717"><ele>49.0</ele><time>2026-04-07T11:39:45.829Z</time></trkpt><trkpt lat="42.1764533" lon="14.665865"><ele>49.0</ele><time>2026-04-07T11:39:47.829Z</time></trkpt><trkpt lat="42.17637" lon="14.665955"><ele>49.0</ele><time>2026-04-07T11:39:49.829Z</time></trkpt><trkpt lat="42.1762867" lon="14.6660367"><ele>49.0</ele><time>2026-04-07T11:39:51.829Z</time></trkpt><trkpt lat="42.1761917" lon="14.6661233"><ele>48.25</ele><time>2026-04-07T11:39:53.829Z</time></trkpt><trkpt lat="42.1760917" lon="14.6662017"><ele>47.5</ele><time>2026-04-07T11:39:55.829Z</time></trkpt><trkpt lat="42.17599" lon="14.6662667"><ele>46.75</ele><time>2026-04-07T11:39:57.829Z</time></trkpt><trkpt lat="42.1758967" lon="14.66633"><ele>46.0</ele><time>2026-04-07T11:39:59.829Z</time></trkpt><trkpt lat="42.1757833" lon="14.6664017"><ele>46.0</ele><time>2026-04-07T11:40:01.829Z</time></trkpt><trkpt lat="42.1757233" lon="14.666445"><ele>46.0</ele><time>2026-04-07T11:40:02.83Z</time></trkpt><trkpt lat="42.17566" lon="14.6664983"><ele>46.0</ele><time>2026-04-07T11:40:03.829Z</time></trkpt><trkpt lat="42.1756" lon="14.666555"><ele>46.0</ele><time>2026-04-07T11:40:04.829Z</time></trkpt><trkpt lat="42.1755333" lon="14.666615"><ele>46.0</ele><time>2026-04-07T11:40:05.829Z</time></trkpt><trkpt lat="42.17547" lon="14.6666817"><ele>46.0</ele><time>2026-04-07T11:40:06.829Z</time></trkpt><trkpt lat="42.1754033" lon="14.6667583"><ele>45.4</ele><time>2026-04-07T11:40:07.829Z</time></trkpt><trkpt lat="42.1753283" lon="14.6668383"><ele>44.8</ele><time>2026-04-07T11:40:08.829Z</time></trkpt><trkpt lat="42.1752517" lon="14.6669233"><ele>44.199999999999996</ele><time>2026-04-07T11:40:09.829Z</time></trkpt><trkpt lat="42.17518" lon="14.6670117"><ele>43.599999999999994</ele><time>2026-04-07T11:40:10.829Z</time></trkpt><trkpt lat="42.175105" lon="14.6670983"><ele>43.0</ele><time>2026-04-07T11:40:11.829Z</time></trkpt><trkpt lat="42.175025" lon="14.6671833"><ele>42.66666666666667</ele><time>2026-04-07T11:40:12.829Z</time></trkpt><trkpt lat="42.1749517" lon="14.66726"><ele>42.333333333333336</ele><time>2026-04-07T11:40:13.83Z</time></trkpt><trkpt lat="42.174885" lon="14.66734"><ele>42.0</ele><time>2026-04-07T11:40:14.829Z</time></trkpt><trkpt lat="42.1748217" lon="14.667415"><ele>41.666666666666664</ele><time>2026-04-07T11:40:15.829Z</time></trkpt><trkpt lat="42.1747633" lon="14.667485"><ele>41.33333333333333</ele><time>2026-04-07T11:40:16.83Z</time></trkpt><trkpt lat="42.1747083" lon="14.6675533"><ele>41.0</ele><time>2026-04-07T11:40:17.829Z</time></trkpt><trkpt lat="42.1746583" lon="14.6676117"><ele>41.666666666666664</ele><time>2026-04-07T11:40:18.83Z</time></trkpt><trkpt lat="42.1745783" lon="14.66771"><ele>42.33333333333333</ele><time>2026-04-07T11:40:20.829Z</time></trkpt><trkpt lat="42.1745067" lon="14.66779"><ele>43.0</ele><time>2026-04-07T11:40:22.829Z</time></trkpt><trkpt lat="42.1744533" lon="14.6678633"><ele>43.666666666666664</ele><time>2026-04-07T11:40:24.829Z</time></trkpt><trkpt lat="42.1744017" lon="14.66793"><ele>44.333333333333336</ele><time>2026-04-07T11:40:26.829Z</time></trkpt><trkpt lat="42.17436" lon="14.668005"><ele>45.0</ele><time>2026-04-07T11:40:28.829Z</time></trkpt><trkpt lat="42.174325" lon="14.6680867"><ele>45.285714285714285</ele><time>2026-04-07T11:40:30.829Z</time></trkpt><trkpt lat="42.1743067" lon="14.6681783"><ele>45.57142857142858</ele><time>2026-04-07T11:40:32.829Z</time></trkpt><trkpt lat="42.1742883" lon="14.6682683"><ele>45.85714285714286</ele><time>2026-04-07T11:40:34.83Z</time></trkpt><trkpt lat="42.174275" lon="14.6683567"><ele>46.14285714285714</ele><time>2026-04-07T11:40:36.829Z</time></trkpt><trkpt lat="42.1742633" lon="14.668455"><ele>46.42857142857143</ele><time>2026-04-07T11:40:38.829Z</time></trkpt><trkpt lat="42.17425" lon="14.6685583"><ele>46.714285714285715</ele><time>2026-04-07T11:40:40.83Z</time></trkpt><trkpt lat="42.174235" lon="14.6686467"><ele>47.0</ele><time>2026-04-07T11:40:42.829Z</time></trkpt><trkpt lat="42.1742233" lon="14.66874"><ele>47.166666666666664</ele><time>2026-04-07T11:40:44.829Z</time></trkpt><trkpt lat="42.1742117" lon="14.6688333"><ele>47.33333333333333</ele><time>2026-04-07T11:40:46.829Z</time></trkpt><trkpt lat="42.174195" lon="14.6689167"><ele>47.5</ele><time>2026-04-07T11:40:48.829Z</time></trkpt><trkpt lat="42.1741683" lon="14.6690083"><ele>47.666666666666664</ele><time>2026-04-07T11:40:50.829Z</time></trkpt><trkpt lat="42.1741383" lon="14.6691083"><ele>47.833333333333336</ele><time>2026-04-07T11:40:52.829Z</time></trkpt><trkpt lat="42.1741167" lon="14.6692217"><ele>48.0</ele><time>2026-04-07T11:40:54.83Z</time></trkpt><trkpt lat="42.1740783" lon="14.6693367"><ele>48.0</ele><time>2026-04-07T11:40:56.83Z</time></trkpt><trkpt lat="42.1740333" lon="14.6694433"><ele>48.0</ele><time>2026-04-07T11:40:58.829Z</time></trkpt><trkpt lat="42.1739867" lon="14.6695433"><ele>48.0</ele><time>2026-04-07T11:41:00.829Z</time></trkpt><trkpt lat="42.1739417" lon="14.669655"><ele>48.0</ele><time>2026-04-07T11:41:02.829Z</time></trkpt><trkpt lat="42.1738933" lon="14.6697733"><ele>48.0</ele><time>2026-04-07T11:41:04.829Z</time></trkpt><trkpt lat="42.1738467" lon="14.669895"><ele>48.0</ele><time>2026-04-07T11:41:06.83Z</time></trkpt><trkpt lat="42.1738017" lon="14.67002"><ele>48.0</ele><time>2026-04-07T11:41:08.829Z</time></trkpt><trkpt lat="42.1737567" lon="14.6701333"><ele>48.0</ele><time>2026-04-07T11:41:10.829Z</time></trkpt><trkpt lat="42.1737" lon="14.6702567"><ele>48.0</ele><time>2026-04-07T11:41:12.829Z</time></trkpt><trkpt lat="42.1736533" lon="14.670395"><ele>48.0</ele><time>2026-04-07T11:41:14.829Z</time></trkpt><trkpt lat="42.1736083" lon="14.670525"><ele>47.8</ele><time>2026-04-07T11:41:16.829Z</time></trkpt><trkpt lat="42.17356" lon="14.6706567"><ele>47.599999999999994</ele><time>2026-04-07T11:41:18.829Z</time></trkpt><trkpt lat="42.1735067" lon="14.6707817"><ele>47.400000000000006</ele><time>2026-04-07T11:41:20.829Z</time></trkpt><trkpt lat="42.1734483" lon="14.6709117"><ele>47.2</ele><time>2026-04-07T11:41:22.829Z</time></trkpt><trkpt lat="42.17339" lon="14.6710483"><ele>47.0</ele><time>2026-04-07T11:41:24.829Z</time></trkpt><trkpt lat="42.17333" lon="14.6711933"><ele>46.57142857142857</ele><time>2026-04-07T11:41:26.829Z</time></trkpt><trkpt lat="42.1732983" lon="14.6712717"><ele>46.14285714285714</ele><time>2026-04-07T11:41:27.83Z</time></trkpt><trkpt lat="42.1732617" lon="14.6713533"><ele>45.714285714285715</ele><time>2026-04-07T11:41:28.829Z</time></trkpt><trkpt lat="42.1732233" lon="14.671435"><ele>45.285714285714285</ele><time>2026-04-07T11:41:29.829Z</time></trkpt><trkpt lat="42.1731833" lon="14.6715217"><ele>44.857142857142854</ele><time>2026-04-07T11:41:30.829Z</time></trkpt><trkpt lat="42.1731417" lon="14.671605"><ele>44.42857142857143</ele><time>2026-04-07T11:41:31.829Z</time></trkpt><trkpt lat="42.1731" lon="14.6717"><ele>44.0</ele><time>2026-04-07T11:41:32.83Z</time></trkpt><trkpt lat="42.1730633" lon="14.671795"><ele>44.0</ele><time>2026-04-07T11:41:33.829Z</time></trkpt><trkpt lat="42.1730233" lon="14.6718933"><ele>44.0</ele><time>2026-04-07T11:41:34.829Z</time></trkpt><trkpt lat="42.1729833" lon="14.67199"><ele>44.0</ele><time>2026-04-07T11:41:35.829Z</time></trkpt><trkpt lat="42.1729417" lon="14.6720833"><ele>44.0</ele><time>2026-04-07T11:41:36.829Z</time></trkpt><trkpt lat="42.1729017" lon="14.672175"><ele>44.0</ele><time>2026-04-07T11:41:37.829Z</time></trkpt><trkpt lat="42.172865" lon="14.67226"><ele>44.0</ele><time>2026-04-07T11:41:38.829Z</time></trkpt><trkpt lat="42.1728333" lon="14.6723367"><ele>44.0</ele><time>2026-04-07T11:41:39.829Z</time></trkpt><trkpt lat="42.1728017" lon="14.6724167"><ele>44.0</ele><time>2026-04-07T11:41:40.829Z</time></trkpt><trkpt lat="42.1727383" lon="14.6725617"><ele>44.0</ele><time>2026-04-07T11:41:42.829Z</time></trkpt><trkpt lat="42.1726867" lon="14.6726767"><ele>44.0</ele><time>2026-04-07T11:41:44.829Z</time></trkpt><trkpt lat="42.1726283" lon="14.6727783"><ele>44.0</ele><time>2026-04-07T11:41:46.829Z</time></trkpt><trkpt lat="42.1725717" lon="14.672885"><ele>44.0</ele><time>2026-04-07T11:41:48.83Z</time></trkpt><trkpt lat="42.1725067" lon="14.6729817"><ele>44.0</ele><time>2026-04-07T11:41:50.829Z</time></trkpt><trkpt lat="42.172435" lon="14.673075"><ele>44.0</ele><time>2026-04-07T11:41:52.829Z</time></trkpt><trkpt lat="42.1723633" lon="14.67316"><ele>44.0</ele><time>2026-04-07T11:41:54.83Z</time></trkpt><trkpt lat="42.17229" lon="14.6732483"><ele>44.0</ele><time>2026-04-07T11:41:56.829Z</time></trkpt><trkpt lat="42.1722217" lon="14.6733383"><ele>44.2</ele><time>2026-04-07T11:41:58.83Z</time></trkpt><trkpt lat="42.1721617" lon="14.67343"><ele>44.400000000000006</ele><time>2026-04-07T11:42:00.828Z</time></trkpt><trkpt lat="42.1720917" lon="14.673525"><ele>44.6</ele><time>2026-04-07T11:42:02.829Z</time></trkpt><trkpt lat="42.17203" lon="14.67363"><ele>44.8</ele><time>2026-04-07T11:42:04.828Z</time></trkpt><trkpt lat="42.171965" lon="14.6737383"><ele>45.0</ele><time>2026-04-07T11:42:06.828Z</time></trkpt><trkpt lat="42.1719067" lon="14.6738567"><ele>45.4</ele><time>2026-04-07T11:42:08.828Z</time></trkpt><trkpt lat="42.1718517" lon="14.6739633"><ele>45.8</ele><time>2026-04-07T11:42:10.829Z</time></trkpt><trkpt lat="42.1717983" lon="14.6740683"><ele>46.2</ele><time>2026-04-07T11:42:12.828Z</time></trkpt><trkpt lat="42.1717483" lon="14.6741717"><ele>46.6</ele><time>2026-04-07T11:42:14.828Z</time></trkpt><trkpt lat="42.1716983" lon="14.6742783"><ele>47.0</ele><time>2026-04-07T11:42:16.828Z</time></trkpt><trkpt lat="42.1716467" lon="14.67439"><ele>46.8</ele><time>2026-04-07T11:42:18.828Z</time></trkpt><trkpt lat="42.1715917" lon="14.6744933"><ele>46.6</ele><time>2026-04-07T11:42:20.828Z</time></trkpt><trkpt lat="42.1715367" lon="14.6745883"><ele>46.4</ele><time>2026-04-07T11:42:22.828Z</time></trkpt><trkpt lat="42.1714833" lon="14.6746817"><ele>46.199999999999996</ele><time>2026-04-07T11:42:24.828Z</time></trkpt><trkpt lat="42.1714117" lon="14.6747717"><ele>46.0</ele><time>2026-04-07T11:42:26.828Z</time></trkpt><trkpt lat="42.17134" lon="14.67484"><ele>46.4</ele><time>2026-04-07T11:42:28.828Z</time></trkpt><trkpt lat="42.17127" lon="14.6749083"><ele>46.8</ele><time>2026-04-07T11:42:30.828Z</time></trkpt><trkpt lat="42.1712217" lon="14.6749867"><ele>47.199999999999996</ele><time>2026-04-07T11:42:32.828Z</time></trkpt><trkpt lat="42.1712533" lon="14.6750733"><ele>47.599999999999994</ele><time>2026-04-07T11:42:34.829Z</time></trkpt><trkpt lat="42.1713467" lon="14.6751633"><ele>48.0</ele><time>2026-04-07T11:42:36.828Z</time></trkpt><trkpt lat="42.1714567" lon="14.6752417"><ele>48.0</ele><time>2026-04-07T11:42:38.828Z</time></trkpt><trkpt lat="42.1715117" lon="14.675285"><ele>48.0</ele><time>2026-04-07T11:42:39.828Z</time></trkpt><trkpt lat="42.17157" lon="14.675325"><ele>48.0</ele><time>2026-04-07T11:42:40.828Z</time></trkpt><trkpt lat="42.171685" lon="14.6753983"><ele>48.0</ele><time>2026-04-07T11:42:42.828Z</time></trkpt><trkpt lat="42.1717967" lon="14.6754767"><ele>48.0</ele><time>2026-04-07T11:42:44.828Z</time></trkpt><trkpt lat="42.171905" lon="14.6755583"><ele>47.333333333333336</ele><time>2026-04-07T11:42:46.828Z</time></trkpt><trkpt lat="42.1719633" lon="14.6755983"><ele>46.666666666666664</ele><time>2026-04-07T11:42:47.828Z</time></trkpt><trkpt lat="42.17202" lon="14.6756367"><ele>46.0</ele><time>2026-04-07T11:42:48.828Z</time></trkpt><trkpt lat="42.1720783" lon="14.67568"><ele>45.33333333333333</ele><time>2026-04-07T11:42:49.828Z</time></trkpt><trkpt lat="42.1721867" lon="14.6757633"><ele>44.666666666666664</ele><time>2026-04-07T11:42:51.828Z</time></trkpt><trkpt lat="42.1722933" lon="14.6758483"><ele>44.0</ele><time>2026-04-07T11:42:53.828Z</time></trkpt><trkpt lat="42.1724" lon="14.6759233"><ele>43.75</ele><time>2026-04-07T11:42:55.828Z</time></trkpt><trkpt lat="42.1725067" lon="14.675995"><ele>43.5</ele><time>2026-04-07T11:42:57.828Z</time></trkpt><trkpt lat="42.1726067" lon="14.67607"><ele>43.25</ele><time>2026-04-07T11:42:59.828Z</time></trkpt><trkpt lat="42.17271" lon="14.676145"><ele>43.0</ele><time>2026-04-07T11:43:01.828Z</time></trkpt><trkpt lat="42.1728133" lon="14.6762167"><ele>42.5</ele><time>2026-04-07T11:43:03.829Z</time></trkpt><trkpt lat="42.1729183" lon="14.6762817"><ele>42.0</ele><time>2026-04-07T11:43:05.829Z</time></trkpt><trkpt lat="42.1730183" lon="14.6763567"><ele>41.5</ele><time>2026-04-07T11:43:07.828Z</time></trkpt><trkpt lat="42.173125" lon="14.6764283"><ele>41.0</ele><time>2026-04-07T11:43:09.828Z</time></trkpt><trkpt lat="42.1732333" lon="14.676495"><ele>41.0</ele><time>2026-04-07T11:43:11.828Z</time></trkpt><trkpt lat="42.1733367" lon="14.6765633"><ele>41.0</ele><time>2026-04-07T11:43:13.828Z</time></trkpt><trkpt lat="42.1734333" lon="14.6766267"><ele>41.0</ele><time>2026-04-07T11:43:15.829Z</time></trkpt><trkpt lat="42.17355" lon="14.676695"><ele>41.0</ele><time>2026-04-07T11:43:17.828Z</time></trkpt><trkpt lat="42.1736183" lon="14.6767383"><ele>41.0</ele><time>2026-04-07T11:43:18.829Z</time></trkpt><trkpt lat="42.1736767" lon="14.6767867"><ele>41.0</ele><time>2026-04-07T11:43:19.828Z</time></trkpt><trkpt lat="42.1737333" lon="14.6768367"><ele>41.0</ele><time>2026-04-07T11:43:20.828Z</time></trkpt><trkpt lat="42.17379" lon="14.676885"><ele>41.0</ele><time>2026-04-07T11:43:21.829Z</time></trkpt><trkpt lat="42.17389" lon="14.676975"><ele>41.0</ele><time>2026-04-07T11:43:23.829Z</time></trkpt><trkpt lat="42.1739917" lon="14.6770583"><ele>41.0</ele><time>2026-04-07T11:43:25.828Z</time></trkpt><trkpt lat="42.174085" lon="14.6771333"><ele>40.599999999999994</ele><time>2026-04-07T11:43:27.828Z</time></trkpt><trkpt lat="42.1741783" lon="14.6772033"><ele>40.199999999999996</ele><time>2026-04-07T11:43:29.828Z</time></trkpt><trkpt lat="42.1742617" lon="14.677275"><ele>39.8</ele><time>2026-04-07T11:43:31.828Z</time></trkpt><trkpt lat="42.17434" lon="14.6773483"><ele>39.4</ele><time>2026-04-07T11:43:33.828Z</time></trkpt><trkpt lat="42.174425" lon="14.6774167"><ele>39.0</ele><time>2026-04-07T11:43:35.828Z</time></trkpt><trkpt lat="42.1745217" lon="14.6774667"><ele>39.0</ele><time>2026-04-07T11:43:37.828Z</time></trkpt><trkpt lat="42.17462" lon="14.6775017"><ele>39.0</ele><time>2026-04-07T11:43:39.828Z</time></trkpt><trkpt lat="42.1747133" lon="14.6775217"><ele>39.0</ele><time>2026-04-07T11:43:41.828Z</time></trkpt><trkpt lat="42.1748017" lon="14.6775317"><ele>39.0</ele><time>2026-04-07T11:43:43.828Z</time></trkpt><trkpt lat="42.174885" lon="14.6775333"><ele>39.0</ele><time>2026-04-07T11:43:45.829Z</time></trkpt><trkpt lat="42.1749733" lon="14.6775333"><ele>38.833333333333336</ele><time>2026-04-07T11:43:47.829Z</time></trkpt><trkpt lat="42.175055" lon="14.67754"><ele>38.666666666666664</ele><time>2026-04-07T11:43:49.828Z</time></trkpt><trkpt lat="42.1751383" lon="14.6775467"><ele>38.5</ele><time>2026-04-07T11:43:51.828Z</time></trkpt><trkpt lat="42.175225" lon="14.677535"><ele>38.33333333333333</ele><time>2026-04-07T11:43:53.828Z</time></trkpt><trkpt lat="42.1753083" lon="14.6775067"><ele>38.166666666666664</ele><time>2026-04-07T11:43:55.828Z</time></trkpt><trkpt lat="42.175385" lon="14.677475"><ele>38.0</ele><time>2026-04-07T11:43:57.828Z</time></trkpt><trkpt lat="42.1754717" lon="14.6774133"><ele>38.0</ele><time>2026-04-07T11:43:59.828Z</time></trkpt><trkpt lat="42.1755617" lon="14.67739"><ele>38.0</ele><time>2026-04-07T11:44:01.828Z</time></trkpt><trkpt lat="42.1756333" lon="14.67743"><ele>38.0</ele><time>2026-04-07T11:44:03.829Z</time></trkpt><trkpt lat="42.175675" lon="14.67751"><ele>38.0</ele><time>2026-04-07T11:44:05.829Z</time></trkpt><trkpt lat="42.1756617" lon="14.6776067"><ele>38.0</ele><time>2026-04-07T11:44:07.828Z</time></trkpt><trkpt lat="42.17564" lon="14.6777083"><ele>38.0</ele><time>2026-04-07T11:44:09.828Z</time></trkpt><trkpt lat="42.1756217" lon="14.6778267"><ele>37.83333333333333</ele><time>2026-04-07T11:44:11.828Z</time></trkpt><trkpt lat="42.1756017" lon="14.6779367"><ele>37.666666666666664</ele><time>2026-04-07T11:44:13.828Z</time></trkpt><trkpt lat="42.175585" lon="14.6780483"><ele>37.5</ele><time>2026-04-07T11:44:15.828Z</time></trkpt><trkpt lat="42.1755617" lon="14.6781483"><ele>37.333333333333336</ele><time>2026-04-07T11:44:17.828Z</time></trkpt><trkpt lat="42.1755283" lon="14.6782483"><ele>37.16666666666667</ele><time>2026-04-07T11:44:19.828Z</time></trkpt><trkpt lat="42.1754833" lon="14.6783283"><ele>37.0</ele><time>2026-04-07T11:44:21.828Z</time></trkpt><trkpt lat="42.175435" lon="14.6784017"><ele>37.0</ele><time>2026-04-07T11:44:23.828Z</time></trkpt><trkpt lat="42.1753833" lon="14.6784867"><ele>37.0</ele><time>2026-04-07T11:44:25.828Z</time></trkpt><trkpt lat="42.17534" lon="14.67858"><ele>37.0</ele><time>2026-04-07T11:44:27.828Z</time></trkpt><trkpt lat="42.17529" lon="14.6786617"><ele>37.0</ele><time>2026-04-07T11:44:29.828Z</time></trkpt><trkpt lat="42.1752383" lon="14.6787533"><ele>37.0</ele><time>2026-04-07T11:44:31.828Z</time></trkpt><trkpt lat="42.1751933" lon="14.6788417"><ele>37.0</ele><time>2026-04-07T11:44:33.828Z</time></trkpt><trkpt lat="42.1751517" lon="14.67893"><ele>37.0</ele><time>2026-04-07T11:44:35.829Z</time></trkpt><trkpt lat="42.1751217" lon="14.67903"><ele>37.0</ele><time>2026-04-07T11:44:37.829Z</time></trkpt><trkpt lat="42.17511" lon="14.6791383"><ele>37.0</ele><time>2026-04-07T11:44:39.828Z</time></trkpt><trkpt lat="42.175125" lon="14.679265"><ele>37.0</ele><time>2026-04-07T11:44:41.828Z</time></trkpt><trkpt lat="42.1751633" lon="14.6793633"><ele>37.0</ele><time>2026-04-07T11:44:43.828Z</time></trkpt><trkpt lat="42.1752117" lon="14.679455"><ele>37.0</ele><time>2026-04-07T11:44:45.829Z</time></trkpt><trkpt lat="42.175265" lon="14.6795583"><ele>36.800000000000004</ele><time>2026-04-07T11:44:47.829Z</time></trkpt><trkpt lat="42.17533" lon="14.6796517"><ele>36.6</ele><time>2026-04-07T11:44:49.828Z</time></trkpt><trkpt lat="42.1753967" lon="14.679745"><ele>36.400000000000006</ele><time>2026-04-07T11:44:51.828Z</time></trkpt><trkpt lat="42.17546" lon="14.6798467"><ele>36.2</ele><time>2026-04-07T11:44:53.828Z</time></trkpt><trkpt lat="42.1755183" lon="14.6799383"><ele>36.0</ele><time>2026-04-07T11:44:55.828Z</time></trkpt><trkpt lat="42.17558" lon="14.6800267"><ele>36.0</ele><time>2026-04-07T11:44:57.828Z</time></trkpt><trkpt lat="42.1756417" lon="14.6801183"><ele>36.0</ele><time>2026-04-07T11:44:59.828Z</time></trkpt><trkpt lat="42.1757083" lon="14.6802067"><ele>36.0</ele><time>2026-04-07T11:45:01.828Z</time></trkpt><trkpt lat="42.17578" lon="14.6802867"><ele>36.0</ele><time>2026-04-07T11:45:03.828Z</time></trkpt><trkpt lat="42.1758583" lon="14.6803717"><ele>36.0</ele><time>2026-04-07T11:45:05.828Z</time></trkpt><trkpt lat="42.175935" lon="14.68046"><ele>35.4</ele><time>2026-04-07T11:45:07.828Z</time></trkpt><trkpt lat="42.1760033" lon="14.6805583"><ele>34.8</ele><time>2026-04-07T11:45:09.828Z</time></trkpt><trkpt lat="42.176065" lon="14.680665"><ele>34.199999999999996</ele><time>2026-04-07T11:45:11.828Z</time></trkpt><trkpt lat="42.1761217" lon="14.6807767"><ele>33.6</ele><time>2026-04-07T11:45:13.828Z</time></trkpt><trkpt lat="42.1761633" lon="14.6808883"><ele>33.0</ele><time>2026-04-07T11:45:15.829Z</time></trkpt><trkpt lat="42.1761883" lon="14.6810017"><ele>32.166666666666664</ele><time>2026-04-07T11:45:17.828Z</time></trkpt><trkpt lat="42.1762083" lon="14.68112"><ele>31.333333333333336</ele><time>2026-04-07T11:45:19.829Z</time></trkpt><trkpt lat="42.176235" lon="14.68122"><ele>30.5</ele><time>2026-04-07T11:45:21.828Z</time></trkpt><trkpt lat="42.1762833" lon="14.68132"><ele>29.666666666666668</ele><time>2026-04-07T11:45:23.829Z</time></trkpt><trkpt lat="42.1763533" lon="14.68137"><ele>28.833333333333336</ele><time>2026-04-07T11:45:25.828Z</time></trkpt><trkpt lat="42.176435" lon="14.6813817"><ele>28.0</ele><time>2026-04-07T11:45:27.828Z</time></trkpt><trkpt lat="42.1765083" lon="14.6814183"><ele>27.833333333333336</ele><time>2026-04-07T11:45:29.829Z</time></trkpt><trkpt lat="42.1765817" lon="14.6814667"><ele>27.666666666666668</ele><time>2026-04-07T11:45:31.828Z</time></trkpt><trkpt lat="42.1766533" lon="14.6815217"><ele>27.5</ele><time>2026-04-07T11:45:33.829Z</time></trkpt><trkpt lat="42.176675" lon="14.6816167"><ele>27.333333333333336</ele><time>2026-04-07T11:45:36.828Z</time></trkpt><trkpt lat="42.1766283" lon="14.6817317"><ele>27.166666666666668</ele><time>2026-04-07T11:45:39.828Z</time></trkpt><trkpt lat="42.176595" lon="14.6818267"><ele>27.0</ele><time>2026-04-07T11:45:41.829Z</time></trkpt><trkpt lat="42.1765617" lon="14.6819333"><ele>27.0</ele><time>2026-04-07T11:45:43.828Z</time></trkpt><trkpt lat="42.1765267" lon="14.68205"><ele>27.000000000000004</ele><time>2026-04-07T11:45:45.828Z</time></trkpt><trkpt lat="42.1765033" lon="14.6821783"><ele>27.000000000000004</ele><time>2026-04-07T11:45:47.829Z</time></trkpt><trkpt lat="42.1765217" lon="14.682305"><ele>27.0</ele><time>2026-04-07T11:45:49.828Z</time></trkpt><trkpt lat="42.176595" lon="14.6824067"><ele>27.0</ele><time>2026-04-07T11:45:51.828Z</time></trkpt><trkpt lat="42.1767017" lon="14.6825083"><ele>27.0</ele><time>2026-04-07T11:45:53.828Z</time></trkpt><trkpt lat="42.1768083" lon="14.6825667"><ele>27.000000000000004</ele><time>2026-04-07T11:45:55.828Z</time></trkpt><trkpt lat="42.1769117" lon="14.682605"><ele>27.000000000000004</ele><time>2026-04-07T11:45:57.828Z</time></trkpt><trkpt lat="42.1770133" lon="14.68265"><ele>27.0</ele><time>2026-04-07T11:45:59.828Z</time></trkpt><trkpt lat="42.1771217" lon="14.682685"><ele>27.0</ele><time>2026-04-07T11:46:01.829Z</time></trkpt><trkpt lat="42.1772333" lon="14.68271"><ele>27.0</ele><time>2026-04-07T11:46:03.828Z</time></trkpt><trkpt lat="42.17735" lon="14.682725"><ele>27.0</ele><time>2026-04-07T11:46:05.828Z</time></trkpt><trkpt lat="42.1774683" lon="14.6827467"><ele>27.0</ele><time>2026-04-07T11:46:07.828Z</time></trkpt><trkpt lat="42.1775883" lon="14.68277"><ele>27.0</ele><time>2026-04-07T11:46:09.828Z</time></trkpt><trkpt lat="42.1777117" lon="14.6827983"><ele>26.5</ele><time>2026-04-07T11:46:11.828Z</time></trkpt><trkpt lat="42.177775" lon="14.6828133"><ele>26.0</ele><time>2026-04-07T11:46:12.828Z</time></trkpt><trkpt lat="42.17784" lon="14.6828233"><ele>25.5</ele><time>2026-04-07T11:46:13.828Z</time></trkpt><trkpt lat="42.1779567" lon="14.682845"><ele>25.0</ele><time>2026-04-07T11:46:15.828Z</time></trkpt><trkpt lat="42.1780633" lon="14.682865"><ele>24.5</ele><time>2026-04-07T11:46:17.829Z</time></trkpt><trkpt lat="42.1781567" lon="14.6828817"><ele>24.0</ele><time>2026-04-07T11:46:19.828Z</time></trkpt><trkpt lat="42.1782417" lon="14.6828967"><ele>24.0</ele><time>2026-04-07T11:46:21.828Z</time></trkpt><trkpt lat="42.1783383" lon="14.6829067"><ele>24.0</ele><time>2026-04-07T11:46:23.828Z</time></trkpt><trkpt lat="42.17843" lon="14.682925"><ele>24.0</ele><time>2026-04-07T11:46:25.828Z</time></trkpt><trkpt lat="42.178525" lon="14.68294"><ele>24.0</ele><time>2026-04-07T11:46:27.828Z</time></trkpt><trkpt lat="42.17862" lon="14.6829617"><ele>24.0</ele><time>2026-04-07T11:46:29.828Z</time></trkpt><trkpt lat="42.1786967" lon="14.6829933"><ele>23.999999999999996</ele><time>2026-04-07T11:46:31.828Z</time></trkpt><trkpt lat="42.1787633" lon="14.6830183"><ele>24.0</ele><time>2026-04-07T11:46:33.828Z</time></trkpt><trkpt lat="42.17883" lon="14.6830333"><ele>24.0</ele><time>2026-04-07T11:46:35.828Z</time></trkpt><trkpt lat="42.178895" lon="14.683055"><ele>24.0</ele><time>2026-04-07T11:46:37.828Z</time></trkpt><trkpt lat="42.1789583" lon="14.6830667"><ele>24.0</ele><time>2026-04-07T11:46:39.828Z</time></trkpt><trkpt lat="42.1790483" lon="14.6830983"><ele>23.999999999999996</ele><time>2026-04-07T11:46:42.828Z</time></trkpt><trkpt lat="42.1791067" lon="14.68317"><ele>24.0</ele><time>2026-04-07T11:46:45.828Z</time></trkpt><trkpt lat="42.1791167" lon="14.6832633"><ele>23.285714285714285</ele><time>2026-04-07T11:46:48.828Z</time></trkpt><trkpt lat="42.1791217" lon="14.683365"><ele>22.57142857142857</ele><time>2026-04-07T11:46:51.828Z</time></trkpt><trkpt lat="42.1791317" lon="14.68345"><ele>21.857142857142854</ele><time>2026-04-07T11:46:53.828Z</time></trkpt><trkpt lat="42.1791383" lon="14.6835417"><ele>21.142857142857142</ele><time>2026-04-07T11:46:55.828Z</time></trkpt><trkpt lat="42.1791167" lon="14.683625"><ele>20.42857142857143</ele><time>2026-04-07T11:46:57.828Z</time></trkpt><trkpt lat="42.1790867" lon="14.6837217"><ele>19.71428571428571</ele><time>2026-04-07T11:46:59.828Z</time></trkpt><trkpt lat="42.1790433" lon="14.68381"><ele>19.0</ele><time>2026-04-07T11:47:01.828Z</time></trkpt><trkpt lat="42.1789983" lon="14.6838783"><ele>18.57142857142857</ele><time>2026-04-07T11:47:03.828Z</time></trkpt><trkpt lat="42.17895" lon="14.6839367"><ele>18.142857142857146</ele><time>2026-04-07T11:47:05.828Z</time></trkpt><trkpt lat="42.178895" lon="14.6839867"><ele>17.714285714285715</ele><time>2026-04-07T11:47:07.828Z</time></trkpt><trkpt lat="42.178845" lon="14.6840433"><ele>17.285714285714285</ele><time>2026-04-07T11:47:09.828Z</time></trkpt><trkpt lat="42.1787917" lon="14.6840983"><ele>16.857142857142854</ele><time>2026-04-07T11:47:11.828Z</time></trkpt><trkpt lat="42.1787267" lon="14.684155"><ele>16.428571428571427</ele><time>2026-04-07T11:47:13.828Z</time></trkpt><trkpt lat="42.1786533" lon="14.6842133"><ele>16.0</ele><time>2026-04-07T11:47:15.828Z</time></trkpt><trkpt lat="42.1785767" lon="14.68426"><ele>15.999999999999998</ele><time>2026-04-07T11:47:17.828Z</time></trkpt><trkpt lat="42.1785" lon="14.6842967"><ele>16.0</ele><time>2026-04-07T11:47:19.828Z</time></trkpt><trkpt lat="42.1784167" lon="14.68433"><ele>16.0</ele><time>2026-04-07T11:47:21.828Z</time></trkpt><trkpt lat="42.1783383" lon="14.6843583"><ele>16.0</ele><time>2026-04-07T11:47:23.828Z</time></trkpt><trkpt lat="42.17827" lon="14.6843783"><ele>15.999999999999998</ele><time>2026-04-07T11:47:25.828Z</time></trkpt><trkpt lat="42.1782083" lon="14.6844017"><ele>16.0</ele><time>2026-04-07T11:47:27.828Z</time></trkpt><trkpt lat="42.1781267" lon="14.684425"><ele>15.333333333333332</ele><time>2026-04-07T11:47:29.829Z</time></trkpt><trkpt lat="42.178055" lon="14.6844283"><ele>14.666666666666666</ele><time>2026-04-07T11:47:31.828Z</time></trkpt><trkpt lat="42.1779717" lon="14.68445"><ele>14.0</ele><time>2026-04-07T11:47:33.828Z</time></trkpt><trkpt lat="42.1778917" lon="14.6844617"><ele>13.333333333333332</ele><time>2026-04-07T11:47:35.828Z</time></trkpt><trkpt lat="42.1778083" lon="14.68448"><ele>12.666666666666666</ele><time>2026-04-07T11:47:38.829Z</time></trkpt><trkpt lat="42.17774" lon="14.6845133"><ele>12.0</ele><time>2026-04-07T11:47:41.828Z</time></trkpt><trkpt lat="42.17768" lon="14.684565"><ele>12.0</ele><time>2026-04-07T11:47:44.829Z</time></trkpt><trkpt lat="42.1776483" lon="14.6846483"><ele>12.0</ele><time>2026-04-07T11:47:47.828Z</time></trkpt><trkpt lat="42.1776083" lon="14.6847317"><ele>12.0</ele><time>2026-04-07T11:47:50.828Z</time></trkpt><trkpt lat="42.1775867" lon="14.6848133"><ele>12.0</ele><time>2026-04-07T11:47:53.828Z</time></trkpt><trkpt lat="42.1776117" lon="14.6849967"><ele>12.0</ele><time>2026-04-07T11:48:41.828Z</time></trkpt><trkpt lat="42.1776717" lon="14.6850433"><ele>12.0</ele><time>2026-04-07T11:48:44.828Z</time></trkpt><trkpt lat="42.1777467" lon="14.68511"><ele>12.0</ele><time>2026-04-07T11:48:47.828Z</time></trkpt><trkpt lat="42.1778117" lon="14.6851633"><ele>12.0</ele><time>2026-04-07T11:48:49.828Z</time></trkpt><trkpt lat="42.177885" lon="14.6852233"><ele>12.0</ele><time>2026-04-07T11:48:51.828Z</time></trkpt><trkpt lat="42.1779583" lon="14.6852833"><ele>12.0</ele><time>2026-04-07T11:48:53.828Z</time></trkpt><trkpt lat="42.1780267" lon="14.6853467"><ele>12.0</ele><time>2026-04-07T11:48:55.828Z</time></trkpt><trkpt lat="42.1780867" lon="14.68542"><ele>12.0</ele><time>2026-04-07T11:48:58.828Z</time></trkpt><trkpt lat="42.1781517" lon="14.6854683"><ele>11.428571428571427</ele><time>2026-04-07T11:49:03.828Z</time></trkpt><trkpt lat="42.1782133" lon="14.6855233"><ele>10.857142857142858</ele><time>2026-04-07T11:49:08.828Z</time></trkpt><trkpt lat="42.1782733" lon="14.6855933"><ele>10.285714285714285</ele><time>2026-04-07T11:49:13.828Z</time></trkpt><trkpt lat="42.1783383" lon="14.6856667"><ele>9.714285714285714</ele><time>2026-04-07T11:49:17.829Z</time></trkpt><trkpt lat="42.178395" lon="14.6857317"><ele>9.142857142857142</ele><time>2026-04-07T11:49:20.828Z</time></trkpt><trkpt lat="42.178455" lon="14.68578"><ele>8.571428571428571</ele><time>2026-04-07T11:49:23.828Z</time></trkpt><trkpt lat="42.1785133" lon="14.6858233"><ele>8.0</ele><time>2026-04-07T11:49:26.829Z</time></trkpt><trkpt lat="42.17857" lon="14.6858683"><ele>8.0</ele><time>2026-04-07T11:49:29.828Z</time></trkpt><trkpt lat="42.1786283" lon="14.6859117"><ele>7.999999999999999</ele><time>2026-04-07T11:49:32.829Z</time></trkpt><trkpt lat="42.1786967" lon="14.6859483"><ele>8.0</ele><time>2026-04-07T11:49:36.828Z</time></trkpt><trkpt lat="42.178755" lon="14.6860067"><ele>8.0</ele><time>2026-04-07T11:49:40.829Z</time></trkpt><trkpt lat="42.1788183" lon="14.6860783"><ele>7.999999999999999</ele><time>2026-04-07T11:49:44.828Z</time></trkpt><trkpt lat="42.1788733" lon="14.6861433"><ele>8.0</ele><time>2026-04-07T11:49:48.828Z</time></trkpt><trkpt lat="42.1789267" lon="14.6862133"><ele>8.0</ele><time>2026-04-07T11:49:52.828Z</time></trkpt><trkpt lat="42.17898" lon="14.6862883"><ele>9.0</ele><time>2026-04-07T11:49:56.828Z</time></trkpt><trkpt lat="42.1790167" lon="14.686365"><ele>10.0</ele><time>2026-04-07T11:50:00.829Z</time></trkpt><trkpt lat="42.1790617" lon="14.686455"><ele>11.0</ele><time>2026-04-07T11:50:04.828Z</time></trkpt><trkpt lat="42.1790883" lon="14.68654"><ele>12.0</ele><time>2026-04-07T11:50:08.828Z</time></trkpt><trkpt lat="42.17911" lon="14.68664"><ele>13.0</ele><time>2026-04-07T11:50:12.828Z</time></trkpt><trkpt lat="42.1791167" lon="14.68673"><ele>14.0</ele><time>2026-04-07T11:50:16.828Z</time></trkpt><trkpt lat="42.1791233" lon="14.6868317"><ele>15.0</ele><time>2026-04-07T11:50:20.828Z</time></trkpt><trkpt lat="42.179135" lon="14.686935"><ele>15.142857142857142</ele><time>2026-04-07T11:50:24.828Z</time></trkpt><trkpt lat="42.179145" lon="14.6870383"><ele>15.285714285714285</ele><time>2026-04-07T11:50:28.829Z</time></trkpt><trkpt lat="42.1791483" lon="14.6871333"><ele>15.428571428571427</ele><time>2026-04-07T11:50:32.829Z</time></trkpt><trkpt lat="42.1791367" lon="14.687235"><ele>15.571428571428571</ele><time>2026-04-07T11:50:36.828Z</time></trkpt><trkpt lat="42.1791167" lon="14.687335"><ele>15.714285714285712</ele><time>2026-04-07T11:50:40.829Z</time></trkpt><trkpt lat="42.1790817" lon="14.68743"><ele>15.857142857142856</ele><time>2026-04-07T11:50:44.828Z</time></trkpt><trkpt lat="42.179045" lon="14.6875083"><ele>16.0</ele><time>2026-04-07T11:50:48.828Z</time></trkpt><trkpt lat="42.1789933" lon="14.6875733"><ele>17.142857142857142</ele><time>2026-04-07T11:50:52.828Z</time></trkpt><trkpt lat="42.1789283" lon="14.6876"><ele>18.285714285714285</ele><time>2026-04-07T11:50:56.828Z</time></trkpt><trkpt lat="42.1788567" lon="14.687615"><ele>19.428571428571427</ele><time>2026-04-07T11:51:00.828Z</time></trkpt><trkpt lat="42.1787917" lon="14.6876283"><ele>20.57142857142857</ele><time>2026-04-07T11:51:04.829Z</time></trkpt><trkpt lat="42.17872" lon="14.6876233"><ele>21.714285714285715</ele><time>2026-04-07T11:51:08.828Z</time></trkpt><trkpt lat="42.178655" lon="14.6876217"><ele>22.857142857142854</ele><time>2026-04-07T11:51:12.828Z</time></trkpt><trkpt lat="42.178585" lon="14.68763"><ele>24.0</ele><time>2026-04-07T11:51:16.829Z</time></trkpt><trkpt lat="42.178515" lon="14.6876467"><ele>23.999999999999996</ele><time>2026-04-07T11:51:20.828Z</time></trkpt><trkpt lat="42.17844" lon="14.6876717"><ele>24.0</ele><time>2026-04-07T11:51:24.828Z</time></trkpt><trkpt lat="42.1783583" lon="14.6876983"><ele>24.0</ele><time>2026-04-07T11:51:28.829Z</time></trkpt><trkpt lat="42.1782933" lon="14.6877233"><ele>24.0</ele><time>2026-04-07T11:51:31.828Z</time></trkpt><trkpt lat="42.17823" lon="14.687755"><ele>24.0</ele><time>2026-04-07T11:51:34.828Z</time></trkpt><trkpt lat="42.1781667" lon="14.6877883"><ele>23.999999999999996</ele><time>2026-04-07T11:51:37.828Z</time></trkpt><trkpt lat="42.1781" lon="14.6878267"><ele>24.0</ele><time>2026-04-07T11:51:40.828Z</time></trkpt><trkpt lat="42.1780167" lon="14.68789"><ele>24.833333333333332</ele><time>2026-04-07T11:51:43.828Z</time></trkpt><trkpt lat="42.17796" lon="14.68794"><ele>25.666666666666664</ele><time>2026-04-07T11:51:45.828Z</time></trkpt><trkpt lat="42.1779017" lon="14.6880033"><ele>26.5</ele><time>2026-04-07T11:51:47.828Z</time></trkpt><trkpt lat="42.1778467" lon="14.6880767"><ele>27.333333333333332</ele><time>2026-04-07T11:51:49.829Z</time></trkpt><trkpt lat="42.1777833" lon="14.6881533"><ele>28.166666666666664</ele><time>2026-04-07T11:51:51.828Z</time></trkpt><trkpt lat="42.1777233" lon="14.68823"><ele>29.0</ele><time>2026-04-07T11:51:53.828Z</time></trkpt><trkpt lat="42.1776667" lon="14.6883083"><ele>28.999999999999996</ele><time>2026-04-07T11:51:55.828Z</time></trkpt><trkpt lat="42.1776167" lon="14.6883767"><ele>29.0</ele><time>2026-04-07T11:51:57.829Z</time></trkpt><trkpt lat="42.1775567" lon="14.68845"><ele>29.0</ele><time>2026-04-07T11:51:59.828Z</time></trkpt><trkpt lat="42.1775033" lon="14.688525"><ele>29.0</ele><time>2026-04-07T11:52:01.828Z</time></trkpt><trkpt lat="42.1774567" lon="14.6886033"><ele>28.999999999999996</ele><time>2026-04-07T11:52:03.828Z</time></trkpt><trkpt lat="42.177405" lon="14.6886783"><ele>29.0</ele><time>2026-04-07T11:52:05.828Z</time></trkpt><trkpt lat="42.1773583" lon="14.6887517"><ele>29.42857142857143</ele><time>2026-04-07T11:52:07.828Z</time></trkpt><trkpt lat="42.1773133" lon="14.688815"><ele>29.857142857142858</ele><time>2026-04-07T11:52:09.828Z</time></trkpt><trkpt lat="42.1772667" lon="14.6888817"><ele>30.285714285714285</ele><time>2026-04-07T11:52:11.828Z</time></trkpt><trkpt lat="42.1772083" lon="14.68894"><ele>30.714285714285715</ele><time>2026-04-07T11:52:13.828Z</time></trkpt><trkpt lat="42.1771433" lon="14.6889767"><ele>31.14285714285714</ele><time>2026-04-07T11:52:15.828Z</time></trkpt><trkpt lat="42.1770783" lon="14.688995"><ele>31.57142857142857</ele><time>2026-04-07T11:52:17.828Z</time></trkpt><trkpt lat="42.1769867" lon="14.689"><ele>32.0</ele><time>2026-04-07T11:52:20.828Z</time></trkpt><trkpt lat="42.1769183" lon="14.689005"><ele>32.0</ele><time>2026-04-07T11:52:22.828Z</time></trkpt><trkpt lat="42.1768533" lon="14.689005"><ele>31.999999999999996</ele><time>2026-04-07T11:52:24.828Z</time></trkpt><trkpt lat="42.176785" lon="14.6890217"><ele>32.0</ele><time>2026-04-07T11:52:26.828Z</time></trkpt><trkpt lat="42.1767183" lon="14.689045"><ele>32.0</ele><time>2026-04-07T11:52:28.828Z</time></trkpt><trkpt lat="42.1766583" lon="14.6890833"><ele>31.999999999999996</ele><time>2026-04-07T11:52:30.828Z</time></trkpt><trkpt lat="42.176605" lon="14.6891433"><ele>32.0</ele><time>2026-04-07T11:52:32.828Z</time></trkpt><trkpt lat="42.1765617" lon="14.68921"><ele>32.0</ele><time>2026-04-07T11:52:34.828Z</time></trkpt><trkpt lat="42.17652" lon="14.6892833"><ele>32.14285714285714</ele><time>2026-04-07T11:52:36.828Z</time></trkpt><trkpt lat="42.176485" lon="14.6893633"><ele>32.285714285714285</ele><time>2026-04-07T11:52:38.828Z</time></trkpt><trkpt lat="42.17645" lon="14.6894467"><ele>32.42857142857143</ele><time>2026-04-07T11:52:40.828Z</time></trkpt><trkpt lat="42.1764183" lon="14.6895367"><ele>32.57142857142857</ele><time>2026-04-07T11:52:42.828Z</time></trkpt><trkpt lat="42.1763933" lon="14.6896283"><ele>32.714285714285715</ele><time>2026-04-07T11:52:44.828Z</time></trkpt><trkpt lat="42.1763633" lon="14.68972"><ele>32.857142857142854</ele><time>2026-04-07T11:52:46.828Z</time></trkpt><trkpt lat="42.1763317" lon="14.689815"><ele>33.0</ele><time>2026-04-07T11:52:48.828Z</time></trkpt><trkpt lat="42.1762983" lon="14.6899133"><ele>33.166666666666664</ele><time>2026-04-07T11:52:50.828Z</time></trkpt><trkpt lat="42.1762617" lon="14.69"><ele>33.333333333333336</ele><time>2026-04-07T11:52:52.828Z</time></trkpt><trkpt lat="42.1762317" lon="14.6900983"><ele>33.5</ele><time>2026-04-07T11:52:54.829Z</time></trkpt><trkpt lat="42.176195" lon="14.6902"><ele>33.66666666666667</ele><time>2026-04-07T11:52:56.828Z</time></trkpt><trkpt lat="42.1761583" lon="14.6903033"><ele>33.833333333333336</ele><time>2026-04-07T11:52:58.828Z</time></trkpt><trkpt lat="42.1761217" lon="14.69041"><ele>34.0</ele><time>2026-04-07T11:53:00.828Z</time></trkpt><trkpt lat="42.1760883" lon="14.690505"><ele>34.16666666666667</ele><time>2026-04-07T11:53:02.829Z</time></trkpt><trkpt lat="42.1760567" lon="14.6905967"><ele>34.333333333333336</ele><time>2026-04-07T11:53:04.828Z</time></trkpt><trkpt lat="42.176025" lon="14.6906983"><ele>34.5</ele><time>2026-04-07T11:53:06.828Z</time></trkpt><trkpt lat="42.1759983" lon="14.6907983"><ele>34.666666666666664</ele><time>2026-04-07T11:53:08.828Z</time></trkpt><trkpt lat="42.1759617" lon="14.6909033"><ele>34.83333333333333</ele><time>2026-04-07T11:53:10.828Z</time></trkpt><trkpt lat="42.1759283" lon="14.69101"><ele>35.0</ele><time>2026-04-07T11:53:12.829Z</time></trkpt><trkpt lat="42.175895" lon="14.6911117"><ele>35.166666666666664</ele><time>2026-04-07T11:53:14.828Z</time></trkpt><trkpt lat="42.17587" lon="14.6912133"><ele>35.33333333333333</ele><time>2026-04-07T11:53:16.828Z</time></trkpt><trkpt lat="42.17584" lon="14.691315"><ele>35.5</ele><time>2026-04-07T11:53:18.828Z</time></trkpt><trkpt lat="42.17581" lon="14.691415"><ele>35.666666666666664</ele><time>2026-04-07T11:53:20.828Z</time></trkpt><trkpt lat="42.1757667" lon="14.6915033"><ele>35.833333333333336</ele><time>2026-04-07T11:53:22.828Z</time></trkpt><trkpt lat="42.1757217" lon="14.6916017"><ele>36.0</ele><time>2026-04-07T11:53:24.828Z</time></trkpt><trkpt lat="42.1756733" lon="14.69171"><ele>35.833333333333336</ele><time>2026-04-07T11:53:26.828Z</time></trkpt><trkpt lat="42.1756317" lon="14.6918117"><ele>35.666666666666664</ele><time>2026-04-07T11:53:28.828Z</time></trkpt><trkpt lat="42.17559" lon="14.69192"><ele>35.5</ele><time>2026-04-07T11:53:30.829Z</time></trkpt><trkpt lat="42.1755567" lon="14.6920117"><ele>35.33333333333333</ele><time>2026-04-07T11:53:32.828Z</time></trkpt><trkpt lat="42.1755117" lon="14.6921133"><ele>35.166666666666664</ele><time>2026-04-07T11:53:34.828Z</time></trkpt><trkpt lat="42.175465" lon="14.6922133"><ele>35.0</ele><time>2026-04-07T11:53:36.829Z</time></trkpt><trkpt lat="42.17542" lon="14.69231"><ele>35.0</ele><time>2026-04-07T11:53:38.828Z</time></trkpt><trkpt lat="42.1753683" lon="14.6924"><ele>35.0</ele><time>2026-04-07T11:53:40.829Z</time></trkpt><trkpt lat="42.1753217" lon="14.6924733"><ele>35.0</ele><time>2026-04-07T11:53:42.828Z</time></trkpt><trkpt lat="42.17527" lon="14.69253"><ele>35.0</ele><time>2026-04-07T11:56:23.834Z</time></trkpt><trkpt lat="42.1752367" lon="14.6926067"><ele>35.0</ele><time>2026-04-07T11:59:40.833Z</time></trkpt><trkpt lat="42.1751867" lon="14.6926767"><ele>35.0</ele><time>2026-04-07T11:59:43.832Z</time></trkpt><trkpt lat="42.17514" lon="14.6927383"><ele>35.0</ele><time>2026-04-07T11:59:45.832Z</time></trkpt><trkpt lat="42.175085" lon="14.692815"><ele>35.0</ele><time>2026-04-07T11:59:47.832Z</time></trkpt><trkpt lat="42.1750183" lon="14.692895"><ele>35.0</ele><time>2026-04-07T11:59:49.832Z</time></trkpt><trkpt lat="42.1749583" lon="14.69296"><ele>35.0</ele><time>2026-04-07T11:59:51.832Z</time></trkpt><trkpt lat="42.174895" lon="14.6930117"><ele>35.0</ele><time>2026-04-07T11:59:53.832Z</time></trkpt><trkpt lat="42.1748217" lon="14.6930717"><ele>35.0</ele><time>2026-04-07T11:59:55.832Z</time></trkpt><trkpt lat="42.1747517" lon="14.6931333"><ele>35.0</ele><time>2026-04-07T11:59:57.833Z</time></trkpt><trkpt lat="42.1746767" lon="14.6932017"><ele>34.83333333333333</ele><time>2026-04-07T11:59:59.833Z</time></trkpt><trkpt lat="42.1746033" lon="14.6932683"><ele>34.666666666666664</ele><time>2026-04-07T12:00:01.832Z</time></trkpt><trkpt lat="42.1745333" lon="14.693325"><ele>34.5</ele><time>2026-04-07T12:00:03.832Z</time></trkpt><trkpt lat="42.1744667" lon="14.6933817"><ele>34.333333333333336</ele><time>2026-04-07T12:00:05.832Z</time></trkpt><trkpt lat="42.1744033" lon="14.6934217"><ele>34.16666666666667</ele><time>2026-04-07T12:00:07.832Z</time></trkpt><trkpt lat="42.174335" lon="14.6934983"><ele>34.0</ele><time>2026-04-07T12:00:10.832Z</time></trkpt><trkpt lat="42.1742967" lon="14.6935967"><ele>34.0</ele><time>2026-04-07T12:00:13.833Z</time></trkpt><trkpt lat="42.1743317" lon="14.69367"><ele>34.0</ele><time>2026-04-07T12:00:15.832Z</time></trkpt><trkpt lat="42.1744017" lon="14.6937317"><ele>34.0</ele><time>2026-04-07T12:00:17.832Z</time></trkpt><trkpt lat="42.1744833" lon="14.6937783"><ele>34.0</ele><time>2026-04-07T12:00:19.832Z</time></trkpt><trkpt lat="42.17456" lon="14.6938317"><ele>34.0</ele><time>2026-04-07T12:00:21.832Z</time></trkpt><trkpt lat="42.174645" lon="14.69389"><ele>34.0</ele><time>2026-04-07T12:00:23.832Z</time></trkpt><trkpt lat="42.17473" lon="14.6939483"><ele>34.0</ele><time>2026-04-07T12:00:25.832Z</time></trkpt><trkpt lat="42.17481" lon="14.6940017"><ele>34.0</ele><time>2026-04-07T12:00:27.832Z</time></trkpt><trkpt lat="42.17488" lon="14.6940533"><ele>34.0</ele><time>2026-04-07T12:00:29.832Z</time></trkpt><trkpt lat="42.1749517" lon="14.6941183"><ele>34.0</ele><time>2026-04-07T12:00:31.833Z</time></trkpt><trkpt lat="42.1750067" lon="14.6941933"><ele>34.0</ele><time>2026-04-07T12:00:33.832Z</time></trkpt><trkpt lat="42.1750333" lon="14.69428"><ele>34.0</ele><time>2026-04-07T12:00:35.832Z</time></trkpt><trkpt lat="42.175035" lon="14.6943933"><ele>33.833333333333336</ele><time>2026-04-07T12:00:38.832Z</time></trkpt><trkpt lat="42.1750017" lon="14.694475"><ele>33.66666666666667</ele><time>2026-04-07T12:00:47.832Z</time></trkpt><trkpt lat="42.1749517" lon="14.6945733"><ele>33.5</ele><time>2026-04-07T12:00:51.832Z</time></trkpt><trkpt lat="42.1749083" lon="14.6946467"><ele>33.333333333333336</ele><time>2026-04-07T12:00:53.832Z</time></trkpt><trkpt lat="42.174865" lon="14.6947483"><ele>33.166666666666664</ele><time>2026-04-07T12:00:55.832Z</time></trkpt><trkpt lat="42.1748317" lon="14.6948733"><ele>33.0</ele><time>2026-04-07T12:00:57.832Z</time></trkpt><trkpt lat="42.174795" lon="14.6949967"><ele>33.0</ele><time>2026-04-07T12:00:59.832Z</time></trkpt><trkpt lat="42.1747617" lon="14.6951183"><ele>33.0</ele><time>2026-04-07T12:01:01.832Z</time></trkpt><trkpt lat="42.1747267" lon="14.6952383"><ele>33.0</ele><time>2026-04-07T12:01:03.832Z</time></trkpt><trkpt lat="42.17469" lon="14.6953583"><ele>33.0</ele><time>2026-04-07T12:01:05.833Z</time></trkpt><trkpt lat="42.1746567" lon="14.6954767"><ele>33.0</ele><time>2026-04-07T12:01:07.833Z</time></trkpt><trkpt lat="42.1746217" lon="14.6955883"><ele>32.8</ele><time>2026-04-07T12:01:09.832Z</time></trkpt><trkpt lat="42.17458" lon="14.69571"><ele>32.599999999999994</ele><time>2026-04-07T12:01:11.832Z</time></trkpt><trkpt lat="42.174535" lon="14.69583"><ele>32.400000000000006</ele><time>2026-04-07T12:01:13.832Z</time></trkpt><trkpt lat="42.1744983" lon="14.6959467"><ele>32.2</ele><time>2026-04-07T12:01:15.832Z</time></trkpt><trkpt lat="42.1744667" lon="14.69606"><ele>32.0</ele><time>2026-04-07T12:01:17.833Z</time></trkpt><trkpt lat="42.1744317" lon="14.6961667"><ele>31.499999999999996</ele><time>2026-04-07T12:01:19.832Z</time></trkpt><trkpt lat="42.1744" lon="14.6962733"><ele>31.0</ele><time>2026-04-07T12:01:21.832Z</time></trkpt><trkpt lat="42.1743617" lon="14.6963733"><ele>30.5</ele><time>2026-04-07T12:01:23.833Z</time></trkpt><trkpt lat="42.1743233" lon="14.6964767"><ele>30.0</ele><time>2026-04-07T12:01:25.832Z</time></trkpt><trkpt lat="42.1742867" lon="14.6965783"><ele>29.499999999999996</ele><time>2026-04-07T12:01:27.833Z</time></trkpt><trkpt lat="42.17425" lon="14.6966833"><ele>29.0</ele><time>2026-04-07T12:01:29.832Z</time></trkpt><trkpt lat="42.174215" lon="14.6967883"><ele>28.999999999999996</ele><time>2026-04-07T12:01:31.832Z</time></trkpt><trkpt lat="42.17418" lon="14.69688"><ele>29.0</ele><time>2026-04-07T12:01:33.832Z</time></trkpt><trkpt lat="42.174145" lon="14.6969733"><ele>29.0</ele><time>2026-04-07T12:01:35.832Z</time></trkpt><trkpt lat="42.1741117" lon="14.69706"><ele>29.0</ele><time>2026-04-07T12:01:37.832Z</time></trkpt><trkpt lat="42.1740683" lon="14.697165"><ele>28.999999999999996</ele><time>2026-04-07T12:01:40.833Z</time></trkpt><trkpt lat="42.1740633" lon="14.697255"><ele>29.0</ele><time>2026-04-07T12:01:45.832Z</time></trkpt><trkpt lat="42.174035" lon="14.6973433"><ele>29.833333333333332</ele><time>2026-04-07T12:01:48.833Z</time></trkpt><trkpt lat="42.1739983" lon="14.6974417"><ele>30.666666666666664</ele><time>2026-04-07T12:01:51.832Z</time></trkpt><trkpt lat="42.1739517" lon="14.6975483"><ele>31.5</ele><time>2026-04-07T12:01:54.832Z</time></trkpt><trkpt lat="42.1739167" lon="14.6976367"><ele>32.333333333333336</ele><time>2026-04-07T12:01:56.833Z</time></trkpt><trkpt lat="42.1738833" lon="14.6977333"><ele>33.16666666666667</ele><time>2026-04-07T12:01:58.832Z</time></trkpt><trkpt lat="42.1738517" lon="14.69783"><ele>34.0</ele><time>2026-04-07T12:02:00.833Z</time></trkpt><trkpt lat="42.17382" lon="14.69793"><ele>34.0</ele><time>2026-04-07T12:02:02.832Z</time></trkpt><trkpt lat="42.173785" lon="14.6980333"><ele>34.0</ele><time>2026-04-07T12:02:04.833Z</time></trkpt><trkpt lat="42.1737533" lon="14.6981367"><ele>34.0</ele><time>2026-04-07T12:02:06.833Z</time></trkpt><trkpt lat="42.1737183" lon="14.69824"><ele>34.0</ele><time>2026-04-07T12:02:08.832Z</time></trkpt><trkpt lat="42.17368" lon="14.6983367"><ele>34.0</ele><time>2026-04-07T12:02:10.832Z</time></trkpt><trkpt lat="42.1736417" lon="14.698435"><ele>34.0</ele><time>2026-04-07T12:02:12.832Z</time></trkpt><trkpt lat="42.1736367" lon="14.698525"><ele>33.99999999999999</ele><time>2026-04-07T12:02:15.832Z</time></trkpt><trkpt lat="42.1737017" lon="14.6985517"><ele>34.0</ele><time>2026-04-07T12:02:19.833Z</time></trkpt><trkpt lat="42.17377" lon="14.6986"><ele>34.0</ele><time>2026-04-07T12:02:22.832Z</time></trkpt><trkpt lat="42.1738383" lon="14.698655"><ele>34.0</ele><time>2026-04-07T12:02:25.832Z</time></trkpt><trkpt lat="42.1738667" lon="14.6987367"><ele>34.0</ele><time>2026-04-07T12:02:28.833Z</time></trkpt><trkpt lat="42.1738567" lon="14.69883"><ele>33.99999999999999</ele><time>2026-04-07T12:02:31.832Z</time></trkpt><trkpt lat="42.173815" lon="14.69893"><ele>34.0</ele><time>2026-04-07T12:02:34.833Z</time></trkpt><trkpt lat="42.173765" lon="14.699025"><ele>33.857142857142854</ele><time>2026-04-07T12:02:37.832Z</time></trkpt><trkpt lat="42.1737083" lon="14.699125"><ele>33.714285714285715</ele><time>2026-04-07T12:02:40.832Z</time></trkpt><trkpt lat="42.1736667" lon="14.6992033"><ele>33.57142857142857</ele><time>2026-04-07T12:02:42.833Z</time></trkpt><trkpt lat="42.173645" lon="14.699295"><ele>33.42857142857143</ele><time>2026-04-07T12:02:44.832Z</time></trkpt><trkpt lat="42.173625" lon="14.699385"><ele>33.285714285714285</ele><time>2026-04-07T12:02:46.832Z</time></trkpt><trkpt lat="42.1736167" lon="14.6994733"><ele>33.14285714285714</ele><time>2026-04-07T12:02:48.832Z</time></trkpt><trkpt lat="42.1736067" lon="14.6995683"><ele>33.0</ele><time>2026-04-07T12:02:50.832Z</time></trkpt><trkpt lat="42.17359" lon="14.6996633"><ele>32.14285714285714</ele><time>2026-04-07T12:02:52.832Z</time></trkpt><trkpt lat="42.173555" lon="14.699735"><ele>31.28571428571429</ele><time>2026-04-07T12:02:54.832Z</time></trkpt><trkpt lat="42.1735117" lon="14.6998033"><ele>30.42857142857143</ele><time>2026-04-07T12:02:56.832Z</time></trkpt><trkpt lat="42.1734667" lon="14.6998633"><ele>29.57142857142857</ele><time>2026-04-07T12:02:58.832Z</time></trkpt><trkpt lat="42.1734183" lon="14.69992"><ele>28.714285714285715</ele><time>2026-04-07T12:03:00.832Z</time></trkpt><trkpt lat="42.173365" lon="14.6999867"><ele>27.857142857142858</ele><time>2026-04-07T12:03:02.833Z</time></trkpt><trkpt lat="42.1733183" lon="14.7000667"><ele>27.0</ele><time>2026-04-07T12:03:04.832Z</time></trkpt><trkpt lat="42.1732867" lon="14.70017"><ele>28.0</ele><time>2026-04-07T12:03:07.833Z</time></trkpt><trkpt lat="42.1732583" lon="14.7002683"><ele>29.0</ele><time>2026-04-07T12:03:10.832Z</time></trkpt><trkpt lat="42.1732317" lon="14.7003483"><ele>30.0</ele><time>2026-04-07T12:03:12.832Z</time></trkpt><trkpt lat="42.1732033" lon="14.7004317"><ele>31.0</ele><time>2026-04-07T12:03:14.833Z</time></trkpt><trkpt lat="42.1731517" lon="14.7005367"><ele>32.0</ele><time>2026-04-07T12:03:17.832Z</time></trkpt><trkpt lat="42.1731067" lon="14.700645"><ele>33.0</ele><time>2026-04-07T12:03:20.833Z</time></trkpt><trkpt lat="42.1730767" lon="14.70076"><ele>33.0</ele><time>2026-04-07T12:03:23.832Z</time></trkpt><trkpt lat="42.1730467" lon="14.70088"><ele>33.0</ele><time>2026-04-07T12:03:26.832Z</time></trkpt><trkpt lat="42.173005" lon="14.700995"><ele>33.0</ele><time>2026-04-07T12:03:29.832Z</time></trkpt><trkpt lat="42.1729683" lon="14.7010667"><ele>33.0</ele><time>2026-04-07T12:03:31.832Z</time></trkpt><trkpt lat="42.1729217" lon="14.7011467"><ele>33.0</ele><time>2026-04-07T12:03:34.832Z</time></trkpt><trkpt lat="42.1728567" lon="14.70116"><ele>33.0</ele><time>2026-04-07T12:03:37.831Z</time></trkpt><trkpt lat="42.17278" lon="14.70116"><ele>32.42857142857143</ele><time>2026-04-07T12:03:40.831Z</time></trkpt><trkpt lat="42.1727317" lon="14.70125"><ele>31.85714285714286</ele><time>2026-04-07T12:03:43.832Z</time></trkpt><trkpt lat="42.1727033" lon="14.7013283"><ele>31.28571428571429</ele><time>2026-04-07T12:03:45.831Z</time></trkpt><trkpt lat="42.1726733" lon="14.70141"><ele>30.714285714285715</ele><time>2026-04-07T12:03:47.832Z</time></trkpt><trkpt lat="42.172635" lon="14.701515"><ele>30.142857142857146</ele><time>2026-04-07T12:03:50.831Z</time></trkpt><trkpt lat="42.1726133" lon="14.70161"><ele>29.571428571428577</ele><time>2026-04-07T12:03:53.831Z</time></trkpt><trkpt lat="42.17262" lon="14.701705"><ele>29.000000000000004</ele><time>2026-04-07T12:03:58.831Z</time></trkpt><trkpt lat="42.1726267" lon="14.7018083"><ele>28.999999999999996</ele><time>2026-04-07T12:09:57.832Z</time></trkpt><trkpt lat="42.1726267" lon="14.7019083"><ele>29.0</ele><time>2026-04-07T12:10:00.832Z</time></trkpt><trkpt lat="42.1726233" lon="14.7020133"><ele>29.0</ele><time>2026-04-07T12:10:03.833Z</time></trkpt><trkpt lat="42.172615" lon="14.7021383"><ele>29.0</ele><time>2026-04-07T12:10:06.832Z</time></trkpt><trkpt lat="42.1726067" lon="14.702225"><ele>28.999999999999996</ele><time>2026-04-07T12:10:08.833Z</time></trkpt><trkpt lat="42.17259" lon="14.7023417"><ele>29.0</ele><time>2026-04-07T12:10:11.832Z</time></trkpt><trkpt lat="42.1725683" lon="14.7024417"><ele>27.499999999999996</ele><time>2026-04-07T12:10:14.832Z</time></trkpt><trkpt lat="42.1725567" lon="14.70254"><ele>26.0</ele><time>2026-04-07T12:10:18.833Z</time></trkpt><trkpt lat="42.1725517" lon="14.70263"><ele>24.5</ele><time>2026-04-07T12:10:33.832Z</time></trkpt><trkpt lat="42.17256" lon="14.7027283"><ele>23.0</ele><time>2026-04-07T12:11:02.833Z</time></trkpt><trkpt lat="42.172595" lon="14.702835"><ele>21.5</ele><time>2026-04-07T12:11:06.833Z</time></trkpt><trkpt lat="42.1726317" lon="14.702935"><ele>20.0</ele><time>2026-04-07T12:11:09.833Z</time></trkpt><trkpt lat="42.1726633" lon="14.7030367"><ele>18.666666666666668</ele><time>2026-04-07T12:11:12.832Z</time></trkpt><trkpt lat="42.1726917" lon="14.70314"><ele>17.333333333333336</ele><time>2026-04-07T12:11:15.832Z</time></trkpt><trkpt lat="42.1727567" lon="14.7031933"><ele>16.0</ele><time>2026-04-07T12:11:18.833Z</time></trkpt><trkpt lat="42.1728417" lon="14.7031983"><ele>14.666666666666668</ele><time>2026-04-07T12:11:21.833Z</time></trkpt><trkpt lat="42.1729133" lon="14.7032567"><ele>13.333333333333334</ele><time>2026-04-07T12:11:24.833Z</time></trkpt><trkpt lat="42.1729033" lon="14.703365"><ele>12.0</ele><time>2026-04-07T12:11:27.832Z</time></trkpt><trkpt lat="42.17289" lon="14.703455"><ele>11.999999999999998</ele><time>2026-04-07T12:11:29.832Z</time></trkpt><trkpt lat="42.1728683" lon="14.70354"><ele>12.0</ele><time>2026-04-07T12:11:31.832Z</time></trkpt><trkpt lat="42.1728467" lon="14.70364"><ele>12.0</ele><time>2026-04-07T12:11:33.832Z</time></trkpt><trkpt lat="42.1728267" lon="14.7037367"><ele>12.0</ele><time>2026-04-07T12:11:35.832Z</time></trkpt><trkpt lat="42.1728067" lon="14.7038333"><ele>12.0</ele><time>2026-04-07T12:11:37.832Z</time></trkpt><trkpt lat="42.1727817" lon="14.7039317"><ele>11.999999999999998</ele><time>2026-04-07T12:11:39.832Z</time></trkpt><trkpt lat="42.1727517" lon="14.7040267"><ele>12.0</ele><time>2026-04-07T12:11:41.832Z</time></trkpt><trkpt lat="42.172725" lon="14.7041267"><ele>11.5</ele><time>2026-04-07T12:11:43.832Z</time></trkpt><trkpt lat="42.1727133" lon="14.7042367"><ele>11.0</ele><time>2026-04-07T12:11:45.832Z</time></trkpt><trkpt lat="42.1727083" lon="14.7043383"><ele>10.5</ele><time>2026-04-07T12:11:47.832Z</time></trkpt><trkpt lat="42.172685" lon="14.704435"><ele>10.0</ele><time>2026-04-07T12:11:49.833Z</time></trkpt><trkpt lat="42.17265" lon="14.7045383"><ele>9.5</ele><time>2026-04-07T12:11:51.833Z</time></trkpt><trkpt lat="42.1726333" lon="14.7046383"><ele>9.0</ele><time>2026-04-07T12:11:53.833Z</time></trkpt><trkpt lat="42.1726317" lon="14.70474"><ele>8.333333333333334</ele><time>2026-04-07T12:11:55.832Z</time></trkpt><trkpt lat="42.1726167" lon="14.704835"><ele>7.666666666666667</ele><time>2026-04-07T12:11:57.832Z</time></trkpt><trkpt lat="42.1725933" lon="14.7049233"><ele>7.0</ele><time>2026-04-07T12:11:59.832Z</time></trkpt><trkpt lat="42.1725667" lon="14.705015"><ele>6.333333333333334</ele><time>2026-04-07T12:12:01.832Z</time></trkpt><trkpt lat="42.172535" lon="14.70511"><ele>5.666666666666667</ele><time>2026-04-07T12:12:03.833Z</time></trkpt><trkpt lat="42.1725033" lon="14.7052117"><ele>5.0</ele><time>2026-04-07T12:12:05.832Z</time></trkpt><trkpt lat="42.1724733" lon="14.7053183"><ele>4.5</ele><time>2026-04-07T12:12:07.832Z</time></trkpt><trkpt lat="42.1724467" lon="14.70542"><ele>4.0</ele><time>2026-04-07T12:12:09.832Z</time></trkpt><trkpt lat="42.1724217" lon="14.7055133"><ele>3.5</ele><time>2026-04-07T12:12:11.833Z</time></trkpt><trkpt lat="42.172405" lon="14.7056183"><ele>3.0</ele><time>2026-04-07T12:12:13.832Z</time></trkpt><trkpt lat="42.17239" lon="14.70572"><ele>2.5</ele><time>2026-04-07T12:12:15.832Z</time></trkpt><trkpt lat="42.1723683" lon="14.705845"><ele>2.0</ele><time>2026-04-07T12:12:18.832Z</time></trkpt><trkpt lat="42.17235" lon="14.7059383"><ele>4.833333333333333</ele><time>2026-04-07T12:12:20.833Z</time></trkpt><trkpt lat="42.172325" lon="14.7060367"><ele>7.666666666666666</ele><time>2026-04-07T12:12:22.832Z</time></trkpt><trkpt lat="42.172305" lon="14.7061383"><ele>10.5</ele><time>2026-04-07T12:12:24.832Z</time></trkpt><trkpt lat="42.1722967" lon="14.7062367"><ele>13.333333333333332</ele><time>2026-04-07T12:12:26.832Z</time></trkpt><trkpt lat="42.172295" lon="14.706345"><ele>16.166666666666664</ele><time>2026-04-07T12:12:28.832Z</time></trkpt><trkpt lat="42.1722917" lon="14.70646"><ele>19.0</ele><time>2026-04-07T12:12:30.832Z</time></trkpt><trkpt lat="42.172295" lon="14.7065767"><ele>19.0</ele><time>2026-04-07T12:12:32.832Z</time></trkpt><trkpt lat="42.1722867" lon="14.7066883"><ele>19.0</ele><time>2026-04-07T12:12:34.832Z</time></trkpt><trkpt lat="42.1722817" lon="14.7068"><ele>19.0</ele><time>2026-04-07T12:12:36.832Z</time></trkpt><trkpt lat="42.1722733" lon="14.7069117"><ele>19.0</ele><time>2026-04-07T12:12:38.832Z</time></trkpt><trkpt lat="42.1722833" lon="14.7070183"><ele>19.0</ele><time>2026-04-07T12:12:40.833Z</time></trkpt><trkpt lat="42.172305" lon="14.7071033"><ele>19.0</ele><time>2026-04-07T12:12:42.833Z</time></trkpt><trkpt lat="42.172345" lon="14.70721"><ele>17.285714285714285</ele><time>2026-04-07T12:12:45.832Z</time></trkpt><trkpt lat="42.1723833" lon="14.7073067"><ele>15.571428571428573</ele><time>2026-04-07T12:12:48.833Z</time></trkpt><trkpt lat="42.1724283" lon="14.7074017"><ele>13.857142857142858</ele><time>2026-04-07T12:12:51.833Z</time></trkpt><trkpt lat="42.1724767" lon="14.707465"><ele>12.142857142857142</ele><time>2026-04-07T12:12:53.833Z</time></trkpt><trkpt lat="42.17253" lon="14.7075233"><ele>10.428571428571429</ele><time>2026-04-07T12:12:55.832Z</time></trkpt><trkpt lat="42.1725867" lon="14.70757"><ele>8.714285714285715</ele><time>2026-04-07T12:12:57.832Z</time></trkpt><trkpt lat="42.1726517" lon="14.707625"><ele>7.0</ele><time>2026-04-07T12:12:59.832Z</time></trkpt><trkpt lat="42.1727117" lon="14.70769"><ele>8.285714285714285</ele><time>2026-04-07T12:13:01.832Z</time></trkpt><trkpt lat="42.1727717" lon="14.7077567"><ele>9.571428571428571</ele><time>2026-04-07T12:13:03.832Z</time></trkpt><trkpt lat="42.1728117" lon="14.7078317"><ele>10.857142857142858</ele><time>2026-04-07T12:13:05.832Z</time></trkpt><trkpt lat="42.172855" lon="14.707915"><ele>12.142857142857142</ele><time>2026-04-07T12:13:07.832Z</time></trkpt><trkpt lat="42.1728983" lon="14.7079933"><ele>13.428571428571427</ele><time>2026-04-07T12:13:09.832Z</time></trkpt><trkpt lat="42.1729433" lon="14.7080567"><ele>14.714285714285714</ele><time>2026-04-07T12:13:11.832Z</time></trkpt><trkpt lat="42.1730017" lon="14.7081117"><ele>16.0</ele><time>2026-04-07T12:13:13.832Z</time></trkpt><trkpt lat="42.1730767" lon="14.708195"><ele>16.0</ele><time>2026-04-07T12:13:16.832Z</time></trkpt><trkpt lat="42.1731267" lon="14.7082467"><ele>15.999999999999998</ele><time>2026-04-07T12:13:18.832Z</time></trkpt><trkpt lat="42.1731833" lon="14.708295"><ele>16.0</ele><time>2026-04-07T12:13:21.832Z</time></trkpt><trkpt lat="42.17324" lon="14.7083483"><ele>16.0</ele><time>2026-04-07T12:13:26.832Z</time></trkpt><trkpt lat="42.173295" lon="14.7084083"><ele>15.999999999999998</ele><time>2026-04-07T12:13:31.832Z</time></trkpt><trkpt lat="42.1733467" lon="14.7084683"><ele>16.0</ele><time>2026-04-07T12:13:34.832Z</time></trkpt><trkpt lat="42.1733733" lon="14.7085467"><ele>16.0</ele><time>2026-04-07T12:13:37.833Z</time></trkpt><trkpt lat="42.1733783" lon="14.7086633"><ele>16.166666666666664</ele><time>2026-04-07T12:13:41.832Z</time></trkpt><trkpt lat="42.1733917" lon="14.7087667"><ele>16.333333333333332</ele><time>2026-04-07T12:13:44.832Z</time></trkpt><trkpt lat="42.1733717" lon="14.7088583"><ele>16.5</ele><time>2026-04-07T12:13:47.832Z</time></trkpt><trkpt lat="42.1733383" lon="14.7089533"><ele>16.666666666666668</ele><time>2026-04-07T12:13:50.832Z</time></trkpt><trkpt lat="42.1732917" lon="14.7090317"><ele>16.833333333333336</ele><time>2026-04-07T12:13:53.832Z</time></trkpt><trkpt lat="42.1732517" lon="14.7091267"><ele>17.0</ele><time>2026-04-07T12:13:56.832Z</time></trkpt><trkpt lat="42.1731767" lon="14.7092"><ele>17.0</ele><time>2026-04-07T12:13:59.832Z</time></trkpt><trkpt lat="42.1730933" lon="14.7092517"><ele>17.0</ele><time>2026-04-07T12:14:02.832Z</time></trkpt><trkpt lat="42.1730083" lon="14.7093017"><ele>17.0</ele><time>2026-04-07T12:14:05.832Z</time></trkpt><trkpt lat="42.1729467" lon="14.7093317"><ele>17.0</ele><time>2026-04-07T12:14:07.832Z</time></trkpt><trkpt lat="42.17288" lon="14.7093583"><ele>17.0</ele><time>2026-04-07T12:14:09.832Z</time></trkpt><trkpt lat="42.172805" lon="14.70938"><ele>17.0</ele><time>2026-04-07T12:14:11.832Z</time></trkpt><trkpt lat="42.1727233" lon="14.7094033"><ele>16.428571428571427</ele><time>2026-04-07T12:14:13.832Z</time></trkpt><trkpt lat="42.1726467" lon="14.7094367"><ele>15.857142857142858</ele><time>2026-04-07T12:14:15.832Z</time></trkpt><trkpt lat="42.1725883" lon="14.7094767"><ele>15.285714285714285</ele><time>2026-04-07T12:14:17.833Z</time></trkpt><trkpt lat="42.1725183" lon="14.7095067"><ele>14.714285714285714</ele><time>2026-04-07T12:14:19.832Z</time></trkpt><trkpt lat="42.1724533" lon="14.7095433"><ele>14.142857142857142</ele><time>2026-04-07T12:14:21.832Z</time></trkpt><trkpt lat="42.17238" lon="14.7095633"><ele>13.571428571428571</ele><time>2026-04-07T12:14:23.833Z</time></trkpt><trkpt lat="42.1723117" lon="14.709595"><ele>13.0</ele><time>2026-04-07T12:14:25.832Z</time></trkpt><trkpt lat="42.17224" lon="14.709625"><ele>12.999999999999998</ele><time>2026-04-07T12:14:27.832Z</time></trkpt><trkpt lat="42.1721533" lon="14.7096533"><ele>13.0</ele><time>2026-04-07T12:14:29.832Z</time></trkpt><trkpt lat="42.1720733" lon="14.7096783"><ele>13.0</ele><time>2026-04-07T12:14:31.832Z</time></trkpt><trkpt lat="42.172005" lon="14.7097067"><ele>13.0</ele><time>2026-04-07T12:14:33.832Z</time></trkpt><trkpt lat="42.1719383" lon="14.7097533"><ele>12.999999999999998</ele><time>2026-04-07T12:14:35.832Z</time></trkpt><trkpt lat="42.1718667" lon="14.709795"><ele>13.0</ele><time>2026-04-07T12:14:37.832Z</time></trkpt><trkpt lat="42.1718" lon="14.7098533"><ele>13.0</ele><time>2026-04-07T12:14:39.833Z</time></trkpt><trkpt lat="42.17175" lon="14.7099283"><ele>13.0</ele><time>2026-04-07T12:14:41.833Z</time></trkpt><trkpt lat="42.1716967" lon="14.71003"><ele>13.0</ele><time>2026-04-07T12:14:43.832Z</time></trkpt><trkpt lat="42.1716317" lon="14.71014"><ele>13.0</ele><time>2026-04-07T12:14:45.832Z</time></trkpt><trkpt lat="42.17157" lon="14.71025"><ele>13.0</ele><time>2026-04-07T12:14:47.832Z</time></trkpt><trkpt lat="42.1715167" lon="14.7103517"><ele>13.2</ele><time>2026-04-07T12:14:49.832Z</time></trkpt><trkpt lat="42.1714533" lon="14.7104517"><ele>13.4</ele><time>2026-04-07T12:14:51.832Z</time></trkpt><trkpt lat="42.1713917" lon="14.71056"><ele>13.599999999999998</ele><time>2026-04-07T12:14:53.832Z</time></trkpt><trkpt lat="42.1713333" lon="14.710675"><ele>13.799999999999999</ele><time>2026-04-07T12:14:55.832Z</time></trkpt><trkpt lat="42.1712983" lon="14.7107917"><ele>14.0</ele><time>2026-04-07T12:14:57.832Z</time></trkpt><trkpt lat="42.1712617" lon="14.7109067"><ele>14.000000000000002</ele><time>2026-04-07T12:14:59.832Z</time></trkpt><trkpt lat="42.1712333" lon="14.7110167"><ele>14.0</ele><time>2026-04-07T12:15:01.832Z</time></trkpt><trkpt lat="42.17121" lon="14.7111167"><ele>14.0</ele><time>2026-04-07T12:15:03.832Z</time></trkpt><trkpt lat="42.17119" lon="14.711215"><ele>14.0</ele><time>2026-04-07T12:15:05.832Z</time></trkpt><trkpt lat="42.171165" lon="14.711315"><ele>14.000000000000002</ele><time>2026-04-07T12:15:07.832Z</time></trkpt><trkpt lat="42.17115" lon="14.71141"><ele>14.0</ele><time>2026-04-07T12:15:09.832Z</time></trkpt><trkpt lat="42.1711333" lon="14.7115017"><ele>14.500000000000002</ele><time>2026-04-07T12:15:11.832Z</time></trkpt><trkpt lat="42.171115" lon="14.711595"><ele>15.0</ele><time>2026-04-07T12:15:13.832Z</time></trkpt><trkpt lat="42.171105" lon="14.7116867"><ele>15.5</ele><time>2026-04-07T12:15:15.833Z</time></trkpt><trkpt lat="42.1711017" lon="14.7117717"><ele>16.0</ele><time>2026-04-07T12:15:17.832Z</time></trkpt><trkpt lat="42.171115" lon="14.7118817"><ele>16.5</ele><time>2026-04-07T12:15:20.832Z</time></trkpt><trkpt lat="42.1711483" lon="14.7119933"><ele>17.0</ele><time>2026-04-07T12:15:23.832Z</time></trkpt><trkpt lat="42.171185" lon="14.7121067"><ele>17.0</ele><time>2026-04-07T12:15:26.832Z</time></trkpt><trkpt lat="42.171205" lon="14.7122083"><ele>17.0</ele><time>2026-04-07T12:15:29.832Z</time></trkpt><trkpt lat="42.1711417" lon="14.7121833"><ele>17.0</ele><time>2026-04-07T12:15:34.833Z</time></trkpt><trkpt lat="42.1711" lon="14.7120767"><ele>17.0</ele><time>2026-04-07T12:15:37.832Z</time></trkpt><trkpt lat="42.1710667" lon="14.7119633"><ele>17.0</ele><time>2026-04-07T12:15:40.832Z</time></trkpt><trkpt lat="42.1710333" lon="14.7118483"><ele>17.0</ele><time>2026-04-07T12:15:43.832Z</time></trkpt><trkpt lat="42.17101" lon="14.7117667"><ele>16.999999999999996</ele><time>2026-04-07T12:15:45.832Z</time></trkpt><trkpt lat="42.1709867" lon="14.7116867"><ele>17.0</ele><time>2026-04-07T12:15:47.832Z</time></trkpt><trkpt lat="42.1709633" lon="14.7116017"><ele>17.0</ele><time>2026-04-07T12:15:49.833Z</time></trkpt><trkpt lat="42.17094" lon="14.7115167"><ele>17.0</ele><time>2026-04-07T12:15:51.833Z</time></trkpt><trkpt lat="42.1709083" lon="14.7114383"><ele>17.0</ele><time>2026-04-07T12:15:53.832Z</time></trkpt><trkpt lat="42.170875" lon="14.7113533"><ele>16.999999999999996</ele><time>2026-04-07T12:15:55.833Z</time></trkpt><trkpt lat="42.1708333" lon="14.7112583"><ele>17.0</ele><time>2026-04-07T12:15:57.832Z</time></trkpt><trkpt lat="42.1708033" lon="14.71115"><ele>16.5</ele><time>2026-04-07T12:15:59.832Z</time></trkpt><trkpt lat="42.17079" lon="14.71104"><ele>16.0</ele><time>2026-04-07T12:16:01.832Z</time></trkpt><trkpt lat="42.1707883" lon="14.7109317"><ele>15.5</ele><time>2026-04-07T12:16:03.832Z</time></trkpt><trkpt lat="42.1708" lon="14.7108167"><ele>15.0</ele><time>2026-04-07T12:16:05.832Z</time></trkpt><trkpt lat="42.1708217" lon="14.7107067"><ele>14.500000000000002</ele><time>2026-04-07T12:16:07.832Z</time></trkpt><trkpt lat="42.1708383" lon="14.710585"><ele>14.0</ele><time>2026-04-07T12:16:09.833Z</time></trkpt><trkpt lat="42.1708467" lon="14.7104583"><ele>14.0</ele><time>2026-04-07T12:16:11.832Z</time></trkpt><trkpt lat="42.170855" lon="14.710335"><ele>13.999999999999998</ele><time>2026-04-07T12:16:13.833Z</time></trkpt><trkpt lat="42.170855" lon="14.7102"><ele>13.999999999999998</ele><time>2026-04-07T12:16:15.832Z</time></trkpt><trkpt lat="42.17086" lon="14.71006"><ele>14.0</ele><time>2026-04-07T12:16:17.832Z</time></trkpt><trkpt lat="42.1708583" lon="14.7099133"><ele>14.0</ele><time>2026-04-07T12:16:19.832Z</time></trkpt><trkpt lat="42.1708567" lon="14.70976"><ele>14.0</ele><time>2026-04-07T12:16:21.833Z</time></trkpt><trkpt lat="42.170855" lon="14.7096067"><ele>13.999999999999998</ele><time>2026-04-07T12:16:23.832Z</time></trkpt><trkpt lat="42.1708533" lon="14.7094433"><ele>13.999999999999998</ele><time>2026-04-07T12:16:25.832Z</time></trkpt><trkpt lat="42.1708583" lon="14.709285"><ele>14.0</ele><time>2026-04-07T12:16:27.832Z</time></trkpt><trkpt lat="42.1708633" lon="14.7092"><ele>14.0</ele><time>2026-04-07T12:16:28.832Z</time></trkpt><trkpt lat="42.170865" lon="14.709115"><ele>14.5</ele><time>2026-04-07T12:16:29.832Z</time></trkpt><trkpt lat="42.17087" lon="14.7089567"><ele>15.0</ele><time>2026-04-07T12:16:31.832Z</time></trkpt><trkpt lat="42.1708717" lon="14.7087983"><ele>15.5</ele><time>2026-04-07T12:16:33.832Z</time></trkpt><trkpt lat="42.1708717" lon="14.7086433"><ele>16.0</ele><time>2026-04-07T12:16:35.832Z</time></trkpt><trkpt lat="42.17087" lon="14.70849"><ele>16.5</ele><time>2026-04-07T12:16:37.833Z</time></trkpt><trkpt lat="42.1708583" lon="14.708335"><ele>17.0</ele><time>2026-04-07T12:16:39.832Z</time></trkpt><trkpt lat="42.1708517" lon="14.7081867"><ele>17.5</ele><time>2026-04-07T12:16:41.832Z</time></trkpt><trkpt lat="42.17085" lon="14.70804"><ele>18.0</ele><time>2026-04-07T12:16:43.832Z</time></trkpt><trkpt lat="42.1708383" lon="14.707885"><ele>18.25</ele><time>2026-04-07T12:16:45.832Z</time></trkpt><trkpt lat="42.1708183" lon="14.7077183"><ele>18.5</ele><time>2026-04-07T12:16:47.832Z</time></trkpt><trkpt lat="42.170805" lon="14.7075683"><ele>18.75</ele><time>2026-04-07T12:16:49.832Z</time></trkpt><trkpt lat="42.1707833" lon="14.7074233"><ele>19.0</ele><time>2026-04-07T12:16:51.832Z</time></trkpt><trkpt lat="42.1707617" lon="14.70727"><ele>19.0</ele><time>2026-04-07T12:16:53.833Z</time></trkpt><trkpt lat="42.1707417" lon="14.70712"><ele>19.0</ele><time>2026-04-07T12:16:55.832Z</time></trkpt><trkpt lat="42.1707267" lon="14.7069717"><ele>19.0</ele><time>2026-04-07T12:16:57.832Z</time></trkpt><trkpt lat="42.1707167" lon="14.7068183"><ele>19.0</ele><time>2026-04-07T12:16:59.832Z</time></trkpt><trkpt lat="42.1707033" lon="14.70668"><ele>19.0</ele><time>2026-04-07T12:17:01.832Z</time></trkpt><trkpt lat="42.17069" lon="14.70653"><ele>19.0</ele><time>2026-04-07T12:17:03.832Z</time></trkpt><trkpt lat="42.1706767" lon="14.7063833"><ele>19.0</ele><time>2026-04-07T12:17:05.832Z</time></trkpt><trkpt lat="42.1706617" lon="14.7062383"><ele>19.0</ele><time>2026-04-07T12:17:07.832Z</time></trkpt><trkpt lat="42.17065" lon="14.706095"><ele>19.0</ele><time>2026-04-07T12:17:09.832Z</time></trkpt><trkpt lat="42.1706383" lon="14.7059483"><ele>19.0</ele><time>2026-04-07T12:17:11.832Z</time></trkpt><trkpt lat="42.17062" lon="14.7058033"><ele>19.2</ele><time>2026-04-07T12:17:13.831Z</time></trkpt><trkpt lat="42.1706017" lon="14.70566"><ele>19.4</ele><time>2026-04-07T12:17:15.831Z</time></trkpt><trkpt lat="42.17059" lon="14.7055133"><ele>19.6</ele><time>2026-04-07T12:17:17.832Z</time></trkpt><trkpt lat="42.1705733" lon="14.7053667"><ele>19.8</ele><time>2026-04-07T12:17:19.831Z</time></trkpt><trkpt lat="42.1705583" lon="14.7052183"><ele>20.0</ele><time>2026-04-07T12:17:21.831Z</time></trkpt><trkpt lat="42.1705383" lon="14.7050717"><ele>19.25</ele><time>2026-04-07T12:17:23.831Z</time></trkpt><trkpt lat="42.17052" lon="14.7049217"><ele>18.5</ele><time>2026-04-07T12:17:25.832Z</time></trkpt><trkpt lat="42.1704917" lon="14.704775"><ele>17.75</ele><time>2026-04-07T12:17:27.832Z</time></trkpt><trkpt lat="42.17046" lon="14.7046283"><ele>17.0</ele><time>2026-04-07T12:17:29.831Z</time></trkpt><trkpt lat="42.1704217" lon="14.7044867"><ele>17.6</ele><time>2026-04-07T12:17:31.831Z</time></trkpt><trkpt lat="42.1703767" lon="14.7043483"><ele>18.2</ele><time>2026-04-07T12:17:33.832Z</time></trkpt><trkpt lat="42.1703267" lon="14.7042117"><ele>18.8</ele><time>2026-04-07T12:17:35.831Z</time></trkpt><trkpt lat="42.170275" lon="14.70408"><ele>19.4</ele><time>2026-04-07T12:17:37.831Z</time></trkpt><trkpt lat="42.170225" lon="14.7039467"><ele>20.0</ele><time>2026-04-07T12:17:39.831Z</time></trkpt><trkpt lat="42.1701617" lon="14.70382"><ele>20.0</ele><time>2026-04-07T12:17:41.831Z</time></trkpt><trkpt lat="42.170095" lon="14.7036983"><ele>20.0</ele><time>2026-04-07T12:17:43.831Z</time></trkpt><trkpt lat="42.1700283" lon="14.7035817"><ele>20.0</ele><time>2026-04-07T12:17:45.832Z</time></trkpt><trkpt lat="42.16996" lon="14.703465"><ele>20.0</ele><time>2026-04-07T12:17:47.831Z</time></trkpt><trkpt lat="42.169895" lon="14.70335"><ele>20.0</ele><time>2026-04-07T12:17:49.832Z</time></trkpt><trkpt lat="42.1698317" lon="14.703235"><ele>20.75</ele><time>2026-04-07T12:17:51.831Z</time></trkpt><trkpt lat="42.1697617" lon="14.703115"><ele>21.5</ele><time>2026-04-07T12:17:53.831Z</time></trkpt><trkpt lat="42.1696917" lon="14.70299"><ele>22.25</ele><time>2026-04-07T12:17:55.831Z</time></trkpt><trkpt lat="42.1696233" lon="14.7028583"><ele>23.0</ele><time>2026-04-07T12:17:57.832Z</time></trkpt><trkpt lat="42.1695717" lon="14.7027383"><ele>23.799999999999997</ele><time>2026-04-07T12:17:59.831Z</time></trkpt><trkpt lat="42.16952" lon="14.702615"><ele>24.6</ele><time>2026-04-07T12:18:01.831Z</time></trkpt><trkpt lat="42.1694717" lon="14.70249"><ele>25.400000000000002</ele><time>2026-04-07T12:18:03.832Z</time></trkpt><trkpt lat="42.16943" lon="14.70237"><ele>26.200000000000003</ele><time>2026-04-07T12:18:05.831Z</time></trkpt><trkpt lat="42.1693917" lon="14.702245"><ele>27.0</ele><time>2026-04-07T12:18:07.832Z</time></trkpt><trkpt lat="42.169355" lon="14.7021167"><ele>27.0</ele><time>2026-04-07T12:18:09.831Z</time></trkpt><trkpt lat="42.16932" lon="14.7019883"><ele>27.000000000000004</ele><time>2026-04-07T12:18:11.831Z</time></trkpt><trkpt lat="42.1692883" lon="14.701865"><ele>27.000000000000004</ele><time>2026-04-07T12:18:13.832Z</time></trkpt><trkpt lat="42.1692633" lon="14.7017333"><ele>27.0</ele><time>2026-04-07T12:18:15.831Z</time></trkpt><trkpt lat="42.16924" lon="14.7016067"><ele>27.0</ele><time>2026-04-07T12:18:17.831Z</time></trkpt><trkpt lat="42.1692167" lon="14.7014783"><ele>27.400000000000002</ele><time>2026-04-07T12:18:19.831Z</time></trkpt><trkpt lat="42.1691983" lon="14.7013483"><ele>27.800000000000004</ele><time>2026-04-07T12:18:21.831Z</time></trkpt><trkpt lat="42.1691783" lon="14.7012183"><ele>28.2</ele><time>2026-04-07T12:18:23.831Z</time></trkpt><trkpt lat="42.1691567" lon="14.7010933"><ele>28.6</ele><time>2026-04-07T12:18:25.832Z</time></trkpt><trkpt lat="42.1691367" lon="14.700965"><ele>29.0</ele><time>2026-04-07T12:18:27.832Z</time></trkpt><trkpt lat="42.1691183" lon="14.700835"><ele>29.799999999999997</ele><time>2026-04-07T12:18:29.831Z</time></trkpt><trkpt lat="42.1690967" lon="14.700705"><ele>30.599999999999998</ele><time>2026-04-07T12:18:31.832Z</time></trkpt><trkpt lat="42.169075" lon="14.7005667"><ele>31.4</ele><time>2026-04-07T12:18:33.831Z</time></trkpt><trkpt lat="42.16905" lon="14.700435"><ele>32.199999999999996</ele><time>2026-04-07T12:18:35.832Z</time></trkpt><trkpt lat="42.1690317" lon="14.7003083"><ele>33.0</ele><time>2026-04-07T12:18:37.831Z</time></trkpt><trkpt lat="42.169015" lon="14.700185"><ele>33.4</ele><time>2026-04-07T12:18:39.831Z</time></trkpt><trkpt lat="42.1689983" lon="14.700055"><ele>33.8</ele><time>2026-04-07T12:18:41.831Z</time></trkpt><trkpt lat="42.1689733" lon="14.6999167"><ele>34.2</ele><time>2026-04-07T12:18:43.831Z</time></trkpt><trkpt lat="42.16895" lon="14.6997783"><ele>34.6</ele><time>2026-04-07T12:18:45.831Z</time></trkpt><trkpt lat="42.1689267" lon="14.699645"><ele>35.0</ele><time>2026-04-07T12:18:47.831Z</time></trkpt><trkpt lat="42.1688967" lon="14.69951"><ele>35.0</ele><time>2026-04-07T12:18:49.832Z</time></trkpt><trkpt lat="42.1688733" lon="14.6993733"><ele>35.0</ele><time>2026-04-07T12:18:51.831Z</time></trkpt><trkpt lat="42.1688567" lon="14.6992383"><ele>35.0</ele><time>2026-04-07T12:18:53.831Z</time></trkpt><trkpt lat="42.168845" lon="14.6991017"><ele>35.0</ele><time>2026-04-07T12:18:55.832Z</time></trkpt><trkpt lat="42.168855" lon="14.6989667"><ele>35.0</ele><time>2026-04-07T12:18:57.831Z</time></trkpt><trkpt lat="42.1688667" lon="14.698835"><ele>35.0</ele><time>2026-04-07T12:18:59.831Z</time></trkpt><trkpt lat="42.1688783" lon="14.6986917"><ele>35.0</ele><time>2026-04-07T12:19:01.832Z</time></trkpt><trkpt lat="42.1688983" lon="14.6985583"><ele>35.0</ele><time>2026-04-07T12:19:03.831Z</time></trkpt><trkpt lat="42.1689283" lon="14.6984333"><ele>35.0</ele><time>2026-04-07T12:19:05.831Z</time></trkpt><trkpt lat="42.1689583" lon="14.6983017"><ele>35.0</ele><time>2026-04-07T12:19:07.832Z</time></trkpt><trkpt lat="42.1689867" lon="14.6981717"><ele>35.2</ele><time>2026-04-07T12:19:09.831Z</time></trkpt><trkpt lat="42.1690183" lon="14.69804"><ele>35.4</ele><time>2026-04-07T12:19:11.831Z</time></trkpt><trkpt lat="42.1690533" lon="14.697905"><ele>35.6</ele><time>2026-04-07T12:19:13.831Z</time></trkpt><trkpt lat="42.1690883" lon="14.6977733"><ele>35.8</ele><time>2026-04-07T12:19:15.831Z</time></trkpt><trkpt lat="42.169115" lon="14.697645"><ele>36.0</ele><time>2026-04-07T12:19:17.831Z</time></trkpt><trkpt lat="42.1691433" lon="14.6975017"><ele>36.2</ele><time>2026-04-07T12:19:19.831Z</time></trkpt><trkpt lat="42.1691733" lon="14.69737"><ele>36.400000000000006</ele><time>2026-04-07T12:19:21.832Z</time></trkpt><trkpt lat="42.1692067" lon="14.6972383"><ele>36.6</ele><time>2026-04-07T12:19:23.832Z</time></trkpt><trkpt lat="42.1692367" lon="14.697105"><ele>36.800000000000004</ele><time>2026-04-07T12:19:25.832Z</time></trkpt><trkpt lat="42.16927" lon="14.6969667"><ele>37.0</ele><time>2026-04-07T12:19:27.831Z</time></trkpt><trkpt lat="42.1693" lon="14.6968233"><ele>37.0</ele><time>2026-04-07T12:19:29.831Z</time></trkpt><trkpt lat="42.1693317" lon="14.6966817"><ele>37.0</ele><time>2026-04-07T12:19:31.831Z</time></trkpt><trkpt lat="42.1693617" lon="14.6965417"><ele>37.0</ele><time>2026-04-07T12:19:33.831Z</time></trkpt><trkpt lat="42.1693933" lon="14.6964117"><ele>37.0</ele><time>2026-04-07T12:19:35.831Z</time></trkpt><trkpt lat="42.1694233" lon="14.6962783"><ele>37.0</ele><time>2026-04-07T12:19:37.831Z</time></trkpt><trkpt lat="42.169455" lon="14.6961433"><ele>36.800000000000004</ele><time>2026-04-07T12:19:39.831Z</time></trkpt><trkpt lat="42.169485" lon="14.6960117"><ele>36.6</ele><time>2026-04-07T12:19:41.831Z</time></trkpt><trkpt lat="42.169515" lon="14.6958783"><ele>36.400000000000006</ele><time>2026-04-07T12:19:43.831Z</time></trkpt><trkpt lat="42.169555" lon="14.6957517"><ele>36.2</ele><time>2026-04-07T12:19:45.831Z</time></trkpt><trkpt lat="42.16959" lon="14.6956217"><ele>36.0</ele><time>2026-04-07T12:19:47.832Z</time></trkpt><trkpt lat="42.1696117" lon="14.6954833"><ele>36.0</ele><time>2026-04-07T12:19:49.831Z</time></trkpt><trkpt lat="42.1695983" lon="14.6953617"><ele>36.0</ele><time>2026-04-07T12:19:51.831Z</time></trkpt><trkpt lat="42.1695217" lon="14.69528"><ele>36.0</ele><time>2026-04-07T12:19:53.831Z</time></trkpt><trkpt lat="42.1694117" lon="14.6952567"><ele>36.0</ele><time>2026-04-07T12:19:55.831Z</time></trkpt><trkpt lat="42.169305" lon="14.6952467"><ele>36.0</ele><time>2026-04-07T12:19:57.832Z</time></trkpt><trkpt lat="42.1691983" lon="14.6952067"><ele>35.8</ele><time>2026-04-07T12:19:59.831Z</time></trkpt><trkpt lat="42.1690933" lon="14.6951567"><ele>35.6</ele><time>2026-04-07T12:20:01.832Z</time></trkpt><trkpt lat="42.1689933" lon="14.695095"><ele>35.4</ele><time>2026-04-07T12:20:03.831Z</time></trkpt><trkpt lat="42.1688967" lon="14.6950317"><ele>35.2</ele><time>2026-04-07T12:20:05.831Z</time></trkpt><trkpt lat="42.168795" lon="14.6949633"><ele>35.0</ele><time>2026-04-07T12:20:07.832Z</time></trkpt><trkpt lat="42.1686867" lon="14.6948967"><ele>35.6</ele><time>2026-04-07T12:20:09.832Z</time></trkpt><trkpt lat="42.168585" lon="14.6948383"><ele>36.2</ele><time>2026-04-07T12:20:11.831Z</time></trkpt><trkpt lat="42.1684883" lon="14.69478"><ele>36.8</ele><time>2026-04-07T12:20:13.831Z</time></trkpt><trkpt lat="42.16841" lon="14.6947167"><ele>37.4</ele><time>2026-04-07T12:20:15.831Z</time></trkpt><trkpt lat="42.1683367" lon="14.6946567"><ele>38.0</ele><time>2026-04-07T12:20:17.831Z</time></trkpt><trkpt lat="42.1682633" lon="14.6946017"><ele>38.0</ele><time>2026-04-07T12:20:19.831Z</time></trkpt><trkpt lat="42.16822" lon="14.6945217"><ele>38.0</ele><time>2026-04-07T12:20:22.831Z</time></trkpt><trkpt lat="42.168305" lon="14.6945067"><ele>38.0</ele><time>2026-04-07T12:20:25.832Z</time></trkpt><trkpt lat="42.1684067" lon="14.6945283"><ele>38.0</ele><time>2026-04-07T12:20:27.832Z</time></trkpt><trkpt lat="42.168515" lon="14.6944983"><ele>38.0</ele><time>2026-04-07T12:20:29.831Z</time></trkpt><trkpt lat="42.1686067" lon="14.6944267"><ele>38.75</ele><time>2026-04-07T12:20:31.831Z</time></trkpt><trkpt lat="42.1686917" lon="14.694315"><ele>39.5</ele><time>2026-04-07T12:20:33.831Z</time></trkpt><trkpt lat="42.168755" lon="14.6941817"><ele>40.25</ele><time>2026-04-07T12:20:35.831Z</time></trkpt><trkpt lat="42.1688067" lon="14.6940483"><ele>41.0</ele><time>2026-04-07T12:20:37.831Z</time></trkpt><trkpt lat="42.16886" lon="14.6939183"><ele>41.0</ele><time>2026-04-07T12:20:39.832Z</time></trkpt><trkpt lat="42.1689117" lon="14.693785"><ele>41.0</ele><time>2026-04-07T12:20:41.831Z</time></trkpt><trkpt lat="42.1689633" lon="14.6936483"><ele>41.0</ele><time>2026-04-07T12:20:43.831Z</time></trkpt><trkpt lat="42.169025" lon="14.69351"><ele>41.0</ele><time>2026-04-07T12:20:45.831Z</time></trkpt><trkpt lat="42.1690567" lon="14.6934317"><ele>41.0</ele><time>2026-04-07T12:20:46.832Z</time></trkpt><trkpt lat="42.1690867" lon="14.6933517"><ele>40.0</ele><time>2026-04-07T12:20:47.831Z</time></trkpt><trkpt lat="42.16914" lon="14.6932033"><ele>39.0</ele><time>2026-04-07T12:20:49.832Z</time></trkpt><trkpt lat="42.1691917" lon="14.6930533"><ele>38.0</ele><time>2026-04-07T12:20:51.831Z</time></trkpt><trkpt lat="42.16924" lon="14.6929083"><ele>37.0</ele><time>2026-04-07T12:20:53.831Z</time></trkpt><trkpt lat="42.1692933" lon="14.6927583"><ele>37.4</ele><time>2026-04-07T12:20:55.831Z</time></trkpt><trkpt lat="42.16932" lon="14.692675"><ele>37.800000000000004</ele><time>2026-04-07T12:20:56.832Z</time></trkpt><trkpt lat="42.169345" lon="14.6925933"><ele>38.2</ele><time>2026-04-07T12:20:57.831Z</time></trkpt><trkpt lat="42.1693983" lon="14.69244"><ele>38.6</ele><time>2026-04-07T12:20:59.831Z</time></trkpt><trkpt lat="42.1694483" lon="14.6922833"><ele>39.0</ele><time>2026-04-07T12:21:01.831Z</time></trkpt><trkpt lat="42.1695083" lon="14.6921233"><ele>39.0</ele><time>2026-04-07T12:21:03.831Z</time></trkpt><trkpt lat="42.1695617" lon="14.6919733"><ele>39.0</ele><time>2026-04-07T12:21:05.831Z</time></trkpt><trkpt lat="42.16961" lon="14.6918283"><ele>39.0</ele><time>2026-04-07T12:21:07.831Z</time></trkpt><trkpt lat="42.1696617" lon="14.6916833"><ele>39.0</ele><time>2026-04-07T12:21:09.831Z</time></trkpt><trkpt lat="42.1697117" lon="14.691535"><ele>39.0</ele><time>2026-04-07T12:21:11.831Z</time></trkpt><trkpt lat="42.1697633" lon="14.6913867"><ele>39.0</ele><time>2026-04-07T12:21:13.832Z</time></trkpt><trkpt lat="42.1698117" lon="14.69124"><ele>39.0</ele><time>2026-04-07T12:21:15.831Z</time></trkpt><trkpt lat="42.16986" lon="14.691095"><ele>39.0</ele><time>2026-04-07T12:21:17.831Z</time></trkpt><trkpt lat="42.16991" lon="14.6909533"><ele>38.25</ele><time>2026-04-07T12:21:19.831Z</time></trkpt><trkpt lat="42.1699617" lon="14.6908067"><ele>37.5</ele><time>2026-04-07T12:21:21.831Z</time></trkpt><trkpt lat="42.1700117" lon="14.6906667"><ele>36.75</ele><time>2026-04-07T12:21:23.831Z</time></trkpt><trkpt lat="42.17006" lon="14.690515"><ele>36.0</ele><time>2026-04-07T12:21:25.832Z</time></trkpt><trkpt lat="42.1701117" lon="14.6903767"><ele>36.25</ele><time>2026-04-07T12:21:27.831Z</time></trkpt><trkpt lat="42.170155" lon="14.6902333"><ele>36.5</ele><time>2026-04-07T12:21:29.831Z</time></trkpt><trkpt lat="42.1701933" lon="14.6900833"><ele>36.75</ele><time>2026-04-07T12:21:31.831Z</time></trkpt><trkpt lat="42.1702233" lon="14.68994"><ele>37.0</ele><time>2026-04-07T12:21:33.831Z</time></trkpt><trkpt lat="42.17026" lon="14.6897967"><ele>37.0</ele><time>2026-04-07T12:21:35.832Z</time></trkpt><trkpt lat="42.1702967" lon="14.6896467"><ele>37.0</ele><time>2026-04-07T12:21:37.831Z</time></trkpt><trkpt lat="42.1703517" lon="14.689505"><ele>37.0</ele><time>2026-04-07T12:21:39.831Z</time></trkpt><trkpt lat="42.17042" lon="14.6893817"><ele>37.0</ele><time>2026-04-07T12:21:41.831Z</time></trkpt><trkpt lat="42.1704817" lon="14.68925"><ele>37.0</ele><time>2026-04-07T12:21:43.831Z</time></trkpt><trkpt lat="42.170545" lon="14.6891217"><ele>37.0</ele><time>2026-04-07T12:21:45.831Z</time></trkpt><trkpt lat="42.1706" lon="14.688995"><ele>37.0</ele><time>2026-04-07T12:21:47.832Z</time></trkpt><trkpt lat="42.1706533" lon="14.68886"><ele>37.0</ele><time>2026-04-07T12:21:49.831Z</time></trkpt><trkpt lat="42.1706983" lon="14.6887217"><ele>37.0</ele><time>2026-04-07T12:21:51.831Z</time></trkpt><trkpt lat="42.17075" lon="14.68858"><ele>37.25</ele><time>2026-04-07T12:21:53.831Z</time></trkpt><trkpt lat="42.1708017" lon="14.6884383"><ele>37.5</ele><time>2026-04-07T12:21:55.831Z</time></trkpt><trkpt lat="42.1708467" lon="14.6883067"><ele>37.75</ele><time>2026-04-07T12:21:57.831Z</time></trkpt><trkpt lat="42.1708967" lon="14.6881667"><ele>38.0</ele><time>2026-04-07T12:21:59.831Z</time></trkpt><trkpt lat="42.17095" lon="14.6880233"><ele>38.0</ele><time>2026-04-07T12:22:01.831Z</time></trkpt><trkpt lat="42.17099" lon="14.68789"><ele>38.0</ele><time>2026-04-07T12:22:03.832Z</time></trkpt><trkpt lat="42.171035" lon="14.6877567"><ele>38.0</ele><time>2026-04-07T12:22:05.832Z</time></trkpt><trkpt lat="42.1710817" lon="14.68762"><ele>38.0</ele><time>2026-04-07T12:22:07.831Z</time></trkpt><trkpt lat="42.1711317" lon="14.687475"><ele>38.0</ele><time>2026-04-07T12:22:09.831Z</time></trkpt><trkpt lat="42.171175" lon="14.6873267"><ele>38.25</ele><time>2026-04-07T12:22:11.831Z</time></trkpt><trkpt lat="42.17123" lon="14.687185"><ele>38.5</ele><time>2026-04-07T12:22:13.832Z</time></trkpt><trkpt lat="42.1712767" lon="14.6870433"><ele>38.75</ele><time>2026-04-07T12:22:15.832Z</time></trkpt><trkpt lat="42.17132" lon="14.686905"><ele>39.0</ele><time>2026-04-07T12:22:17.832Z</time></trkpt><trkpt lat="42.171365" lon="14.6867617"><ele>38.8</ele><time>2026-04-07T12:22:19.831Z</time></trkpt><trkpt lat="42.1714167" lon="14.68663"><ele>38.599999999999994</ele><time>2026-04-07T12:22:21.832Z</time></trkpt><trkpt lat="42.1714617" lon="14.6864933"><ele>38.4</ele><time>2026-04-07T12:22:23.831Z</time></trkpt><trkpt lat="42.1715067" lon="14.686365"><ele>38.199999999999996</ele><time>2026-04-07T12:22:25.832Z</time></trkpt><trkpt lat="42.1715533" lon="14.68624"><ele>38.0</ele><time>2026-04-07T12:22:27.831Z</time></trkpt><trkpt lat="42.1716033" lon="14.686105"><ele>38.0</ele><time>2026-04-07T12:22:29.831Z</time></trkpt><trkpt lat="42.17164" lon="14.68598"><ele>38.0</ele><time>2026-04-07T12:22:31.831Z</time></trkpt><trkpt lat="42.1716767" lon="14.6858633"><ele>38.0</ele><time>2026-04-07T12:22:33.831Z</time></trkpt><trkpt lat="42.1717183" lon="14.6857433"><ele>38.0</ele><time>2026-04-07T12:22:35.831Z</time></trkpt><trkpt lat="42.17176" lon="14.6856233"><ele>38.0</ele><time>2026-04-07T12:22:37.831Z</time></trkpt><trkpt lat="42.1717983" lon="14.68549"><ele>38.0</ele><time>2026-04-07T12:22:39.831Z</time></trkpt><trkpt lat="42.1718267" lon="14.68534"><ele>38.0</ele><time>2026-04-07T12:22:41.831Z</time></trkpt><trkpt lat="42.1718233" lon="14.6852533"><ele>38.0</ele><time>2026-04-07T12:22:42.832Z</time></trkpt><trkpt lat="42.1718" lon="14.6851717"><ele>38.0</ele><time>2026-04-07T12:22:43.832Z</time></trkpt><trkpt lat="42.17172" lon="14.6850367"><ele>38.0</ele><time>2026-04-07T12:22:45.831Z</time></trkpt><trkpt lat="42.1716633" lon="14.6849933"><ele>38.0</ele><time>2026-04-07T12:22:46.831Z</time></trkpt><trkpt lat="42.1715483" lon="14.68497"><ele>38.4</ele><time>2026-04-07T12:22:48.832Z</time></trkpt><trkpt lat="42.1714467" lon="14.6849867"><ele>38.8</ele><time>2026-04-07T12:22:50.832Z</time></trkpt><trkpt lat="42.1713467" lon="14.6850217"><ele>39.2</ele><time>2026-04-07T12:22:52.831Z</time></trkpt><trkpt lat="42.1712417" lon="14.6850567"><ele>39.6</ele><time>2026-04-07T12:22:54.831Z</time></trkpt><trkpt lat="42.1711383" lon="14.6851"><ele>40.0</ele><time>2026-04-07T12:22:56.831Z</time></trkpt><trkpt lat="42.1710317" lon="14.6851333"><ele>40.0</ele><time>2026-04-07T12:22:58.831Z</time></trkpt><trkpt lat="42.170925" lon="14.6851683"><ele>40.0</ele><time>2026-04-07T12:23:00.832Z</time></trkpt><trkpt lat="42.17082" lon="14.685215"><ele>40.0</ele><time>2026-04-07T12:23:02.831Z</time></trkpt><trkpt lat="42.1707133" lon="14.685255"><ele>40.0</ele><time>2026-04-07T12:23:04.831Z</time></trkpt><trkpt lat="42.1706033" lon="14.68529"><ele>40.0</ele><time>2026-04-07T12:23:06.831Z</time></trkpt><trkpt lat="42.1705" lon="14.6853217"><ele>40.6</ele><time>2026-04-07T12:23:08.831Z</time></trkpt><trkpt lat="42.1703867" lon="14.6853583"><ele>41.2</ele><time>2026-04-07T12:23:10.832Z</time></trkpt><trkpt lat="42.1702833" lon="14.685405"><ele>41.8</ele><time>2026-04-07T12:23:12.832Z</time></trkpt><trkpt lat="42.170175" lon="14.6854417"><ele>42.4</ele><time>2026-04-07T12:23:14.831Z</time></trkpt><trkpt lat="42.1700733" lon="14.6854783"><ele>43.0</ele><time>2026-04-07T12:23:16.831Z</time></trkpt><trkpt lat="42.1699717" lon="14.6855167"><ele>43.0</ele><time>2026-04-07T12:23:18.831Z</time></trkpt><trkpt lat="42.1698717" lon="14.6855467"><ele>43.0</ele><time>2026-04-07T12:23:20.831Z</time></trkpt><trkpt lat="42.16978" lon="14.6855817"><ele>43.0</ele><time>2026-04-07T12:23:22.831Z</time></trkpt><trkpt lat="42.1696917" lon="14.6856183"><ele>43.0</ele><time>2026-04-07T12:23:24.831Z</time></trkpt><trkpt lat="42.1695883" lon="14.68566"><ele>43.0</ele><time>2026-04-07T12:23:26.831Z</time></trkpt><trkpt lat="42.1695" lon="14.6856967"><ele>43.2</ele><time>2026-04-07T12:23:28.831Z</time></trkpt><trkpt lat="42.169405" lon="14.6857383"><ele>43.4</ele><time>2026-04-07T12:23:30.831Z</time></trkpt><trkpt lat="42.16931" lon="14.6857717"><ele>43.6</ele><time>2026-04-07T12:23:32.831Z</time></trkpt><trkpt lat="42.1692133" lon="14.6858"><ele>43.800000000000004</ele><time>2026-04-07T12:23:34.831Z</time></trkpt><trkpt lat="42.1691167" lon="14.6858383"><ele>44.0</ele><time>2026-04-07T12:23:36.831Z</time></trkpt><trkpt lat="42.1690267" lon="14.6858717"><ele>44.0</ele><time>2026-04-07T12:23:38.832Z</time></trkpt><trkpt lat="42.16895" lon="14.6858917"><ele>44.0</ele><time>2026-04-07T12:23:40.831Z</time></trkpt><trkpt lat="42.1689067" lon="14.6858283"><ele>44.0</ele><time>2026-04-07T12:23:42.831Z</time></trkpt><trkpt lat="42.1688867" lon="14.6857233"><ele>44.0</ele><time>2026-04-07T12:23:44.831Z</time></trkpt><trkpt lat="42.1688783" lon="14.6856183"><ele>44.0</ele><time>2026-04-07T12:23:46.831Z</time></trkpt><trkpt lat="42.1688733" lon="14.685515"><ele>44.0</ele><time>2026-04-07T12:23:48.831Z</time></trkpt><trkpt lat="42.168855" lon="14.6854"><ele>44.0</ele><time>2026-04-07T12:23:51.831Z</time></trkpt><trkpt lat="42.16883" lon="14.68528"><ele>44.0</ele><time>2026-04-07T12:23:54.832Z</time></trkpt><trkpt lat="42.168825" lon="14.6851817"><ele>44.0</ele><time>2026-04-07T12:23:56.831Z</time></trkpt><trkpt lat="42.1688267" lon="14.6850517"><ele>44.0</ele><time>2026-04-07T12:23:58.832Z</time></trkpt><trkpt lat="42.1688233" lon="14.6849117"><ele>44.0</ele><time>2026-04-07T12:24:00.831Z</time></trkpt><trkpt lat="42.168815" lon="14.684775"><ele>44.2</ele><time>2026-04-07T12:24:02.831Z</time></trkpt><trkpt lat="42.1688017" lon="14.68464"><ele>44.400000000000006</ele><time>2026-04-07T12:24:04.831Z</time></trkpt><trkpt lat="42.1687867" lon="14.6845"><ele>44.6</ele><time>2026-04-07T12:24:06.831Z</time></trkpt><trkpt lat="42.168775" lon="14.6843483"><ele>44.8</ele><time>2026-04-07T12:24:08.831Z</time></trkpt><trkpt lat="42.168755" lon="14.6842117"><ele>45.0</ele><time>2026-04-07T12:24:10.831Z</time></trkpt><trkpt lat="42.1687517" lon="14.684075"><ele>45.0</ele><time>2026-04-07T12:24:12.831Z</time></trkpt><trkpt lat="42.1687483" lon="14.6839267"><ele>45.0</ele><time>2026-04-07T12:24:14.831Z</time></trkpt><trkpt lat="42.168735" lon="14.68377"><ele>45.0</ele><time>2026-04-07T12:24:16.831Z</time></trkpt><trkpt lat="42.1687133" lon="14.683615"><ele>45.0</ele><time>2026-04-07T12:24:18.831Z</time></trkpt><trkpt lat="42.1686967" lon="14.6834667"><ele>45.25</ele><time>2026-04-07T12:24:20.831Z</time></trkpt><trkpt lat="42.16869" lon="14.6833067"><ele>45.5</ele><time>2026-04-07T12:24:22.832Z</time></trkpt><trkpt lat="42.1686833" lon="14.6831533"><ele>45.75</ele><time>2026-04-07T12:24:24.832Z</time></trkpt><trkpt lat="42.16867" lon="14.6830033"><ele>46.0</ele><time>2026-04-07T12:24:26.831Z</time></trkpt><trkpt lat="42.1686617" lon="14.682855"><ele>46.199999999999996</ele><time>2026-04-07T12:24:28.831Z</time></trkpt><trkpt lat="42.1686467" lon="14.6827033"><ele>46.4</ele><time>2026-04-07T12:24:30.831Z</time></trkpt><trkpt lat="42.1686" lon="14.6825717"><ele>46.6</ele><time>2026-04-07T12:24:32.831Z</time></trkpt><trkpt lat="42.1685233" lon="14.6825033"><ele>46.8</ele><time>2026-04-07T12:24:34.831Z</time></trkpt><trkpt lat="42.1684233" lon="14.6824833"><ele>47.0</ele><time>2026-04-07T12:24:36.831Z</time></trkpt><trkpt lat="42.1683133" lon="14.6824683"><ele>47.0</ele><time>2026-04-07T12:24:38.831Z</time></trkpt><trkpt lat="42.1682017" lon="14.6824567"><ele>47.0</ele><time>2026-04-07T12:24:40.831Z</time></trkpt><trkpt lat="42.1680833" lon="14.6824533"><ele>47.0</ele><time>2026-04-07T12:24:42.831Z</time></trkpt><trkpt lat="42.16797" lon="14.6824483"><ele>47.0</ele><time>2026-04-07T12:24:44.831Z</time></trkpt><trkpt lat="42.167855" lon="14.6824467"><ele>47.400000000000006</ele><time>2026-04-07T12:24:46.831Z</time></trkpt><trkpt lat="42.1677467" lon="14.6824417"><ele>47.800000000000004</ele><time>2026-04-07T12:24:48.832Z</time></trkpt><trkpt lat="42.1676317" lon="14.6824383"><ele>48.2</ele><time>2026-04-07T12:24:50.831Z</time></trkpt><trkpt lat="42.1675217" lon="14.6824383"><ele>48.6</ele><time>2026-04-07T12:24:52.831Z</time></trkpt><trkpt lat="42.1674117" lon="14.682445"><ele>49.0</ele><time>2026-04-07T12:24:54.831Z</time></trkpt><trkpt lat="42.1672983" lon="14.6824433"><ele>49.0</ele><time>2026-04-07T12:24:56.831Z</time></trkpt><trkpt lat="42.1671883" lon="14.6824433"><ele>49.0</ele><time>2026-04-07T12:24:58.831Z</time></trkpt><trkpt lat="42.1670883" lon="14.68244"><ele>49.0</ele><time>2026-04-07T12:25:00.831Z</time></trkpt><trkpt lat="42.1669867" lon="14.68243"><ele>49.0</ele><time>2026-04-07T12:25:02.831Z</time></trkpt><trkpt lat="42.16689" lon="14.6824133"><ele>49.0</ele><time>2026-04-07T12:25:04.832Z</time></trkpt><trkpt lat="42.1667817" lon="14.6824017"><ele>48.99999999999999</ele><time>2026-04-07T12:25:06.831Z</time></trkpt><trkpt lat="42.166685" lon="14.682395"><ele>49.0</ele><time>2026-04-07T12:25:08.831Z</time></trkpt><trkpt lat="42.1666" lon="14.68238"><ele>49.0</ele><time>2026-04-07T12:25:10.831Z</time></trkpt><trkpt lat="42.1665433" lon="14.6823267"><ele>49.0</ele><time>2026-04-07T12:25:12.832Z</time></trkpt><trkpt lat="42.166535" lon="14.6822167"><ele>48.99999999999999</ele><time>2026-04-07T12:25:14.831Z</time></trkpt><trkpt lat="42.1665383" lon="14.682075"><ele>49.0</ele><time>2026-04-07T12:25:16.831Z</time></trkpt><trkpt lat="42.166545" lon="14.681905"><ele>48.666666666666664</ele><time>2026-04-07T12:25:18.831Z</time></trkpt><trkpt lat="42.166545" lon="14.6818083"><ele>48.33333333333333</ele><time>2026-04-07T12:25:19.832Z</time></trkpt><trkpt lat="42.1665483" lon="14.6817017"><ele>48.0</ele><time>2026-04-07T12:25:20.831Z</time></trkpt><trkpt lat="42.1665533" lon="14.6815917"><ele>47.666666666666664</ele><time>2026-04-07T12:25:21.831Z</time></trkpt><trkpt lat="42.1665683" lon="14.6814867"><ele>47.33333333333333</ele><time>2026-04-07T12:25:22.831Z</time></trkpt><trkpt lat="42.166595" lon="14.6813817"><ele>47.0</ele><time>2026-04-07T12:25:23.831Z</time></trkpt><trkpt lat="42.1666383" lon="14.6812767"><ele>47.0</ele><time>2026-04-07T12:25:24.831Z</time></trkpt><trkpt lat="42.1666867" lon="14.6811733"><ele>47.0</ele><time>2026-04-07T12:25:25.831Z</time></trkpt><trkpt lat="42.166745" lon="14.6810717"><ele>47.0</ele><time>2026-04-07T12:25:26.831Z</time></trkpt><trkpt lat="42.1668017" lon="14.6809617"><ele>47.0</ele><time>2026-04-07T12:25:27.831Z</time></trkpt><trkpt lat="42.1668517" lon="14.680845"><ele>47.0</ele><time>2026-04-07T12:25:28.831Z</time></trkpt><trkpt lat="42.1668867" lon="14.6807217"><ele>46.6</ele><time>2026-04-07T12:25:29.831Z</time></trkpt><trkpt lat="42.166925" lon="14.6805967"><ele>46.2</ele><time>2026-04-07T12:25:30.831Z</time></trkpt><trkpt lat="42.1669533" lon="14.68047"><ele>45.8</ele><time>2026-04-07T12:25:31.832Z</time></trkpt><trkpt lat="42.1669767" lon="14.6803433"><ele>45.4</ele><time>2026-04-07T12:25:32.831Z</time></trkpt><trkpt lat="42.1669967" lon="14.680215"><ele>45.0</ele><time>2026-04-07T12:25:33.831Z</time></trkpt><trkpt lat="42.1670167" lon="14.68008"><ele>45.0</ele><time>2026-04-07T12:25:34.831Z</time></trkpt><trkpt lat="42.167025" lon="14.67995"><ele>45.0</ele><time>2026-04-07T12:25:35.831Z</time></trkpt><trkpt lat="42.16702" lon="14.6798117"><ele>45.0</ele><time>2026-04-07T12:25:36.831Z</time></trkpt><trkpt lat="42.1669983" lon="14.67968"><ele>45.0</ele><time>2026-04-07T12:25:37.831Z</time></trkpt><trkpt lat="42.166955" lon="14.6795683"><ele>45.0</ele><time>2026-04-07T12:25:38.831Z</time></trkpt><trkpt lat="42.1669083" lon="14.6794583"><ele>44.666666666666664</ele><time>2026-04-07T12:25:39.832Z</time></trkpt><trkpt lat="42.166855" lon="14.67936"><ele>44.333333333333336</ele><time>2026-04-07T12:25:40.831Z</time></trkpt><trkpt lat="42.16681" lon="14.6792667"><ele>44.0</ele><time>2026-04-07T12:25:41.831Z</time></trkpt><trkpt lat="42.16677" lon="14.67917"><ele>43.66666666666667</ele><time>2026-04-07T12:25:42.831Z</time></trkpt><trkpt lat="42.1667383" lon="14.6790717"><ele>43.333333333333336</ele><time>2026-04-07T12:25:43.831Z</time></trkpt><trkpt lat="42.1667183" lon="14.6789767"><ele>43.0</ele><time>2026-04-07T12:25:44.831Z</time></trkpt><trkpt lat="42.1667233" lon="14.678885"><ele>43.0</ele><time>2026-04-07T12:25:45.831Z</time></trkpt><trkpt lat="42.16676" lon="14.6788117"><ele>43.0</ele><time>2026-04-07T12:25:46.831Z</time></trkpt><trkpt lat="42.1668133" lon="14.6787617"><ele>43.0</ele><time>2026-04-07T12:25:47.831Z</time></trkpt><trkpt lat="42.1669283" lon="14.67871"><ele>43.0</ele><time>2026-04-07T12:25:49.831Z</time></trkpt><trkpt lat="42.1670333" lon="14.67869"><ele>43.0</ele><time>2026-04-07T12:25:51.831Z</time></trkpt><trkpt lat="42.1671283" lon="14.6786767"><ele>43.0</ele><time>2026-04-07T12:25:53.832Z</time></trkpt><trkpt lat="42.1672133" lon="14.6786717"><ele>43.0</ele><time>2026-04-07T12:25:55.831Z</time></trkpt><trkpt lat="42.1672967" lon="14.6786633"><ele>43.0</ele><time>2026-04-07T12:25:57.831Z</time></trkpt><trkpt lat="42.1673783" lon="14.6786567"><ele>43.0</ele><time>2026-04-07T12:25:59.831Z</time></trkpt><trkpt lat="42.1674517" lon="14.6786433"><ele>43.0</ele><time>2026-04-07T12:26:01.831Z</time></trkpt><trkpt lat="42.16752" lon="14.67862"><ele>43.0</ele><time>2026-04-07T12:26:03.832Z</time></trkpt><trkpt lat="42.16759" lon="14.67859"><ele>43.57142857142858</ele><time>2026-04-07T12:26:05.831Z</time></trkpt><trkpt lat="42.16765" lon="14.67855"><ele>44.142857142857146</ele><time>2026-04-07T12:26:07.832Z</time></trkpt><trkpt lat="42.167715" lon="14.6785133"><ele>44.714285714285715</ele><time>2026-04-07T12:26:09.831Z</time></trkpt><trkpt lat="42.1677683" lon="14.6784667"><ele>45.28571428571429</ele><time>2026-04-07T12:26:11.831Z</time></trkpt><trkpt lat="42.1678283" lon="14.6784017"><ele>45.857142857142854</ele><time>2026-04-07T12:26:13.831Z</time></trkpt><trkpt lat="42.1678883" lon="14.678335"><ele>46.42857142857143</ele><time>2026-04-07T12:26:15.831Z</time></trkpt><trkpt lat="42.16794" lon="14.6782683"><ele>47.0</ele><time>2026-04-07T12:26:17.831Z</time></trkpt><trkpt lat="42.167985" lon="14.6781933"><ele>47.0</ele><time>2026-04-07T12:26:19.831Z</time></trkpt><trkpt lat="42.1680583" lon="14.6781333"><ele>47.0</ele><time>2026-04-07T12:26:21.831Z</time></trkpt><trkpt lat="42.168125" lon="14.6780583"><ele>47.0</ele><time>2026-04-07T12:26:23.831Z</time></trkpt><trkpt lat="42.1681883" lon="14.67798"><ele>47.0</ele><time>2026-04-07T12:26:25.832Z</time></trkpt><trkpt lat="42.1682517" lon="14.6779067"><ele>47.0</ele><time>2026-04-07T12:26:27.832Z</time></trkpt><trkpt lat="42.16832" lon="14.677825"><ele>47.0</ele><time>2026-04-07T12:26:29.832Z</time></trkpt><trkpt lat="42.1683917" lon="14.67773"><ele>47.8</ele><time>2026-04-07T12:26:31.831Z</time></trkpt><trkpt lat="42.168475" lon="14.677645"><ele>48.6</ele><time>2026-04-07T12:26:33.831Z</time></trkpt><trkpt lat="42.168545" lon="14.6775583"><ele>49.4</ele><time>2026-04-07T12:26:35.831Z</time></trkpt><trkpt lat="42.1686167" lon="14.6774617"><ele>50.199999999999996</ele><time>2026-04-07T12:26:37.831Z</time></trkpt><trkpt lat="42.1686967" lon="14.6773533"><ele>51.0</ele><time>2026-04-07T12:26:39.832Z</time></trkpt><trkpt lat="42.1687667" lon="14.67726"><ele>51.0</ele><time>2026-04-07T12:26:41.831Z</time></trkpt><trkpt lat="42.1688467" lon="14.677165"><ele>51.0</ele><time>2026-04-07T12:26:43.831Z</time></trkpt><trkpt lat="42.1689317" lon="14.6770883"><ele>51.0</ele><time>2026-04-07T12:26:45.831Z</time></trkpt><trkpt lat="42.169015" lon="14.677025"><ele>51.0</ele><time>2026-04-07T12:26:47.831Z</time></trkpt><trkpt lat="42.1691017" lon="14.6769567"><ele>51.0</ele><time>2026-04-07T12:26:49.832Z</time></trkpt><trkpt lat="42.16919" lon="14.6768867"><ele>50.599999999999994</ele><time>2026-04-07T12:26:51.831Z</time></trkpt><trkpt lat="42.169275" lon="14.6768083"><ele>50.2</ele><time>2026-04-07T12:26:53.831Z</time></trkpt><trkpt lat="42.16936" lon="14.6767217"><ele>49.8</ele><time>2026-04-07T12:26:55.831Z</time></trkpt><trkpt lat="42.16944" lon="14.6766417"><ele>49.400000000000006</ele><time>2026-04-07T12:26:57.832Z</time></trkpt><trkpt lat="42.16952" lon="14.6765733"><ele>49.0</ele><time>2026-04-07T12:26:59.831Z</time></trkpt><trkpt lat="42.1696033" lon="14.6764917"><ele>49.0</ele><time>2026-04-07T12:27:01.831Z</time></trkpt><trkpt lat="42.16969" lon="14.6764083"><ele>49.0</ele><time>2026-04-07T12:27:03.831Z</time></trkpt><trkpt lat="42.1697783" lon="14.6763317"><ele>49.0</ele><time>2026-04-07T12:27:05.831Z</time></trkpt><trkpt lat="42.1698767" lon="14.6762517"><ele>49.0</ele><time>2026-04-07T12:27:07.831Z</time></trkpt><trkpt lat="42.169965" lon="14.6761567"><ele>49.0</ele><time>2026-04-07T12:27:09.831Z</time></trkpt><trkpt lat="42.1700583" lon="14.6760917"><ele>49.400000000000006</ele><time>2026-04-07T12:27:11.831Z</time></trkpt><trkpt lat="42.17014" lon="14.6760233"><ele>49.8</ele><time>2026-04-07T12:27:13.831Z</time></trkpt><trkpt lat="42.1702217" lon="14.67595"><ele>50.2</ele><time>2026-04-07T12:27:15.832Z</time></trkpt><trkpt lat="42.1703067" lon="14.6758817"><ele>50.599999999999994</ele><time>2026-04-07T12:27:17.831Z</time></trkpt><trkpt lat="42.1703917" lon="14.6758117"><ele>51.0</ele><time>2026-04-07T12:27:19.831Z</time></trkpt><trkpt lat="42.1704817" lon="14.6757217"><ele>51.0</ele><time>2026-04-07T12:27:21.831Z</time></trkpt><trkpt lat="42.170575" lon="14.6756317"><ele>51.0</ele><time>2026-04-07T12:27:23.831Z</time></trkpt><trkpt lat="42.17067" lon="14.675535"><ele>51.0</ele><time>2026-04-07T12:27:25.832Z</time></trkpt><trkpt lat="42.17077" lon="14.6754433"><ele>51.0</ele><time>2026-04-07T12:27:27.831Z</time></trkpt><trkpt lat="42.1708617" lon="14.6753467"><ele>50.4</ele><time>2026-04-07T12:27:29.831Z</time></trkpt><trkpt lat="42.170955" lon="14.6752617"><ele>49.8</ele><time>2026-04-07T12:27:31.831Z</time></trkpt><trkpt lat="42.171045" lon="14.675185"><ele>49.199999999999996</ele><time>2026-04-07T12:27:33.831Z</time></trkpt><trkpt lat="42.1711417" lon="14.675105"><ele>48.599999999999994</ele><time>2026-04-07T12:27:35.832Z</time></trkpt><trkpt lat="42.1712383" lon="14.6750167"><ele>48.0</ele><time>2026-04-07T12:27:37.831Z</time></trkpt><trkpt lat="42.17134" lon="14.674915"><ele>48.0</ele><time>2026-04-07T12:27:39.832Z</time></trkpt><trkpt lat="42.1714367" lon="14.674805"><ele>48.0</ele><time>2026-04-07T12:27:41.831Z</time></trkpt><trkpt lat="42.171515" lon="14.6746883"><ele>48.0</ele><time>2026-04-07T12:27:43.831Z</time></trkpt><trkpt lat="42.1715867" lon="14.674565"><ele>48.0</ele><time>2026-04-07T12:27:45.831Z</time></trkpt><trkpt lat="42.171655" lon="14.6744467"><ele>47.8</ele><time>2026-04-07T12:27:47.831Z</time></trkpt><trkpt lat="42.1717233" lon="14.6743183"><ele>47.599999999999994</ele><time>2026-04-07T12:27:49.831Z</time></trkpt><trkpt lat="42.171755" lon="14.6742433"><ele>47.400000000000006</ele><time>2026-04-07T12:27:50.832Z</time></trkpt><trkpt lat="42.1717883" lon="14.67417"><ele>47.2</ele><time>2026-04-07T12:27:51.831Z</time></trkpt><trkpt lat="42.1718583" lon="14.6740433"><ele>47.0</ele><time>2026-04-07T12:27:53.832Z</time></trkpt><trkpt lat="42.1719233" lon="14.67391"><ele>47.0</ele><time>2026-04-07T12:27:55.832Z</time></trkpt><trkpt lat="42.17199" lon="14.6737817"><ele>47.0</ele><time>2026-04-07T12:27:57.832Z</time></trkpt><trkpt lat="42.1720683" lon="14.673645"><ele>47.0</ele><time>2026-04-07T12:27:59.831Z</time></trkpt><trkpt lat="42.1721083" lon="14.6735783"><ele>47.0</ele><time>2026-04-07T12:28:00.831Z</time></trkpt><trkpt lat="42.1721983" lon="14.67345"><ele>47.0</ele><time>2026-04-07T12:28:02.831Z</time></trkpt><trkpt lat="42.172245" lon="14.6733833"><ele>46.714285714285715</ele><time>2026-04-07T12:28:03.832Z</time></trkpt><trkpt lat="42.1722933" lon="14.6733233"><ele>46.42857142857143</ele><time>2026-04-07T12:28:04.831Z</time></trkpt><trkpt lat="42.1723467" lon="14.6732617"><ele>46.14285714285714</ele><time>2026-04-07T12:28:05.831Z</time></trkpt><trkpt lat="42.1723983" lon="14.673195"><ele>45.85714285714286</ele><time>2026-04-07T12:28:06.831Z</time></trkpt><trkpt lat="42.172455" lon="14.6731283"><ele>45.57142857142858</ele><time>2026-04-07T12:28:07.831Z</time></trkpt><trkpt lat="42.1725067" lon="14.6730633"><ele>45.285714285714285</ele><time>2026-04-07T12:28:08.831Z</time></trkpt><trkpt lat="42.17256" lon="14.6729917"><ele>45.0</ele><time>2026-04-07T12:28:09.832Z</time></trkpt><trkpt lat="42.1726117" lon="14.672915"><ele>44.833333333333336</ele><time>2026-04-07T12:28:10.831Z</time></trkpt><trkpt lat="42.17266" lon="14.67284"><ele>44.666666666666664</ele><time>2026-04-07T12:28:11.831Z</time></trkpt><trkpt lat="42.1727067" lon="14.6727533"><ele>44.5</ele><time>2026-04-07T12:28:12.831Z</time></trkpt><trkpt lat="42.1727517" lon="14.6726617"><ele>44.33333333333333</ele><time>2026-04-07T12:28:13.831Z</time></trkpt><trkpt lat="42.172795" lon="14.6725683"><ele>44.166666666666664</ele><time>2026-04-07T12:28:14.831Z</time></trkpt><trkpt lat="42.1728333" lon="14.672475"><ele>44.0</ele><time>2026-04-07T12:28:15.831Z</time></trkpt><trkpt lat="42.1728717" lon="14.6723817"><ele>44.0</ele><time>2026-04-07T12:28:16.831Z</time></trkpt><trkpt lat="42.1729083" lon="14.6722917"><ele>44.0</ele><time>2026-04-07T12:28:17.832Z</time></trkpt><trkpt lat="42.1729433" lon="14.672205"><ele>44.0</ele><time>2026-04-07T12:28:18.831Z</time></trkpt><trkpt lat="42.1729833" lon="14.672115"><ele>44.0</ele><time>2026-04-07T12:28:19.832Z</time></trkpt><trkpt lat="42.1730183" lon="14.6720333"><ele>44.0</ele><time>2026-04-07T12:28:20.831Z</time></trkpt><trkpt lat="42.17305" lon="14.6719567"><ele>44.0</ele><time>2026-04-07T12:28:21.832Z</time></trkpt><trkpt lat="42.1731067" lon="14.6718083"><ele>44.0</ele><time>2026-04-07T12:28:23.831Z</time></trkpt><trkpt lat="42.17316" lon="14.67169"><ele>44.0</ele><time>2026-04-07T12:28:25.832Z</time></trkpt><trkpt lat="42.1732067" lon="14.67158"><ele>44.0</ele><time>2026-04-07T12:28:27.831Z</time></trkpt><trkpt lat="42.1732567" lon="14.67147"><ele>44.0</ele><time>2026-04-07T12:28:29.831Z</time></trkpt><trkpt lat="42.1733033" lon="14.67136"><ele>44.0</ele><time>2026-04-07T12:28:31.831Z</time></trkpt><trkpt lat="42.1733533" lon="14.6712433"><ele>44.0</ele><time>2026-04-07T12:28:33.831Z</time></trkpt><trkpt lat="42.1733933" lon="14.671135"><ele>44.0</ele><time>2026-04-07T12:28:35.832Z</time></trkpt><trkpt lat="42.1734433" lon="14.67103"><ele>44.0</ele><time>2026-04-07T12:28:37.831Z</time></trkpt><trkpt lat="42.1734917" lon="14.6709133"><ele>44.0</ele><time>2026-04-07T12:28:39.831Z</time></trkpt><trkpt lat="42.1735417" lon="14.670805"><ele>44.0</ele><time>2026-04-07T12:28:41.831Z</time></trkpt><trkpt lat="42.17359" lon="14.6706867"><ele>44.6</ele><time>2026-04-07T12:28:43.831Z</time></trkpt><trkpt lat="42.1736417" lon="14.6705683"><ele>45.2</ele><time>2026-04-07T12:28:45.831Z</time></trkpt><trkpt lat="42.1736933" lon="14.67045"><ele>45.800000000000004</ele><time>2026-04-07T12:28:47.831Z</time></trkpt><trkpt lat="42.173745" lon="14.6703367"><ele>46.400000000000006</ele><time>2026-04-07T12:28:49.831Z</time></trkpt><trkpt lat="42.173795" lon="14.670215"><ele>47.0</ele><time>2026-04-07T12:28:51.831Z</time></trkpt><trkpt lat="42.173845" lon="14.6700933"><ele>47.0</ele><time>2026-04-07T12:28:53.831Z</time></trkpt><trkpt lat="42.1738967" lon="14.669985"><ele>47.0</ele><time>2026-04-07T12:28:55.831Z</time></trkpt><trkpt lat="42.1739467" lon="14.6698633"><ele>47.0</ele><time>2026-04-07T12:28:57.831Z</time></trkpt><trkpt lat="42.1740033" lon="14.66974"><ele>47.0</ele><time>2026-04-07T12:28:59.832Z</time></trkpt><trkpt lat="42.1740483" lon="14.669625"><ele>47.0</ele><time>2026-04-07T12:29:01.832Z</time></trkpt><trkpt lat="42.1741033" lon="14.6694983"><ele>47.2</ele><time>2026-04-07T12:29:03.831Z</time></trkpt><trkpt lat="42.1741533" lon="14.669365"><ele>47.400000000000006</ele><time>2026-04-07T12:29:05.831Z</time></trkpt><trkpt lat="42.1741933" lon="14.6692417"><ele>47.599999999999994</ele><time>2026-04-07T12:29:07.831Z</time></trkpt><trkpt lat="42.174225" lon="14.6691167"><ele>47.8</ele><time>2026-04-07T12:29:09.831Z</time></trkpt><trkpt lat="42.1742433" lon="14.6689883"><ele>48.0</ele><time>2026-04-07T12:29:11.831Z</time></trkpt><trkpt lat="42.1742633" lon="14.6688683"><ele>48.0</ele><time>2026-04-07T12:29:13.831Z</time></trkpt><trkpt lat="42.1742783" lon="14.6687383"><ele>48.0</ele><time>2026-04-07T12:29:15.831Z</time></trkpt><trkpt lat="42.174295" lon="14.6685817"><ele>48.0</ele><time>2026-04-07T12:29:17.831Z</time></trkpt><trkpt lat="42.1743067" lon="14.668415"><ele>48.0</ele><time>2026-04-07T12:29:19.831Z</time></trkpt><trkpt lat="42.1743133" lon="14.668325"><ele>48.0</ele><time>2026-04-07T12:29:20.832Z</time></trkpt><trkpt lat="42.1743267" lon="14.6682317"><ele>47.833333333333336</ele><time>2026-04-07T12:29:21.831Z</time></trkpt><trkpt lat="42.1743483" lon="14.6681317"><ele>47.666666666666664</ele><time>2026-04-07T12:29:22.831Z</time></trkpt><trkpt lat="42.174385" lon="14.66804"><ele>47.5</ele><time>2026-04-07T12:29:23.831Z</time></trkpt><trkpt lat="42.1744367" lon="14.6679517"><ele>47.33333333333333</ele><time>2026-04-07T12:29:24.832Z</time></trkpt><trkpt lat="42.1744983" lon="14.6678667"><ele>47.166666666666664</ele><time>2026-04-07T12:29:25.831Z</time></trkpt><trkpt lat="42.1745567" lon="14.66779"><ele>47.0</ele><time>2026-04-07T12:29:26.831Z</time></trkpt><trkpt lat="42.17461" lon="14.66773"><ele>46.666666666666664</ele><time>2026-04-07T12:29:27.831Z</time></trkpt><trkpt lat="42.1746933" lon="14.66764"><ele>46.33333333333333</ele><time>2026-04-07T12:29:29.831Z</time></trkpt><trkpt lat="42.1747467" lon="14.66758"><ele>46.0</ele><time>2026-04-07T12:29:31.832Z</time></trkpt><trkpt lat="42.17482" lon="14.6675017"><ele>45.666666666666664</ele><time>2026-04-07T12:29:34.831Z</time></trkpt><trkpt lat="42.1748717" lon="14.6674333"><ele>45.333333333333336</ele><time>2026-04-07T12:29:36.831Z</time></trkpt><trkpt lat="42.1749367" lon="14.6673617"><ele>45.0</ele><time>2026-04-07T12:29:38.831Z</time></trkpt><trkpt lat="42.1750183" lon="14.6672783"><ele>44.666666666666664</ele><time>2026-04-07T12:29:40.831Z</time></trkpt><trkpt lat="42.1751017" lon="14.6671867"><ele>44.333333333333336</ele><time>2026-04-07T12:29:42.831Z</time></trkpt><trkpt lat="42.1751683" lon="14.667105"><ele>44.0</ele><time>2026-04-07T12:29:44.831Z</time></trkpt><trkpt lat="42.1752317" lon="14.6670233"><ele>43.66666666666667</ele><time>2026-04-07T12:29:46.832Z</time></trkpt><trkpt lat="42.1752933" lon="14.666955"><ele>43.333333333333336</ele><time>2026-04-07T12:29:48.831Z</time></trkpt><trkpt lat="42.1753483" lon="14.6668933"><ele>43.0</ele><time>2026-04-07T12:29:50.831Z</time></trkpt><trkpt lat="42.1753983" lon="14.6668333"><ele>43.0</ele><time>2026-04-07T12:29:52.832Z</time></trkpt><trkpt lat="42.1754683" lon="14.6667533"><ele>43.0</ele><time>2026-04-07T12:29:55.831Z</time></trkpt><trkpt lat="42.1755283" lon="14.6666917"><ele>43.0</ele><time>2026-04-07T12:29:58.831Z</time></trkpt><trkpt lat="42.1756017" lon="14.6666167"><ele>43.0</ele><time>2026-04-07T12:30:01.831Z</time></trkpt><trkpt lat="42.1756617" lon="14.6665683"><ele>43.0</ele><time>2026-04-07T12:30:03.831Z</time></trkpt><trkpt lat="42.17572" lon="14.666515"><ele>43.0</ele><time>2026-04-07T12:30:05.831Z</time></trkpt><trkpt lat="42.17578" lon="14.6664633"><ele>43.5</ele><time>2026-04-07T12:30:07.831Z</time></trkpt><trkpt lat="42.1758417" lon="14.66642"><ele>44.0</ele><time>2026-04-07T12:30:09.831Z</time></trkpt><trkpt lat="42.1758983" lon="14.6663817"><ele>44.5</ele><time>2026-04-07T12:30:11.832Z</time></trkpt><trkpt lat="42.1759833" lon="14.6663367"><ele>45.0</ele><time>2026-04-07T12:30:14.831Z</time></trkpt><trkpt lat="42.176065" lon="14.6662867"><ele>45.5</ele><time>2026-04-07T12:30:17.831Z</time></trkpt><trkpt lat="42.17613" lon="14.6662433"><ele>46.0</ele><time>2026-04-07T12:30:19.832Z</time></trkpt><trkpt lat="42.1761933" lon="14.666195"><ele>46.0</ele><time>2026-04-07T12:30:21.831Z</time></trkpt><trkpt lat="42.1762533" lon="14.6661367"><ele>46.0</ele><time>2026-04-07T12:30:23.831Z</time></trkpt><trkpt lat="42.17632" lon="14.6660833"><ele>46.0</ele><time>2026-04-07T12:30:25.831Z</time></trkpt><trkpt lat="42.1763817" lon="14.6660267"><ele>46.0</ele><time>2026-04-07T12:30:27.831Z</time></trkpt><trkpt lat="42.1764383" lon="14.665965"><ele>46.0</ele><time>2026-04-07T12:30:29.831Z</time></trkpt><trkpt lat="42.1764933" lon="14.6658967"><ele>46.0</ele><time>2026-04-07T12:30:31.831Z</time></trkpt><trkpt lat="42.1765517" lon="14.6658267"><ele>46.5</ele><time>2026-04-07T12:30:33.831Z</time></trkpt><trkpt lat="42.1766083" lon="14.6657583"><ele>47.0</ele><time>2026-04-07T12:30:35.832Z</time></trkpt><trkpt lat="42.1766717" lon="14.6656817"><ele>47.5</ele><time>2026-04-07T12:30:37.831Z</time></trkpt><trkpt lat="42.1767367" lon="14.6656"><ele>48.0</ele><time>2026-04-07T12:30:39.831Z</time></trkpt><trkpt lat="42.1768133" lon="14.6655183"><ele>48.49999999999999</ele><time>2026-04-07T12:30:41.831Z</time></trkpt><trkpt lat="42.1768833" lon="14.6654333"><ele>49.0</ele><time>2026-04-07T12:30:43.832Z</time></trkpt><trkpt lat="42.1769567" lon="14.6653467"><ele>49.0</ele><time>2026-04-07T12:30:45.831Z</time></trkpt><trkpt lat="42.17703" lon="14.6652617"><ele>49.0</ele><time>2026-04-07T12:30:47.832Z</time></trkpt><trkpt lat="42.1771067" lon="14.6651883"><ele>49.0</ele><time>2026-04-07T12:30:49.831Z</time></trkpt><trkpt lat="42.177175" lon="14.665115"><ele>49.0</ele><time>2026-04-07T12:30:51.831Z</time></trkpt><trkpt lat="42.1772367" lon="14.6650217"><ele>49.0</ele><time>2026-04-07T12:30:53.831Z</time></trkpt><trkpt lat="42.1773067" lon="14.66495"><ele>48.666666666666664</ele><time>2026-04-07T12:30:55.831Z</time></trkpt><trkpt lat="42.177365" lon="14.6648833"><ele>48.33333333333333</ele><time>2026-04-07T12:30:57.831Z</time></trkpt><trkpt lat="42.1774233" lon="14.6648167"><ele>48.0</ele><time>2026-04-07T12:30:59.831Z</time></trkpt><trkpt lat="42.1774817" lon="14.6647417"><ele>47.666666666666664</ele><time>2026-04-07T12:31:01.832Z</time></trkpt><trkpt lat="42.17754" lon="14.664675"><ele>47.33333333333333</ele><time>2026-04-07T12:31:03.831Z</time></trkpt><trkpt lat="42.1776067" lon="14.664585"><ele>47.0</ele><time>2026-04-07T12:31:05.831Z</time></trkpt><trkpt lat="42.1776767" lon="14.6644733"><ele>47.2</ele><time>2026-04-07T12:31:07.831Z</time></trkpt><trkpt lat="42.1777467" lon="14.6643583"><ele>47.400000000000006</ele><time>2026-04-07T12:31:09.832Z</time></trkpt><trkpt lat="42.177815" lon="14.6642417"><ele>47.599999999999994</ele><time>2026-04-07T12:31:11.831Z</time></trkpt><trkpt lat="42.1778767" lon="14.6641233"><ele>47.8</ele><time>2026-04-07T12:31:13.831Z</time></trkpt><trkpt lat="42.177935" lon="14.663995"><ele>48.0</ele><time>2026-04-07T12:31:15.831Z</time></trkpt><trkpt lat="42.1779883" lon="14.663875"><ele>48.0</ele><time>2026-04-07T12:31:17.832Z</time></trkpt><trkpt lat="42.1780483" lon="14.663745"><ele>48.0</ele><time>2026-04-07T12:31:19.831Z</time></trkpt><trkpt lat="42.1781183" lon="14.6636283"><ele>48.0</ele><time>2026-04-07T12:31:21.832Z</time></trkpt><trkpt lat="42.17818" lon="14.6635"><ele>48.0</ele><time>2026-04-07T12:31:23.831Z</time></trkpt><trkpt lat="42.1782483" lon="14.663375"><ele>48.0</ele><time>2026-04-07T12:31:25.832Z</time></trkpt><trkpt lat="42.1783067" lon="14.6632567"><ele>48.0</ele><time>2026-04-07T12:31:27.831Z</time></trkpt><trkpt lat="42.1783783" lon="14.663125"><ele>48.0</ele><time>2026-04-07T12:31:29.831Z</time></trkpt><trkpt lat="42.1784417" lon="14.6629933"><ele>48.0</ele><time>2026-04-07T12:31:31.832Z</time></trkpt><trkpt lat="42.1785017" lon="14.6628583"><ele>48.25</ele><time>2026-04-07T12:31:33.831Z</time></trkpt><trkpt lat="42.1785567" lon="14.6627133"><ele>48.5</ele><time>2026-04-07T12:31:35.832Z</time></trkpt><trkpt lat="42.1786" lon="14.6625633"><ele>48.75</ele><time>2026-04-07T12:31:37.831Z</time></trkpt><trkpt lat="42.17863" lon="14.6624167"><ele>49.0</ele><time>2026-04-07T12:31:39.832Z</time></trkpt><trkpt lat="42.178655" lon="14.662275"><ele>49.0</ele><time>2026-04-07T12:31:41.832Z</time></trkpt><trkpt lat="42.17868" lon="14.6621217"><ele>49.0</ele><time>2026-04-07T12:31:43.831Z</time></trkpt><trkpt lat="42.1786983" lon="14.6619783"><ele>49.0</ele><time>2026-04-07T12:31:45.831Z</time></trkpt><trkpt lat="42.178715" lon="14.6618367"><ele>49.0</ele><time>2026-04-07T12:31:47.831Z</time></trkpt><trkpt lat="42.178735" lon="14.6617083"><ele>49.0</ele><time>2026-04-07T12:31:49.831Z</time></trkpt><trkpt lat="42.17876" lon="14.66159"><ele>49.2</ele><time>2026-04-07T12:31:51.832Z</time></trkpt><trkpt lat="42.1787867" lon="14.6614467"><ele>49.400000000000006</ele><time>2026-04-07T12:31:53.831Z</time></trkpt><trkpt lat="42.1788033" lon="14.6613583"><ele>49.6</ele><time>2026-04-07T12:31:54.832Z</time></trkpt><trkpt lat="42.1788367" lon="14.6611917"><ele>49.8</ele><time>2026-04-07T12:31:56.831Z</time></trkpt><trkpt lat="42.17887" lon="14.6610467"><ele>50.0</ele><time>2026-04-07T12:31:58.831Z</time></trkpt><trkpt lat="42.1789117" lon="14.6609017"><ele>50.0</ele><time>2026-04-07T12:32:00.831Z</time></trkpt><trkpt lat="42.1789633" lon="14.6607667"><ele>50.0</ele><time>2026-04-07T12:32:02.831Z</time></trkpt><trkpt lat="42.1790233" lon="14.660645"><ele>50.0</ele><time>2026-04-07T12:32:04.831Z</time></trkpt><trkpt lat="42.17909" lon="14.6605183"><ele>50.0</ele><time>2026-04-07T12:32:06.831Z</time></trkpt><trkpt lat="42.1791533" lon="14.6604017"><ele>50.0</ele><time>2026-04-07T12:32:08.832Z</time></trkpt><trkpt lat="42.17922" lon="14.66027"><ele>50.0</ele><time>2026-04-07T12:32:10.831Z</time></trkpt><trkpt lat="42.1792917" lon="14.6601383"><ele>50.0</ele><time>2026-04-07T12:32:12.831Z</time></trkpt><trkpt lat="42.1793583" lon="14.6600133"><ele>50.0</ele><time>2026-04-07T12:32:14.831Z</time></trkpt><trkpt lat="42.179425" lon="14.6598983"><ele>50.0</ele><time>2026-04-07T12:32:16.831Z</time></trkpt><trkpt lat="42.1794867" lon="14.6597867"><ele>50.0</ele><time>2026-04-07T12:32:18.831Z</time></trkpt><trkpt lat="42.1795483" lon="14.6596767"><ele>50.0</ele><time>2026-04-07T12:32:20.831Z</time></trkpt><trkpt lat="42.17961" lon="14.6595767"><ele>50.0</ele><time>2026-04-07T12:32:22.831Z</time></trkpt><trkpt lat="42.1796617" lon="14.659485"><ele>50.0</ele><time>2026-04-07T12:32:24.831Z</time></trkpt><trkpt lat="42.1797183" lon="14.659375"><ele>50.0</ele><time>2026-04-07T12:32:26.831Z</time></trkpt><trkpt lat="42.1797767" lon="14.6592733"><ele>50.0</ele><time>2026-04-07T12:32:28.831Z</time></trkpt><trkpt lat="42.1798417" lon="14.6591667"><ele>50.6</ele><time>2026-04-07T12:32:30.832Z</time></trkpt><trkpt lat="42.1799017" lon="14.6590567"><ele>51.2</ele><time>2026-04-07T12:32:32.83Z</time></trkpt><trkpt lat="42.1799633" lon="14.6589433"><ele>51.8</ele><time>2026-04-07T12:32:34.83Z</time></trkpt><trkpt lat="42.1800217" lon="14.658835"><ele>52.4</ele><time>2026-04-07T12:32:36.83Z</time></trkpt><trkpt lat="42.18008" lon="14.6587267"><ele>53.0</ele><time>2026-04-07T12:32:38.83Z</time></trkpt><trkpt lat="42.1801417" lon="14.6586217"><ele>53.2</ele><time>2026-04-07T12:32:40.831Z</time></trkpt><trkpt lat="42.1802033" lon="14.65852"><ele>53.4</ele><time>2026-04-07T12:32:42.83Z</time></trkpt><trkpt lat="42.1802617" lon="14.658415"><ele>53.60000000000001</ele><time>2026-04-07T12:32:44.831Z</time></trkpt><trkpt lat="42.1803283" lon="14.6583233"><ele>53.800000000000004</ele><time>2026-04-07T12:32:46.83Z</time></trkpt><trkpt lat="42.1804033" lon="14.658235"><ele>54.0</ele><time>2026-04-07T12:32:48.831Z</time></trkpt><trkpt lat="42.1804883" lon="14.6581517"><ele>54.0</ele><time>2026-04-07T12:32:50.83Z</time></trkpt><trkpt lat="42.1805733" lon="14.658075"><ele>54.00000000000001</ele><time>2026-04-07T12:32:52.83Z</time></trkpt><trkpt lat="42.1806633" lon="14.6580083"><ele>54.00000000000001</ele><time>2026-04-07T12:32:54.83Z</time></trkpt><trkpt lat="42.1807567" lon="14.6579467"><ele>54.0</ele><time>2026-04-07T12:32:56.83Z</time></trkpt><trkpt lat="42.1808433" lon="14.657865"><ele>54.0</ele><time>2026-04-07T12:32:58.83Z</time></trkpt><trkpt lat="42.18093" lon="14.657785"><ele>54.2</ele><time>2026-04-07T12:33:00.83Z</time></trkpt><trkpt lat="42.181015" lon="14.6577"><ele>54.400000000000006</ele><time>2026-04-07T12:33:02.83Z</time></trkpt><trkpt lat="42.1810967" lon="14.6576117"><ele>54.6</ele><time>2026-04-07T12:33:04.83Z</time></trkpt><trkpt lat="42.1811867" lon="14.657515"><ele>54.8</ele><time>2026-04-07T12:33:06.83Z</time></trkpt><trkpt lat="42.1812667" lon="14.6574233"><ele>55.0</ele><time>2026-04-07T12:33:08.83Z</time></trkpt><trkpt lat="42.1813483" lon="14.6573367"><ele>55.0</ele><time>2026-04-07T12:33:10.83Z</time></trkpt><trkpt lat="42.1814317" lon="14.657245"><ele>55.0</ele><time>2026-04-07T12:33:12.83Z</time></trkpt><trkpt lat="42.1815133" lon="14.6571667"><ele>55.0</ele><time>2026-04-07T12:33:14.83Z</time></trkpt><trkpt lat="42.1815917" lon="14.6570817"><ele>55.0</ele><time>2026-04-07T12:33:16.83Z</time></trkpt><trkpt lat="42.1816767" lon="14.6569883"><ele>55.0</ele><time>2026-04-07T12:33:18.83Z</time></trkpt><trkpt lat="42.1817533" lon="14.6568933"><ele>55.0</ele><time>2026-04-07T12:33:20.83Z</time></trkpt><trkpt lat="42.18184" lon="14.6568067"><ele>55.0</ele><time>2026-04-07T12:33:22.83Z</time></trkpt><trkpt lat="42.1819317" lon="14.6567133"><ele>55.0</ele><time>2026-04-07T12:33:24.831Z</time></trkpt><trkpt lat="42.1820183" lon="14.656605"><ele>55.0</ele><time>2026-04-07T12:33:26.83Z</time></trkpt><trkpt lat="42.1821033" lon="14.6564983"><ele>55.0</ele><time>2026-04-07T12:33:28.83Z</time></trkpt><trkpt lat="42.1821933" lon="14.6564033"><ele>55.0</ele><time>2026-04-07T12:33:30.83Z</time></trkpt><trkpt lat="42.182285" lon="14.6563167"><ele>55.0</ele><time>2026-04-07T12:33:32.83Z</time></trkpt><trkpt lat="42.1823733" lon="14.6562233"><ele>55.0</ele><time>2026-04-07T12:33:34.83Z</time></trkpt><trkpt lat="42.182455" lon="14.6561233"><ele>55.0</ele><time>2026-04-07T12:33:36.83Z</time></trkpt><trkpt lat="42.18255" lon="14.6560367"><ele>54.75</ele><time>2026-04-07T12:33:38.83Z</time></trkpt><trkpt lat="42.1826417" lon="14.6559533"><ele>54.5</ele><time>2026-04-07T12:33:40.83Z</time></trkpt><trkpt lat="42.18274" lon="14.6558717"><ele>54.25</ele><time>2026-04-07T12:33:42.83Z</time></trkpt><trkpt lat="42.1828367" lon="14.6557933"><ele>54.0</ele><time>2026-04-07T12:33:44.831Z</time></trkpt><trkpt lat="42.182935" lon="14.6557017"><ele>54.0</ele><time>2026-04-07T12:33:46.83Z</time></trkpt><trkpt lat="42.1830267" lon="14.65563"><ele>54.0</ele><time>2026-04-07T12:33:48.83Z</time></trkpt><trkpt lat="42.1831233" lon="14.6555533"><ele>54.0</ele><time>2026-04-07T12:33:50.83Z</time></trkpt><trkpt lat="42.1832233" lon="14.6554667"><ele>54.0</ele><time>2026-04-07T12:33:52.83Z</time></trkpt><trkpt lat="42.18332" lon="14.6553833"><ele>53.75</ele><time>2026-04-07T12:33:54.83Z</time></trkpt><trkpt lat="42.1834117" lon="14.6553017"><ele>53.5</ele><time>2026-04-07T12:33:56.83Z</time></trkpt><trkpt lat="42.1835083" lon="14.6552217"><ele>53.25</ele><time>2026-04-07T12:33:58.83Z</time></trkpt><trkpt lat="42.1836117" lon="14.6551417"><ele>53.0</ele><time>2026-04-07T12:34:00.83Z</time></trkpt><trkpt lat="42.1837067" lon="14.6550617"><ele>53.0</ele><time>2026-04-07T12:34:02.83Z</time></trkpt><trkpt lat="42.1838033" lon="14.6549917"><ele>53.0</ele><time>2026-04-07T12:34:04.831Z</time></trkpt><trkpt lat="42.1838967" lon="14.654915"><ele>53.0</ele><time>2026-04-07T12:34:06.83Z</time></trkpt><trkpt lat="42.1839933" lon="14.654835"><ele>53.0</ele><time>2026-04-07T12:34:08.831Z</time></trkpt><trkpt lat="42.1840883" lon="14.6547583"><ele>53.0</ele><time>2026-04-07T12:34:10.831Z</time></trkpt><trkpt lat="42.1841783" lon="14.654685"><ele>53.25</ele><time>2026-04-07T12:34:12.831Z</time></trkpt><trkpt lat="42.1842733" lon="14.654615"><ele>53.5</ele><time>2026-04-07T12:34:14.83Z</time></trkpt><trkpt lat="42.1843667" lon="14.6545267"><ele>53.75</ele><time>2026-04-07T12:34:16.83Z</time></trkpt><trkpt lat="42.1844683" lon="14.65444"><ele>54.0</ele><time>2026-04-07T12:34:18.831Z</time></trkpt><trkpt lat="42.184565" lon="14.6543567"><ele>54.2</ele><time>2026-04-07T12:34:20.83Z</time></trkpt><trkpt lat="42.1846583" lon="14.6542767"><ele>54.400000000000006</ele><time>2026-04-07T12:34:22.83Z</time></trkpt><trkpt lat="42.184755" lon="14.6541983"><ele>54.6</ele><time>2026-04-07T12:34:24.83Z</time></trkpt><trkpt lat="42.1848517" lon="14.6541233"><ele>54.8</ele><time>2026-04-07T12:34:26.831Z</time></trkpt><trkpt lat="42.1849467" lon="14.654045"><ele>55.0</ele><time>2026-04-07T12:34:28.83Z</time></trkpt><trkpt lat="42.185045" lon="14.6539617"><ele>54.8</ele><time>2026-04-07T12:34:30.83Z</time></trkpt><trkpt lat="42.1851433" lon="14.653885"><ele>54.6</ele><time>2026-04-07T12:34:32.83Z</time></trkpt><trkpt lat="42.18524" lon="14.6538083"><ele>54.400000000000006</ele><time>2026-04-07T12:34:34.831Z</time></trkpt><trkpt lat="42.18533" lon="14.65372"><ele>54.2</ele><time>2026-04-07T12:34:36.83Z</time></trkpt><trkpt lat="42.1854283" lon="14.65365"><ele>54.0</ele><time>2026-04-07T12:34:38.83Z</time></trkpt><trkpt lat="42.1855217" lon="14.653575"><ele>54.0</ele><time>2026-04-07T12:34:40.83Z</time></trkpt><trkpt lat="42.185625" lon="14.6534983"><ele>54.00000000000001</ele><time>2026-04-07T12:34:42.83Z</time></trkpt><trkpt lat="42.18572" lon="14.6534183"><ele>54.00000000000001</ele><time>2026-04-07T12:34:44.831Z</time></trkpt><trkpt lat="42.1857883" lon="14.6533267"><ele>54.0</ele><time>2026-04-07T12:34:46.83Z</time></trkpt><trkpt lat="42.185845" lon="14.6532583"><ele>54.0</ele><time>2026-04-07T12:34:48.83Z</time></trkpt><trkpt lat="42.1859017" lon="14.653175"><ele>54.0</ele><time>2026-04-07T12:34:51.83Z</time></trkpt><trkpt lat="42.185945" lon="14.65311"><ele>54.0</ele><time>2026-04-07T12:34:53.831Z</time></trkpt><trkpt lat="42.186015" lon="14.6530967"><ele>54.0</ele><time>2026-04-07T12:34:56.83Z</time></trkpt><trkpt lat="42.18606" lon="14.65321"><ele>54.0</ele><time>2026-04-07T12:34:59.83Z</time></trkpt><trkpt lat="42.1860917" lon="14.65331"><ele>54.0</ele><time>2026-04-07T12:35:01.831Z</time></trkpt><trkpt lat="42.1861267" lon="14.6534217"><ele>54.0</ele><time>2026-04-07T12:35:03.83Z</time></trkpt><trkpt lat="42.1861633" lon="14.6535233"><ele>54.0</ele><time>2026-04-07T12:35:05.83Z</time></trkpt><trkpt lat="42.1862" lon="14.6536217"><ele>54.0</ele><time>2026-04-07T12:35:07.83Z</time></trkpt><trkpt lat="42.1862417" lon="14.6537283"><ele>54.0</ele><time>2026-04-07T12:35:09.831Z</time></trkpt><trkpt lat="42.1862833" lon="14.6538383"><ele>54.0</ele><time>2026-04-07T12:35:11.83Z</time></trkpt><trkpt lat="42.1863317" lon="14.6539433"><ele>54.0</ele><time>2026-04-07T12:35:13.83Z</time></trkpt><trkpt lat="42.186375" lon="14.6540333"><ele>54.0</ele><time>2026-04-07T12:35:15.831Z</time></trkpt><trkpt lat="42.1864233" lon="14.654125"><ele>53.800000000000004</ele><time>2026-04-07T12:35:17.83Z</time></trkpt><trkpt lat="42.1864667" lon="14.65424"><ele>53.60000000000001</ele><time>2026-04-07T12:35:19.83Z</time></trkpt><trkpt lat="42.1865117" lon="14.6543433"><ele>53.4</ele><time>2026-04-07T12:35:21.83Z</time></trkpt><trkpt lat="42.1865617" lon="14.6544483"><ele>53.2</ele><time>2026-04-07T12:35:23.831Z</time></trkpt><trkpt lat="42.1866067" lon="14.6545483"><ele>53.0</ele><time>2026-04-07T12:35:25.831Z</time></trkpt><trkpt lat="42.186655" lon="14.6546467"><ele>52.599999999999994</ele><time>2026-04-07T12:35:27.83Z</time></trkpt><trkpt lat="42.1867083" lon="14.6547483"><ele>52.199999999999996</ele><time>2026-04-07T12:35:29.83Z</time></trkpt><trkpt lat="42.1868017" lon="14.65483"><ele>51.8</ele><time>2026-04-07T12:35:31.83Z</time></trkpt><trkpt lat="42.1869217" lon="14.6548467"><ele>51.4</ele><time>2026-04-07T12:35:33.83Z</time></trkpt><trkpt lat="42.187025" lon="14.654815"><ele>51.0</ele><time>2026-04-07T12:35:35.83Z</time></trkpt><trkpt lat="42.1871067" lon="14.654745"><ele>51.0</ele><time>2026-04-07T12:35:37.831Z</time></trkpt><trkpt lat="42.18717" lon="14.654645"><ele>51.0</ele><time>2026-04-07T12:35:39.83Z</time></trkpt><trkpt lat="42.18722" lon="14.6545317"><ele>51.0</ele><time>2026-04-07T12:35:41.83Z</time></trkpt><trkpt lat="42.1872683" lon="14.6544217"><ele>51.0</ele><time>2026-04-07T12:35:43.83Z</time></trkpt><trkpt lat="42.187315" lon="14.65431"><ele>51.0</ele><time>2026-04-07T12:35:45.83Z</time></trkpt><trkpt lat="42.1873517" lon="14.6541967"><ele>50.0</ele><time>2026-04-07T12:35:47.831Z</time></trkpt><trkpt lat="42.1873917" lon="14.6540917"><ele>49.0</ele><time>2026-04-07T12:35:49.831Z</time></trkpt><trkpt lat="42.1874483" lon="14.6540083"><ele>48.0</ele><time>2026-04-07T12:35:51.83Z</time></trkpt><trkpt lat="42.1875033" lon="14.6539583"><ele>47.0</ele><time>2026-04-07T12:35:53.831Z</time></trkpt><trkpt lat="42.1875617" lon="14.6539217"><ele>46.0</ele><time>2026-04-07T12:35:55.83Z</time></trkpt><trkpt lat="42.187605" lon="14.65385"><ele>45.0</ele><time>2026-04-07T12:35:57.83Z</time></trkpt><trkpt lat="42.1876433" lon="14.6537467"><ele>45.0</ele><time>2026-04-07T12:36:00.83Z</time></trkpt><trkpt lat="42.1876967" lon="14.653685"><ele>45.0</ele><time>2026-04-07T12:36:03.83Z</time></trkpt><trkpt lat="42.1877517" lon="14.6536333"><ele>45.0</ele><time>2026-04-07T12:36:05.83Z</time></trkpt><trkpt lat="42.1878067" lon="14.653585"><ele>45.0</ele><time>2026-04-07T12:36:07.83Z</time></trkpt><trkpt lat="42.1878667" lon="14.6535217"><ele>45.0</ele><time>2026-04-07T12:36:09.83Z</time></trkpt><trkpt lat="42.18793" lon="14.653445"><ele>45.0</ele><time>2026-04-07T12:36:11.83Z</time></trkpt><trkpt lat="42.188" lon="14.6533483"><ele>46.0</ele><time>2026-04-07T12:36:13.831Z</time></trkpt><trkpt lat="42.1880733" lon="14.6532633"><ele>47.0</ele><time>2026-04-07T12:36:15.83Z</time></trkpt><trkpt lat="42.188145" lon="14.65319"><ele>48.0</ele><time>2026-04-07T12:36:17.831Z</time></trkpt><trkpt lat="42.1882367" lon="14.653105"><ele>49.0</ele><time>2026-04-07T12:36:19.831Z</time></trkpt><trkpt lat="42.1883367" lon="14.6530217"><ele>50.0</ele><time>2026-04-07T12:36:21.83Z</time></trkpt><trkpt lat="42.1884183" lon="14.6529517"><ele>48.6</ele><time>2026-04-07T12:36:23.83Z</time></trkpt><trkpt lat="42.1884833" lon="14.6528517"><ele>47.2</ele><time>2026-04-07T12:36:25.83Z</time></trkpt><trkpt lat="42.1885333" lon="14.65273"><ele>45.8</ele><time>2026-04-07T12:36:27.831Z</time></trkpt><trkpt lat="42.1885717" lon="14.6526383"><ele>44.4</ele><time>2026-04-07T12:36:29.83Z</time></trkpt><trkpt lat="42.1886067" lon="14.652515"><ele>43.0</ele><time>2026-04-07T12:36:32.83Z</time></trkpt><trkpt lat="42.1886283" lon="14.6524217"><ele>43.0</ele><time>2026-04-07T12:36:34.83Z</time></trkpt><trkpt lat="42.1886417" lon="14.65232"><ele>43.0</ele><time>2026-04-07T12:36:36.831Z</time></trkpt><trkpt lat="42.1886617" lon="14.6522017"><ele>43.0</ele><time>2026-04-07T12:36:38.831Z</time></trkpt><trkpt lat="42.1886867" lon="14.65209"><ele>43.0</ele><time>2026-04-07T12:36:40.831Z</time></trkpt><trkpt lat="42.1887233" lon="14.6519683"><ele>43.0</ele><time>2026-04-07T12:36:42.83Z</time></trkpt><trkpt lat="42.1887533" lon="14.6518533"><ele>43.0</ele><time>2026-04-07T12:36:44.83Z</time></trkpt><trkpt lat="42.1887983" lon="14.6517283"><ele>44.0</ele><time>2026-04-07T12:36:46.83Z</time></trkpt><trkpt lat="42.1888467" lon="14.651605"><ele>45.0</ele><time>2026-04-07T12:36:48.83Z</time></trkpt><trkpt lat="42.1888983" lon="14.6514533"><ele>46.0</ele><time>2026-04-07T12:36:50.83Z</time></trkpt><trkpt lat="42.1889367" lon="14.6513083"><ele>47.0</ele><time>2026-04-07T12:36:52.83Z</time></trkpt><trkpt lat="42.1889717" lon="14.6511767"><ele>48.0</ele><time>2026-04-07T12:36:54.83Z</time></trkpt><trkpt lat="42.18901" lon="14.65107"><ele>44.666666666666664</ele><time>2026-04-07T12:36:56.831Z</time></trkpt><trkpt lat="42.1890417" lon="14.6509717"><ele>41.333333333333336</ele><time>2026-04-07T12:36:58.831Z</time></trkpt><trkpt lat="42.1890633" lon="14.6508833"><ele>38.0</ele><time>2026-04-07T12:37:00.83Z</time></trkpt><trkpt lat="42.1890883" lon="14.65079"><ele>34.66666666666667</ele><time>2026-04-07T12:37:02.83Z</time></trkpt><trkpt lat="42.1891133" lon="14.65069"><ele>31.333333333333336</ele><time>2026-04-07T12:37:04.83Z</time></trkpt><trkpt lat="42.1891217" lon="14.6505433"><ele>28.0</ele><time>2026-04-07T12:37:06.83Z</time></trkpt><trkpt lat="42.189155" lon="14.6504217"><ele>28.000000000000004</ele><time>2026-04-07T12:37:08.83Z</time></trkpt><trkpt lat="42.189175" lon="14.6503217"><ele>28.0</ele><time>2026-04-07T12:37:09.83Z</time></trkpt><trkpt lat="42.1892017" lon="14.6502317"><ele>28.0</ele><time>2026-04-07T12:37:10.83Z</time></trkpt><trkpt lat="42.1892233" lon="14.6501383"><ele>28.0</ele><time>2026-04-07T12:37:11.83Z</time></trkpt><trkpt lat="42.189245" lon="14.65005"><ele>28.000000000000004</ele><time>2026-04-07T12:37:12.83Z</time></trkpt><trkpt lat="42.1892833" lon="14.6499183"><ele>28.0</ele><time>2026-04-07T12:37:14.83Z</time></trkpt><trkpt lat="42.18935" lon="14.649795"><ele>27.000000000000004</ele><time>2026-04-07T12:37:16.83Z</time></trkpt><trkpt lat="42.1894067" lon="14.6497333"><ele>26.0</ele><time>2026-04-07T12:37:17.831Z</time></trkpt><trkpt lat="42.1894667" lon="14.6496783"><ele>25.0</ele><time>2026-04-07T12:37:18.83Z</time></trkpt><trkpt lat="42.189525" lon="14.649635"><ele>24.0</ele><time>2026-04-07T12:37:19.83Z</time></trkpt><trkpt lat="42.1896117" lon="14.6495617"><ele>23.0</ele><time>2026-04-07T12:37:21.83Z</time></trkpt><trkpt lat="42.1896433" lon="14.649465"><ele>22.0</ele><time>2026-04-07T12:37:23.83Z</time></trkpt><trkpt lat="42.189655" lon="14.6493333"><ele>19.8</ele><time>2026-04-07T12:37:25.831Z</time></trkpt><trkpt lat="42.1896583" lon="14.64919"><ele>17.6</ele><time>2026-04-07T12:37:27.83Z</time></trkpt><trkpt lat="42.1896617" lon="14.6490317"><ele>15.400000000000002</ele><time>2026-04-07T12:37:29.83Z</time></trkpt><trkpt lat="42.1896667" lon="14.648885"><ele>13.200000000000001</ele><time>2026-04-07T12:37:31.83Z</time></trkpt><trkpt lat="42.1896783" lon="14.6487383"><ele>11.0</ele><time>2026-04-07T12:37:33.83Z</time></trkpt><trkpt lat="42.1896917" lon="14.64858"><ele>10.200000000000001</ele><time>2026-04-07T12:37:35.83Z</time></trkpt><trkpt lat="42.1896983" lon="14.6484917"><ele>9.4</ele><time>2026-04-07T12:37:36.83Z</time></trkpt><trkpt lat="42.1897033" lon="14.6483367"><ele>8.6</ele><time>2026-04-07T12:37:38.83Z</time></trkpt><trkpt lat="42.189705" lon="14.648175"><ele>7.8</ele><time>2026-04-07T12:37:40.83Z</time></trkpt><trkpt lat="42.189695" lon="14.6480183"><ele>7.0</ele><time>2026-04-07T12:37:42.83Z</time></trkpt><trkpt lat="42.1896767" lon="14.6478733"><ele>6.3999999999999995</ele><time>2026-04-07T12:37:44.83Z</time></trkpt><trkpt lat="42.1896833" lon="14.6477383"><ele>5.799999999999999</ele><time>2026-04-07T12:37:46.83Z</time></trkpt><trkpt lat="42.1896967" lon="14.64759"><ele>5.2</ele><time>2026-04-07T12:37:48.83Z</time></trkpt><trkpt lat="42.1897033" lon="14.64744"><ele>4.6</ele><time>2026-04-07T12:37:50.83Z</time></trkpt><trkpt lat="42.1897133" lon="14.6472883"><ele>4.0</ele><time>2026-04-07T12:37:52.83Z</time></trkpt><trkpt lat="42.189715" lon="14.64713"><ele>4.0</ele><time>2026-04-07T12:37:54.831Z</time></trkpt><trkpt lat="42.1897233" lon="14.6469867"><ele>4.0</ele><time>2026-04-07T12:37:56.83Z</time></trkpt><trkpt lat="42.1897317" lon="14.64683"><ele>4.0</ele><time>2026-04-07T12:37:58.83Z</time></trkpt><trkpt lat="42.1897317" lon="14.6466833"><ele>4.0</ele><time>2026-04-07T12:38:00.83Z</time></trkpt><trkpt lat="42.1897367" lon="14.646535"><ele>4.0</ele><time>2026-04-07T12:38:02.83Z</time></trkpt><trkpt lat="42.1897617" lon="14.646395"><ele>4.2</ele><time>2026-04-07T12:38:04.83Z</time></trkpt><trkpt lat="42.1897667" lon="14.6462567"><ele>4.4</ele><time>2026-04-07T12:38:06.831Z</time></trkpt><trkpt lat="42.189765" lon="14.6461217"><ele>4.6</ele><time>2026-04-07T12:38:08.831Z</time></trkpt><trkpt lat="42.18978" lon="14.6459883"><ele>4.8</ele><time>2026-04-07T12:38:10.83Z</time></trkpt><trkpt lat="42.1898133" lon="14.6458483"><ele>5.0</ele><time>2026-04-07T12:38:12.83Z</time></trkpt><trkpt lat="42.189865" lon="14.6457"><ele>4.6</ele><time>2026-04-07T12:38:14.83Z</time></trkpt><trkpt lat="42.18992" lon="14.6455533"><ele>4.2</ele><time>2026-04-07T12:38:16.83Z</time></trkpt><trkpt lat="42.189985" lon="14.6454167"><ele>3.8</ele><time>2026-04-07T12:38:18.83Z</time></trkpt><trkpt lat="42.1900167" lon="14.645335"><ele>3.4</ele><time>2026-04-07T12:38:19.831Z</time></trkpt><trkpt lat="42.1900533" lon="14.6452517"><ele>3.0</ele><time>2026-04-07T12:38:20.83Z</time></trkpt><trkpt lat="42.1900883" lon="14.645165"><ele>3.0</ele><time>2026-04-07T12:38:21.831Z</time></trkpt><trkpt lat="42.1901183" lon="14.64507"><ele>3.0</ele><time>2026-04-07T12:38:22.83Z</time></trkpt><trkpt lat="42.1901483" lon="14.644975"><ele>3.0</ele><time>2026-04-07T12:38:23.83Z</time></trkpt><trkpt lat="42.1901733" lon="14.64489"><ele>3.0</ele><time>2026-04-07T12:38:24.831Z</time></trkpt><trkpt lat="42.1902133" lon="14.64475"><ele>3.0</ele><time>2026-04-07T12:38:26.83Z</time></trkpt><trkpt lat="42.1902367" lon="14.644655"><ele>3.0</ele><time>2026-04-07T12:38:29.83Z</time></trkpt><trkpt lat="42.1903167" lon="14.6445983"><ele>3.0</ele><time>2026-04-07T12:38:32.83Z</time></trkpt><trkpt lat="42.19042" lon="14.6445617"><ele>3.0</ele><time>2026-04-07T12:38:34.83Z</time></trkpt><trkpt lat="42.1905317" lon="14.64453"><ele>3.0</ele><time>2026-04-07T12:38:36.83Z</time></trkpt><trkpt lat="42.1906433" lon="14.64449"><ele>3.0</ele><time>2026-04-07T12:38:38.83Z</time></trkpt><trkpt lat="42.190745" lon="14.6444367"><ele>3.0</ele><time>2026-04-07T12:38:40.83Z</time></trkpt><trkpt lat="42.19086" lon="14.6443983"><ele>2.75</ele><time>2026-04-07T12:38:42.831Z</time></trkpt><trkpt lat="42.19097" lon="14.644345"><ele>2.5</ele><time>2026-04-07T12:38:44.831Z</time></trkpt><trkpt lat="42.1910717" lon="14.6442717"><ele>2.25</ele><time>2026-04-07T12:38:46.83Z</time></trkpt><trkpt lat="42.1911533" lon="14.6441717"><ele>2.0</ele><time>2026-04-07T12:38:48.83Z</time></trkpt><trkpt lat="42.1912267" lon="14.6440583"><ele>2.0</ele><time>2026-04-07T12:38:50.83Z</time></trkpt><trkpt lat="42.1912883" lon="14.643935"><ele>2.0</ele><time>2026-04-07T12:38:52.83Z</time></trkpt><trkpt lat="42.1913517" lon="14.6438133"><ele>2.0</ele><time>2026-04-07T12:38:54.83Z</time></trkpt><trkpt lat="42.19141" lon="14.6436917"><ele>2.0</ele><time>2026-04-07T12:38:56.83Z</time></trkpt><trkpt lat="42.1914817" lon="14.6435817"><ele>2.0</ele><time>2026-04-07T12:38:58.83Z</time></trkpt><trkpt lat="42.1915533" lon="14.6434733"><ele>1.6</ele><time>2026-04-07T12:39:00.83Z</time></trkpt><trkpt lat="42.1915967" lon="14.643405"><ele>1.2000000000000002</ele><time>2026-04-07T12:39:01.83Z</time></trkpt><trkpt lat="42.1916883" lon="14.6433183"><ele>0.8</ele><time>2026-04-07T12:39:03.83Z</time></trkpt><trkpt lat="42.1917767" lon="14.6432233"><ele>0.4</ele><time>2026-04-07T12:39:05.83Z</time></trkpt><trkpt lat="42.1918633" lon="14.6431267"><ele>0.0</ele><time>2026-04-07T12:39:07.83Z</time></trkpt><trkpt lat="42.19194" lon="14.6430167"><ele>0.0</ele><time>2026-04-07T12:39:09.83Z</time></trkpt><trkpt lat="42.1920117" lon="14.6429"><ele>0.0</ele><time>2026-04-07T12:39:11.83Z</time></trkpt><trkpt lat="42.1920733" lon="14.6427833"><ele>0.0</ele><time>2026-04-07T12:39:13.83Z</time></trkpt><trkpt lat="42.19215" lon="14.64268"><ele>0.0</ele><time>2026-04-07T12:39:15.83Z</time></trkpt><trkpt lat="42.1922367" lon="14.642595"><ele>0.0</ele><time>2026-04-07T12:39:17.83Z</time></trkpt><trkpt lat="42.1923167" lon="14.64251"><ele>0.0</ele><time>2026-04-07T12:39:19.83Z</time></trkpt><trkpt lat="42.1923733" lon="14.6423933"><ele>0.0</ele><time>2026-04-07T12:39:21.83Z</time></trkpt><trkpt lat="42.19242" lon="14.64226"><ele>0.0</ele><time>2026-04-07T12:39:23.83Z</time></trkpt><trkpt lat="42.192465" lon="14.6421183"><ele>0.0</ele><time>2026-04-07T12:39:25.83Z</time></trkpt><trkpt lat="42.192505" lon="14.6419767"><ele>0.0</ele><time>2026-04-07T12:39:27.83Z</time></trkpt><trkpt lat="42.19254" lon="14.6418333"><ele>0.0</ele><time>2026-04-07T12:39:29.83Z</time></trkpt><trkpt lat="42.1925783" lon="14.64169"><ele>0.0</ele><time>2026-04-07T12:39:31.83Z</time></trkpt><trkpt lat="42.1926217" lon="14.6415433"><ele>0.0</ele><time>2026-04-07T12:39:33.83Z</time></trkpt><trkpt lat="42.1926583" lon="14.641405"><ele>0.0</ele><time>2026-04-07T12:39:35.83Z</time></trkpt><trkpt lat="42.192695" lon="14.64126"><ele>0.0</ele><time>2026-04-07T12:39:37.83Z</time></trkpt><trkpt lat="42.1927233" lon="14.641115"><ele>0.0</ele><time>2026-04-07T12:39:39.83Z</time></trkpt><trkpt lat="42.19276" lon="14.6409733"><ele>0.0</ele><time>2026-04-07T12:39:41.83Z</time></trkpt><trkpt lat="42.1928" lon="14.6408317"><ele>0.0</ele><time>2026-04-07T12:39:43.83Z</time></trkpt><trkpt lat="42.19284" lon="14.640685"><ele>0.0</ele><time>2026-04-07T12:39:45.83Z</time></trkpt><trkpt lat="42.1928817" lon="14.64054"><ele>0.0</ele><time>2026-04-07T12:39:47.83Z</time></trkpt><trkpt lat="42.1929167" lon="14.6404017"><ele>0.0</ele><time>2026-04-07T12:39:49.83Z</time></trkpt><trkpt lat="42.1929533" lon="14.6402567"><ele>0.0</ele><time>2026-04-07T12:39:51.831Z</time></trkpt><trkpt lat="42.192985" lon="14.6401133"><ele>0.0</ele><time>2026-04-07T12:39:53.831Z</time></trkpt><trkpt lat="42.1930233" lon="14.6399667"><ele>-0.2</ele><time>2026-04-07T12:39:55.83Z</time></trkpt><trkpt lat="42.1930617" lon="14.639825"><ele>-0.4</ele><time>2026-04-07T12:39:57.83Z</time></trkpt><trkpt lat="42.1931067" lon="14.639685"><ele>-0.6000000000000001</ele><time>2026-04-07T12:39:59.83Z</time></trkpt><trkpt lat="42.193145" lon="14.6395367"><ele>-0.8</ele><time>2026-04-07T12:40:01.83Z</time></trkpt><trkpt lat="42.1931833" lon="14.6394"><ele>-1.0</ele><time>2026-04-07T12:40:03.83Z</time></trkpt><trkpt lat="42.1932167" lon="14.6392583"><ele>-1.0</ele><time>2026-04-07T12:40:05.831Z</time></trkpt><trkpt lat="42.1932567" lon="14.63912"><ele>-1.0</ele><time>2026-04-07T12:40:07.83Z</time></trkpt><trkpt lat="42.1932967" lon="14.638975"><ele>-1.0</ele><time>2026-04-07T12:40:09.83Z</time></trkpt><trkpt lat="42.1933317" lon="14.6388367"><ele>-1.0</ele><time>2026-04-07T12:40:11.831Z</time></trkpt><trkpt lat="42.1933683" lon="14.6386917"><ele>-1.0</ele><time>2026-04-07T12:40:13.83Z</time></trkpt><trkpt lat="42.1934033" lon="14.6385533"><ele>-0.6000000000000001</ele><time>2026-04-07T12:40:15.83Z</time></trkpt><trkpt lat="42.19343" lon="14.6384283"><ele>-0.20000000000000007</ele><time>2026-04-07T12:40:17.831Z</time></trkpt><trkpt lat="42.19345" lon="14.6383067"><ele>0.20000000000000007</ele><time>2026-04-07T12:40:19.83Z</time></trkpt><trkpt lat="42.1934817" lon="14.6381733"><ele>0.6000000000000001</ele><time>2026-04-07T12:40:21.83Z</time></trkpt><trkpt lat="42.1935183" lon="14.63804"><ele>1.0</ele><time>2026-04-07T12:40:23.83Z</time></trkpt><trkpt lat="42.1935567" lon="14.6378983"><ele>1.0</ele><time>2026-04-07T12:40:25.83Z</time></trkpt><trkpt lat="42.193595" lon="14.6377567"><ele>1.0</ele><time>2026-04-07T12:40:27.83Z</time></trkpt><trkpt lat="42.193635" lon="14.6376167"><ele>1.0</ele><time>2026-04-07T12:40:29.83Z</time></trkpt><trkpt lat="42.193675" lon="14.637485"><ele>1.0</ele><time>2026-04-07T12:40:31.83Z</time></trkpt><trkpt lat="42.1937067" lon="14.637355"><ele>1.0</ele><time>2026-04-07T12:40:33.83Z</time></trkpt><trkpt lat="42.1937483" lon="14.6372183"><ele>1.0</ele><time>2026-04-07T12:40:35.83Z</time></trkpt><trkpt lat="42.1937933" lon="14.63708"><ele>1.0</ele><time>2026-04-07T12:40:37.83Z</time></trkpt><trkpt lat="42.19383" lon="14.636945"><ele>1.0</ele><time>2026-04-07T12:40:39.83Z</time></trkpt><trkpt lat="42.19387" lon="14.6368017"><ele>1.0</ele><time>2026-04-07T12:40:41.83Z</time></trkpt><trkpt lat="42.1939083" lon="14.63666"><ele>1.0</ele><time>2026-04-07T12:40:43.83Z</time></trkpt><trkpt lat="42.1939467" lon="14.63653"><ele>1.0</ele><time>2026-04-07T12:40:45.83Z</time></trkpt><trkpt lat="42.19399" lon="14.6363767"><ele>1.0</ele><time>2026-04-07T12:40:47.83Z</time></trkpt><trkpt lat="42.1940233" lon="14.636215"><ele>1.0</ele><time>2026-04-07T12:40:49.83Z</time></trkpt><trkpt lat="42.19406" lon="14.636065"><ele>1.0</ele><time>2026-04-07T12:40:51.83Z</time></trkpt><trkpt lat="42.1940983" lon="14.6359267"><ele>1.0</ele><time>2026-04-07T12:40:53.83Z</time></trkpt><trkpt lat="42.194135" lon="14.6357933"><ele>1.0</ele><time>2026-04-07T12:40:55.83Z</time></trkpt><trkpt lat="42.194175" lon="14.635645"><ele>1.0</ele><time>2026-04-07T12:40:57.83Z</time></trkpt><trkpt lat="42.1942183" lon="14.6355033"><ele>1.0</ele><time>2026-04-07T12:40:59.83Z</time></trkpt><trkpt lat="42.1942583" lon="14.6353717"><ele>1.0</ele><time>2026-04-07T12:41:01.831Z</time></trkpt><trkpt lat="42.1942983" lon="14.6352267"><ele>1.2000000000000002</ele><time>2026-04-07T12:41:03.83Z</time></trkpt><trkpt lat="42.1943383" lon="14.6350767"><ele>1.4000000000000001</ele><time>2026-04-07T12:41:05.83Z</time></trkpt><trkpt lat="42.1943817" lon="14.6349367"><ele>1.6</ele><time>2026-04-07T12:41:07.831Z</time></trkpt><trkpt lat="42.1944217" lon="14.6347983"><ele>1.8</ele><time>2026-04-07T12:41:09.83Z</time></trkpt><trkpt lat="42.1944683" lon="14.6346683"><ele>2.0</ele><time>2026-04-07T12:41:11.83Z</time></trkpt><trkpt lat="42.1945033" lon="14.6345433"><ele>2.333333333333333</ele><time>2026-04-07T12:41:13.83Z</time></trkpt><trkpt lat="42.194535" lon="14.6344333"><ele>2.6666666666666665</ele><time>2026-04-07T12:41:15.83Z</time></trkpt><trkpt lat="42.19456" lon="14.6343467"><ele>3.0</ele><time>2026-04-07T12:41:17.83Z</time></trkpt><trkpt lat="42.1945917" lon="14.634245"><ele>3.333333333333333</ele><time>2026-04-07T12:41:21.83Z</time></trkpt><trkpt lat="42.1946267" lon="14.6341717"><ele>3.6666666666666665</ele><time>2026-04-07T12:41:23.831Z</time></trkpt><trkpt lat="42.194675" lon="14.6340633"><ele>4.0</ele><time>2026-04-07T12:41:25.831Z</time></trkpt><trkpt lat="42.1947133" lon="14.6339267"><ele>4.0</ele><time>2026-04-07T12:41:27.83Z</time></trkpt><trkpt lat="42.194755" lon="14.6337717"><ele>4.0</ele><time>2026-04-07T12:41:29.83Z</time></trkpt><trkpt lat="42.19479" lon="14.633635"><ele>4.0</ele><time>2026-04-07T12:41:31.83Z</time></trkpt><trkpt lat="42.1948283" lon="14.6335033"><ele>4.0</ele><time>2026-04-07T12:41:33.83Z</time></trkpt><trkpt lat="42.19487" lon="14.6333717"><ele>4.0</ele><time>2026-04-07T12:41:35.83Z</time></trkpt><trkpt lat="42.19491" lon="14.6332233"><ele>4.2</ele><time>2026-04-07T12:41:37.83Z</time></trkpt><trkpt lat="42.1949517" lon="14.6330933"><ele>4.4</ele><time>2026-04-07T12:41:39.831Z</time></trkpt><trkpt lat="42.1949883" lon="14.63296"><ele>4.6</ele><time>2026-04-07T12:41:41.83Z</time></trkpt><trkpt lat="42.1950267" lon="14.6328233"><ele>4.8</ele><time>2026-04-07T12:41:43.83Z</time></trkpt><trkpt lat="42.1950633" lon="14.632695"><ele>5.0</ele><time>2026-04-07T12:41:45.831Z</time></trkpt><trkpt lat="42.1950983" lon="14.63256"><ele>5.0</ele><time>2026-04-07T12:41:47.83Z</time></trkpt><trkpt lat="42.1951317" lon="14.6324233"><ele>5.0</ele><time>2026-04-07T12:41:49.83Z</time></trkpt><trkpt lat="42.1951733" lon="14.6322867"><ele>5.0</ele><time>2026-04-07T12:41:51.83Z</time></trkpt><trkpt lat="42.1952083" lon="14.6321367"><ele>5.0</ele><time>2026-04-07T12:41:53.83Z</time></trkpt><trkpt lat="42.1952283" lon="14.632055"><ele>5.0</ele><time>2026-04-07T12:41:54.83Z</time></trkpt><trkpt lat="42.1952767" lon="14.6319033"><ele>4.8</ele><time>2026-04-07T12:41:56.83Z</time></trkpt><trkpt lat="42.1953217" lon="14.6317633"><ele>4.6</ele><time>2026-04-07T12:41:58.83Z</time></trkpt><trkpt lat="42.1953617" lon="14.6316267"><ele>4.4</ele><time>2026-04-07T12:42:00.831Z</time></trkpt><trkpt lat="42.1953983" lon="14.6314883"><ele>4.2</ele><time>2026-04-07T12:42:02.83Z</time></trkpt><trkpt lat="42.1954317" lon="14.631355"><ele>4.0</ele><time>2026-04-07T12:42:04.83Z</time></trkpt><trkpt lat="42.1954667" lon="14.6312217"><ele>4.0</ele><time>2026-04-07T12:42:06.83Z</time></trkpt><trkpt lat="42.195505" lon="14.6310817"><ele>4.0</ele><time>2026-04-07T12:42:08.831Z</time></trkpt><trkpt lat="42.1955367" lon="14.630955"><ele>4.0</ele><time>2026-04-07T12:42:10.83Z</time></trkpt><trkpt lat="42.19557" lon="14.6308433"><ele>4.0</ele><time>2026-04-07T12:42:12.83Z</time></trkpt><trkpt lat="42.1956" lon="14.6307183"><ele>4.0</ele><time>2026-04-07T12:42:14.83Z</time></trkpt><trkpt lat="42.1956367" lon="14.630595"><ele>3.8000000000000003</ele><time>2026-04-07T12:42:16.83Z</time></trkpt><trkpt lat="42.1956767" lon="14.6304667"><ele>3.6000000000000005</ele><time>2026-04-07T12:42:18.83Z</time></trkpt><trkpt lat="42.195715" lon="14.6303367"><ele>3.4</ele><time>2026-04-07T12:42:20.83Z</time></trkpt><trkpt lat="42.1957483" lon="14.6302"><ele>3.2</ele><time>2026-04-07T12:42:22.83Z</time></trkpt><trkpt lat="42.19579" lon="14.63007"><ele>3.0</ele><time>2026-04-07T12:42:24.83Z</time></trkpt><trkpt lat="42.1958317" lon="14.6299267"><ele>3.0</ele><time>2026-04-07T12:42:26.83Z</time></trkpt><trkpt lat="42.19587" lon="14.6297867"><ele>3.0</ele><time>2026-04-07T12:42:28.83Z</time></trkpt><trkpt lat="42.1959083" lon="14.62965"><ele>3.0</ele><time>2026-04-07T12:42:30.831Z</time></trkpt><trkpt lat="42.1959433" lon="14.62952"><ele>3.0</ele><time>2026-04-07T12:42:32.83Z</time></trkpt><trkpt lat="42.1960033" lon="14.62941"><ele>3.0</ele><time>2026-04-07T12:42:34.831Z</time></trkpt><trkpt lat="42.196045" lon="14.6292917"><ele>3.2</ele><time>2026-04-07T12:42:36.831Z</time></trkpt><trkpt lat="42.1960733" lon="14.62916"><ele>3.4</ele><time>2026-04-07T12:42:38.83Z</time></trkpt><trkpt lat="42.1960767" lon="14.629015"><ele>3.6000000000000005</ele><time>2026-04-07T12:42:40.83Z</time></trkpt><trkpt lat="42.196085" lon="14.6288683"><ele>3.8000000000000003</ele><time>2026-04-07T12:42:42.83Z</time></trkpt><trkpt lat="42.1961117" lon="14.6287283"><ele>4.0</ele><time>2026-04-07T12:42:44.83Z</time></trkpt><trkpt lat="42.1961467" lon="14.628595"><ele>4.0</ele><time>2026-04-07T12:42:46.83Z</time></trkpt><trkpt lat="42.1961833" lon="14.6284533"><ele>4.0</ele><time>2026-04-07T12:42:48.83Z</time></trkpt><trkpt lat="42.1962283" lon="14.62832"><ele>4.0</ele><time>2026-04-07T12:42:50.83Z</time></trkpt><trkpt lat="42.1962783" lon="14.62817"><ele>4.0</ele><time>2026-04-07T12:42:52.831Z</time></trkpt><trkpt lat="42.1963267" lon="14.6280183"><ele>4.0</ele><time>2026-04-07T12:42:54.83Z</time></trkpt><trkpt lat="42.19638" lon="14.62787"><ele>4.0</ele><time>2026-04-07T12:42:56.831Z</time></trkpt><trkpt lat="42.1964267" lon="14.627725"><ele>4.0</ele><time>2026-04-07T12:42:58.83Z</time></trkpt><trkpt lat="42.19648" lon="14.6275783"><ele>4.0</ele><time>2026-04-07T12:43:00.83Z</time></trkpt><trkpt lat="42.1965383" lon="14.627435"><ele>3.5</ele><time>2026-04-07T12:43:02.83Z</time></trkpt><trkpt lat="42.19659" lon="14.6272967"><ele>3.0</ele><time>2026-04-07T12:43:04.83Z</time></trkpt><trkpt lat="42.19664" lon="14.6271567"><ele>2.5</ele><time>2026-04-07T12:43:06.83Z</time></trkpt><trkpt lat="42.196695" lon="14.6270167"><ele>2.0</ele><time>2026-04-07T12:43:08.83Z</time></trkpt><trkpt lat="42.196745" lon="14.62688"><ele>1.5</ele><time>2026-04-07T12:43:10.83Z</time></trkpt><trkpt lat="42.19679" lon="14.62674"><ele>1.0</ele><time>2026-04-07T12:43:12.831Z</time></trkpt><trkpt lat="42.1968417" lon="14.626605"><ele>0.5</ele><time>2026-04-07T12:43:14.83Z</time></trkpt><trkpt lat="42.19689" lon="14.62646"><ele>0.0</ele><time>2026-04-07T12:43:16.83Z</time></trkpt><trkpt lat="42.196935" lon="14.6263183"><ele>0.0</ele><time>2026-04-07T12:43:18.831Z</time></trkpt><trkpt lat="42.1969833" lon="14.6261733"><ele>0.0</ele><time>2026-04-07T12:43:20.831Z</time></trkpt><trkpt lat="42.1970417" lon="14.6260317"><ele>0.0</ele><time>2026-04-07T12:43:22.83Z</time></trkpt><trkpt lat="42.1970983" lon="14.6258983"><ele>0.0</ele><time>2026-04-07T12:43:24.83Z</time></trkpt><trkpt lat="42.19715" lon="14.6257667"><ele>1.75</ele><time>2026-04-07T12:43:26.83Z</time></trkpt><trkpt lat="42.1972017" lon="14.6256333"><ele>3.5</ele><time>2026-04-07T12:43:28.83Z</time></trkpt><trkpt lat="42.1972467" lon="14.6254867"><ele>5.25</ele><time>2026-04-07T12:43:30.83Z</time></trkpt><trkpt lat="42.197285" lon="14.6253383"><ele>7.0</ele><time>2026-04-07T12:43:32.83Z</time></trkpt><trkpt lat="42.1973333" lon="14.625205"><ele>6.5</ele><time>2026-04-07T12:43:34.831Z</time></trkpt><trkpt lat="42.19738" lon="14.625065"><ele>6.0</ele><time>2026-04-07T12:43:36.83Z</time></trkpt><trkpt lat="42.19743" lon="14.6249267"><ele>5.5</ele><time>2026-04-07T12:43:38.83Z</time></trkpt><trkpt lat="42.197475" lon="14.6247867"><ele>5.0</ele><time>2026-04-07T12:43:40.83Z</time></trkpt><trkpt lat="42.1975217" lon="14.624645"><ele>5.0</ele><time>2026-04-07T12:43:42.83Z</time></trkpt><trkpt lat="42.1975717" lon="14.6245033"><ele>5.0</ele><time>2026-04-07T12:43:44.83Z</time></trkpt><trkpt lat="42.1976167" lon="14.624365"><ele>5.0</ele><time>2026-04-07T12:43:46.83Z</time></trkpt><trkpt lat="42.197665" lon="14.6242183"><ele>5.0</ele><time>2026-04-07T12:43:48.83Z</time></trkpt><trkpt lat="42.19771" lon="14.6240767"><ele>5.8</ele><time>2026-04-07T12:43:50.83Z</time></trkpt><trkpt lat="42.1977333" lon="14.6239967"><ele>6.6</ele><time>2026-04-07T12:43:51.83Z</time></trkpt><trkpt lat="42.1977767" lon="14.62385"><ele>7.4</ele><time>2026-04-07T12:43:53.831Z</time></trkpt><trkpt lat="42.1978117" lon="14.623705"><ele>8.2</ele><time>2026-04-07T12:43:55.83Z</time></trkpt><trkpt lat="42.197845" lon="14.62356"><ele>9.0</ele><time>2026-04-07T12:43:57.83Z</time></trkpt><trkpt lat="42.1978783" lon="14.6234117"><ele>9.5</ele><time>2026-04-07T12:43:59.83Z</time></trkpt><trkpt lat="42.1979117" lon="14.623265"><ele>10.0</ele><time>2026-04-07T12:44:01.83Z</time></trkpt><trkpt lat="42.19795" lon="14.6231233"><ele>10.5</ele><time>2026-04-07T12:44:03.83Z</time></trkpt><trkpt lat="42.198005" lon="14.6229917"><ele>11.0</ele><time>2026-04-07T12:44:05.831Z</time></trkpt><trkpt lat="42.1980567" lon="14.6228517"><ele>11.75</ele><time>2026-04-07T12:44:07.83Z</time></trkpt><trkpt lat="42.198105" lon="14.6227133"><ele>12.5</ele><time>2026-04-07T12:44:09.83Z</time></trkpt><trkpt lat="42.1981483" lon="14.6225733"><ele>13.25</ele><time>2026-04-07T12:44:11.831Z</time></trkpt><trkpt lat="42.1981917" lon="14.622435"><ele>14.0</ele><time>2026-04-07T12:44:13.83Z</time></trkpt><trkpt lat="42.1982333" lon="14.622285"><ele>12.5</ele><time>2026-04-07T12:44:15.83Z</time></trkpt><trkpt lat="42.1982783" lon="14.62214"><ele>11.0</ele><time>2026-04-07T12:44:17.83Z</time></trkpt><trkpt lat="42.1983183" lon="14.6219967"><ele>9.5</ele><time>2026-04-07T12:44:19.83Z</time></trkpt><trkpt lat="42.198365" lon="14.6218583"><ele>8.0</ele><time>2026-04-07T12:44:21.83Z</time></trkpt><trkpt lat="42.1984083" lon="14.6217067"><ele>8.0</ele><time>2026-04-07T12:44:23.83Z</time></trkpt><trkpt lat="42.1984467" lon="14.6215583"><ele>8.0</ele><time>2026-04-07T12:44:25.83Z</time></trkpt><trkpt lat="42.1984683" lon="14.6214783"><ele>8.0</ele><time>2026-04-07T12:44:26.83Z</time></trkpt><trkpt lat="42.1985067" lon="14.6213333"><ele>8.0</ele><time>2026-04-07T12:44:28.831Z</time></trkpt><trkpt lat="42.198545" lon="14.6211867"><ele>8.0</ele><time>2026-04-07T12:44:30.83Z</time></trkpt><trkpt lat="42.19859" lon="14.6210633"><ele>8.25</ele><time>2026-04-07T12:44:32.83Z</time></trkpt><trkpt lat="42.19863" lon="14.620905"><ele>8.5</ele><time>2026-04-07T12:44:34.83Z</time></trkpt><trkpt lat="42.198675" lon="14.6207667"><ele>8.75</ele><time>2026-04-07T12:44:36.83Z</time></trkpt><trkpt lat="42.1987167" lon="14.6206283"><ele>9.0</ele><time>2026-04-07T12:44:38.83Z</time></trkpt><trkpt lat="42.1987533" lon="14.6204833"><ele>9.0</ele><time>2026-04-07T12:44:40.83Z</time></trkpt><trkpt lat="42.1987917" lon="14.6203383"><ele>9.0</ele><time>2026-04-07T12:44:42.83Z</time></trkpt><trkpt lat="42.1988383" lon="14.620195"><ele>9.0</ele><time>2026-04-07T12:44:44.83Z</time></trkpt><trkpt lat="42.1988783" lon="14.6200483"><ele>9.0</ele><time>2026-04-07T12:44:46.831Z</time></trkpt><trkpt lat="42.1989183" lon="14.6199067"><ele>9.0</ele><time>2026-04-07T12:44:48.83Z</time></trkpt><trkpt lat="42.198965" lon="14.619765"><ele>9.0</ele><time>2026-04-07T12:44:50.83Z</time></trkpt><trkpt lat="42.1990083" lon="14.619625"><ele>9.0</ele><time>2026-04-07T12:44:52.83Z</time></trkpt><trkpt lat="42.1990567" lon="14.6194833"><ele>9.0</ele><time>2026-04-07T12:44:54.83Z</time></trkpt><trkpt lat="42.1991017" lon="14.6193417"><ele>7.6000000000000005</ele><time>2026-04-07T12:44:56.83Z</time></trkpt><trkpt lat="42.1991467" lon="14.6191967"><ele>6.2</ele><time>2026-04-07T12:44:58.83Z</time></trkpt><trkpt lat="42.1991883" lon="14.6190667"><ele>4.800000000000001</ele><time>2026-04-07T12:45:00.83Z</time></trkpt><trkpt lat="42.1992317" lon="14.6189417"><ele>3.4000000000000004</ele><time>2026-04-07T12:45:02.83Z</time></trkpt><trkpt lat="42.199265" lon="14.6188233"><ele>2.0</ele><time>2026-04-07T12:45:04.83Z</time></trkpt><trkpt lat="42.1993033" lon="14.61871"><ele>2.2</ele><time>2026-04-07T12:45:06.83Z</time></trkpt><trkpt lat="42.1993417" lon="14.618595"><ele>2.4000000000000004</ele><time>2026-04-07T12:45:08.83Z</time></trkpt><trkpt lat="42.1993833" lon="14.6184617"><ele>2.5999999999999996</ele><time>2026-04-07T12:45:10.83Z</time></trkpt><trkpt lat="42.199425" lon="14.6183333"><ele>2.8</ele><time>2026-04-07T12:45:12.83Z</time></trkpt><trkpt lat="42.199465" lon="14.6181983"><ele>3.0</ele><time>2026-04-07T12:45:14.83Z</time></trkpt><trkpt lat="42.199515" lon="14.6180683"><ele>3.0</ele><time>2026-04-07T12:45:16.83Z</time></trkpt><trkpt lat="42.199565" lon="14.6179367"><ele>3.0</ele><time>2026-04-07T12:45:18.83Z</time></trkpt><trkpt lat="42.1996133" lon="14.6178"><ele>3.0</ele><time>2026-04-07T12:45:20.83Z</time></trkpt><trkpt lat="42.1996583" lon="14.6176633"><ele>3.0</ele><time>2026-04-07T12:45:22.83Z</time></trkpt><trkpt lat="42.1997083" lon="14.61753"><ele>3.0</ele><time>2026-04-07T12:45:24.83Z</time></trkpt><trkpt lat="42.1997517" lon="14.6174017"><ele>2.6</ele><time>2026-04-07T12:45:26.83Z</time></trkpt><trkpt lat="42.1997967" lon="14.6172667"><ele>2.1999999999999997</ele><time>2026-04-07T12:45:28.83Z</time></trkpt><trkpt lat="42.19984" lon="14.61713"><ele>1.8</ele><time>2026-04-07T12:45:30.83Z</time></trkpt><trkpt lat="42.1998883" lon="14.6169917"><ele>1.4</ele><time>2026-04-07T12:45:32.83Z</time></trkpt><trkpt lat="42.1999367" lon="14.6168567"><ele>1.0</ele><time>2026-04-07T12:45:34.83Z</time></trkpt><trkpt lat="42.1999817" lon="14.616715"><ele>1.0</ele><time>2026-04-07T12:45:36.83Z</time></trkpt><trkpt lat="42.2000333" lon="14.6165783"><ele>1.0</ele><time>2026-04-07T12:45:38.83Z</time></trkpt><trkpt lat="42.20008" lon="14.6164367"><ele>1.0</ele><time>2026-04-07T12:45:40.831Z</time></trkpt><trkpt lat="42.2001267" lon="14.6162933"><ele>1.0</ele><time>2026-04-07T12:45:42.83Z</time></trkpt><trkpt lat="42.2001767" lon="14.6161567"><ele>1.6</ele><time>2026-04-07T12:45:44.831Z</time></trkpt><trkpt lat="42.20022" lon="14.6160283"><ele>2.2</ele><time>2026-04-07T12:45:46.83Z</time></trkpt><trkpt lat="42.2002717" lon="14.6158933"><ele>2.8000000000000003</ele><time>2026-04-07T12:45:48.83Z</time></trkpt><trkpt lat="42.20032" lon="14.6157517"><ele>3.4000000000000004</ele><time>2026-04-07T12:45:50.83Z</time></trkpt><trkpt lat="42.2003767" lon="14.6156217"><ele>4.0</ele><time>2026-04-07T12:45:52.831Z</time></trkpt><trkpt lat="42.2004483" lon="14.6155167"><ele>4.0</ele><time>2026-04-07T12:45:54.831Z</time></trkpt><trkpt lat="42.2004983" lon="14.6154083"><ele>4.0</ele><time>2026-04-07T12:45:56.83Z</time></trkpt><trkpt lat="42.2005433" lon="14.6152917"><ele>4.0</ele><time>2026-04-07T12:45:58.831Z</time></trkpt><trkpt lat="42.2006083" lon="14.6151833"><ele>4.0</ele><time>2026-04-07T12:46:00.83Z</time></trkpt><trkpt lat="42.2006767" lon="14.615045"><ele>4.0</ele><time>2026-04-07T12:46:02.83Z</time></trkpt><trkpt lat="42.2007017" lon="14.6149033"><ele>3.8000000000000003</ele><time>2026-04-07T12:46:04.83Z</time></trkpt><trkpt lat="42.20069" lon="14.6147667"><ele>3.6000000000000005</ele><time>2026-04-07T12:46:06.83Z</time></trkpt><trkpt lat="42.2006867" lon="14.6146417"><ele>3.4</ele><time>2026-04-07T12:46:08.831Z</time></trkpt><trkpt lat="42.20071" lon="14.6145233"><ele>3.2</ele><time>2026-04-07T12:46:10.83Z</time></trkpt><trkpt lat="42.2007467" lon="14.6144183"><ele>3.0</ele><time>2026-04-07T12:46:12.83Z</time></trkpt><trkpt lat="42.2007817" lon="14.6142967"><ele>3.5</ele><time>2026-04-07T12:46:14.831Z</time></trkpt><trkpt lat="42.2008167" lon="14.61416"><ele>4.0</ele><time>2026-04-07T12:46:16.83Z</time></trkpt><trkpt lat="42.200855" lon="14.614015"><ele>4.5</ele><time>2026-04-07T12:46:18.83Z</time></trkpt><trkpt lat="42.20089" lon="14.6138633"><ele>5.0</ele><time>2026-04-07T12:46:20.83Z</time></trkpt><trkpt lat="42.2009417" lon="14.61372"><ele>5.333333333333334</ele><time>2026-04-07T12:46:22.83Z</time></trkpt><trkpt lat="42.20097" lon="14.6136417"><ele>5.666666666666667</ele><time>2026-04-07T12:46:23.83Z</time></trkpt><trkpt lat="42.200995" lon="14.6135583"><ele>6.0</ele><time>2026-04-07T12:46:24.831Z</time></trkpt><trkpt lat="42.20104" lon="14.6134067"><ele>6.333333333333334</ele><time>2026-04-07T12:46:26.831Z</time></trkpt><trkpt lat="42.20107" lon="14.6133233"><ele>6.666666666666667</ele><time>2026-04-07T12:46:27.83Z</time></trkpt><trkpt lat="42.2011183" lon="14.6131633"><ele>7.0</ele><time>2026-04-07T12:46:29.83Z</time></trkpt><trkpt lat="42.20114" lon="14.61308"><ele>7.000000000000001</ele><time>2026-04-07T12:46:30.83Z</time></trkpt><trkpt lat="42.2011667" lon="14.6129983"><ele>7.0</ele><time>2026-04-07T12:46:31.831Z</time></trkpt><trkpt lat="42.2012117" lon="14.612845"><ele>7.0</ele><time>2026-04-07T12:46:33.83Z</time></trkpt><trkpt lat="42.2012317" lon="14.6127617"><ele>7.0</ele><time>2026-04-07T12:46:34.83Z</time></trkpt><trkpt lat="42.20128" lon="14.6126017"><ele>7.000000000000001</ele><time>2026-04-07T12:46:36.831Z</time></trkpt><trkpt lat="42.2013033" lon="14.61252"><ele>7.0</ele><time>2026-04-07T12:46:37.831Z</time></trkpt><trkpt lat="42.201325" lon="14.6124367"><ele>6.8</ele><time>2026-04-07T12:46:38.83Z</time></trkpt><trkpt lat="42.20135" lon="14.6123567"><ele>6.6</ele><time>2026-04-07T12:46:39.83Z</time></trkpt><trkpt lat="42.201375" lon="14.6122767"><ele>6.3999999999999995</ele><time>2026-04-07T12:46:40.83Z</time></trkpt><trkpt lat="42.2014167" lon="14.6121283"><ele>6.199999999999999</ele><time>2026-04-07T12:46:42.83Z</time></trkpt><trkpt lat="42.201455" lon="14.6119767"><ele>6.0</ele><time>2026-04-07T12:46:44.83Z</time></trkpt><trkpt lat="42.2015017" lon="14.6118267"><ele>5.75</ele><time>2026-04-07T12:46:46.83Z</time></trkpt><trkpt lat="42.2015467" lon="14.6116783"><ele>5.5</ele><time>2026-04-07T12:46:48.83Z</time></trkpt><trkpt lat="42.201595" lon="14.611535"><ele>5.25</ele><time>2026-04-07T12:46:50.831Z</time></trkpt><trkpt lat="42.2016467" lon="14.6113967"><ele>5.0</ele><time>2026-04-07T12:46:52.83Z</time></trkpt><trkpt lat="42.201705" lon="14.611255"><ele>5.0</ele><time>2026-04-07T12:46:54.831Z</time></trkpt><trkpt lat="42.20175" lon="14.611105"><ele>5.0</ele><time>2026-04-07T12:46:56.83Z</time></trkpt><trkpt lat="42.2017983" lon="14.61096"><ele>5.0</ele><time>2026-04-07T12:46:58.831Z</time></trkpt><trkpt lat="42.2018517" lon="14.6108283"><ele>5.0</ele><time>2026-04-07T12:47:00.83Z</time></trkpt><trkpt lat="42.2018867" lon="14.610705"><ele>5.0</ele><time>2026-04-07T12:47:02.83Z</time></trkpt><trkpt lat="42.201925" lon="14.6105633"><ele>5.0</ele><time>2026-04-07T12:47:04.83Z</time></trkpt><trkpt lat="42.201945" lon="14.610405"><ele>5.0</ele><time>2026-04-07T12:47:06.83Z</time></trkpt><trkpt lat="42.2019533" lon="14.6102733"><ele>5.0</ele><time>2026-04-07T12:47:08.83Z</time></trkpt><trkpt lat="42.2019533" lon="14.610155"><ele>5.0</ele><time>2026-04-07T12:47:10.83Z</time></trkpt><trkpt lat="42.201955" lon="14.6100533"><ele>5.0</ele><time>2026-04-07T12:47:12.83Z</time></trkpt><trkpt lat="42.2019683" lon="14.6099617"><ele>5.0</ele><time>2026-04-07T12:47:14.83Z</time></trkpt><trkpt lat="42.2019883" lon="14.609865"><ele>4.6</ele><time>2026-04-07T12:47:16.831Z</time></trkpt><trkpt lat="42.2020283" lon="14.6097717"><ele>4.2</ele><time>2026-04-07T12:47:18.83Z</time></trkpt><trkpt lat="42.202065" lon="14.6096633"><ele>3.8</ele><time>2026-04-07T12:47:20.831Z</time></trkpt><trkpt lat="42.20211" lon="14.6095483"><ele>3.4</ele><time>2026-04-07T12:47:22.83Z</time></trkpt><trkpt lat="42.20216" lon="14.60943"><ele>3.0</ele><time>2026-04-07T12:47:24.831Z</time></trkpt><trkpt lat="42.2022083" lon="14.60931"><ele>3.0</ele><time>2026-04-07T12:47:26.83Z</time></trkpt><trkpt lat="42.20226" lon="14.609185"><ele>3.0</ele><time>2026-04-07T12:47:28.831Z</time></trkpt><trkpt lat="42.20231" lon="14.6090467"><ele>3.0</ele><time>2026-04-07T12:47:30.83Z</time></trkpt><trkpt lat="42.2023617" lon="14.6089167"><ele>3.0</ele><time>2026-04-07T12:47:32.83Z</time></trkpt><trkpt lat="42.2024167" lon="14.6087817"><ele>3.0</ele><time>2026-04-07T12:47:34.83Z</time></trkpt><trkpt lat="42.2024767" lon="14.6086417"><ele>3.25</ele><time>2026-04-07T12:47:36.83Z</time></trkpt><trkpt lat="42.20253" lon="14.6085083"><ele>3.5</ele><time>2026-04-07T12:47:38.831Z</time></trkpt><trkpt lat="42.202585" lon="14.60837"><ele>3.75</ele><time>2026-04-07T12:47:40.831Z</time></trkpt><trkpt lat="42.2026433" lon="14.6082367"><ele>4.0</ele><time>2026-04-07T12:47:42.83Z</time></trkpt><trkpt lat="42.2027" lon="14.6081033"><ele>4.0</ele><time>2026-04-07T12:47:44.83Z</time></trkpt><trkpt lat="42.20275" lon="14.607975"><ele>4.0</ele><time>2026-04-07T12:47:46.83Z</time></trkpt><trkpt lat="42.2028033" lon="14.607855"><ele>4.0</ele><time>2026-04-07T12:47:48.831Z</time></trkpt><trkpt lat="42.2028517" lon="14.6077267"><ele>4.0</ele><time>2026-04-07T12:47:50.83Z</time></trkpt><trkpt lat="42.202905" lon="14.6075917"><ele>4.0</ele><time>2026-04-07T12:47:52.83Z</time></trkpt><trkpt lat="42.202935" lon="14.6075167"><ele>3.75</ele><time>2026-04-07T12:47:53.83Z</time></trkpt><trkpt lat="42.2029967" lon="14.60739"><ele>3.5</ele><time>2026-04-07T12:47:55.83Z</time></trkpt><trkpt lat="42.2030617" lon="14.607255"><ele>3.25</ele><time>2026-04-07T12:47:57.83Z</time></trkpt><trkpt lat="42.203125" lon="14.6071133"><ele>3.0</ele><time>2026-04-07T12:47:59.83Z</time></trkpt><trkpt lat="42.2031833" lon="14.6069817"><ele>2.5</ele><time>2026-04-07T12:48:01.831Z</time></trkpt><trkpt lat="42.2032417" lon="14.6068417"><ele>2.0</ele><time>2026-04-07T12:48:03.831Z</time></trkpt><trkpt lat="42.2033017" lon="14.606705"><ele>1.5</ele><time>2026-04-07T12:48:05.83Z</time></trkpt><trkpt lat="42.203355" lon="14.6065717"><ele>1.0</ele><time>2026-04-07T12:48:07.83Z</time></trkpt><trkpt lat="42.20341" lon="14.606435"><ele>1.0</ele><time>2026-04-07T12:48:09.83Z</time></trkpt><trkpt lat="42.2034717" lon="14.6062933"><ele>1.0</ele><time>2026-04-07T12:48:11.83Z</time></trkpt><trkpt lat="42.2035317" lon="14.6061633"><ele>1.0</ele><time>2026-04-07T12:48:13.83Z</time></trkpt><trkpt lat="42.2035867" lon="14.60603"><ele>1.0</ele><time>2026-04-07T12:48:15.83Z</time></trkpt><trkpt lat="42.20364" lon="14.605905"><ele>0.75</ele><time>2026-04-07T12:48:17.83Z</time></trkpt><trkpt lat="42.203705" lon="14.6057717"><ele>0.5</ele><time>2026-04-07T12:48:19.83Z</time></trkpt><trkpt lat="42.20376" lon="14.6056367"><ele>0.25</ele><time>2026-04-07T12:48:21.83Z</time></trkpt><trkpt lat="42.2038217" lon="14.6054967"><ele>0.0</ele><time>2026-04-07T12:48:23.83Z</time></trkpt><trkpt lat="42.20389" lon="14.6053633"><ele>0.2</ele><time>2026-04-07T12:48:25.83Z</time></trkpt><trkpt lat="42.203955" lon="14.6052317"><ele>0.4</ele><time>2026-04-07T12:48:27.83Z</time></trkpt><trkpt lat="42.204" lon="14.6051067"><ele>0.6000000000000001</ele><time>2026-04-07T12:48:29.83Z</time></trkpt><trkpt lat="42.2040533" lon="14.604995"><ele>0.8</ele><time>2026-04-07T12:48:31.83Z</time></trkpt><trkpt lat="42.2041083" lon="14.6048817"><ele>1.0</ele><time>2026-04-07T12:48:33.83Z</time></trkpt><trkpt lat="42.2041567" lon="14.604775"><ele>1.0</ele><time>2026-04-07T12:48:35.83Z</time></trkpt><trkpt lat="42.204205" lon="14.604655"><ele>1.0</ele><time>2026-04-07T12:48:37.83Z</time></trkpt><trkpt lat="42.2042617" lon="14.6045267"><ele>1.0</ele><time>2026-04-07T12:48:39.831Z</time></trkpt><trkpt lat="42.204315" lon="14.604395"><ele>1.0</ele><time>2026-04-07T12:48:41.83Z</time></trkpt><trkpt lat="42.2043683" lon="14.604265"><ele>1.0</ele><time>2026-04-07T12:48:43.83Z</time></trkpt><trkpt lat="42.2044267" lon="14.604135"><ele>1.0</ele><time>2026-04-07T12:48:45.83Z</time></trkpt><trkpt lat="42.2044817" lon="14.604"><ele>1.0</ele><time>2026-04-07T12:48:47.83Z</time></trkpt><trkpt lat="42.20454" lon="14.6038733"><ele>1.0</ele><time>2026-04-07T12:48:49.83Z</time></trkpt><trkpt lat="42.204605" lon="14.6037483"><ele>1.0</ele><time>2026-04-07T12:48:51.831Z</time></trkpt><trkpt lat="42.2046783" lon="14.6036383"><ele>1.0</ele><time>2026-04-07T12:48:53.83Z</time></trkpt><trkpt lat="42.204745" lon="14.6035283"><ele>1.0</ele><time>2026-04-07T12:48:55.83Z</time></trkpt><trkpt lat="42.2047983" lon="14.6033983"><ele>1.0</ele><time>2026-04-07T12:48:57.83Z</time></trkpt><trkpt lat="42.2048483" lon="14.6032817"><ele>1.0</ele><time>2026-04-07T12:48:59.83Z</time></trkpt><trkpt lat="42.2049067" lon="14.6031567"><ele>1.0</ele><time>2026-04-07T12:49:01.83Z</time></trkpt><trkpt lat="42.2049683" lon="14.6030217"><ele>1.0</ele><time>2026-04-07T12:49:03.83Z</time></trkpt><trkpt lat="42.2050267" lon="14.602885"><ele>2.5</ele><time>2026-04-07T12:49:05.83Z</time></trkpt><trkpt lat="42.2050883" lon="14.602755"><ele>4.0</ele><time>2026-04-07T12:49:07.83Z</time></trkpt><trkpt lat="42.2051517" lon="14.6026133"><ele>5.5</ele><time>2026-04-07T12:49:09.831Z</time></trkpt><trkpt lat="42.2052133" lon="14.602475"><ele>7.0</ele><time>2026-04-07T12:49:11.83Z</time></trkpt><trkpt lat="42.2052683" lon="14.602345"><ele>7.0</ele><time>2026-04-07T12:49:13.83Z</time></trkpt><trkpt lat="42.2053217" lon="14.6022067"><ele>6.999999999999999</ele><time>2026-04-07T12:49:15.83Z</time></trkpt><trkpt lat="42.20538" lon="14.602075"><ele>6.999999999999999</ele><time>2026-04-07T12:49:17.83Z</time></trkpt><trkpt lat="42.2054333" lon="14.60195"><ele>7.0</ele><time>2026-04-07T12:49:19.83Z</time></trkpt><trkpt lat="42.205485" lon="14.60182"><ele>7.0</ele><time>2026-04-07T12:49:21.83Z</time></trkpt><trkpt lat="42.20554" lon="14.6017"><ele>7.25</ele><time>2026-04-07T12:49:23.83Z</time></trkpt><trkpt lat="42.2056" lon="14.6015683"><ele>7.5</ele><time>2026-04-07T12:49:25.83Z</time></trkpt><trkpt lat="42.2056583" lon="14.601445"><ele>7.75</ele><time>2026-04-07T12:49:27.83Z</time></trkpt><trkpt lat="42.2057133" lon="14.601305"><ele>8.0</ele><time>2026-04-07T12:49:29.83Z</time></trkpt><trkpt lat="42.2057733" lon="14.6011567"><ele>8.0</ele><time>2026-04-07T12:49:31.83Z</time></trkpt><trkpt lat="42.2058267" lon="14.60102"><ele>8.0</ele><time>2026-04-07T12:49:33.83Z</time></trkpt><trkpt lat="42.205885" lon="14.600895"><ele>8.0</ele><time>2026-04-07T12:49:35.83Z</time></trkpt><trkpt lat="42.2059317" lon="14.60078"><ele>8.0</ele><time>2026-04-07T12:49:37.83Z</time></trkpt><trkpt lat="42.20598" lon="14.60066"><ele>8.0</ele><time>2026-04-07T12:49:39.83Z</time></trkpt><trkpt lat="42.20604" lon="14.6005433"><ele>8.0</ele><time>2026-04-07T12:49:41.83Z</time></trkpt><trkpt lat="42.2060917" lon="14.6004217"><ele>8.0</ele><time>2026-04-07T12:49:43.831Z</time></trkpt><trkpt lat="42.2061483" lon="14.6003083"><ele>8.0</ele><time>2026-04-07T12:49:45.83Z</time></trkpt><trkpt lat="42.2062067" lon="14.600185"><ele>8.0</ele><time>2026-04-07T12:49:47.83Z</time></trkpt><trkpt lat="42.206255" lon="14.6000683"><ele>8.0</ele><time>2026-04-07T12:49:49.83Z</time></trkpt><trkpt lat="42.206315" lon="14.5999283"><ele>8.0</ele><time>2026-04-07T12:49:51.83Z</time></trkpt><trkpt lat="42.2063717" lon="14.5997917"><ele>8.0</ele><time>2026-04-07T12:49:53.83Z</time></trkpt><trkpt lat="42.2064333" lon="14.5996633"><ele>8.0</ele><time>2026-04-07T12:49:55.83Z</time></trkpt><trkpt lat="42.2064617" lon="14.5995867"><ele>8.0</ele><time>2026-04-07T12:49:56.83Z</time></trkpt><trkpt lat="42.20651" lon="14.599445"><ele>8.0</ele><time>2026-04-07T12:49:58.831Z</time></trkpt><trkpt lat="42.20657" lon="14.5993283"><ele>8.0</ele><time>2026-04-07T12:50:00.83Z</time></trkpt><trkpt lat="42.20662" lon="14.5992133"><ele>8.0</ele><time>2026-04-07T12:50:02.83Z</time></trkpt><trkpt lat="42.2066783" lon="14.599085"><ele>8.0</ele><time>2026-04-07T12:50:04.83Z</time></trkpt><trkpt lat="42.2067383" lon="14.5989667"><ele>8.0</ele><time>2026-04-07T12:50:06.83Z</time></trkpt><trkpt lat="42.2067933" lon="14.5988417"><ele>8.0</ele><time>2026-04-07T12:50:08.83Z</time></trkpt><trkpt lat="42.2068517" lon="14.5987133"><ele>9.75</ele><time>2026-04-07T12:50:10.83Z</time></trkpt><trkpt lat="42.20691" lon="14.5985833"><ele>11.5</ele><time>2026-04-07T12:50:12.83Z</time></trkpt><trkpt lat="42.2069667" lon="14.59844"><ele>13.25</ele><time>2026-04-07T12:50:14.83Z</time></trkpt><trkpt lat="42.2070217" lon="14.5983133"><ele>15.0</ele><time>2026-04-07T12:50:16.83Z</time></trkpt><trkpt lat="42.2070933" lon="14.5982017"><ele>15.0</ele><time>2026-04-07T12:50:18.83Z</time></trkpt><trkpt lat="42.2071517" lon="14.5980717"><ele>15.0</ele><time>2026-04-07T12:50:20.83Z</time></trkpt><trkpt lat="42.2071833" lon="14.59799"><ele>15.0</ele><time>2026-04-07T12:50:21.83Z</time></trkpt><trkpt lat="42.207215" lon="14.5979033"><ele>15.0</ele><time>2026-04-07T12:50:22.831Z</time></trkpt><trkpt lat="42.2072483" lon="14.59782"><ele>15.0</ele><time>2026-04-07T12:50:23.83Z</time></trkpt><trkpt lat="42.2073133" lon="14.597685"><ele>15.0</ele><time>2026-04-07T12:50:25.83Z</time></trkpt><trkpt lat="42.2073483" lon="14.597605"><ele>14.8</ele><time>2026-04-07T12:50:26.83Z</time></trkpt><trkpt lat="42.207395" lon="14.5974717"><ele>14.6</ele><time>2026-04-07T12:50:28.83Z</time></trkpt><trkpt lat="42.2074467" lon="14.5973517"><ele>14.399999999999999</ele><time>2026-04-07T12:50:30.831Z</time></trkpt><trkpt lat="42.2075067" lon="14.597235"><ele>14.2</ele><time>2026-04-07T12:50:32.83Z</time></trkpt><trkpt lat="42.2075583" lon="14.5970983"><ele>14.0</ele><time>2026-04-07T12:50:34.83Z</time></trkpt><trkpt lat="42.2075933" lon="14.5969433"><ele>14.0</ele><time>2026-04-07T12:50:36.83Z</time></trkpt><trkpt lat="42.2076467" lon="14.596805"><ele>14.0</ele><time>2026-04-07T12:50:38.83Z</time></trkpt><trkpt lat="42.2077083" lon="14.59668"><ele>14.0</ele><time>2026-04-07T12:50:40.83Z</time></trkpt><trkpt lat="42.2077733" lon="14.59655"><ele>14.0</ele><time>2026-04-07T12:50:42.83Z</time></trkpt><trkpt lat="42.2078333" lon="14.5964167"><ele>14.0</ele><time>2026-04-07T12:50:44.83Z</time></trkpt><trkpt lat="42.2078933" lon="14.59628"><ele>14.0</ele><time>2026-04-07T12:50:46.83Z</time></trkpt><trkpt lat="42.2079533" lon="14.5961417"><ele>14.0</ele><time>2026-04-07T12:50:48.83Z</time></trkpt><trkpt lat="42.2080117" lon="14.5960167"><ele>14.0</ele><time>2026-04-07T12:50:50.83Z</time></trkpt><trkpt lat="42.2080717" lon="14.5958883"><ele>15.0</ele><time>2026-04-07T12:50:52.83Z</time></trkpt><trkpt lat="42.208135" lon="14.59576"><ele>16.0</ele><time>2026-04-07T12:50:54.83Z</time></trkpt><trkpt lat="42.2082" lon="14.5956317"><ele>17.0</ele><time>2026-04-07T12:50:56.83Z</time></trkpt><trkpt lat="42.2082633" lon="14.5955"><ele>18.0</ele><time>2026-04-07T12:50:58.83Z</time></trkpt><trkpt lat="42.2083333" lon="14.5953717"><ele>17.0</ele><time>2026-04-07T12:51:00.83Z</time></trkpt><trkpt lat="42.2083983" lon="14.5952483"><ele>16.0</ele><time>2026-04-07T12:51:02.831Z</time></trkpt><trkpt lat="42.2084683" lon="14.5951117"><ele>15.0</ele><time>2026-04-07T12:51:04.83Z</time></trkpt><trkpt lat="42.2085383" lon="14.5949867"><ele>14.0</ele><time>2026-04-07T12:51:06.83Z</time></trkpt><trkpt lat="42.2086083" lon="14.5948583"><ele>14.0</ele><time>2026-04-07T12:51:08.83Z</time></trkpt><trkpt lat="42.2086767" lon="14.5947333"><ele>14.0</ele><time>2026-04-07T12:51:10.83Z</time></trkpt><trkpt lat="42.2087567" lon="14.5946117"><ele>14.0</ele><time>2026-04-07T12:51:12.83Z</time></trkpt><trkpt lat="42.2088317" lon="14.5944883"><ele>14.0</ele><time>2026-04-07T12:51:14.83Z</time></trkpt><trkpt lat="42.2089117" lon="14.594365"><ele>14.799999999999999</ele><time>2026-04-07T12:51:16.83Z</time></trkpt><trkpt lat="42.208985" lon="14.5942517"><ele>15.599999999999998</ele><time>2026-04-07T12:51:18.83Z</time></trkpt><trkpt lat="42.2090533" lon="14.5941383"><ele>16.4</ele><time>2026-04-07T12:51:20.83Z</time></trkpt><trkpt lat="42.2091283" lon="14.5940183"><ele>17.2</ele><time>2026-04-07T12:51:22.83Z</time></trkpt><trkpt lat="42.2091983" lon="14.5939033"><ele>18.0</ele><time>2026-04-07T12:51:24.83Z</time></trkpt><trkpt lat="42.20927" lon="14.5937783"><ele>17.0</ele><time>2026-04-07T12:51:26.83Z</time></trkpt><trkpt lat="42.2093433" lon="14.5936533"><ele>16.0</ele><time>2026-04-07T12:51:28.83Z</time></trkpt><trkpt lat="42.2094167" lon="14.59353"><ele>15.0</ele><time>2026-04-07T12:51:30.83Z</time></trkpt><trkpt lat="42.2094833" lon="14.59341"><ele>14.0</ele><time>2026-04-07T12:51:32.83Z</time></trkpt><trkpt lat="42.2095367" lon="14.5932983"><ele>13.0</ele><time>2026-04-07T12:51:34.83Z</time></trkpt><trkpt lat="42.2096" lon="14.5931783"><ele>13.0</ele><time>2026-04-07T12:51:36.831Z</time></trkpt><trkpt lat="42.2096667" lon="14.593065"><ele>13.0</ele><time>2026-04-07T12:51:38.83Z</time></trkpt><trkpt lat="42.209745" lon="14.592945"><ele>13.0</ele><time>2026-04-07T12:51:40.83Z</time></trkpt><trkpt lat="42.2098117" lon="14.5928167"><ele>13.0</ele><time>2026-04-07T12:51:42.83Z</time></trkpt><trkpt lat="42.2098833" lon="14.5926883"><ele>11.5</ele><time>2026-04-07T12:51:44.83Z</time></trkpt><trkpt lat="42.209955" lon="14.5925667"><ele>10.0</ele><time>2026-04-07T12:51:46.83Z</time></trkpt><trkpt lat="42.2100267" lon="14.59243"><ele>8.5</ele><time>2026-04-07T12:51:48.83Z</time></trkpt><trkpt lat="42.2100917" lon="14.5923"><ele>7.0</ele><time>2026-04-07T12:51:50.83Z</time></trkpt><trkpt lat="42.210155" lon="14.592165"><ele>7.0</ele><time>2026-04-07T12:51:52.83Z</time></trkpt><trkpt lat="42.21021" lon="14.5920383"><ele>7.0</ele><time>2026-04-07T12:51:54.83Z</time></trkpt><trkpt lat="42.21027" lon="14.5918983"><ele>7.0</ele><time>2026-04-07T12:51:56.831Z</time></trkpt><trkpt lat="42.2103333" lon="14.5917683"><ele>7.0</ele><time>2026-04-07T12:51:58.83Z</time></trkpt><trkpt lat="42.21039" lon="14.591645"><ele>9.0</ele><time>2026-04-07T12:52:00.83Z</time></trkpt><trkpt lat="42.2104433" lon="14.5915117"><ele>11.0</ele><time>2026-04-07T12:52:02.83Z</time></trkpt><trkpt lat="42.2105033" lon="14.5913733"><ele>13.0</ele><time>2026-04-07T12:52:04.83Z</time></trkpt><trkpt lat="42.21056" lon="14.5912417"><ele>15.0</ele><time>2026-04-07T12:52:06.83Z</time></trkpt><trkpt lat="42.2106167" lon="14.5910983"><ele>12.5</ele><time>2026-04-07T12:52:08.83Z</time></trkpt><trkpt lat="42.2106717" lon="14.5909567"><ele>10.0</ele><time>2026-04-07T12:52:10.83Z</time></trkpt><trkpt lat="42.2107233" lon="14.5908233"><ele>7.5</ele><time>2026-04-07T12:52:12.83Z</time></trkpt><trkpt lat="42.21078" lon="14.5906867"><ele>5.0</ele><time>2026-04-07T12:52:14.83Z</time></trkpt><trkpt lat="42.2108333" lon="14.5905483"><ele>5.0</ele><time>2026-04-07T12:52:16.83Z</time></trkpt><trkpt lat="42.2108867" lon="14.5904067"><ele>5.0</ele><time>2026-04-07T12:52:18.83Z</time></trkpt><trkpt lat="42.21094" lon="14.5902767"><ele>5.0</ele><time>2026-04-07T12:52:20.83Z</time></trkpt><trkpt lat="42.21099" lon="14.5901383"><ele>5.0</ele><time>2026-04-07T12:52:22.83Z</time></trkpt><trkpt lat="42.2110367" lon="14.5900033"><ele>6.8</ele><time>2026-04-07T12:52:24.83Z</time></trkpt><trkpt lat="42.2110867" lon="14.58988"><ele>8.6</ele><time>2026-04-07T12:52:26.831Z</time></trkpt><trkpt lat="42.2111317" lon="14.58977"><ele>10.399999999999999</ele><time>2026-04-07T12:52:28.83Z</time></trkpt><trkpt lat="42.211185" lon="14.5896533"><ele>12.2</ele><time>2026-04-07T12:52:30.83Z</time></trkpt><trkpt lat="42.21124" lon="14.5895267"><ele>14.0</ele><time>2026-04-07T12:52:32.83Z</time></trkpt><trkpt lat="42.2113017" lon="14.5893917"><ele>12.25</ele><time>2026-04-07T12:52:34.83Z</time></trkpt><trkpt lat="42.2113633" lon="14.5892583"><ele>10.5</ele><time>2026-04-07T12:52:36.831Z</time></trkpt><trkpt lat="42.2114233" lon="14.5891233"><ele>8.75</ele><time>2026-04-07T12:52:38.831Z</time></trkpt><trkpt lat="42.211475" lon="14.5889867"><ele>7.0</ele><time>2026-04-07T12:52:40.83Z</time></trkpt><trkpt lat="42.211535" lon="14.5888583"><ele>7.0</ele><time>2026-04-07T12:52:42.83Z</time></trkpt><trkpt lat="42.2115667" lon="14.5887833"><ele>6.999999999999999</ele><time>2026-04-07T12:52:43.83Z</time></trkpt><trkpt lat="42.211625" lon="14.58865"><ele>6.999999999999999</ele><time>2026-04-07T12:52:45.83Z</time></trkpt><trkpt lat="42.211685" lon="14.5885267"><ele>7.0</ele><time>2026-04-07T12:52:47.83Z</time></trkpt><trkpt lat="42.2117433" lon="14.5884067"><ele>7.0</ele><time>2026-04-07T12:52:49.83Z</time></trkpt><trkpt lat="42.211805" lon="14.5882833"><ele>9.0</ele><time>2026-04-07T12:52:51.831Z</time></trkpt><trkpt lat="42.21186" lon="14.5881483"><ele>11.0</ele><time>2026-04-07T12:52:53.83Z</time></trkpt><trkpt lat="42.2119233" lon="14.5880317"><ele>13.0</ele><time>2026-04-07T12:52:55.831Z</time></trkpt><trkpt lat="42.211985" lon="14.5879017"><ele>15.0</ele><time>2026-04-07T12:52:57.83Z</time></trkpt><trkpt lat="42.212045" lon="14.5877617"><ele>16.25</ele><time>2026-04-07T12:52:59.83Z</time></trkpt><trkpt lat="42.2121067" lon="14.58763"><ele>17.5</ele><time>2026-04-07T12:53:01.831Z</time></trkpt><trkpt lat="42.2121767" lon="14.5874967"><ele>18.75</ele><time>2026-04-07T12:53:03.83Z</time></trkpt><trkpt lat="42.2122417" lon="14.5873517"><ele>20.0</ele><time>2026-04-07T12:53:05.83Z</time></trkpt><trkpt lat="42.2123017" lon="14.5872283"><ele>17.25</ele><time>2026-04-07T12:53:07.83Z</time></trkpt><trkpt lat="42.2123633" lon="14.5871117"><ele>14.5</ele><time>2026-04-07T12:53:09.831Z</time></trkpt><trkpt lat="42.2124233" lon="14.586975"><ele>11.75</ele><time>2026-04-07T12:53:11.83Z</time></trkpt><trkpt lat="42.2124917" lon="14.58685"><ele>9.0</ele><time>2026-04-07T12:53:13.83Z</time></trkpt><trkpt lat="42.212555" lon="14.5867117"><ele>9.0</ele><time>2026-04-07T12:53:15.83Z</time></trkpt><trkpt lat="42.21262" lon="14.5865817"><ele>9.0</ele><time>2026-04-07T12:53:17.831Z</time></trkpt><trkpt lat="42.2126817" lon="14.5864533"><ele>9.0</ele><time>2026-04-07T12:53:19.83Z</time></trkpt><trkpt lat="42.2127517" lon="14.58632"><ele>9.0</ele><time>2026-04-07T12:53:21.83Z</time></trkpt><trkpt lat="42.2128167" lon="14.58619"><ele>10.4</ele><time>2026-04-07T12:53:23.83Z</time></trkpt><trkpt lat="42.2128783" lon="14.586065"><ele>11.8</ele><time>2026-04-07T12:53:25.83Z</time></trkpt><trkpt lat="42.212935" lon="14.58594"><ele>13.200000000000001</ele><time>2026-04-07T12:53:27.83Z</time></trkpt><trkpt lat="42.2129967" lon="14.5858117"><ele>14.600000000000001</ele><time>2026-04-07T12:53:29.83Z</time></trkpt><trkpt lat="42.21306" lon="14.5856833"><ele>16.0</ele><time>2026-04-07T12:53:31.83Z</time></trkpt><trkpt lat="42.2131267" lon="14.5855483"><ele>15.0</ele><time>2026-04-07T12:53:33.83Z</time></trkpt><trkpt lat="42.21319" lon="14.5854217"><ele>14.0</ele><time>2026-04-07T12:53:35.83Z</time></trkpt><trkpt lat="42.2132483" lon="14.58529"><ele>13.0</ele><time>2026-04-07T12:53:37.831Z</time></trkpt><trkpt lat="42.2133133" lon="14.5851683"><ele>12.0</ele><time>2026-04-07T12:53:39.83Z</time></trkpt><trkpt lat="42.21338" lon="14.5850433"><ele>12.0</ele><time>2026-04-07T12:53:41.831Z</time></trkpt><trkpt lat="42.2134533" lon="14.58491"><ele>12.0</ele><time>2026-04-07T12:53:43.83Z</time></trkpt><trkpt lat="42.213525" lon="14.58479"><ele>12.0</ele><time>2026-04-07T12:53:45.831Z</time></trkpt><trkpt lat="42.2136017" lon="14.5846667"><ele>12.0</ele><time>2026-04-07T12:53:47.83Z</time></trkpt><trkpt lat="42.2136733" lon="14.58454"><ele>14.5</ele><time>2026-04-07T12:53:49.83Z</time></trkpt><trkpt lat="42.2137483" lon="14.5844183"><ele>17.0</ele><time>2026-04-07T12:53:51.83Z</time></trkpt><trkpt lat="42.21382" lon="14.584305"><ele>19.5</ele><time>2026-04-07T12:53:53.83Z</time></trkpt><trkpt lat="42.2139" lon="14.5841867"><ele>22.0</ele><time>2026-04-07T12:53:55.83Z</time></trkpt><trkpt lat="42.2139733" lon="14.5840667"><ele>20.6</ele><time>2026-04-07T12:53:57.83Z</time></trkpt><trkpt lat="42.214045" lon="14.5839533"><ele>19.200000000000003</ele><time>2026-04-07T12:53:59.831Z</time></trkpt><trkpt lat="42.21412" lon="14.58385"><ele>17.8</ele><time>2026-04-07T12:54:01.83Z</time></trkpt><trkpt lat="42.2141933" lon="14.58374"><ele>16.4</ele><time>2026-04-07T12:54:03.831Z</time></trkpt><trkpt lat="42.2142617" lon="14.583625"><ele>15.0</ele><time>2026-04-07T12:54:05.83Z</time></trkpt><trkpt lat="42.2143283" lon="14.5835217"><ele>15.0</ele><time>2026-04-07T12:54:07.83Z</time></trkpt><trkpt lat="42.2143883" lon="14.583425"><ele>15.0</ele><time>2026-04-07T12:54:09.83Z</time></trkpt><trkpt lat="42.2144467" lon="14.58334"><ele>15.0</ele><time>2026-04-07T12:54:11.83Z</time></trkpt><trkpt lat="42.2144967" lon="14.5832567"><ele>15.0</ele><time>2026-04-07T12:54:13.83Z</time></trkpt><trkpt lat="42.2145417" lon="14.58317"><ele>15.0</ele><time>2026-04-07T12:54:15.83Z</time></trkpt><trkpt lat="42.214595" lon="14.5830783"><ele>15.0</ele><time>2026-04-07T12:54:17.83Z</time></trkpt><trkpt lat="42.2146467" lon="14.5829867"><ele>15.0</ele><time>2026-04-07T12:54:19.83Z</time></trkpt><trkpt lat="42.214705" lon="14.5828833"><ele>15.0</ele><time>2026-04-07T12:54:21.83Z</time></trkpt><trkpt lat="42.21476" lon="14.5827933"><ele>15.0</ele><time>2026-04-07T12:54:23.83Z</time></trkpt><trkpt lat="42.2148117" lon="14.5827"><ele>15.0</ele><time>2026-04-07T12:54:25.83Z</time></trkpt><trkpt lat="42.2148667" lon="14.5826133"><ele>15.0</ele><time>2026-04-07T12:54:27.83Z</time></trkpt><trkpt lat="42.2149" lon="14.58251"><ele>15.0</ele><time>2026-04-07T12:54:29.83Z</time></trkpt><trkpt lat="42.2149317" lon="14.58241"><ele>14.833333333333334</ele><time>2026-04-07T12:54:31.83Z</time></trkpt><trkpt lat="42.21497" lon="14.582335"><ele>14.666666666666668</ele><time>2026-04-07T12:54:33.831Z</time></trkpt><trkpt lat="42.2150267" lon="14.58227"><ele>14.5</ele><time>2026-04-07T12:54:36.83Z</time></trkpt><trkpt lat="42.215075" lon="14.5821617"><ele>14.333333333333334</ele><time>2026-04-07T12:54:39.83Z</time></trkpt><trkpt lat="42.2151133" lon="14.58207"><ele>14.166666666666668</ele><time>2026-04-07T12:54:41.83Z</time></trkpt><trkpt lat="42.2151517" lon="14.5819767"><ele>14.0</ele><time>2026-04-07T12:54:43.83Z</time></trkpt><trkpt lat="42.2151933" lon="14.5819"><ele>14.0</ele><time>2026-04-07T12:54:45.831Z</time></trkpt><trkpt lat="42.2152483" lon="14.5818217"><ele>13.999999999999998</ele><time>2026-04-07T12:54:47.83Z</time></trkpt><trkpt lat="42.215305" lon="14.5817133"><ele>13.999999999999998</ele><time>2026-04-07T12:54:49.83Z</time></trkpt><trkpt lat="42.2153633" lon="14.581605"><ele>14.0</ele><time>2026-04-07T12:54:51.83Z</time></trkpt><trkpt lat="42.215415" lon="14.5815"><ele>14.0</ele><time>2026-04-07T12:54:53.83Z</time></trkpt><trkpt lat="42.2154583" lon="14.5813967"><ele>14.0</ele><time>2026-04-07T12:54:55.83Z</time></trkpt><trkpt lat="42.2155133" lon="14.5812867"><ele>13.999999999999998</ele><time>2026-04-07T12:54:57.83Z</time></trkpt><trkpt lat="42.215565" lon="14.5811683"><ele>13.999999999999998</ele><time>2026-04-07T12:54:59.83Z</time></trkpt><trkpt lat="42.2156083" lon="14.5810567"><ele>14.0</ele><time>2026-04-07T12:55:01.83Z</time></trkpt><trkpt lat="42.2156517" lon="14.5809633"><ele>14.0</ele><time>2026-04-07T12:55:03.83Z</time></trkpt><trkpt lat="42.2156933" lon="14.5808667"><ele>14.000000000000002</ele><time>2026-04-07T12:55:05.83Z</time></trkpt><trkpt lat="42.2157183" lon="14.5807817"><ele>14.0</ele><time>2026-04-07T12:55:07.83Z</time></trkpt><trkpt lat="42.2157483" lon="14.5807"><ele>14.0</ele><time>2026-04-07T12:55:09.83Z</time></trkpt><trkpt lat="42.2157967" lon="14.5806117"><ele>14.0</ele><time>2026-04-07T12:55:11.83Z</time></trkpt><trkpt lat="42.2158417" lon="14.58051"><ele>14.000000000000002</ele><time>2026-04-07T12:55:13.83Z</time></trkpt><trkpt lat="42.21589" lon="14.5804183"><ele>14.0</ele><time>2026-04-07T12:55:15.83Z</time></trkpt><trkpt lat="42.2159317" lon="14.580325"><ele>14.000000000000002</ele><time>2026-04-07T12:55:17.83Z</time></trkpt><trkpt lat="42.21597" lon="14.580235"><ele>14.0</ele><time>2026-04-07T12:55:19.83Z</time></trkpt><trkpt lat="42.2160117" lon="14.580145"><ele>14.0</ele><time>2026-04-07T12:55:21.83Z</time></trkpt><trkpt lat="42.21606" lon="14.5800433"><ele>14.0</ele><time>2026-04-07T12:55:23.83Z</time></trkpt><trkpt lat="42.2161083" lon="14.579945"><ele>14.000000000000002</ele><time>2026-04-07T12:55:25.83Z</time></trkpt><trkpt lat="42.21615" lon="14.579835"><ele>14.0</ele><time>2026-04-07T12:55:27.83Z</time></trkpt><trkpt lat="42.2161967" lon="14.5797267"><ele>14.0</ele><time>2026-04-07T12:55:29.83Z</time></trkpt><trkpt lat="42.2162367" lon="14.5796183"><ele>13.999999999999998</ele><time>2026-04-07T12:55:31.83Z</time></trkpt><trkpt lat="42.21628" lon="14.5795183"><ele>13.999999999999998</ele><time>2026-04-07T12:55:33.83Z</time></trkpt><trkpt lat="42.21633" lon="14.5794083"><ele>14.0</ele><time>2026-04-07T12:55:35.83Z</time></trkpt><trkpt lat="42.2163783" lon="14.5792983"><ele>14.0</ele><time>2026-04-07T12:55:37.83Z</time></trkpt><trkpt lat="42.2164167" lon="14.5791883"><ele>13.833333333333334</ele><time>2026-04-07T12:55:39.83Z</time></trkpt><trkpt lat="42.216455" lon="14.5790867"><ele>13.666666666666668</ele><time>2026-04-07T12:55:41.831Z</time></trkpt><trkpt lat="42.2164983" lon="14.578995"><ele>13.5</ele><time>2026-04-07T12:55:43.83Z</time></trkpt><trkpt lat="42.2165533" lon="14.5788917"><ele>13.333333333333332</ele><time>2026-04-07T12:55:45.83Z</time></trkpt><trkpt lat="42.2166033" lon="14.5787817"><ele>13.166666666666666</ele><time>2026-04-07T12:55:47.83Z</time></trkpt><trkpt lat="42.216655" lon="14.578685"><ele>13.0</ele><time>2026-04-07T12:55:49.83Z</time></trkpt><trkpt lat="42.216705" lon="14.5785933"><ele>12.999999999999998</ele><time>2026-04-07T12:55:51.83Z</time></trkpt><trkpt lat="42.2167433" lon="14.5784967"><ele>13.0</ele><time>2026-04-07T12:55:53.83Z</time></trkpt><trkpt lat="42.2167883" lon="14.578385"><ele>13.0</ele><time>2026-04-07T12:55:55.83Z</time></trkpt><trkpt lat="42.21683" lon="14.5782833"><ele>13.0</ele><time>2026-04-07T12:55:57.831Z</time></trkpt><trkpt lat="42.2168717" lon="14.5781833"><ele>12.999999999999998</ele><time>2026-04-07T12:55:59.83Z</time></trkpt><trkpt lat="42.2169217" lon="14.578075"><ele>13.0</ele><time>2026-04-07T12:56:01.83Z</time></trkpt><trkpt lat="42.2169583" lon="14.57798"><ele>12.999999999999998</ele><time>2026-04-07T12:56:03.83Z</time></trkpt><trkpt lat="42.2169833" lon="14.5778983"><ele>13.0</ele><time>2026-04-07T12:56:05.83Z</time></trkpt><trkpt lat="42.2170283" lon="14.5777933"><ele>13.0</ele><time>2026-04-07T12:56:08.83Z</time></trkpt><trkpt lat="42.2170583" lon="14.5777"><ele>13.0</ele><time>2026-04-07T12:56:10.831Z</time></trkpt><trkpt lat="42.21711" lon="14.5776017"><ele>12.999999999999998</ele><time>2026-04-07T12:56:12.83Z</time></trkpt><trkpt lat="42.217165" lon="14.5775067"><ele>13.0</ele><time>2026-04-07T12:56:14.83Z</time></trkpt><trkpt lat="42.2172233" lon="14.577405"><ele>12.833333333333332</ele><time>2026-04-07T12:56:16.83Z</time></trkpt><trkpt lat="42.2172683" lon="14.57731"><ele>12.666666666666666</ele><time>2026-04-07T12:56:18.83Z</time></trkpt><trkpt lat="42.217315" lon="14.5772033"><ele>12.5</ele><time>2026-04-07T12:56:20.83Z</time></trkpt><trkpt lat="42.2173633" lon="14.57709"><ele>12.333333333333332</ele><time>2026-04-07T12:56:22.83Z</time></trkpt><trkpt lat="42.21741" lon="14.5769867"><ele>12.166666666666666</ele><time>2026-04-07T12:56:24.83Z</time></trkpt><trkpt lat="42.217445" lon="14.576895"><ele>12.0</ele><time>2026-04-07T12:56:26.83Z</time></trkpt><trkpt lat="42.217495" lon="14.5768067"><ele>11.999999999999998</ele><time>2026-04-07T12:56:28.83Z</time></trkpt><trkpt lat="42.2175383" lon="14.5767183"><ele>12.0</ele><time>2026-04-07T12:56:30.83Z</time></trkpt><trkpt lat="42.2175833" lon="14.5766217"><ele>12.0</ele><time>2026-04-07T12:56:32.83Z</time></trkpt><trkpt lat="42.2176183" lon="14.576545"><ele>12.0</ele><time>2026-04-07T12:56:34.83Z</time></trkpt><trkpt lat="42.21765" lon="14.5764667"><ele>12.0</ele><time>2026-04-07T12:56:36.83Z</time></trkpt><trkpt lat="42.2176883" lon="14.5763783"><ele>11.999999999999998</ele><time>2026-04-07T12:56:38.83Z</time></trkpt><trkpt lat="42.2177283" lon="14.5763"><ele>12.0</ele><time>2026-04-07T12:56:40.83Z</time></trkpt><trkpt lat="42.21776" lon="14.5762233"><ele>12.57142857142857</ele><time>2026-04-07T12:56:42.83Z</time></trkpt><trkpt lat="42.217805" lon="14.576145"><ele>13.142857142857142</ele><time>2026-04-07T12:56:44.83Z</time></trkpt><trkpt lat="42.2178467" lon="14.576065"><ele>13.714285714285714</ele><time>2026-04-07T12:56:46.83Z</time></trkpt><trkpt lat="42.2178883" lon="14.57598"><ele>14.285714285714285</ele><time>2026-04-07T12:56:48.83Z</time></trkpt><trkpt lat="42.2179267" lon="14.5759017"><ele>14.857142857142856</ele><time>2026-04-07T12:56:50.831Z</time></trkpt><trkpt lat="42.2179683" lon="14.5758283"><ele>15.428571428571427</ele><time>2026-04-07T12:56:52.83Z</time></trkpt><trkpt lat="42.2180117" lon="14.5757333"><ele>16.0</ele><time>2026-04-07T12:56:54.831Z</time></trkpt><trkpt lat="42.218055" lon="14.5756367"><ele>15.999999999999998</ele><time>2026-04-07T12:56:56.83Z</time></trkpt><trkpt lat="42.2180917" lon="14.5755467"><ele>16.0</ele><time>2026-04-07T12:56:58.83Z</time></trkpt><trkpt lat="42.218125" lon="14.5754667"><ele>16.0</ele><time>2026-04-07T12:57:00.831Z</time></trkpt><trkpt lat="42.2181733" lon="14.575365"><ele>16.0</ele><time>2026-04-07T12:57:03.83Z</time></trkpt><trkpt lat="42.2182117" lon="14.5752833"><ele>15.999999999999998</ele><time>2026-04-07T12:57:05.83Z</time></trkpt><trkpt lat="42.2182533" lon="14.5751883"><ele>16.0</ele><time>2026-04-07T12:57:08.83Z</time></trkpt><trkpt lat="42.2182467" lon="14.575085"><ele>15.999999999999998</ele><time>2026-04-07T12:57:11.83Z</time></trkpt><trkpt lat="42.2182483" lon="14.57497"><ele>16.0</ele><time>2026-04-07T12:57:14.83Z</time></trkpt><trkpt lat="42.2182433" lon="14.5748717"><ele>16.0</ele><time>2026-04-07T12:57:17.83Z</time></trkpt><trkpt lat="42.218275" lon="14.5747717"><ele>16.0</ele><time>2026-04-07T12:57:21.83Z</time></trkpt><trkpt lat="42.2183067" lon="14.5746883"><ele>15.999999999999998</ele><time>2026-04-07T12:57:24.83Z</time></trkpt><trkpt lat="42.2183567" lon="14.5746017"><ele>16.0</ele><time>2026-04-07T12:57:27.83Z</time></trkpt><trkpt lat="42.218395" lon="14.5745167"><ele>15.999999999999998</ele><time>2026-04-07T12:57:30.83Z</time></trkpt><trkpt lat="42.218445" lon="14.5744317"><ele>16.0</ele><time>2026-04-07T12:57:33.831Z</time></trkpt><trkpt lat="42.2184817" lon="14.57435"><ele>16.0</ele><time>2026-04-07T12:57:36.83Z</time></trkpt><trkpt lat="42.2185367" lon="14.5742667"><ele>16.0</ele><time>2026-04-07T12:57:39.83Z</time></trkpt><trkpt lat="42.2185817" lon="14.574185"><ele>15.999999999999998</ele><time>2026-04-07T12:57:42.83Z</time></trkpt><trkpt lat="42.218635" lon="14.57409"><ele>16.0</ele><time>2026-04-07T12:57:45.831Z</time></trkpt><trkpt lat="42.2186833" lon="14.5740133"><ele>15.999999999999998</ele><time>2026-04-07T12:57:47.831Z</time></trkpt><trkpt lat="42.218715" lon="14.573935"><ele>16.0</ele><time>2026-04-07T12:57:49.83Z</time></trkpt><trkpt lat="42.2187517" lon="14.5738383"><ele>16.0</ele><time>2026-04-07T12:57:52.83Z</time></trkpt><trkpt lat="42.21877" lon="14.573735"><ele>16.0</ele><time>2026-04-07T12:57:56.83Z</time></trkpt><trkpt lat="42.2188" lon="14.5736517"><ele>15.999999999999998</ele><time>2026-04-07T12:58:00.83Z</time></trkpt><trkpt lat="42.2188467" lon="14.5735583"><ele>16.0</ele><time>2026-04-07T12:58:03.83Z</time></trkpt><trkpt lat="42.2188983" lon="14.5734717"><ele>16.428571428571427</ele><time>2026-04-07T12:58:07.83Z</time></trkpt><trkpt lat="42.2189317" lon="14.5733717"><ele>16.857142857142854</ele><time>2026-04-07T12:58:11.831Z</time></trkpt><trkpt lat="42.2189667" lon="14.5733"><ele>17.285714285714285</ele><time>2026-04-07T12:58:14.83Z</time></trkpt><trkpt lat="42.219015" lon="14.5732217"><ele>17.714285714285715</ele><time>2026-04-07T12:58:17.83Z</time></trkpt><trkpt lat="42.21905" lon="14.573135"><ele>18.142857142857146</ele><time>2026-04-07T12:58:20.83Z</time></trkpt><trkpt lat="42.219085" lon="14.573055"><ele>18.57142857142857</ele><time>2026-04-07T12:58:23.83Z</time></trkpt><trkpt lat="42.2191333" lon="14.5729667"><ele>19.0</ele><time>2026-04-07T12:58:26.83Z</time></trkpt><trkpt lat="42.2191833" lon="14.572875"><ele>18.0</ele><time>2026-04-07T12:58:29.831Z</time></trkpt><trkpt lat="42.2192183" lon="14.5728017"><ele>17.0</ele><time>2026-04-07T12:58:31.83Z</time></trkpt><trkpt lat="42.2192533" lon="14.572695"><ele>16.0</ele><time>2026-04-07T12:58:34.83Z</time></trkpt><trkpt lat="42.2192583" lon="14.572595"><ele>15.0</ele><time>2026-04-07T12:58:37.831Z</time></trkpt><trkpt lat="42.21928" lon="14.5724867"><ele>13.999999999999998</ele><time>2026-04-07T12:58:41.83Z</time></trkpt><trkpt lat="42.2193683" lon="14.5724317"><ele>13.0</ele><time>2026-04-07T12:58:44.83Z</time></trkpt><trkpt lat="42.21943" lon="14.5723933"><ele>13.0</ele><time>2026-04-07T12:58:46.83Z</time></trkpt><trkpt lat="42.2194833" lon="14.5722867"><ele>13.0</ele><time>2026-04-07T12:58:49.83Z</time></trkpt><trkpt lat="42.21952" lon="14.57221"><ele>13.0</ele><time>2026-04-07T12:58:52.83Z</time></trkpt><trkpt lat="42.2196567" lon="14.572175"><ele>13.0</ele><time>2026-04-07T12:59:56.83Z</time></trkpt><trkpt lat="42.2196733" lon="14.5720467"><ele>13.0</ele><time>2026-04-07T13:01:00.114Z</time></trkpt><trkpt lat="42.2196733" lon="14.5722183"><ele>12.999999999999998</ele><time>2026-04-07T13:01:01.334Z</time></trkpt><trkpt lat="42.2196317" lon="14.5723067"><ele>13.0</ele><time>2026-04-07T13:01:14.834Z</time></trkpt><trkpt lat="42.2195833" lon="14.5724067"><ele>13.0</ele><time>2026-04-07T13:01:18.834Z</time></trkpt><trkpt lat="42.219535" lon="14.5725"><ele>13.0</ele><time>2026-04-07T13:01:21.834Z</time></trkpt><trkpt lat="42.2194883" lon="14.5725983"><ele>12.999999999999998</ele><time>2026-04-07T13:01:24.834Z</time></trkpt><trkpt lat="42.2194467" lon="14.5726933"><ele>13.0</ele><time>2026-04-07T13:01:27.834Z</time></trkpt><trkpt lat="42.2194067" lon="14.5727917"><ele>12.166666666666666</ele><time>2026-04-07T13:01:30.835Z</time></trkpt><trkpt lat="42.2193617" lon="14.5728867"><ele>11.333333333333332</ele><time>2026-04-07T13:01:33.835Z</time></trkpt><trkpt lat="42.219315" lon="14.57298"><ele>10.5</ele><time>2026-04-07T13:01:36.834Z</time></trkpt><trkpt lat="42.21927" lon="14.5730833"><ele>9.666666666666666</ele><time>2026-04-07T13:01:39.834Z</time></trkpt><trkpt lat="42.2192217" lon="14.573195"><ele>8.833333333333332</ele><time>2026-04-07T13:01:42.834Z</time></trkpt><trkpt lat="42.219175" lon="14.5733"><ele>8.0</ele><time>2026-04-07T13:01:45.834Z</time></trkpt><trkpt lat="42.2191267" lon="14.5734017"><ele>7.999999999999999</ele><time>2026-04-07T13:01:48.834Z</time></trkpt><trkpt lat="42.219085" lon="14.5734833"><ele>8.0</ele><time>2026-04-07T13:01:50.834Z</time></trkpt><trkpt lat="42.2190267" lon="14.5735867"><ele>8.0</ele><time>2026-04-07T13:01:53.834Z</time></trkpt><trkpt lat="42.2189733" lon="14.5736783"><ele>8.0</ele><time>2026-04-07T13:01:56.834Z</time></trkpt><trkpt lat="42.218925" lon="14.5737467"><ele>7.999999999999999</ele><time>2026-04-07T13:01:59.834Z</time></trkpt><trkpt lat="42.2188833" lon="14.5738283"><ele>8.0</ele><time>2026-04-07T13:02:03.834Z</time></trkpt><trkpt lat="42.2188467" lon="14.5738983"><ele>9.333333333333332</ele><time>2026-04-07T13:02:06.835Z</time></trkpt><trkpt lat="42.2188133" lon="14.5739733"><ele>10.666666666666666</ele><time>2026-04-07T13:02:09.834Z</time></trkpt><trkpt lat="42.2187783" lon="14.57405"><ele>12.0</ele><time>2026-04-07T13:02:13.834Z</time></trkpt><trkpt lat="42.218705" lon="14.5741933"><ele>13.333333333333332</ele><time>2026-04-07T13:03:11.834Z</time></trkpt><trkpt lat="42.218755" lon="14.5741267"><ele>14.666666666666666</ele><time>2026-04-07T13:05:06.834Z</time></trkpt><trkpt lat="42.2188" lon="14.57404"><ele>16.0</ele><time>2026-04-07T13:05:10.834Z</time></trkpt><trkpt lat="42.2188333" lon="14.5739633"><ele>16.0</ele><time>2026-04-07T13:05:13.835Z</time></trkpt><trkpt lat="42.218875" lon="14.5738717"><ele>16.0</ele><time>2026-04-07T13:05:16.835Z</time></trkpt><trkpt lat="42.2189317" lon="14.573785"><ele>16.0</ele><time>2026-04-07T13:05:19.835Z</time></trkpt><trkpt lat="42.2189917" lon="14.573695"><ele>16.0</ele><time>2026-04-07T13:05:21.834Z</time></trkpt><trkpt lat="42.2190567" lon="14.5735883"><ele>16.0</ele><time>2026-04-07T13:05:23.834Z</time></trkpt><trkpt lat="42.2191167" lon="14.57348"><ele>14.666666666666666</ele><time>2026-04-07T13:05:25.834Z</time></trkpt><trkpt lat="42.2191617" lon="14.5733733"><ele>13.333333333333332</ele><time>2026-04-07T13:05:27.834Z</time></trkpt><trkpt lat="42.2192033" lon="14.5732767"><ele>12.0</ele><time>2026-04-07T13:05:29.834Z</time></trkpt><trkpt lat="42.21924" lon="14.5731883"><ele>10.666666666666666</ele><time>2026-04-07T13:05:31.834Z</time></trkpt><trkpt lat="42.2192733" lon="14.5731033"><ele>9.333333333333332</ele><time>2026-04-07T13:05:33.834Z</time></trkpt><trkpt lat="42.2193067" lon="14.57303"><ele>8.0</ele><time>2026-04-07T13:05:35.834Z</time></trkpt><trkpt lat="42.2193467" lon="14.572945"><ele>7.999999999999999</ele><time>2026-04-07T13:05:37.834Z</time></trkpt><trkpt lat="42.2193867" lon="14.5728583"><ele>8.0</ele><time>2026-04-07T13:05:39.834Z</time></trkpt><trkpt lat="42.2194233" lon="14.57277"><ele>8.0</ele><time>2026-04-07T13:05:41.834Z</time></trkpt><trkpt lat="42.2194633" lon="14.5726867"><ele>8.0</ele><time>2026-04-07T13:05:43.834Z</time></trkpt><trkpt lat="42.2195067" lon="14.5726"><ele>7.999999999999999</ele><time>2026-04-07T13:05:45.834Z</time></trkpt><trkpt lat="42.2195433" lon="14.5725133"><ele>8.0</ele><time>2026-04-07T13:05:47.835Z</time></trkpt><trkpt lat="42.2195833" lon="14.5724217"><ele>7.857142857142857</ele><time>2026-04-07T13:05:49.835Z</time></trkpt><trkpt lat="42.2196233" lon="14.572335"><ele>7.7142857142857135</ele><time>2026-04-07T13:05:51.835Z</time></trkpt><trkpt lat="42.2196717" lon="14.5722533"><ele>7.571428571428571</ele><time>2026-04-07T13:05:53.834Z</time></trkpt><trkpt lat="42.2197117" lon="14.5721717"><ele>7.428571428571429</ele><time>2026-04-07T13:05:55.835Z</time></trkpt><trkpt lat="42.2197533" lon="14.5720817"><ele>7.285714285714286</ele><time>2026-04-07T13:05:57.834Z</time></trkpt><trkpt lat="42.2197917" lon="14.5720017"><ele>7.142857142857142</ele><time>2026-04-07T13:05:59.834Z</time></trkpt><trkpt lat="42.2198317" lon="14.5719167"><ele>7.0</ele><time>2026-04-07T13:06:01.835Z</time></trkpt><trkpt lat="42.2198717" lon="14.57183"><ele>7.0</ele><time>2026-04-07T13:06:03.834Z</time></trkpt><trkpt lat="42.2199067" lon="14.5717483"><ele>7.0</ele><time>2026-04-07T13:06:05.835Z</time></trkpt><trkpt lat="42.2199417" lon="14.5716683"><ele>7.0</ele><time>2026-04-07T13:06:07.834Z</time></trkpt><trkpt lat="42.219975" lon="14.5715833"><ele>7.0</ele><time>2026-04-07T13:06:09.834Z</time></trkpt><trkpt lat="42.2200083" lon="14.571505"><ele>7.0</ele><time>2026-04-07T13:06:11.835Z</time></trkpt><trkpt lat="42.2200417" lon="14.5714217"><ele>7.0</ele><time>2026-04-07T13:06:13.835Z</time></trkpt><trkpt lat="42.22007" lon="14.57133"><ele>7.0</ele><time>2026-04-07T13:06:15.834Z</time></trkpt><trkpt lat="42.2201" lon="14.5712417"><ele>7.857142857142858</ele><time>2026-04-07T13:06:17.834Z</time></trkpt><trkpt lat="42.220135" lon="14.571155"><ele>8.714285714285715</ele><time>2026-04-07T13:06:19.834Z</time></trkpt><trkpt lat="42.2201733" lon="14.5710717"><ele>9.571428571428571</ele><time>2026-04-07T13:06:21.834Z</time></trkpt><trkpt lat="42.2202033" lon="14.5709833"><ele>10.428571428571429</ele><time>2026-04-07T13:06:23.834Z</time></trkpt><trkpt lat="42.2202283" lon="14.5708933"><ele>11.285714285714286</ele><time>2026-04-07T13:06:25.835Z</time></trkpt><trkpt lat="42.2202633" lon="14.5708067"><ele>12.142857142857142</ele><time>2026-04-07T13:06:27.834Z</time></trkpt><trkpt lat="42.2203017" lon="14.570715"><ele>13.0</ele><time>2026-04-07T13:06:29.835Z</time></trkpt><trkpt lat="42.2203433" lon="14.570615"><ele>12.999999999999998</ele><time>2026-04-07T13:06:31.834Z</time></trkpt><trkpt lat="42.2203833" lon="14.5705083"><ele>13.0</ele><time>2026-04-07T13:06:33.834Z</time></trkpt><trkpt lat="42.22042" lon="14.5703983"><ele>13.0</ele><time>2026-04-07T13:06:35.834Z</time></trkpt><trkpt lat="42.2204533" lon="14.5702983"><ele>13.0</ele><time>2026-04-07T13:06:37.834Z</time></trkpt><trkpt lat="42.22049" lon="14.57019"><ele>12.999999999999998</ele><time>2026-04-07T13:06:39.834Z</time></trkpt><trkpt lat="42.220525" lon="14.570085"><ele>13.0</ele><time>2026-04-07T13:06:41.834Z</time></trkpt><trkpt lat="42.220545" lon="14.5699783"><ele>12.499999999999998</ele><time>2026-04-07T13:06:43.835Z</time></trkpt><trkpt lat="42.2205733" lon="14.5698767"><ele>12.0</ele><time>2026-04-07T13:06:45.834Z</time></trkpt><trkpt lat="42.22061" lon="14.5697717"><ele>11.5</ele><time>2026-04-07T13:06:47.834Z</time></trkpt><trkpt lat="42.2206517" lon="14.5696683"><ele>11.0</ele><time>2026-04-07T13:06:49.835Z</time></trkpt><trkpt lat="42.2206883" lon="14.5695583"><ele>10.5</ele><time>2026-04-07T13:06:51.834Z</time></trkpt><trkpt lat="42.22072" lon="14.56945"><ele>10.0</ele><time>2026-04-07T13:06:53.834Z</time></trkpt><trkpt lat="42.220755" lon="14.569345"><ele>10.0</ele><time>2026-04-07T13:06:55.834Z</time></trkpt><trkpt lat="42.2207933" lon="14.56924"><ele>10.0</ele><time>2026-04-07T13:06:57.834Z</time></trkpt><trkpt lat="42.2208367" lon="14.5691267"><ele>10.0</ele><time>2026-04-07T13:06:59.834Z</time></trkpt><trkpt lat="42.2208767" lon="14.569015"><ele>10.0</ele><time>2026-04-07T13:07:01.834Z</time></trkpt><trkpt lat="42.2209167" lon="14.568915"><ele>10.0</ele><time>2026-04-07T13:07:03.834Z</time></trkpt><trkpt lat="42.220955" lon="14.5688167"><ele>10.0</ele><time>2026-04-07T13:07:05.834Z</time></trkpt><trkpt lat="42.2209983" lon="14.56872"><ele>10.5</ele><time>2026-04-07T13:07:07.834Z</time></trkpt><trkpt lat="42.221035" lon="14.5686183"><ele>11.0</ele><time>2026-04-07T13:07:09.834Z</time></trkpt><trkpt lat="42.22108" lon="14.56851"><ele>11.5</ele><time>2026-04-07T13:07:11.835Z</time></trkpt><trkpt lat="42.2211267" lon="14.568405"><ele>12.0</ele><time>2026-04-07T13:07:13.834Z</time></trkpt><trkpt lat="42.2211717" lon="14.5683"><ele>12.499999999999998</ele><time>2026-04-07T13:07:15.834Z</time></trkpt><trkpt lat="42.2212167" lon="14.5682083"><ele>13.0</ele><time>2026-04-07T13:07:17.834Z</time></trkpt><trkpt lat="42.22126" lon="14.5681167"><ele>12.999999999999998</ele><time>2026-04-07T13:07:19.834Z</time></trkpt><trkpt lat="42.221295" lon="14.5680217"><ele>13.0</ele><time>2026-04-07T13:07:21.834Z</time></trkpt><trkpt lat="42.22133" lon="14.56792"><ele>13.0</ele><time>2026-04-07T13:07:23.834Z</time></trkpt><trkpt lat="42.2213717" lon="14.5678183"><ele>13.0</ele><time>2026-04-07T13:07:25.834Z</time></trkpt><trkpt lat="42.221415" lon="14.5677167"><ele>12.999999999999998</ele><time>2026-04-07T13:07:27.835Z</time></trkpt><trkpt lat="42.2214567" lon="14.5676133"><ele>13.0</ele><time>2026-04-07T13:07:29.834Z</time></trkpt><trkpt lat="42.2214917" lon="14.5675267"><ele>12.166666666666666</ele><time>2026-04-07T13:07:31.834Z</time></trkpt><trkpt lat="42.2215333" lon="14.567435"><ele>11.333333333333332</ele><time>2026-04-07T13:07:33.834Z</time></trkpt><trkpt lat="42.221585" lon="14.5673433"><ele>10.5</ele><time>2026-04-07T13:07:35.834Z</time></trkpt><trkpt lat="42.221635" lon="14.56725"><ele>9.666666666666666</ele><time>2026-04-07T13:07:37.834Z</time></trkpt><trkpt lat="42.2216817" lon="14.567155"><ele>8.833333333333332</ele><time>2026-04-07T13:07:39.834Z</time></trkpt><trkpt lat="42.22173" lon="14.5670617"><ele>8.0</ele><time>2026-04-07T13:07:41.834Z</time></trkpt><trkpt lat="42.2217767" lon="14.5669717"><ele>7.999999999999999</ele><time>2026-04-07T13:07:43.834Z</time></trkpt><trkpt lat="42.2218183" lon="14.5668767"><ele>8.0</ele><time>2026-04-07T13:07:45.834Z</time></trkpt><trkpt lat="42.2218617" lon="14.5667833"><ele>8.0</ele><time>2026-04-07T13:07:47.834Z</time></trkpt><trkpt lat="42.221905" lon="14.5666783"><ele>8.0</ele><time>2026-04-07T13:07:49.834Z</time></trkpt><trkpt lat="42.2219483" lon="14.5665783"><ele>7.999999999999999</ele><time>2026-04-07T13:07:51.834Z</time></trkpt><trkpt lat="42.2219933" lon="14.56647"><ele>8.0</ele><time>2026-04-07T13:07:53.835Z</time></trkpt><trkpt lat="42.22204" lon="14.566365"><ele>7.999999999999999</ele><time>2026-04-07T13:07:55.835Z</time></trkpt><trkpt lat="42.2220883" lon="14.5662633"><ele>8.0</ele><time>2026-04-07T13:07:57.834Z</time></trkpt><trkpt lat="42.222135" lon="14.5661583"><ele>8.0</ele><time>2026-04-07T13:07:59.834Z</time></trkpt><trkpt lat="42.2221817" lon="14.5660533"><ele>8.0</ele><time>2026-04-07T13:08:01.834Z</time></trkpt><trkpt lat="42.2222283" lon="14.56595"><ele>7.999999999999999</ele><time>2026-04-07T13:08:03.835Z</time></trkpt><trkpt lat="42.2222783" lon="14.5658517"><ele>8.0</ele><time>2026-04-07T13:08:05.834Z</time></trkpt><trkpt lat="42.22233" lon="14.5657567"><ele>7.499999999999999</ele><time>2026-04-07T13:08:07.834Z</time></trkpt><trkpt lat="42.2223783" lon="14.5656583"><ele>7.0</ele><time>2026-04-07T13:08:09.834Z</time></trkpt><trkpt lat="42.2224283" lon="14.5655633"><ele>6.5</ele><time>2026-04-07T13:08:11.834Z</time></trkpt><trkpt lat="42.2224783" lon="14.565465"><ele>6.0</ele><time>2026-04-07T13:08:13.834Z</time></trkpt><trkpt lat="42.2225283" lon="14.5653583"><ele>5.5</ele><time>2026-04-07T13:08:15.834Z</time></trkpt><trkpt lat="42.2225767" lon="14.5652567"><ele>5.0</ele><time>2026-04-07T13:08:17.834Z</time></trkpt><trkpt lat="42.222625" lon="14.5651567"><ele>6.8</ele><time>2026-04-07T13:08:19.834Z</time></trkpt><trkpt lat="42.2226767" lon="14.5650583"><ele>8.6</ele><time>2026-04-07T13:08:21.834Z</time></trkpt><trkpt lat="42.2227167" lon="14.5649483"><ele>10.399999999999999</ele><time>2026-04-07T13:08:23.835Z</time></trkpt><trkpt lat="42.222765" lon="14.5648383"><ele>12.2</ele><time>2026-04-07T13:08:25.835Z</time></trkpt><trkpt lat="42.2228117" lon="14.5647367"><ele>14.0</ele><time>2026-04-07T13:08:27.835Z</time></trkpt><trkpt lat="42.22286" lon="14.5646383"><ele>14.000000000000002</ele><time>2026-04-07T13:08:29.834Z</time></trkpt><trkpt lat="42.222905" lon="14.5645517"><ele>14.0</ele><time>2026-04-07T13:08:31.834Z</time></trkpt><trkpt lat="42.2229533" lon="14.5644533"><ele>14.0</ele><time>2026-04-07T13:08:33.834Z</time></trkpt><trkpt lat="42.223005" lon="14.564345"><ele>14.0</ele><time>2026-04-07T13:08:35.834Z</time></trkpt><trkpt lat="42.2230567" lon="14.5642383"><ele>14.000000000000002</ele><time>2026-04-07T13:08:37.834Z</time></trkpt><trkpt lat="42.223105" lon="14.5641417"><ele>14.0</ele><time>2026-04-07T13:08:39.834Z</time></trkpt><trkpt lat="42.2231517" lon="14.56405"><ele>13.166666666666668</ele><time>2026-04-07T13:08:41.834Z</time></trkpt><trkpt lat="42.2231983" lon="14.5639517"><ele>12.333333333333334</ele><time>2026-04-07T13:08:43.834Z</time></trkpt><trkpt lat="42.2232417" lon="14.5638517"><ele>11.5</ele><time>2026-04-07T13:08:45.834Z</time></trkpt><trkpt lat="42.2232883" lon="14.5637583"><ele>10.666666666666668</ele><time>2026-04-07T13:08:47.834Z</time></trkpt><trkpt lat="42.2233417" lon="14.5636683"><ele>9.833333333333334</ele><time>2026-04-07T13:08:49.834Z</time></trkpt><trkpt lat="42.223395" lon="14.5635633"><ele>9.0</ele><time>2026-04-07T13:08:51.834Z</time></trkpt><trkpt lat="42.2234467" lon="14.5634567"><ele>9.0</ele><time>2026-04-07T13:08:53.834Z</time></trkpt><trkpt lat="42.2234933" lon="14.5633483"><ele>9.0</ele><time>2026-04-07T13:08:55.834Z</time></trkpt><trkpt lat="42.223545" lon="14.5632417"><ele>9.0</ele><time>2026-04-07T13:08:57.834Z</time></trkpt><trkpt lat="42.2235967" lon="14.5631283"><ele>9.0</ele><time>2026-04-07T13:08:59.834Z</time></trkpt><trkpt lat="42.2236483" lon="14.5630233"><ele>9.0</ele><time>2026-04-07T13:09:01.835Z</time></trkpt><trkpt lat="42.2236967" lon="14.5629183"><ele>10.333333333333334</ele><time>2026-04-07T13:09:03.834Z</time></trkpt><trkpt lat="42.2237417" lon="14.5628267"><ele>11.666666666666668</ele><time>2026-04-07T13:09:05.834Z</time></trkpt><trkpt lat="42.2237833" lon="14.5627383"><ele>13.0</ele><time>2026-04-07T13:09:07.835Z</time></trkpt><trkpt lat="42.2238267" lon="14.562635"><ele>14.333333333333334</ele><time>2026-04-07T13:09:09.834Z</time></trkpt><trkpt lat="42.2238767" lon="14.56253"><ele>15.666666666666668</ele><time>2026-04-07T13:09:11.834Z</time></trkpt><trkpt lat="42.2239217" lon="14.5624267"><ele>17.0</ele><time>2026-04-07T13:09:13.834Z</time></trkpt><trkpt lat="42.2239683" lon="14.5623233"><ele>15.333333333333334</ele><time>2026-04-07T13:09:15.835Z</time></trkpt><trkpt lat="42.224015" lon="14.5622217"><ele>13.666666666666668</ele><time>2026-04-07T13:09:17.835Z</time></trkpt><trkpt lat="42.2240633" lon="14.5621233"><ele>12.0</ele><time>2026-04-07T13:09:19.835Z</time></trkpt><trkpt lat="42.2241117" lon="14.5620233"><ele>10.333333333333334</ele><time>2026-04-07T13:09:21.834Z</time></trkpt><trkpt lat="42.2241583" lon="14.5619217"><ele>8.666666666666668</ele><time>2026-04-07T13:09:23.835Z</time></trkpt><trkpt lat="42.2242017" lon="14.5618217"><ele>7.0</ele><time>2026-04-07T13:09:25.834Z</time></trkpt><trkpt lat="42.22425" lon="14.5617233"><ele>7.0</ele><time>2026-04-07T13:09:27.834Z</time></trkpt><trkpt lat="42.224295" lon="14.5616183"><ele>6.999999999999999</ele><time>2026-04-07T13:09:29.834Z</time></trkpt><trkpt lat="42.22434" lon="14.5615083"><ele>6.999999999999999</ele><time>2026-04-07T13:09:31.834Z</time></trkpt><trkpt lat="42.2243883" lon="14.5614033"><ele>7.0</ele><time>2026-04-07T13:09:33.834Z</time></trkpt><trkpt lat="42.2244333" lon="14.5612967"><ele>7.0</ele><time>2026-04-07T13:09:35.834Z</time></trkpt><trkpt lat="42.22448" lon="14.561195"><ele>8.333333333333334</ele><time>2026-04-07T13:09:37.834Z</time></trkpt><trkpt lat="42.2245233" lon="14.5610983"><ele>9.666666666666668</ele><time>2026-04-07T13:09:39.835Z</time></trkpt><trkpt lat="42.224565" lon="14.5610133"><ele>11.0</ele><time>2026-04-07T13:09:41.834Z</time></trkpt><trkpt lat="42.2245983" lon="14.5609333"><ele>12.333333333333334</ele><time>2026-04-07T13:09:43.834Z</time></trkpt><trkpt lat="42.2246483" lon="14.560825"><ele>13.666666666666666</ele><time>2026-04-07T13:09:46.834Z</time></trkpt><trkpt lat="42.2246867" lon="14.5607417"><ele>15.0</ele><time>2026-04-07T13:09:48.834Z</time></trkpt><trkpt lat="42.2247217" lon="14.5606383"><ele>15.0</ele><time>2026-04-07T13:09:50.834Z</time></trkpt><trkpt lat="42.2247617" lon="14.5605233"><ele>15.0</ele><time>2026-04-07T13:09:52.834Z</time></trkpt><trkpt lat="42.2248083" lon="14.5604017"><ele>15.0</ele><time>2026-04-07T13:09:54.834Z</time></trkpt><trkpt lat="42.2248567" lon="14.56026"><ele>15.0</ele><time>2026-04-07T13:09:56.834Z</time></trkpt><trkpt lat="42.224905" lon="14.56013"><ele>15.0</ele><time>2026-04-07T13:09:58.834Z</time></trkpt><trkpt lat="42.22495" lon="14.560005"><ele>13.8</ele><time>2026-04-07T13:10:00.834Z</time></trkpt><trkpt lat="42.2250017" lon="14.5598733"><ele>12.6</ele><time>2026-04-07T13:10:02.834Z</time></trkpt><trkpt lat="42.2250533" lon="14.55973"><ele>11.4</ele><time>2026-04-07T13:10:04.834Z</time></trkpt><trkpt lat="42.2251033" lon="14.5595967"><ele>10.2</ele><time>2026-04-07T13:10:06.835Z</time></trkpt><trkpt lat="42.2251517" lon="14.5594667"><ele>9.0</ele><time>2026-04-07T13:10:08.834Z</time></trkpt><trkpt lat="42.2252017" lon="14.5593283"><ele>9.0</ele><time>2026-04-07T13:10:10.834Z</time></trkpt><trkpt lat="42.22526" lon="14.5591967"><ele>9.0</ele><time>2026-04-07T13:10:12.834Z</time></trkpt><trkpt lat="42.2253167" lon="14.55906"><ele>9.0</ele><time>2026-04-07T13:10:14.834Z</time></trkpt><trkpt lat="42.2253667" lon="14.558925"><ele>9.0</ele><time>2026-04-07T13:10:16.834Z</time></trkpt><trkpt lat="42.2254217" lon="14.558795"><ele>10.0</ele><time>2026-04-07T13:10:18.834Z</time></trkpt><trkpt lat="42.2254767" lon="14.5586617"><ele>11.0</ele><time>2026-04-07T13:10:20.835Z</time></trkpt><trkpt lat="42.2255283" lon="14.5585217"><ele>12.0</ele><time>2026-04-07T13:10:22.834Z</time></trkpt><trkpt lat="42.2255783" lon="14.55838"><ele>13.0</ele><time>2026-04-07T13:10:24.834Z</time></trkpt><trkpt lat="42.2256233" lon="14.5582333"><ele>12.200000000000001</ele><time>2026-04-07T13:10:26.835Z</time></trkpt><trkpt lat="42.22565" lon="14.5581533"><ele>11.4</ele><time>2026-04-07T13:10:27.834Z</time></trkpt><trkpt lat="42.225705" lon="14.5580183"><ele>10.600000000000001</ele><time>2026-04-07T13:10:29.834Z</time></trkpt><trkpt lat="42.225755" lon="14.557875"><ele>9.8</ele><time>2026-04-07T13:10:31.835Z</time></trkpt><trkpt lat="42.22581" lon="14.5577383"><ele>9.0</ele><time>2026-04-07T13:10:33.835Z</time></trkpt><trkpt lat="42.22587" lon="14.5576033"><ele>9.0</ele><time>2026-04-07T13:10:35.834Z</time></trkpt><trkpt lat="42.225925" lon="14.55746"><ele>9.0</ele><time>2026-04-07T13:10:37.834Z</time></trkpt><trkpt lat="42.2259733" lon="14.5573183"><ele>9.0</ele><time>2026-04-07T13:10:39.834Z</time></trkpt><trkpt lat="42.2260233" lon="14.55718"><ele>9.0</ele><time>2026-04-07T13:10:41.834Z</time></trkpt><trkpt lat="42.2260717" lon="14.557045"><ele>10.4</ele><time>2026-04-07T13:10:43.834Z</time></trkpt><trkpt lat="42.2261183" lon="14.5569167"><ele>11.8</ele><time>2026-04-07T13:10:45.834Z</time></trkpt><trkpt lat="42.226175" lon="14.556785"><ele>13.200000000000001</ele><time>2026-04-07T13:10:47.834Z</time></trkpt><trkpt lat="42.2262283" lon="14.556655"><ele>14.600000000000001</ele><time>2026-04-07T13:10:49.834Z</time></trkpt><trkpt lat="42.2262883" lon="14.55652"><ele>16.0</ele><time>2026-04-07T13:10:51.834Z</time></trkpt><trkpt lat="42.226345" lon="14.5563817"><ele>16.0</ele><time>2026-04-07T13:10:53.834Z</time></trkpt><trkpt lat="42.2264017" lon="14.5562467"><ele>16.0</ele><time>2026-04-07T13:10:55.834Z</time></trkpt><trkpt lat="42.22646" lon="14.5561117"><ele>16.0</ele><time>2026-04-07T13:10:57.834Z</time></trkpt><trkpt lat="42.2265167" lon="14.5559817"><ele>16.0</ele><time>2026-04-07T13:10:59.835Z</time></trkpt><trkpt lat="42.2265683" lon="14.5558567"><ele>16.0</ele><time>2026-04-07T13:11:01.834Z</time></trkpt><trkpt lat="42.2266233" lon="14.5557283"><ele>15.4</ele><time>2026-04-07T13:11:03.835Z</time></trkpt><trkpt lat="42.2266833" lon="14.5556133"><ele>14.8</ele><time>2026-04-07T13:11:05.834Z</time></trkpt><trkpt lat="42.226745" lon="14.55551"><ele>14.200000000000001</ele><time>2026-04-07T13:11:07.834Z</time></trkpt><trkpt lat="42.226805" lon="14.5553967"><ele>13.600000000000001</ele><time>2026-04-07T13:11:09.834Z</time></trkpt><trkpt lat="42.2268817" lon="14.5552633"><ele>13.0</ele><time>2026-04-07T13:11:11.834Z</time></trkpt><trkpt lat="42.226955" lon="14.5551217"><ele>13.0</ele><time>2026-04-07T13:11:13.834Z</time></trkpt><trkpt lat="42.2269883" lon="14.555045"><ele>13.0</ele><time>2026-04-07T13:11:14.834Z</time></trkpt><trkpt lat="42.2270567" lon="14.5549183"><ele>13.0</ele><time>2026-04-07T13:11:16.834Z</time></trkpt><trkpt lat="42.2270933" lon="14.554845"><ele>13.0</ele><time>2026-04-07T13:11:17.834Z</time></trkpt><trkpt lat="42.2271633" lon="14.554715"><ele>13.0</ele><time>2026-04-07T13:11:19.834Z</time></trkpt><trkpt lat="42.2272383" lon="14.5545883"><ele>11.0</ele><time>2026-04-07T13:11:21.834Z</time></trkpt><trkpt lat="42.2273133" lon="14.5544667"><ele>9.0</ele><time>2026-04-07T13:11:23.834Z</time></trkpt><trkpt lat="42.2273933" lon="14.554345"><ele>7.0</ele><time>2026-04-07T13:11:25.834Z</time></trkpt><trkpt lat="42.227475" lon="14.55423"><ele>5.0</ele><time>2026-04-07T13:11:27.834Z</time></trkpt><trkpt lat="42.2275533" lon="14.5541117"><ele>5.0</ele><time>2026-04-07T13:11:29.834Z</time></trkpt><trkpt lat="42.2276333" lon="14.55399"><ele>5.0</ele><time>2026-04-07T13:11:31.834Z</time></trkpt><trkpt lat="42.22771" lon="14.5538717"><ele>5.0</ele><time>2026-04-07T13:11:33.834Z</time></trkpt><trkpt lat="42.2277867" lon="14.553755"><ele>5.0</ele><time>2026-04-07T13:11:35.834Z</time></trkpt><trkpt lat="42.2278633" lon="14.5536417"><ele>4.6</ele><time>2026-04-07T13:11:37.835Z</time></trkpt><trkpt lat="42.2279383" lon="14.55353"><ele>4.2</ele><time>2026-04-07T13:11:39.835Z</time></trkpt><trkpt lat="42.22801" lon="14.55342"><ele>3.8</ele><time>2026-04-07T13:11:41.834Z</time></trkpt><trkpt lat="42.22808" lon="14.5533017"><ele>3.4</ele><time>2026-04-07T13:11:43.835Z</time></trkpt><trkpt lat="42.228125" lon="14.55324"><ele>3.0</ele><time>2026-04-07T13:11:44.834Z</time></trkpt><trkpt lat="42.2281967" lon="14.55311"><ele>3.0</ele><time>2026-04-07T13:11:46.835Z</time></trkpt><trkpt lat="42.228265" lon="14.552985"><ele>3.0</ele><time>2026-04-07T13:11:48.834Z</time></trkpt><trkpt lat="42.228335" lon="14.55286"><ele>3.0</ele><time>2026-04-07T13:11:50.834Z</time></trkpt><trkpt lat="42.2284067" lon="14.55274"><ele>3.0</ele><time>2026-04-07T13:11:52.834Z</time></trkpt><trkpt lat="42.2284767" lon="14.5526167"><ele>3.0</ele><time>2026-04-07T13:11:54.834Z</time></trkpt><trkpt lat="42.228545" lon="14.5524967"><ele>3.0</ele><time>2026-04-07T13:11:56.834Z</time></trkpt><trkpt lat="42.2286167" lon="14.5523733"><ele>3.0</ele><time>2026-04-07T13:11:58.834Z</time></trkpt><trkpt lat="42.2286883" lon="14.5522517"><ele>3.0</ele><time>2026-04-07T13:12:00.834Z</time></trkpt><trkpt lat="42.2287617" lon="14.5521283"><ele>2.25</ele><time>2026-04-07T13:12:02.834Z</time></trkpt><trkpt lat="42.228835" lon="14.552005"><ele>1.5</ele><time>2026-04-07T13:12:04.834Z</time></trkpt><trkpt lat="42.2289067" lon="14.5518817"><ele>0.75</ele><time>2026-04-07T13:12:06.834Z</time></trkpt><trkpt lat="42.2289767" lon="14.5517617"><ele>0.0</ele><time>2026-04-07T13:12:08.834Z</time></trkpt><trkpt lat="42.2290467" lon="14.5516383"><ele>0.0</ele><time>2026-04-07T13:12:10.835Z</time></trkpt><trkpt lat="42.229115" lon="14.5515133"><ele>0.0</ele><time>2026-04-07T13:12:12.834Z</time></trkpt><trkpt lat="42.229185" lon="14.551385"><ele>0.0</ele><time>2026-04-07T13:12:14.834Z</time></trkpt><trkpt lat="42.229255" lon="14.5512617"><ele>0.0</ele><time>2026-04-07T13:12:16.834Z</time></trkpt><trkpt lat="42.22933" lon="14.5511483"><ele>1.0</ele><time>2026-04-07T13:12:18.834Z</time></trkpt><trkpt lat="42.2294" lon="14.5510283"><ele>2.0</ele><time>2026-04-07T13:12:20.835Z</time></trkpt><trkpt lat="42.2294633" lon="14.5509033"><ele>3.0</ele><time>2026-04-07T13:12:22.834Z</time></trkpt><trkpt lat="42.2295" lon="14.55083"><ele>4.0</ele><time>2026-04-07T13:12:23.834Z</time></trkpt><trkpt lat="42.2295567" lon="14.5506983"><ele>5.0</ele><time>2026-04-07T13:12:25.834Z</time></trkpt><trkpt lat="42.22961" lon="14.5505583"><ele>5.0</ele><time>2026-04-07T13:12:27.835Z</time></trkpt><trkpt lat="42.22967" lon="14.5504183"><ele>5.0</ele><time>2026-04-07T13:12:29.834Z</time></trkpt><trkpt lat="42.2297383" lon="14.55029"><ele>5.0</ele><time>2026-04-07T13:12:31.834Z</time></trkpt><trkpt lat="42.2298083" lon="14.55016"><ele>5.0</ele><time>2026-04-07T13:12:33.834Z</time></trkpt><trkpt lat="42.2298767" lon="14.5500383"><ele>4.75</ele><time>2026-04-07T13:12:35.834Z</time></trkpt><trkpt lat="42.2299483" lon="14.549915"><ele>4.5</ele><time>2026-04-07T13:12:37.834Z</time></trkpt><trkpt lat="42.23002" lon="14.549785"><ele>4.25</ele><time>2026-04-07T13:12:39.834Z</time></trkpt><trkpt lat="42.23009" lon="14.5496633"><ele>4.0</ele><time>2026-04-07T13:12:41.834Z</time></trkpt><trkpt lat="42.2301633" lon="14.5495417"><ele>4.0</ele><time>2026-04-07T13:12:43.834Z</time></trkpt><trkpt lat="42.2302367" lon="14.549415"><ele>4.0</ele><time>2026-04-07T13:12:45.834Z</time></trkpt><trkpt lat="42.2303067" lon="14.5492883"><ele>4.0</ele><time>2026-04-07T13:12:47.834Z</time></trkpt><trkpt lat="42.23038" lon="14.5491733"><ele>4.0</ele><time>2026-04-07T13:12:49.834Z</time></trkpt><trkpt lat="42.23045" lon="14.54906"><ele>4.0</ele><time>2026-04-07T13:12:51.835Z</time></trkpt><trkpt lat="42.2305167" lon="14.5489433"><ele>4.0</ele><time>2026-04-07T13:12:53.834Z</time></trkpt><trkpt lat="42.2305867" lon="14.5488267"><ele>4.0</ele><time>2026-04-07T13:12:55.834Z</time></trkpt><trkpt lat="42.230655" lon="14.5487183"><ele>4.0</ele><time>2026-04-07T13:12:57.834Z</time></trkpt><trkpt lat="42.2307183" lon="14.5486067"><ele>4.0</ele><time>2026-04-07T13:12:59.834Z</time></trkpt><trkpt lat="42.2307783" lon="14.5485"><ele>3.833333333333333</ele><time>2026-04-07T13:13:01.834Z</time></trkpt><trkpt lat="42.2308333" lon="14.5483983"><ele>3.6666666666666665</ele><time>2026-04-07T13:13:03.834Z</time></trkpt><trkpt lat="42.2308883" lon="14.548305"><ele>3.5</ele><time>2026-04-07T13:13:05.834Z</time></trkpt><trkpt lat="42.2309317" lon="14.5482217"><ele>3.333333333333333</ele><time>2026-04-07T13:13:07.834Z</time></trkpt><trkpt lat="42.2309767" lon="14.5481433"><ele>3.1666666666666665</ele><time>2026-04-07T13:13:09.834Z</time></trkpt><trkpt lat="42.231035" lon="14.5480467"><ele>3.0</ele><time>2026-04-07T13:13:11.835Z</time></trkpt><trkpt lat="42.2310983" lon="14.54794"><ele>3.4</ele><time>2026-04-07T13:13:13.834Z</time></trkpt><trkpt lat="42.23116" lon="14.5478317"><ele>3.8</ele><time>2026-04-07T13:13:15.834Z</time></trkpt><trkpt lat="42.23123" lon="14.5477117"><ele>4.2</ele><time>2026-04-07T13:13:17.834Z</time></trkpt><trkpt lat="42.2313017" lon="14.5475933"><ele>4.6</ele><time>2026-04-07T13:13:19.834Z</time></trkpt><trkpt lat="42.23137" lon="14.5474867"><ele>5.0</ele><time>2026-04-07T13:13:21.835Z</time></trkpt><trkpt lat="42.23144" lon="14.5473767"><ele>4.25</ele><time>2026-04-07T13:13:23.834Z</time></trkpt><trkpt lat="42.231515" lon="14.5472483"><ele>3.5</ele><time>2026-04-07T13:13:25.834Z</time></trkpt><trkpt lat="42.23157" lon="14.5471333"><ele>2.75</ele><time>2026-04-07T13:13:27.834Z</time></trkpt><trkpt lat="42.23164" lon="14.5470133"><ele>2.0</ele><time>2026-04-07T13:13:29.834Z</time></trkpt><trkpt lat="42.231715" lon="14.5468917"><ele>2.0</ele><time>2026-04-07T13:13:31.835Z</time></trkpt><trkpt lat="42.23179" lon="14.5467683"><ele>2.0</ele><time>2026-04-07T13:13:33.834Z</time></trkpt><trkpt lat="42.2318667" lon="14.5466483"><ele>2.0</ele><time>2026-04-07T13:13:35.834Z</time></trkpt><trkpt lat="42.2319417" lon="14.5465317"><ele>2.0</ele><time>2026-04-07T13:13:37.834Z</time></trkpt><trkpt lat="42.232015" lon="14.54641"><ele>2.0</ele><time>2026-04-07T13:13:39.834Z</time></trkpt><trkpt lat="42.2320817" lon="14.546285"><ele>2.0</ele><time>2026-04-07T13:13:41.834Z</time></trkpt><trkpt lat="42.23215" lon="14.5461683"><ele>2.0</ele><time>2026-04-07T13:13:43.834Z</time></trkpt><trkpt lat="42.2322183" lon="14.54607"><ele>2.0</ele><time>2026-04-07T13:13:45.834Z</time></trkpt><trkpt lat="42.2322867" lon="14.54595"><ele>2.0</ele><time>2026-04-07T13:13:47.834Z</time></trkpt><trkpt lat="42.2323567" lon="14.5458283"><ele>2.0</ele><time>2026-04-07T13:13:49.835Z</time></trkpt><trkpt lat="42.2323917" lon="14.5457567"><ele>2.0</ele><time>2026-04-07T13:13:50.835Z</time></trkpt><trkpt lat="42.2324583" lon="14.54563"><ele>2.0</ele><time>2026-04-07T13:13:52.834Z</time></trkpt><trkpt lat="42.2325267" lon="14.545515"><ele>2.0</ele><time>2026-04-07T13:13:54.834Z</time></trkpt><trkpt lat="42.232595" lon="14.54539"><ele>2.0</ele><time>2026-04-07T13:13:56.834Z</time></trkpt><trkpt lat="42.232665" lon="14.54527"><ele>2.75</ele><time>2026-04-07T13:13:58.834Z</time></trkpt><trkpt lat="42.2327333" lon="14.5451483"><ele>3.5</ele><time>2026-04-07T13:14:00.834Z</time></trkpt><trkpt lat="42.2328017" lon="14.545025"><ele>4.25</ele><time>2026-04-07T13:14:02.835Z</time></trkpt><trkpt lat="42.232865" lon="14.5449017"><ele>5.0</ele><time>2026-04-07T13:14:04.835Z</time></trkpt><trkpt lat="42.2329317" lon="14.54478"><ele>5.0</ele><time>2026-04-07T13:14:06.834Z</time></trkpt><trkpt lat="42.232995" lon="14.5446567"><ele>5.0</ele><time>2026-04-07T13:14:08.834Z</time></trkpt><trkpt lat="42.2330583" lon="14.5445283"><ele>5.0</ele><time>2026-04-07T13:14:10.834Z</time></trkpt><trkpt lat="42.2331217" lon="14.5444017"><ele>5.0</ele><time>2026-04-07T13:14:12.834Z</time></trkpt><trkpt lat="42.2331817" lon="14.5442633"><ele>4.8</ele><time>2026-04-07T13:14:14.834Z</time></trkpt><trkpt lat="42.2332383" lon="14.5441517"><ele>4.6</ele><time>2026-04-07T13:14:16.835Z</time></trkpt><trkpt lat="42.2332917" lon="14.54404"><ele>4.4</ele><time>2026-04-07T13:14:18.834Z</time></trkpt><trkpt lat="42.2333383" lon="14.5439367"><ele>4.2</ele><time>2026-04-07T13:14:20.835Z</time></trkpt><trkpt lat="42.23339" lon="14.5438383"><ele>4.0</ele><time>2026-04-07T13:14:22.834Z</time></trkpt><trkpt lat="42.2334417" lon="14.5437233"><ele>5.166666666666666</ele><time>2026-04-07T13:14:24.834Z</time></trkpt><trkpt lat="42.23349" lon="14.5436067"><ele>6.333333333333333</ele><time>2026-04-07T13:14:26.834Z</time></trkpt><trkpt lat="42.2335233" lon="14.5435083"><ele>7.5</ele><time>2026-04-07T13:14:28.834Z</time></trkpt><trkpt lat="42.2335417" lon="14.543415"><ele>8.666666666666666</ele><time>2026-04-07T13:14:30.834Z</time></trkpt><trkpt lat="42.23355" lon="14.543305"><ele>9.833333333333332</ele><time>2026-04-07T13:14:32.834Z</time></trkpt><trkpt lat="42.2335567" lon="14.54319"><ele>11.0</ele><time>2026-04-07T13:14:34.835Z</time></trkpt><trkpt lat="42.23358" lon="14.5430933"><ele>11.0</ele><time>2026-04-07T13:14:36.834Z</time></trkpt><trkpt lat="42.2336167" lon="14.5430067"><ele>11.0</ele><time>2026-04-07T13:14:38.834Z</time></trkpt><trkpt lat="42.233665" lon="14.542915"><ele>11.0</ele><time>2026-04-07T13:14:40.835Z</time></trkpt><trkpt lat="42.2337133" lon="14.54283"><ele>11.0</ele><time>2026-04-07T13:14:42.834Z</time></trkpt><trkpt lat="42.23377" lon="14.542745"><ele>11.0</ele><time>2026-04-07T13:14:44.835Z</time></trkpt><trkpt lat="42.2338283" lon="14.54264"><ele>11.0</ele><time>2026-04-07T13:14:46.834Z</time></trkpt><trkpt lat="42.23387" lon="14.5425217"><ele>9.833333333333332</ele><time>2026-04-07T13:14:48.834Z</time></trkpt><trkpt lat="42.2339117" lon="14.5424183"><ele>8.666666666666666</ele><time>2026-04-07T13:14:50.835Z</time></trkpt><trkpt lat="42.2339467" lon="14.5423233"><ele>7.5</ele><time>2026-04-07T13:14:52.834Z</time></trkpt><trkpt lat="42.2339817" lon="14.5422283"><ele>6.333333333333333</ele><time>2026-04-07T13:14:54.834Z</time></trkpt><trkpt lat="42.23402" lon="14.5421267"><ele>5.166666666666666</ele><time>2026-04-07T13:14:56.834Z</time></trkpt><trkpt lat="42.2340667" lon="14.5420183"><ele>4.0</ele><time>2026-04-07T13:14:58.834Z</time></trkpt><trkpt lat="42.2341133" lon="14.541915"><ele>3.9999999999999996</ele><time>2026-04-07T13:15:00.834Z</time></trkpt><trkpt lat="42.23415" lon="14.541825"><ele>4.0</ele><time>2026-04-07T13:15:02.834Z</time></trkpt><trkpt lat="42.2341633" lon="14.5417183"><ele>4.0</ele><time>2026-04-07T13:15:04.834Z</time></trkpt><trkpt lat="42.23412" lon="14.5416017"><ele>4.0</ele><time>2026-04-07T13:15:07.834Z</time></trkpt><trkpt lat="42.2340633" lon="14.541545"><ele>3.9999999999999996</ele><time>2026-04-07T13:15:09.834Z</time></trkpt><trkpt lat="42.23398" lon="14.541455"><ele>4.0</ele><time>2026-04-07T13:15:12.834Z</time></trkpt><trkpt lat="42.2339133" lon="14.5413767"><ele>3.9999999999999996</ele><time>2026-04-07T13:15:14.834Z</time></trkpt><trkpt lat="42.233845" lon="14.5412967"><ele>4.0</ele><time>2026-04-07T13:15:16.834Z</time></trkpt><trkpt lat="42.2337817" lon="14.5412167"><ele>4.0</ele><time>2026-04-07T13:15:18.834Z</time></trkpt><trkpt lat="42.2338383" lon="14.5413017"><ele>4.0</ele><time>2026-04-07T13:16:02.834Z</time></trkpt><trkpt lat="42.2338983" lon="14.5413933"><ele>3.9999999999999996</ele><time>2026-04-07T13:16:05.835Z</time></trkpt><trkpt lat="42.2339583" lon="14.5414483"><ele>4.0</ele><time>2026-04-07T13:16:08.835Z</time></trkpt><trkpt lat="42.2340367" lon="14.541495"><ele>3.9999999999999996</ele><time>2026-04-07T13:16:12.835Z</time></trkpt><trkpt lat="42.2340717" lon="14.5416033"><ele>4.0</ele><time>2026-04-07T13:16:15.835Z</time></trkpt><trkpt lat="42.2340733" lon="14.5416967"><ele>4.0</ele><time>2026-04-07T13:16:18.835Z</time></trkpt><trkpt lat="42.2340383" lon="14.541795"><ele>4.0</ele><time>2026-04-07T13:16:22.835Z</time></trkpt><trkpt lat="42.2339967" lon="14.5418917"><ele>3.9999999999999996</ele><time>2026-04-07T13:16:25.834Z</time></trkpt><trkpt lat="42.23395" lon="14.541985"><ele>4.0</ele><time>2026-04-07T13:16:28.834Z</time></trkpt><trkpt lat="42.2339167" lon="14.54209"><ele>6.571428571428571</ele><time>2026-04-07T13:16:31.834Z</time></trkpt><trkpt lat="42.23389" lon="14.5421983"><ele>9.142857142857142</ele><time>2026-04-07T13:16:34.834Z</time></trkpt><trkpt lat="42.2338683" lon="14.5422783"><ele>11.714285714285715</ele><time>2026-04-07T13:16:37.834Z</time></trkpt><trkpt lat="42.2338383" lon="14.542375"><ele>14.285714285714285</ele><time>2026-04-07T13:16:40.834Z</time></trkpt><trkpt lat="42.2338167" lon="14.54247"><ele>16.857142857142858</ele><time>2026-04-07T13:16:43.834Z</time></trkpt><trkpt lat="42.2337917" lon="14.5425517"><ele>19.42857142857143</ele><time>2026-04-07T13:16:46.834Z</time></trkpt><trkpt lat="42.23376" lon="14.5426567"><ele>22.0</ele><time>2026-04-07T13:16:50.834Z</time></trkpt><trkpt lat="42.23373" lon="14.5427433"><ele>22.0</ele><time>2026-04-07T13:16:53.834Z</time></trkpt><trkpt lat="42.2337117" lon="14.5428333"><ele>22.0</ele><time>2026-04-07T13:16:56.834Z</time></trkpt><trkpt lat="42.2336767" lon="14.5429267"><ele>22.0</ele><time>2026-04-07T13:16:58.835Z</time></trkpt><trkpt lat="42.2336283" lon="14.543025"><ele>22.0</ele><time>2026-04-07T13:17:00.834Z</time></trkpt><trkpt lat="42.2335867" lon="14.543115"><ele>22.0</ele><time>2026-04-07T13:17:02.834Z</time></trkpt><trkpt lat="42.233555" lon="14.54319"><ele>22.0</ele><time>2026-04-07T13:17:04.834Z</time></trkpt><trkpt lat="42.2335067" lon="14.5432633"><ele>22.0</ele><time>2026-04-07T13:17:06.834Z</time></trkpt><trkpt lat="42.23345" lon="14.5433283"><ele>23.333333333333332</ele><time>2026-04-07T13:17:08.834Z</time></trkpt><trkpt lat="42.2333583" lon="14.5434"><ele>24.666666666666664</ele><time>2026-04-07T13:17:10.835Z</time></trkpt><trkpt lat="42.2333033" lon="14.5434633"><ele>26.0</ele><time>2026-04-07T13:17:12.834Z</time></trkpt><trkpt lat="42.2332467" lon="14.5435283"><ele>27.333333333333332</ele><time>2026-04-07T13:17:14.834Z</time></trkpt><trkpt lat="42.233195" lon="14.5435867"><ele>28.666666666666668</ele><time>2026-04-07T13:17:16.834Z</time></trkpt><trkpt lat="42.2331117" lon="14.5436467"><ele>30.0</ele><time>2026-04-07T13:17:19.834Z</time></trkpt><trkpt lat="42.2330483" lon="14.54373"><ele>27.333333333333332</ele><time>2026-04-07T13:17:22.835Z</time></trkpt><trkpt lat="42.2329917" lon="14.5438083"><ele>24.666666666666668</ele><time>2026-04-07T13:17:25.834Z</time></trkpt><trkpt lat="42.2329233" lon="14.54388"><ele>22.0</ele><time>2026-04-07T13:17:28.834Z</time></trkpt><trkpt lat="42.2328583" lon="14.5439267"><ele>19.333333333333336</ele><time>2026-04-07T13:17:30.835Z</time></trkpt><trkpt lat="42.2327867" lon="14.543985"><ele>16.666666666666668</ele><time>2026-04-07T13:17:32.834Z</time></trkpt><trkpt lat="42.232715" lon="14.5440533"><ele>14.0</ele><time>2026-04-07T13:17:34.834Z</time></trkpt><trkpt lat="42.2326517" lon="14.5441283"><ele>14.000000000000002</ele><time>2026-04-07T13:17:36.834Z</time></trkpt><trkpt lat="42.232595" lon="14.5442017"><ele>14.0</ele><time>2026-04-07T13:17:38.834Z</time></trkpt><trkpt lat="42.2325283" lon="14.5442833"><ele>14.0</ele><time>2026-04-07T13:17:40.834Z</time></trkpt><trkpt lat="42.232465" lon="14.5443767"><ele>14.0</ele><time>2026-04-07T13:17:42.835Z</time></trkpt><trkpt lat="42.2324017" lon="14.5444533"><ele>14.000000000000002</ele><time>2026-04-07T13:17:44.834Z</time></trkpt><trkpt lat="42.2323433" lon="14.5445483"><ele>14.0</ele><time>2026-04-07T13:17:46.834Z</time></trkpt><trkpt lat="42.23227" lon="14.5446583"><ele>15.399999999999999</ele><time>2026-04-07T13:17:48.834Z</time></trkpt><trkpt lat="42.23218" lon="14.5447683"><ele>16.799999999999997</ele><time>2026-04-07T13:17:50.834Z</time></trkpt><trkpt lat="42.23213" lon="14.5448217"><ele>18.200000000000003</ele><time>2026-04-07T13:17:51.834Z</time></trkpt><trkpt lat="42.2320567" lon="14.5449233"><ele>19.6</ele><time>2026-04-07T13:17:53.834Z</time></trkpt><trkpt lat="42.2319783" lon="14.545025"><ele>21.0</ele><time>2026-04-07T13:17:55.834Z</time></trkpt><trkpt lat="42.2318967" lon="14.5451233"><ele>21.0</ele><time>2026-04-07T13:17:57.834Z</time></trkpt><trkpt lat="42.2318233" lon="14.545215"><ele>21.0</ele><time>2026-04-07T13:17:59.835Z</time></trkpt><trkpt lat="42.231755" lon="14.5453017"><ele>21.0</ele><time>2026-04-07T13:18:01.834Z</time></trkpt><trkpt lat="42.231695" lon="14.54538"><ele>21.0</ele><time>2026-04-07T13:18:03.834Z</time></trkpt><trkpt lat="42.2316417" lon="14.54546"><ele>21.0</ele><time>2026-04-07T13:18:05.835Z</time></trkpt><trkpt lat="42.2315883" lon="14.5455083"><ele>21.0</ele><time>2026-04-07T13:18:08.835Z</time></trkpt><trkpt lat="42.231625" lon="14.5454233"><ele>21.0</ele><time>2026-04-07T13:18:13.834Z</time></trkpt><trkpt lat="42.23167" lon="14.5453633"><ele>21.0</ele><time>2026-04-07T13:18:15.835Z</time></trkpt><trkpt lat="42.2317267" lon="14.5453067"><ele>21.0</ele><time>2026-04-07T13:18:17.835Z</time></trkpt><trkpt lat="42.2317667" lon="14.5452217"><ele>21.0</ele><time>2026-04-07T13:18:19.834Z</time></trkpt><trkpt lat="42.2318133" lon="14.5451183"><ele>21.0</ele><time>2026-04-07T13:18:21.834Z</time></trkpt><trkpt lat="42.2318683" lon="14.5450333"><ele>21.0</ele><time>2026-04-07T13:18:23.834Z</time></trkpt><trkpt lat="42.2319233" lon="14.544935"><ele>21.0</ele><time>2026-04-07T13:18:25.834Z</time></trkpt><trkpt lat="42.2319683" lon="14.5448383"><ele>21.0</ele><time>2026-04-07T13:18:27.834Z</time></trkpt><trkpt lat="42.23202" lon="14.5447467"><ele>21.0</ele><time>2026-04-07T13:18:29.834Z</time></trkpt><trkpt lat="42.232075" lon="14.5446567"><ele>21.0</ele><time>2026-04-07T13:18:31.835Z</time></trkpt><trkpt lat="42.23213" lon="14.5445733"><ele>21.0</ele><time>2026-04-07T13:18:33.834Z</time></trkpt><trkpt lat="42.2321767" lon="14.54449"><ele>21.0</ele><time>2026-04-07T13:18:35.834Z</time></trkpt><trkpt lat="42.23222" lon="14.5443933"><ele>22.0</ele><time>2026-04-07T13:18:37.834Z</time></trkpt><trkpt lat="42.2322667" lon="14.544305"><ele>23.0</ele><time>2026-04-07T13:18:39.834Z</time></trkpt><trkpt lat="42.2323" lon="14.5442183"><ele>24.0</ele><time>2026-04-07T13:18:41.834Z</time></trkpt><trkpt lat="42.232305" lon="14.54413"><ele>25.0</ele><time>2026-04-07T13:18:43.835Z</time></trkpt><trkpt lat="42.2322433" lon="14.54407"><ele>26.0</ele><time>2026-04-07T13:18:46.834Z</time></trkpt><trkpt lat="42.2321667" lon="14.5440817"><ele>27.0</ele><time>2026-04-07T13:18:49.834Z</time></trkpt><trkpt lat="42.232095" lon="14.5440833"><ele>28.0</ele><time>2026-04-07T13:18:51.834Z</time></trkpt><trkpt lat="42.2320217" lon="14.54409"><ele>28.000000000000004</ele><time>2026-04-07T13:18:53.834Z</time></trkpt><trkpt lat="42.23195" lon="14.5440983"><ele>28.0</ele><time>2026-04-07T13:18:55.834Z</time></trkpt><trkpt lat="42.23187" lon="14.54411"><ele>28.0</ele><time>2026-04-07T13:18:57.834Z</time></trkpt><trkpt lat="42.2317967" lon="14.5441233"><ele>28.0</ele><time>2026-04-07T13:18:59.834Z</time></trkpt><trkpt lat="42.2317267" lon="14.5441283"><ele>28.000000000000004</ele><time>2026-04-07T13:19:01.834Z</time></trkpt><trkpt lat="42.2316383" lon="14.5441417"><ele>28.0</ele><time>2026-04-07T13:19:04.834Z</time></trkpt><trkpt lat="42.23155" lon="14.5441633"><ele>30.833333333333336</ele><time>2026-04-07T13:19:07.835Z</time></trkpt><trkpt lat="42.2314633" lon="14.5441733"><ele>33.66666666666667</ele><time>2026-04-07T13:19:10.834Z</time></trkpt><trkpt lat="42.2313717" lon="14.5441867"><ele>36.5</ele><time>2026-04-07T13:19:13.834Z</time></trkpt><trkpt lat="42.2312833" lon="14.5441817"><ele>39.333333333333336</ele><time>2026-04-07T13:19:16.835Z</time></trkpt><trkpt lat="42.23122" lon="14.5441667"><ele>42.166666666666664</ele><time>2026-04-07T13:19:21.834Z</time></trkpt><trkpt lat="42.2311417" lon="14.5441583"><ele>45.0</ele><time>2026-04-07T13:19:29.834Z</time></trkpt><trkpt lat="42.2310783" lon="14.5442033"><ele>45.0</ele><time>2026-04-07T13:19:33.834Z</time></trkpt><trkpt lat="42.2310217" lon="14.544245"><ele>45.0</ele><time>2026-04-07T13:19:36.834Z</time></trkpt><trkpt lat="42.2309383" lon="14.5443067"><ele>45.0</ele><time>2026-04-07T13:19:39.834Z</time></trkpt><trkpt lat="42.23087" lon="14.5443733"><ele>45.0</ele><time>2026-04-07T13:19:42.834Z</time></trkpt><trkpt lat="42.23079" lon="14.5444417"><ele>45.0</ele><time>2026-04-07T13:19:45.835Z</time></trkpt><trkpt lat="42.2307417" lon="14.5445133"><ele>45.0</ele><time>2026-04-07T13:19:48.834Z</time></trkpt><trkpt lat="42.230685" lon="14.5445983"><ele>45.833333333333336</ele><time>2026-04-07T13:19:51.834Z</time></trkpt><trkpt lat="42.230605" lon="14.5446767"><ele>46.66666666666667</ele><time>2026-04-07T13:19:53.834Z</time></trkpt><trkpt lat="42.230555" lon="14.5447533"><ele>47.5</ele><time>2026-04-07T13:19:56.834Z</time></trkpt><trkpt lat="42.2305067" lon="14.5448333"><ele>48.333333333333336</ele><time>2026-04-07T13:19:59.835Z</time></trkpt><trkpt lat="42.2304717" lon="14.5449133"><ele>49.16666666666667</ele><time>2026-04-07T13:20:02.834Z</time></trkpt><trkpt lat="42.2304367" lon="14.5450117"><ele>50.0</ele><time>2026-04-07T13:20:06.834Z</time></trkpt><trkpt lat="42.2304067" lon="14.5450933"><ele>50.00000000000001</ele><time>2026-04-07T13:20:09.834Z</time></trkpt><trkpt lat="42.2303367" lon="14.5451783"><ele>50.0</ele><time>2026-04-07T13:20:12.835Z</time></trkpt><trkpt lat="42.2302767" lon="14.5452517"><ele>50.0</ele><time>2026-04-07T13:20:15.834Z</time></trkpt><trkpt lat="42.2302467" lon="14.5453267"><ele>50.0</ele><time>2026-04-07T13:20:19.834Z</time></trkpt><trkpt lat="42.2301733" lon="14.5453983"><ele>50.00000000000001</ele><time>2026-04-07T13:20:21.834Z</time></trkpt><trkpt lat="42.2301283" lon="14.5454783"><ele>50.0</ele><time>2026-04-07T13:20:24.834Z</time></trkpt><trkpt lat="42.23007" lon="14.54557"><ele>49.85714285714286</ele><time>2026-04-07T13:20:28.834Z</time></trkpt><trkpt lat="42.2300233" lon="14.54565"><ele>49.714285714285715</ele><time>2026-04-07T13:20:31.835Z</time></trkpt><trkpt lat="42.2299817" lon="14.545715"><ele>49.57142857142857</ele><time>2026-04-07T13:20:33.834Z</time></trkpt><trkpt lat="42.22991" lon="14.5457783"><ele>49.42857142857143</ele><time>2026-04-07T13:20:35.834Z</time></trkpt><trkpt lat="42.22986" lon="14.5458517"><ele>49.285714285714285</ele><time>2026-04-07T13:20:43.834Z</time></trkpt><trkpt lat="42.2297983" lon="14.5458817"><ele>49.142857142857146</ele><time>2026-04-07T13:20:46.834Z</time></trkpt><trkpt lat="42.229735" lon="14.545915"><ele>49.0</ele><time>2026-04-07T13:20:49.834Z</time></trkpt><trkpt lat="42.2296683" lon="14.545935"><ele>49.0</ele><time>2026-04-07T13:20:59.834Z</time></trkpt><trkpt lat="42.2296067" lon="14.54589"><ele>49.0</ele><time>2026-04-07T13:21:04.835Z</time></trkpt><trkpt lat="42.2295467" lon="14.5458533"><ele>49.0</ele><time>2026-04-07T13:21:07.834Z</time></trkpt><trkpt lat="42.2294867" lon="14.5457917"><ele>49.0</ele><time>2026-04-07T13:21:12.835Z</time></trkpt><trkpt lat="42.2294417" lon="14.5457283"><ele>49.0</ele><time>2026-04-07T13:21:16.835Z</time></trkpt><trkpt lat="42.2293667" lon="14.54569"><ele>49.0</ele><time>2026-04-07T13:21:20.835Z</time></trkpt><trkpt lat="42.2293067" lon="14.5456267"><ele>49.0</ele><time>2026-04-07T13:21:24.834Z</time></trkpt><trkpt lat="42.229245" lon="14.5455683"><ele>48.99999999999999</ele><time>2026-04-07T13:21:28.835Z</time></trkpt><trkpt lat="42.2291783" lon="14.5455067"><ele>49.0</ele><time>2026-04-07T13:21:31.834Z</time></trkpt><trkpt lat="42.2291217" lon="14.5454667"><ele>49.0</ele><time>2026-04-07T13:21:33.834Z</time></trkpt><trkpt lat="42.2290683" lon="14.5453833"><ele>49.0</ele><time>2026-04-07T13:21:38.834Z</time></trkpt><trkpt lat="42.2290033" lon="14.5452717"><ele>48.99999999999999</ele><time>2026-04-07T13:21:48.834Z</time></trkpt><trkpt lat="42.2289267" lon="14.545275"><ele>49.0</ele><time>2026-04-07T13:21:54.835Z</time></trkpt><trkpt lat="42.2288567" lon="14.5452867"><ele>51.714285714285715</ele><time>2026-04-07T13:21:59.834Z</time></trkpt><trkpt lat="42.228785" lon="14.54527"><ele>54.42857142857143</ele><time>2026-04-07T13:22:04.835Z</time></trkpt><trkpt lat="42.22871" lon="14.5452633"><ele>57.14285714285714</ele><time>2026-04-07T13:22:08.834Z</time></trkpt><trkpt lat="42.228645" lon="14.545235"><ele>59.857142857142854</ele><time>2026-04-07T13:22:11.834Z</time></trkpt><trkpt lat="42.2285733" lon="14.5451917"><ele>62.57142857142857</ele><time>2026-04-07T13:22:16.835Z</time></trkpt><trkpt lat="42.2285017" lon="14.545175"><ele>65.28571428571428</ele><time>2026-04-07T13:22:22.834Z</time></trkpt><trkpt lat="42.2284383" lon="14.545145"><ele>68.0</ele><time>2026-04-07T13:23:06.834Z</time></trkpt><trkpt lat="42.22835" lon="14.5451"><ele>67.99999999999999</ele><time>2026-04-07T13:23:07.834Z</time></trkpt><trkpt lat="42.2283317" lon="14.545015"><ele>68.0</ele><time>2026-04-07T13:23:16.834Z</time></trkpt><trkpt lat="42.228325" lon="14.54491"><ele>68.0</ele><time>2026-04-07T13:23:22.835Z</time></trkpt><trkpt lat="42.2283217" lon="14.544815"><ele>68.0</ele><time>2026-04-07T13:23:27.835Z</time></trkpt><trkpt lat="42.2282983" lon="14.5447183"><ele>68.0</ele><time>2026-04-07T13:23:32.834Z</time></trkpt><trkpt lat="42.2282733" lon="14.5446267"><ele>67.99999999999999</ele><time>2026-04-07T13:23:37.834Z</time></trkpt><trkpt lat="42.2282517" lon="14.544535"><ele>68.0</ele><time>2026-04-07T13:23:42.835Z</time></trkpt><trkpt lat="42.228235" lon="14.5444467"><ele>69.14285714285714</ele><time>2026-04-07T13:23:46.834Z</time></trkpt><trkpt lat="42.22822" lon="14.5443583"><ele>70.28571428571428</ele><time>2026-04-07T13:23:49.834Z</time></trkpt><trkpt lat="42.2282133" lon="14.5442583"><ele>71.42857142857142</ele><time>2026-04-07T13:23:51.834Z</time></trkpt><trkpt lat="42.2281983" lon="14.5441617"><ele>72.57142857142857</ele><time>2026-04-07T13:23:53.834Z</time></trkpt><trkpt lat="42.2281533" lon="14.544095"><ele>73.71428571428572</ele><time>2026-04-07T13:23:56.834Z</time></trkpt><trkpt lat="42.2281033" lon="14.5440233"><ele>74.85714285714285</ele><time>2026-04-07T13:24:00.835Z</time></trkpt><trkpt lat="42.2280367" lon="14.544005"><ele>76.0</ele><time>2026-04-07T13:24:05.834Z</time></trkpt><trkpt lat="42.2279633" lon="14.5440183"><ele>77.33333333333333</ele><time>2026-04-07T13:24:11.834Z</time></trkpt><trkpt lat="42.227895" lon="14.54404"><ele>78.66666666666666</ele><time>2026-04-07T13:24:14.835Z</time></trkpt><trkpt lat="42.2277983" lon="14.5440617"><ele>80.0</ele><time>2026-04-07T13:24:16.835Z</time></trkpt><trkpt lat="42.2277117" lon="14.544095"><ele>81.33333333333333</ele><time>2026-04-07T13:24:18.834Z</time></trkpt><trkpt lat="42.2276683" lon="14.54417"><ele>82.66666666666667</ele><time>2026-04-07T13:24:22.834Z</time></trkpt><trkpt lat="42.227625" lon="14.5442683"><ele>84.0</ele><time>2026-04-07T13:24:25.834Z</time></trkpt><trkpt lat="42.22758" lon="14.544355"><ele>84.0</ele><time>2026-04-07T13:24:27.834Z</time></trkpt><trkpt lat="42.227545" lon="14.5444467"><ele>84.0</ele><time>2026-04-07T13:24:29.834Z</time></trkpt><trkpt lat="42.2275167" lon="14.5445283"><ele>84.0</ele><time>2026-04-07T13:24:32.835Z</time></trkpt><trkpt lat="42.2274517" lon="14.5445967"><ele>84.0</ele><time>2026-04-07T13:24:34.834Z</time></trkpt><trkpt lat="42.22741" lon="14.5446683"><ele>84.0</ele><time>2026-04-07T13:24:37.835Z</time></trkpt><trkpt lat="42.22735" lon="14.5447467"><ele>84.0</ele><time>2026-04-07T13:24:40.834Z</time></trkpt><trkpt lat="42.2272467" lon="14.544815"><ele>85.33333333333333</ele><time>2026-04-07T13:24:42.834Z</time></trkpt><trkpt lat="42.2271767" lon="14.5449017"><ele>86.66666666666667</ele><time>2026-04-07T13:24:45.834Z</time></trkpt><trkpt lat="42.2271317" lon="14.5449733"><ele>88.0</ele><time>2026-04-07T13:24:47.834Z</time></trkpt><trkpt lat="42.2270817" lon="14.545065"><ele>89.33333333333334</ele><time>2026-04-07T13:24:49.834Z</time></trkpt><trkpt lat="42.2270433" lon="14.5451333"><ele>90.66666666666667</ele><time>2026-04-07T13:24:51.835Z</time></trkpt><trkpt lat="42.226985" lon="14.5452333"><ele>92.0</ele><time>2026-04-07T13:24:54.834Z</time></trkpt><trkpt lat="42.2269367" lon="14.54532"><ele>90.28571428571429</ele><time>2026-04-07T13:24:56.834Z</time></trkpt><trkpt lat="42.2269033" lon="14.5454033"><ele>88.57142857142857</ele><time>2026-04-07T13:24:58.834Z</time></trkpt><trkpt lat="42.2268717" lon="14.54549"><ele>86.85714285714286</ele><time>2026-04-07T13:25:01.835Z</time></trkpt><trkpt lat="42.2268333" lon="14.5455783"><ele>85.14285714285714</ele><time>2026-04-07T13:25:04.834Z</time></trkpt><trkpt lat="42.2267917" lon="14.5456733"><ele>83.42857142857143</ele><time>2026-04-07T13:25:07.835Z</time></trkpt><trkpt lat="42.2267533" lon="14.54577"><ele>81.71428571428571</ele><time>2026-04-07T13:25:10.835Z</time></trkpt><trkpt lat="42.2267233" lon="14.5458483"><ele>80.0</ele><time>2026-04-07T13:25:12.834Z</time></trkpt><trkpt lat="42.2266817" lon="14.545945"><ele>80.0</ele><time>2026-04-07T13:25:14.834Z</time></trkpt><trkpt lat="42.2266367" lon="14.5460583"><ele>80.0</ele><time>2026-04-07T13:25:16.834Z</time></trkpt><trkpt lat="42.2265683" lon="14.546155"><ele>80.0</ele><time>2026-04-07T13:25:17.834Z</time></trkpt><trkpt lat="42.226515" lon="14.546225"><ele>80.0</ele><time>2026-04-07T13:25:18.834Z</time></trkpt><trkpt lat="42.2264733" lon="14.5462983"><ele>80.0</ele><time>2026-04-07T13:25:20.834Z</time></trkpt><trkpt lat="42.2264033" lon="14.546365"><ele>80.0</ele><time>2026-04-07T13:25:23.834Z</time></trkpt><trkpt lat="42.226345" lon="14.5464333"><ele>81.5</ele><time>2026-04-07T13:25:25.834Z</time></trkpt><trkpt lat="42.2263067" lon="14.5465233"><ele>83.0</ele><time>2026-04-07T13:25:28.835Z</time></trkpt><trkpt lat="42.2262617" lon="14.5465967"><ele>84.5</ele><time>2026-04-07T13:25:31.834Z</time></trkpt><trkpt lat="42.22623" lon="14.5466717"><ele>86.0</ele><time>2026-04-07T13:25:35.834Z</time></trkpt><trkpt lat="42.2261867" lon="14.5467433"><ele>87.5</ele><time>2026-04-07T13:25:38.835Z</time></trkpt><trkpt lat="42.2261433" lon="14.546835"><ele>89.0</ele><time>2026-04-07T13:25:41.834Z</time></trkpt><trkpt lat="42.2260833" lon="14.54695"><ele>89.0</ele><time>2026-04-07T13:25:43.834Z</time></trkpt><trkpt lat="42.2260333" lon="14.5470383"><ele>89.0</ele><time>2026-04-07T13:25:45.834Z</time></trkpt><trkpt lat="42.2259383" lon="14.5471217"><ele>89.0</ele><time>2026-04-07T13:25:46.834Z</time></trkpt><trkpt lat="42.22588" lon="14.5472067"><ele>89.0</ele><time>2026-04-07T13:25:48.834Z</time></trkpt><trkpt lat="42.22582" lon="14.5472617"><ele>89.0</ele><time>2026-04-07T13:25:49.834Z</time></trkpt><trkpt lat="42.2257317" lon="14.54736"><ele>87.5</ele><time>2026-04-07T13:25:51.834Z</time></trkpt><trkpt lat="42.2256633" lon="14.5474217"><ele>86.0</ele><time>2026-04-07T13:25:52.834Z</time></trkpt><trkpt lat="42.2256033" lon="14.5474683"><ele>84.5</ele><time>2026-04-07T13:25:53.834Z</time></trkpt><trkpt lat="42.2255333" lon="14.54754"><ele>83.0</ele><time>2026-04-07T13:25:55.834Z</time></trkpt><trkpt lat="42.2254883" lon="14.5476067"><ele>81.5</ele><time>2026-04-07T13:25:57.835Z</time></trkpt><trkpt lat="42.2254233" lon="14.5476917"><ele>80.0</ele><time>2026-04-07T13:25:59.834Z</time></trkpt><trkpt lat="42.22537" lon="14.5477717"><ele>81.83333333333334</ele><time>2026-04-07T13:26:01.835Z</time></trkpt><trkpt lat="42.2253133" lon="14.5478733"><ele>83.66666666666667</ele><time>2026-04-07T13:26:04.834Z</time></trkpt><trkpt lat="42.2252733" lon="14.5479717"><ele>85.5</ele><time>2026-04-07T13:26:07.834Z</time></trkpt><trkpt lat="42.225255" lon="14.5480683"><ele>87.33333333333333</ele><time>2026-04-07T13:26:10.834Z</time></trkpt><trkpt lat="42.2252133" lon="14.548165"><ele>89.16666666666666</ele><time>2026-04-07T13:26:12.834Z</time></trkpt><trkpt lat="42.22518" lon="14.548245"><ele>91.0</ele><time>2026-04-07T13:26:13.834Z</time></trkpt><trkpt lat="42.2251133" lon="14.5483483"><ele>91.0</ele><time>2026-04-07T13:26:15.834Z</time></trkpt><trkpt lat="42.2250633" lon="14.5484367"><ele>91.0</ele><time>2026-04-07T13:26:17.834Z</time></trkpt><trkpt lat="42.225005" lon="14.5485283"><ele>91.0</ele><time>2026-04-07T13:26:20.834Z</time></trkpt><trkpt lat="42.2249767" lon="14.5486167"><ele>91.0</ele><time>2026-04-07T13:26:23.835Z</time></trkpt><trkpt lat="42.2249483" lon="14.548735"><ele>91.0</ele><time>2026-04-07T13:26:26.834Z</time></trkpt><trkpt lat="42.2249133" lon="14.5488183"><ele>91.0</ele><time>2026-04-07T13:26:30.835Z</time></trkpt><trkpt lat="42.2248683" lon="14.5488967"><ele>92.66666666666666</ele><time>2026-04-07T13:26:33.834Z</time></trkpt><trkpt lat="42.2248083" lon="14.5489867"><ele>94.33333333333333</ele><time>2026-04-07T13:26:36.834Z</time></trkpt><trkpt lat="42.2247633" lon="14.5490667"><ele>96.0</ele><time>2026-04-07T13:26:39.834Z</time></trkpt><trkpt lat="42.224725" lon="14.5491717"><ele>97.66666666666666</ele><time>2026-04-07T13:26:44.834Z</time></trkpt><trkpt lat="42.2246883" lon="14.5492433"><ele>99.33333333333333</ele><time>2026-04-07T13:26:47.835Z</time></trkpt><trkpt lat="42.22466" lon="14.5493267"><ele>101.0</ele><time>2026-04-07T13:26:51.834Z</time></trkpt><trkpt lat="42.22459" lon="14.5494817"><ele>98.8</ele><time>2026-04-07T13:26:58.834Z</time></trkpt><trkpt lat="42.2245267" lon="14.5496183"><ele>96.6</ele><time>2026-04-07T13:27:19.834Z</time></trkpt><trkpt lat="42.2244933" lon="14.5497017"><ele>94.4</ele><time>2026-04-07T13:27:28.834Z</time></trkpt><trkpt lat="42.22445" lon="14.5497883"><ele>92.2</ele><time>2026-04-07T13:27:33.834Z</time></trkpt><trkpt lat="42.2243933" lon="14.5498833"><ele>90.0</ele><time>2026-04-07T13:27:37.834Z</time></trkpt><trkpt lat="42.224335" lon="14.54999"><ele>90.0</ele><time>2026-04-07T13:27:40.834Z</time></trkpt><trkpt lat="42.2242933" lon="14.5500633"><ele>90.0</ele><time>2026-04-07T13:27:42.834Z</time></trkpt><trkpt lat="42.22424" lon="14.5501517"><ele>90.0</ele><time>2026-04-07T13:27:44.834Z</time></trkpt><trkpt lat="42.2241767" lon="14.550235"><ele>90.0</ele><time>2026-04-07T13:27:46.835Z</time></trkpt><trkpt lat="42.22412" lon="14.5503"><ele>90.0</ele><time>2026-04-07T13:27:49.834Z</time></trkpt><trkpt lat="42.224075" lon="14.5503667"><ele>90.0</ele><time>2026-04-07T13:27:52.834Z</time></trkpt><trkpt lat="42.22404" lon="14.5504383"><ele>90.0</ele><time>2026-04-07T13:27:57.834Z</time></trkpt><trkpt lat="42.22401" lon="14.5505133"><ele>92.4</ele><time>2026-04-07T13:28:06.834Z</time></trkpt><trkpt lat="42.22394" lon="14.550525"><ele>94.8</ele><time>2026-04-07T13:28:15.834Z</time></trkpt><trkpt lat="42.2238217" lon="14.5505733"><ele>97.19999999999999</ele><time>2026-04-07T13:28:26.835Z</time></trkpt><trkpt lat="42.2237633" lon="14.5506183"><ele>99.6</ele><time>2026-04-07T13:28:32.834Z</time></trkpt><trkpt lat="42.2237017" lon="14.55066"><ele>102.0</ele><time>2026-04-07T13:28:38.835Z</time></trkpt><trkpt lat="42.22358" lon="14.55074"><ele>102.0</ele><time>2026-04-07T13:28:56.834Z</time></trkpt><trkpt lat="42.2234783" lon="14.5507683"><ele>102.0</ele><time>2026-04-07T13:29:36.834Z</time></trkpt><trkpt lat="42.2234317" lon="14.55085"><ele>102.0</ele><time>2026-04-07T13:29:45.834Z</time></trkpt><trkpt lat="42.223385" lon="14.55091"><ele>102.0</ele><time>2026-04-07T13:29:50.835Z</time></trkpt><trkpt lat="42.22332" lon="14.550985"><ele>102.0</ele><time>2026-04-07T13:29:55.834Z</time></trkpt><trkpt lat="42.223255" lon="14.5510517"><ele>102.0</ele><time>2026-04-07T13:29:58.834Z</time></trkpt><trkpt lat="42.223195" lon="14.5511017"><ele>103.16666666666667</ele><time>2026-04-07T13:30:02.834Z</time></trkpt><trkpt lat="42.223135" lon="14.5511467"><ele>104.33333333333334</ele><time>2026-04-07T13:30:06.834Z</time></trkpt><trkpt lat="42.2230767" lon="14.551185"><ele>105.5</ele><time>2026-04-07T13:30:11.835Z</time></trkpt><trkpt lat="42.2229983" lon="14.55128"><ele>106.66666666666667</ele><time>2026-04-07T13:30:24.835Z</time></trkpt><trkpt lat="42.2229367" lon="14.5513383"><ele>107.83333333333334</ele><time>2026-04-07T13:33:30.833Z</time></trkpt><trkpt lat="42.2228883" lon="14.551405"><ele>109.0</ele><time>2026-04-07T13:33:34.833Z</time></trkpt><trkpt lat="42.22284" lon="14.551505"><ele>109.00000000000001</ele><time>2026-04-07T13:33:38.833Z</time></trkpt><trkpt lat="42.222795" lon="14.55161"><ele>109.0</ele><time>2026-04-07T13:33:41.833Z</time></trkpt><trkpt lat="42.2227733" lon="14.551695"><ele>109.0</ele><time>2026-04-07T13:33:43.834Z</time></trkpt><trkpt lat="42.222745" lon="14.551775"><ele>109.0</ele><time>2026-04-07T13:33:45.833Z</time></trkpt><trkpt lat="42.2227017" lon="14.5518733"><ele>109.00000000000001</ele><time>2026-04-07T13:33:48.833Z</time></trkpt><trkpt lat="42.222655" lon="14.551965"><ele>109.0</ele><time>2026-04-07T13:33:51.834Z</time></trkpt><trkpt lat="42.222615" lon="14.55207"><ele>108.33333333333334</ele><time>2026-04-07T13:33:54.834Z</time></trkpt><trkpt lat="42.2225717" lon="14.5521583"><ele>107.66666666666667</ele><time>2026-04-07T13:33:57.834Z</time></trkpt><trkpt lat="42.2225433" lon="14.55226"><ele>107.0</ele><time>2026-04-07T13:34:00.833Z</time></trkpt><trkpt lat="42.2225117" lon="14.5523517"><ele>106.33333333333334</ele><time>2026-04-07T13:34:03.834Z</time></trkpt><trkpt lat="42.2224683" lon="14.5524567"><ele>105.66666666666667</ele><time>2026-04-07T13:34:06.834Z</time></trkpt><trkpt lat="42.2224333" lon="14.55256"><ele>105.0</ele><time>2026-04-07T13:34:08.833Z</time></trkpt><trkpt lat="42.2223983" lon="14.55268"><ele>105.0</ele><time>2026-04-07T13:34:10.834Z</time></trkpt><trkpt lat="42.22235" lon="14.5527817"><ele>105.0</ele><time>2026-04-07T13:34:12.833Z</time></trkpt><trkpt lat="42.2223083" lon="14.5529117"><ele>105.0</ele><time>2026-04-07T13:34:14.834Z</time></trkpt><trkpt lat="42.2222717" lon="14.5530367"><ele>105.0</ele><time>2026-04-07T13:34:16.833Z</time></trkpt><trkpt lat="42.2222333" lon="14.553155"><ele>105.0</ele><time>2026-04-07T13:34:18.833Z</time></trkpt><trkpt lat="42.22219" lon="14.5532783"><ele>105.0</ele><time>2026-04-07T13:34:20.833Z</time></trkpt><trkpt lat="42.2221583" lon="14.5534083"><ele>105.0</ele><time>2026-04-07T13:34:22.833Z</time></trkpt><trkpt lat="42.2221283" lon="14.5535367"><ele>105.0</ele><time>2026-04-07T13:34:24.833Z</time></trkpt><trkpt lat="42.2221" lon="14.55367"><ele>105.0</ele><time>2026-04-07T13:34:26.833Z</time></trkpt><trkpt lat="42.2220783" lon="14.5538133"><ele>105.0</ele><time>2026-04-07T13:34:28.833Z</time></trkpt><trkpt lat="42.2220483" lon="14.5539517"><ele>105.2</ele><time>2026-04-07T13:34:30.833Z</time></trkpt><trkpt lat="42.2220333" lon="14.5540883"><ele>105.4</ele><time>2026-04-07T13:34:32.833Z</time></trkpt><trkpt lat="42.2220117" lon="14.5542333"><ele>105.6</ele><time>2026-04-07T13:34:34.833Z</time></trkpt><trkpt lat="42.2219833" lon="14.5543733"><ele>105.8</ele><time>2026-04-07T13:34:36.834Z</time></trkpt><trkpt lat="42.2219583" lon="14.554505"><ele>106.0</ele><time>2026-04-07T13:34:38.833Z</time></trkpt><trkpt lat="42.221935" lon="14.5546133"><ele>106.00000000000001</ele><time>2026-04-07T13:34:40.833Z</time></trkpt><trkpt lat="42.221915" lon="14.5547283"><ele>106.0</ele><time>2026-04-07T13:34:42.833Z</time></trkpt><trkpt lat="42.22188" lon="14.55483"><ele>106.0</ele><time>2026-04-07T13:34:44.833Z</time></trkpt><trkpt lat="42.2218433" lon="14.5549433"><ele>106.0</ele><time>2026-04-07T13:34:46.834Z</time></trkpt><trkpt lat="42.2218" lon="14.555055"><ele>106.00000000000001</ele><time>2026-04-07T13:34:48.833Z</time></trkpt><trkpt lat="42.2217583" lon="14.5551667"><ele>106.0</ele><time>2026-04-07T13:34:50.833Z</time></trkpt><trkpt lat="42.22171" lon="14.5552783"><ele>105.83333333333334</ele><time>2026-04-07T13:34:52.833Z</time></trkpt><trkpt lat="42.221665" lon="14.555385"><ele>105.66666666666667</ele><time>2026-04-07T13:34:54.833Z</time></trkpt><trkpt lat="42.2216017" lon="14.5554767"><ele>105.5</ele><time>2026-04-07T13:34:56.834Z</time></trkpt><trkpt lat="42.2215217" lon="14.55551"><ele>105.33333333333334</ele><time>2026-04-07T13:34:58.833Z</time></trkpt><trkpt lat="42.2214367" lon="14.5554883"><ele>105.16666666666667</ele><time>2026-04-07T13:35:00.834Z</time></trkpt><trkpt lat="42.2213567" lon="14.5554233"><ele>105.0</ele><time>2026-04-07T13:35:02.833Z</time></trkpt><trkpt lat="42.2212833" lon="14.5553533"><ele>105.0</ele><time>2026-04-07T13:35:04.833Z</time></trkpt><trkpt lat="42.2212117" lon="14.555285"><ele>105.0</ele><time>2026-04-07T13:35:06.833Z</time></trkpt><trkpt lat="42.2211433" lon="14.55522"><ele>105.0</ele><time>2026-04-07T13:35:08.834Z</time></trkpt><trkpt lat="42.2210683" lon="14.5551567"><ele>105.0</ele><time>2026-04-07T13:35:10.833Z</time></trkpt><trkpt lat="42.221005" lon="14.555095"><ele>105.0</ele><time>2026-04-07T13:35:12.833Z</time></trkpt><trkpt lat="42.22094" lon="14.5550333"><ele>105.0</ele><time>2026-04-07T13:35:14.833Z</time></trkpt><trkpt lat="42.2208733" lon="14.5549717"><ele>105.0</ele><time>2026-04-07T13:35:16.833Z</time></trkpt><trkpt lat="42.22081" lon="14.554945"><ele>105.0</ele><time>2026-04-07T13:35:18.833Z</time></trkpt><trkpt lat="42.2207417" lon="14.5550167"><ele>105.0</ele><time>2026-04-07T13:35:21.833Z</time></trkpt><trkpt lat="42.220695" lon="14.5551083"><ele>105.0</ele><time>2026-04-07T13:35:23.833Z</time></trkpt><trkpt lat="42.2206433" lon="14.5552267"><ele>105.0</ele><time>2026-04-07T13:35:25.833Z</time></trkpt><trkpt lat="42.2205917" lon="14.555345"><ele>105.0</ele><time>2026-04-07T13:35:27.833Z</time></trkpt><trkpt lat="42.2205317" lon="14.5554733"><ele>104.5</ele><time>2026-04-07T13:35:29.833Z</time></trkpt><trkpt lat="42.2204717" lon="14.5556"><ele>104.0</ele><time>2026-04-07T13:35:31.833Z</time></trkpt><trkpt lat="42.2204133" lon="14.5557267"><ele>103.5</ele><time>2026-04-07T13:35:33.833Z</time></trkpt><trkpt lat="42.2203533" lon="14.5558567"><ele>103.0</ele><time>2026-04-07T13:35:35.833Z</time></trkpt><trkpt lat="42.22029" lon="14.5559883"><ele>103.0</ele><time>2026-04-07T13:35:37.833Z</time></trkpt><trkpt lat="42.2202317" lon="14.5561167"><ele>103.0</ele><time>2026-04-07T13:35:39.833Z</time></trkpt><trkpt lat="42.2201717" lon="14.5562483"><ele>103.0</ele><time>2026-04-07T13:35:41.833Z</time></trkpt><trkpt lat="42.22011" lon="14.5563817"><ele>103.0</ele><time>2026-04-07T13:35:43.833Z</time></trkpt><trkpt lat="42.22006" lon="14.5565083"><ele>103.0</ele><time>2026-04-07T13:35:45.833Z</time></trkpt><trkpt lat="42.2200017" lon="14.5566317"><ele>102.60000000000001</ele><time>2026-04-07T13:35:47.833Z</time></trkpt><trkpt lat="42.2199383" lon="14.55675"><ele>102.2</ele><time>2026-04-07T13:35:49.833Z</time></trkpt><trkpt lat="42.21988" lon="14.5568683"><ele>101.8</ele><time>2026-04-07T13:35:51.833Z</time></trkpt><trkpt lat="42.2198217" lon="14.5569967"><ele>101.4</ele><time>2026-04-07T13:35:53.834Z</time></trkpt><trkpt lat="42.219765" lon="14.5571317"><ele>101.0</ele><time>2026-04-07T13:35:55.833Z</time></trkpt><trkpt lat="42.2197117" lon="14.5572633"><ele>100.75</ele><time>2026-04-07T13:35:57.833Z</time></trkpt><trkpt lat="42.2196567" lon="14.5573933"><ele>100.5</ele><time>2026-04-07T13:35:59.833Z</time></trkpt><trkpt lat="42.2195983" lon="14.5575383"><ele>100.25</ele><time>2026-04-07T13:36:01.833Z</time></trkpt><trkpt lat="42.2195417" lon="14.557675"><ele>100.0</ele><time>2026-04-07T13:36:03.833Z</time></trkpt><trkpt lat="42.2194867" lon="14.5578083"><ele>99.8</ele><time>2026-04-07T13:36:05.834Z</time></trkpt><trkpt lat="42.2194283" lon="14.5579283"><ele>99.6</ele><time>2026-04-07T13:36:07.834Z</time></trkpt><trkpt lat="42.2193683" lon="14.5580533"><ele>99.4</ele><time>2026-04-07T13:36:09.833Z</time></trkpt><trkpt lat="42.21931" lon="14.5581767"><ele>99.2</ele><time>2026-04-07T13:36:11.833Z</time></trkpt><trkpt lat="42.219245" lon="14.5583033"><ele>99.0</ele><time>2026-04-07T13:36:13.833Z</time></trkpt><trkpt lat="42.2191817" lon="14.5584333"><ele>99.0</ele><time>2026-04-07T13:36:15.834Z</time></trkpt><trkpt lat="42.2191283" lon="14.5585517"><ele>99.0</ele><time>2026-04-07T13:36:17.833Z</time></trkpt><trkpt lat="42.2190783" lon="14.558665"><ele>99.0</ele><time>2026-04-07T13:36:19.833Z</time></trkpt><trkpt lat="42.2190533" lon="14.55878"><ele>99.0</ele><time>2026-04-07T13:36:21.834Z</time></trkpt><trkpt lat="42.2190967" lon="14.5588683"><ele>99.0</ele><time>2026-04-07T13:36:23.833Z</time></trkpt><trkpt lat="42.2191833" lon="14.5589433"><ele>98.6</ele><time>2026-04-07T13:36:25.833Z</time></trkpt><trkpt lat="42.219285" lon="14.5590317"><ele>98.2</ele><time>2026-04-07T13:36:27.833Z</time></trkpt><trkpt lat="42.21938" lon="14.5591033"><ele>97.8</ele><time>2026-04-07T13:36:29.834Z</time></trkpt><trkpt lat="42.219465" lon="14.5591717"><ele>97.39999999999999</ele><time>2026-04-07T13:36:31.833Z</time></trkpt><trkpt lat="42.2195517" lon="14.5592433"><ele>97.0</ele><time>2026-04-07T13:36:33.834Z</time></trkpt><trkpt lat="42.21963" lon="14.5593233"><ele>97.0</ele><time>2026-04-07T13:36:35.833Z</time></trkpt><trkpt lat="42.2196633" lon="14.5594333"><ele>97.0</ele><time>2026-04-07T13:36:37.833Z</time></trkpt><trkpt lat="42.21964" lon="14.5595567"><ele>97.0</ele><time>2026-04-07T13:36:39.833Z</time></trkpt><trkpt lat="42.219565" lon="14.5596433"><ele>97.0</ele><time>2026-04-07T13:36:41.833Z</time></trkpt><trkpt lat="42.2194917" lon="14.559735"><ele>97.0</ele><time>2026-04-07T13:36:43.833Z</time></trkpt><trkpt lat="42.219435" lon="14.5598333"><ele>96.6</ele><time>2026-04-07T13:36:45.833Z</time></trkpt><trkpt lat="42.2193783" lon="14.5599267"><ele>96.19999999999999</ele><time>2026-04-07T13:36:47.833Z</time></trkpt><trkpt lat="42.21933" lon="14.560025"><ele>95.8</ele><time>2026-04-07T13:36:49.833Z</time></trkpt><trkpt lat="42.21928" lon="14.5601417"><ele>95.4</ele><time>2026-04-07T13:36:51.833Z</time></trkpt><trkpt lat="42.21924" lon="14.5602617"><ele>95.0</ele><time>2026-04-07T13:36:53.833Z</time></trkpt><trkpt lat="42.2192017" lon="14.5603933"><ele>93.4</ele><time>2026-04-07T13:36:55.833Z</time></trkpt><trkpt lat="42.2191683" lon="14.5605333"><ele>91.8</ele><time>2026-04-07T13:36:57.833Z</time></trkpt><trkpt lat="42.2191183" lon="14.5606683"><ele>90.19999999999999</ele><time>2026-04-07T13:36:59.833Z</time></trkpt><trkpt lat="42.2190667" lon="14.560825"><ele>88.6</ele><time>2026-04-07T13:37:01.833Z</time></trkpt><trkpt lat="42.2190417" lon="14.560905"><ele>87.0</ele><time>2026-04-07T13:37:02.834Z</time></trkpt><trkpt lat="42.2190067" lon="14.560985"><ele>87.16666666666667</ele><time>2026-04-07T13:37:03.833Z</time></trkpt><trkpt lat="42.2189683" lon="14.5610667"><ele>87.33333333333333</ele><time>2026-04-07T13:37:04.834Z</time></trkpt><trkpt lat="42.21894" lon="14.5611517"><ele>87.5</ele><time>2026-04-07T13:37:05.833Z</time></trkpt><trkpt lat="42.218915" lon="14.56124"><ele>87.66666666666666</ele><time>2026-04-07T13:37:06.833Z</time></trkpt><trkpt lat="42.2188933" lon="14.56132"><ele>87.83333333333333</ele><time>2026-04-07T13:37:07.833Z</time></trkpt><trkpt lat="42.2188333" lon="14.5614533"><ele>88.0</ele><time>2026-04-07T13:37:09.833Z</time></trkpt><trkpt lat="42.2187583" lon="14.5615417"><ele>88.0</ele><time>2026-04-07T13:37:11.833Z</time></trkpt><trkpt lat="42.2186817" lon="14.56161"><ele>88.0</ele><time>2026-04-07T13:37:13.833Z</time></trkpt><trkpt lat="42.2186033" lon="14.5616767"><ele>88.0</ele><time>2026-04-07T13:37:15.833Z</time></trkpt><trkpt lat="42.2185317" lon="14.5617467"><ele>88.0</ele><time>2026-04-07T13:37:17.833Z</time></trkpt><trkpt lat="42.2184583" lon="14.56181"><ele>88.0</ele><time>2026-04-07T13:37:19.833Z</time></trkpt><trkpt lat="42.2183817" lon="14.5618683"><ele>88.0</ele><time>2026-04-07T13:37:21.833Z</time></trkpt><trkpt lat="42.2183083" lon="14.5619367"><ele>88.0</ele><time>2026-04-07T13:37:23.833Z</time></trkpt><trkpt lat="42.21823" lon="14.5619967"><ele>88.0</ele><time>2026-04-07T13:37:25.833Z</time></trkpt><trkpt lat="42.2181433" lon="14.5620683"><ele>88.0</ele><time>2026-04-07T13:37:27.833Z</time></trkpt><trkpt lat="42.2180617" lon="14.5621433"><ele>88.0</ele><time>2026-04-07T13:37:29.833Z</time></trkpt><trkpt lat="42.2179917" lon="14.5622317"><ele>88.0</ele><time>2026-04-07T13:37:31.833Z</time></trkpt><trkpt lat="42.21792" lon="14.562315"><ele>87.0</ele><time>2026-04-07T13:37:33.833Z</time></trkpt><trkpt lat="42.2178517" lon="14.5623967"><ele>86.0</ele><time>2026-04-07T13:37:35.833Z</time></trkpt><trkpt lat="42.2177733" lon="14.562495"><ele>85.0</ele><time>2026-04-07T13:37:37.834Z</time></trkpt><trkpt lat="42.2176933" lon="14.5625933"><ele>84.0</ele><time>2026-04-07T13:37:39.834Z</time></trkpt><trkpt lat="42.2176083" lon="14.5627183"><ele>83.0</ele><time>2026-04-07T13:37:41.833Z</time></trkpt><trkpt lat="42.217565" lon="14.562795"><ele>82.66666666666667</ele><time>2026-04-07T13:37:42.834Z</time></trkpt><trkpt lat="42.2175217" lon="14.5628717"><ele>82.33333333333334</ele><time>2026-04-07T13:37:43.833Z</time></trkpt><trkpt lat="42.2174817" lon="14.56294"><ele>82.0</ele><time>2026-04-07T13:37:44.833Z</time></trkpt><trkpt lat="42.2174333" lon="14.5630083"><ele>81.66666666666667</ele><time>2026-04-07T13:37:45.833Z</time></trkpt><trkpt lat="42.2173783" lon="14.5630633"><ele>81.33333333333333</ele><time>2026-04-07T13:37:46.833Z</time></trkpt><trkpt lat="42.2172917" lon="14.563145"><ele>81.0</ele><time>2026-04-07T13:37:48.833Z</time></trkpt><trkpt lat="42.2172283" lon="14.5632233"><ele>81.0</ele><time>2026-04-07T13:37:50.833Z</time></trkpt><trkpt lat="42.2171817" lon="14.5632933"><ele>81.0</ele><time>2026-04-07T13:37:53.833Z</time></trkpt><trkpt lat="42.2171267" lon="14.5633533"><ele>81.0</ele><time>2026-04-07T13:37:56.833Z</time></trkpt><trkpt lat="42.2170667" lon="14.5634183"><ele>81.0</ele><time>2026-04-07T13:37:58.833Z</time></trkpt><trkpt lat="42.2169933" lon="14.5634967"><ele>81.0</ele><time>2026-04-07T13:38:00.833Z</time></trkpt><trkpt lat="42.216895" lon="14.5635733"><ele>81.0</ele><time>2026-04-07T13:38:02.833Z</time></trkpt><trkpt lat="42.2168017" lon="14.5636583"><ele>81.5</ele><time>2026-04-07T13:38:04.834Z</time></trkpt><trkpt lat="42.2166867" lon="14.563725"><ele>82.0</ele><time>2026-04-07T13:38:06.833Z</time></trkpt><trkpt lat="42.2165683" lon="14.56379"><ele>82.5</ele><time>2026-04-07T13:38:08.833Z</time></trkpt><trkpt lat="42.21651" lon="14.5638233"><ele>83.0</ele><time>2026-04-07T13:38:09.833Z</time></trkpt><trkpt lat="42.21645" lon="14.563855"><ele>83.5</ele><time>2026-04-07T13:38:10.833Z</time></trkpt><trkpt lat="42.2163867" lon="14.5638833"><ele>84.0</ele><time>2026-04-07T13:38:11.833Z</time></trkpt><trkpt lat="42.2163233" lon="14.5639117"><ele>84.0</ele><time>2026-04-07T13:38:12.834Z</time></trkpt><trkpt lat="42.2162167" lon="14.5639583"><ele>84.0</ele><time>2026-04-07T13:38:14.834Z</time></trkpt><trkpt lat="42.2161317" lon="14.5640083"><ele>84.0</ele><time>2026-04-07T13:38:16.834Z</time></trkpt><trkpt lat="42.2161817" lon="14.56391"><ele>84.0</ele><time>2026-04-07T13:38:24.833Z</time></trkpt><trkpt lat="42.2162633" lon="14.5638517"><ele>84.0</ele><time>2026-04-07T13:38:26.834Z</time></trkpt><trkpt lat="42.2163483" lon="14.563785"><ele>83.25</ele><time>2026-04-07T13:38:28.833Z</time></trkpt><trkpt lat="42.2164483" lon="14.5636967"><ele>82.5</ele><time>2026-04-07T13:38:30.833Z</time></trkpt><trkpt lat="42.216535" lon="14.5635933"><ele>81.75</ele><time>2026-04-07T13:38:32.833Z</time></trkpt><trkpt lat="42.216575" lon="14.5634533"><ele>81.0</ele><time>2026-04-07T13:38:34.833Z</time></trkpt><trkpt lat="42.2165717" lon="14.5633"><ele>81.0</ele><time>2026-04-07T13:38:36.833Z</time></trkpt><trkpt lat="42.2165033" lon="14.5631983"><ele>81.0</ele><time>2026-04-07T13:38:38.833Z</time></trkpt><trkpt lat="42.2164" lon="14.5631967"><ele>81.0</ele><time>2026-04-07T13:38:40.833Z</time></trkpt><trkpt lat="42.216285" lon="14.5632533"><ele>81.0</ele><time>2026-04-07T13:38:42.833Z</time></trkpt><trkpt lat="42.216225" lon="14.563285"><ele>81.0</ele><time>2026-04-07T13:38:43.833Z</time></trkpt><trkpt lat="42.21611" lon="14.563345"><ele>80.75</ele><time>2026-04-07T13:38:45.833Z</time></trkpt><trkpt lat="42.2160067" lon="14.5634083"><ele>80.5</ele><time>2026-04-07T13:38:47.833Z</time></trkpt><trkpt lat="42.2159033" lon="14.5634667"><ele>80.25</ele><time>2026-04-07T13:38:49.833Z</time></trkpt><trkpt lat="42.2158017" lon="14.5635267"><ele>80.0</ele><time>2026-04-07T13:38:51.833Z</time></trkpt><trkpt lat="42.2156917" lon="14.5635883"><ele>80.4</ele><time>2026-04-07T13:38:53.833Z</time></trkpt><trkpt lat="42.2155933" lon="14.5636517"><ele>80.8</ele><time>2026-04-07T13:38:55.833Z</time></trkpt><trkpt lat="42.2155" lon="14.5637083"><ele>81.19999999999999</ele><time>2026-04-07T13:38:57.833Z</time></trkpt><trkpt lat="42.2154" lon="14.5637567"><ele>81.6</ele><time>2026-04-07T13:38:59.833Z</time></trkpt><trkpt lat="42.215295" lon="14.5637983"><ele>82.0</ele><time>2026-04-07T13:39:01.833Z</time></trkpt><trkpt lat="42.2151867" lon="14.5638383"><ele>81.19999999999999</ele><time>2026-04-07T13:39:03.833Z</time></trkpt><trkpt lat="42.2150833" lon="14.5638817"><ele>80.39999999999999</ele><time>2026-04-07T13:39:05.833Z</time></trkpt><trkpt lat="42.2149983" lon="14.5639283"><ele>79.6</ele><time>2026-04-07T13:39:07.833Z</time></trkpt><trkpt lat="42.2149117" lon="14.5639617"><ele>78.8</ele><time>2026-04-07T13:39:09.834Z</time></trkpt><trkpt lat="42.214825" lon="14.5639867"><ele>78.0</ele><time>2026-04-07T13:39:11.833Z</time></trkpt><trkpt lat="42.2147433" lon="14.564005"><ele>77.33333333333333</ele><time>2026-04-07T13:39:13.833Z</time></trkpt><trkpt lat="42.2146667" lon="14.56401"><ele>76.66666666666667</ele><time>2026-04-07T13:39:15.833Z</time></trkpt><trkpt lat="42.2146033" lon="14.5640183"><ele>76.0</ele><time>2026-04-07T13:39:17.833Z</time></trkpt><trkpt lat="42.2145183" lon="14.5640083"><ele>75.33333333333334</ele><time>2026-04-07T13:39:20.833Z</time></trkpt><trkpt lat="42.21443" lon="14.563965"><ele>74.66666666666667</ele><time>2026-04-07T13:39:23.834Z</time></trkpt><trkpt lat="42.2143683" lon="14.5638883"><ele>74.0</ele><time>2026-04-07T13:39:26.834Z</time></trkpt><trkpt lat="42.2143233" lon="14.5637767"><ele>75.0</ele><time>2026-04-07T13:39:29.833Z</time></trkpt><trkpt lat="42.214295" lon="14.5636967"><ele>76.0</ele><time>2026-04-07T13:39:31.833Z</time></trkpt><trkpt lat="42.2142667" lon="14.56362"><ele>77.0</ele><time>2026-04-07T13:39:33.833Z</time></trkpt><trkpt lat="42.214245" lon="14.563505"><ele>78.0</ele><time>2026-04-07T13:39:36.834Z</time></trkpt><trkpt lat="42.21422" lon="14.56339"><ele>79.0</ele><time>2026-04-07T13:39:39.833Z</time></trkpt><trkpt lat="42.2141983" lon="14.5632967"><ele>80.0</ele><time>2026-04-07T13:39:41.833Z</time></trkpt><trkpt lat="42.2141633" lon="14.5632017"><ele>80.0</ele><time>2026-04-07T13:39:43.833Z</time></trkpt><trkpt lat="42.21411" lon="14.56312"><ele>80.0</ele><time>2026-04-07T13:39:45.834Z</time></trkpt><trkpt lat="42.2140383" lon="14.563095"><ele>80.0</ele><time>2026-04-07T13:39:47.834Z</time></trkpt><trkpt lat="42.213995" lon="14.5631767"><ele>80.0</ele><time>2026-04-07T13:39:50.833Z</time></trkpt><trkpt lat="42.213985" lon="14.563285"><ele>80.0</ele><time>2026-04-07T13:39:53.833Z</time></trkpt><trkpt lat="42.2139667" lon="14.5633767"><ele>80.0</ele><time>2026-04-07T13:39:55.833Z</time></trkpt><trkpt lat="42.2139533" lon="14.5634667"><ele>80.0</ele><time>2026-04-07T13:39:57.833Z</time></trkpt><trkpt lat="42.21393" lon="14.5635867"><ele>80.66666666666667</ele><time>2026-04-07T13:40:00.833Z</time></trkpt><trkpt lat="42.2139017" lon="14.563675"><ele>81.33333333333334</ele><time>2026-04-07T13:40:03.833Z</time></trkpt><trkpt lat="42.2138833" lon="14.56379"><ele>82.0</ele><time>2026-04-07T13:40:06.834Z</time></trkpt><trkpt lat="42.2138433" lon="14.5638967"><ele>82.66666666666667</ele><time>2026-04-07T13:40:09.833Z</time></trkpt><trkpt lat="42.21379" lon="14.564"><ele>83.33333333333333</ele><time>2026-04-07T13:40:12.833Z</time></trkpt><trkpt lat="42.2137217" lon="14.5640767"><ele>84.0</ele><time>2026-04-07T13:40:15.833Z</time></trkpt><trkpt lat="42.2136433" lon="14.564135"><ele>84.0</ele><time>2026-04-07T13:40:18.833Z</time></trkpt><trkpt lat="42.213575" lon="14.5641583"><ele>84.0</ele><time>2026-04-07T13:40:21.833Z</time></trkpt><trkpt lat="42.21351" lon="14.5641683"><ele>84.0</ele><time>2026-04-07T13:40:24.833Z</time></trkpt><trkpt lat="42.2134383" lon="14.5641617"><ele>84.0</ele><time>2026-04-07T13:40:27.834Z</time></trkpt><trkpt lat="42.2133667" lon="14.5641433"><ele>84.0</ele><time>2026-04-07T13:40:30.834Z</time></trkpt><trkpt lat="42.2132917" lon="14.5641267"><ele>84.0</ele><time>2026-04-07T13:40:33.833Z</time></trkpt><trkpt lat="42.2132283" lon="14.5641"><ele>84.0</ele><time>2026-04-07T13:40:36.833Z</time></trkpt><trkpt lat="42.2131467" lon="14.564055"><ele>85.0</ele><time>2026-04-07T13:40:39.833Z</time></trkpt><trkpt lat="42.2130783" lon="14.5639933"><ele>86.0</ele><time>2026-04-07T13:40:42.833Z</time></trkpt><trkpt lat="42.21302" lon="14.5639283"><ele>87.0</ele><time>2026-04-07T13:40:45.833Z</time></trkpt><trkpt lat="42.2129667" lon="14.5638433"><ele>88.0</ele><time>2026-04-07T13:40:48.833Z</time></trkpt><trkpt lat="42.2129117" lon="14.5637583"><ele>89.0</ele><time>2026-04-07T13:40:51.833Z</time></trkpt><trkpt lat="42.2128683" lon="14.5636733"><ele>90.0</ele><time>2026-04-07T13:40:54.833Z</time></trkpt><trkpt lat="42.212835" lon="14.5635883"><ele>90.0</ele><time>2026-04-07T13:40:57.833Z</time></trkpt><trkpt lat="42.2127883" lon="14.5634983"><ele>90.0</ele><time>2026-04-07T13:41:00.834Z</time></trkpt><trkpt lat="42.21275" lon="14.5634233"><ele>90.0</ele><time>2026-04-07T13:41:02.833Z</time></trkpt><trkpt lat="42.2127017" lon="14.5633483"><ele>90.0</ele><time>2026-04-07T13:41:04.833Z</time></trkpt><trkpt lat="42.2126433" lon="14.563275"><ele>90.0</ele><time>2026-04-07T13:41:06.833Z</time></trkpt><trkpt lat="42.212575" lon="14.5632033"><ele>90.0</ele><time>2026-04-07T13:41:08.833Z</time></trkpt><trkpt lat="42.2125167" lon="14.563145"><ele>90.0</ele><time>2026-04-07T13:41:10.834Z</time></trkpt><trkpt lat="42.2124533" lon="14.5630883"><ele>90.0</ele><time>2026-04-07T13:41:12.834Z</time></trkpt><trkpt lat="42.21239" lon="14.56303"><ele>90.0</ele><time>2026-04-07T13:41:14.834Z</time></trkpt><trkpt lat="42.2123317" lon="14.5629633"><ele>90.0</ele><time>2026-04-07T13:41:16.833Z</time></trkpt><trkpt lat="42.2122733" lon="14.5628983"><ele>90.0</ele><time>2026-04-07T13:41:18.833Z</time></trkpt><trkpt lat="42.2122067" lon="14.562845"><ele>90.0</ele><time>2026-04-07T13:41:20.833Z</time></trkpt><trkpt lat="42.2121417" lon="14.5627933"><ele>90.16666666666667</ele><time>2026-04-07T13:41:22.833Z</time></trkpt><trkpt lat="42.2120767" lon="14.5627367"><ele>90.33333333333333</ele><time>2026-04-07T13:41:24.833Z</time></trkpt><trkpt lat="42.21201" lon="14.5626783"><ele>90.5</ele><time>2026-04-07T13:41:26.833Z</time></trkpt><trkpt lat="42.2119483" lon="14.5626283"><ele>90.66666666666666</ele><time>2026-04-07T13:41:28.833Z</time></trkpt><trkpt lat="42.2118867" lon="14.5625867"><ele>90.83333333333333</ele><time>2026-04-07T13:41:30.833Z</time></trkpt><trkpt lat="42.2118117" lon="14.562515"><ele>91.0</ele><time>2026-04-07T13:41:33.833Z</time></trkpt><trkpt lat="42.21174" lon="14.5624583"><ele>91.0</ele><time>2026-04-07T13:41:36.833Z</time></trkpt><trkpt lat="42.2116733" lon="14.5624"><ele>91.0</ele><time>2026-04-07T13:41:39.833Z</time></trkpt><trkpt lat="42.2116117" lon="14.5623517"><ele>91.0</ele><time>2026-04-07T13:41:41.833Z</time></trkpt><trkpt lat="42.2115483" lon="14.5622917"><ele>91.0</ele><time>2026-04-07T13:41:43.833Z</time></trkpt><trkpt lat="42.2114917" lon="14.5622367"><ele>91.0</ele><time>2026-04-07T13:41:45.833Z</time></trkpt><trkpt lat="42.2114367" lon="14.562185"><ele>91.0</ele><time>2026-04-07T13:41:47.833Z</time></trkpt><trkpt lat="42.2113633" lon="14.5621283"><ele>91.0</ele><time>2026-04-07T13:41:49.833Z</time></trkpt><trkpt lat="42.2112833" lon="14.56207"><ele>90.19999999999999</ele><time>2026-04-07T13:41:51.833Z</time></trkpt><trkpt lat="42.2112" lon="14.5620017"><ele>89.39999999999999</ele><time>2026-04-07T13:41:53.833Z</time></trkpt><trkpt lat="42.21111" lon="14.5619233"><ele>88.6</ele><time>2026-04-07T13:41:55.833Z</time></trkpt><trkpt lat="42.21102" lon="14.5618517"><ele>87.8</ele><time>2026-04-07T13:41:57.833Z</time></trkpt><trkpt lat="42.2109183" lon="14.5617733"><ele>87.0</ele><time>2026-04-07T13:41:59.833Z</time></trkpt><trkpt lat="42.2108583" lon="14.56173"><ele>87.0</ele><time>2026-04-07T13:42:00.833Z</time></trkpt><trkpt lat="42.210785" lon="14.5617017"><ele>87.0</ele><time>2026-04-07T13:42:01.833Z</time></trkpt><trkpt lat="42.2107083" lon="14.5616833"><ele>87.0</ele><time>2026-04-07T13:42:02.833Z</time></trkpt><trkpt lat="42.21063" lon="14.5616683"><ele>87.0</ele><time>2026-04-07T13:42:03.834Z</time></trkpt><trkpt lat="42.2105483" lon="14.5616617"><ele>87.0</ele><time>2026-04-07T13:42:04.833Z</time></trkpt><trkpt lat="42.2104633" lon="14.561655"><ele>87.0</ele><time>2026-04-07T13:42:05.833Z</time></trkpt><trkpt lat="42.2103833" lon="14.5616467"><ele>85.57142857142857</ele><time>2026-04-07T13:42:06.833Z</time></trkpt><trkpt lat="42.210305" lon="14.56164"><ele>84.14285714285714</ele><time>2026-04-07T13:42:07.833Z</time></trkpt><trkpt lat="42.2102317" lon="14.5616333"><ele>82.71428571428572</ele><time>2026-04-07T13:42:08.833Z</time></trkpt><trkpt lat="42.2101583" lon="14.5616433"><ele>81.28571428571428</ele><time>2026-04-07T13:42:09.834Z</time></trkpt><trkpt lat="42.21009" lon="14.5616667"><ele>79.85714285714286</ele><time>2026-04-07T13:42:10.833Z</time></trkpt><trkpt lat="42.2100233" lon="14.561705"><ele>78.42857142857143</ele><time>2026-04-07T13:42:11.833Z</time></trkpt><trkpt lat="42.2099533" lon="14.561755"><ele>77.0</ele><time>2026-04-07T13:42:12.833Z</time></trkpt><trkpt lat="42.2098783" lon="14.561815"><ele>75.33333333333334</ele><time>2026-04-07T13:42:13.833Z</time></trkpt><trkpt lat="42.20981" lon="14.5618883"><ele>73.66666666666667</ele><time>2026-04-07T13:42:14.833Z</time></trkpt><trkpt lat="42.2097433" lon="14.56197"><ele>72.0</ele><time>2026-04-07T13:42:15.833Z</time></trkpt><trkpt lat="42.2096783" lon="14.5620567"><ele>70.33333333333333</ele><time>2026-04-07T13:42:16.833Z</time></trkpt><trkpt lat="42.209625" lon="14.56215"><ele>68.66666666666666</ele><time>2026-04-07T13:42:17.833Z</time></trkpt><trkpt lat="42.2095767" lon="14.5622417"><ele>67.0</ele><time>2026-04-07T13:42:18.833Z</time></trkpt><trkpt lat="42.2095333" lon="14.5623317"><ele>67.0</ele><time>2026-04-07T13:42:19.834Z</time></trkpt><trkpt lat="42.2095033" lon="14.5624217"><ele>67.0</ele><time>2026-04-07T13:42:20.833Z</time></trkpt><trkpt lat="42.2094867" lon="14.56252"><ele>67.0</ele><time>2026-04-07T13:42:21.834Z</time></trkpt><trkpt lat="42.20948" lon="14.5626183"><ele>67.0</ele><time>2026-04-07T13:42:22.833Z</time></trkpt><trkpt lat="42.20948" lon="14.56272"><ele>67.0</ele><time>2026-04-07T13:42:23.833Z</time></trkpt><trkpt lat="42.209465" lon="14.5628783"><ele>67.0</ele><time>2026-04-07T13:42:25.834Z</time></trkpt><trkpt lat="42.2093967" lon="14.5630033"><ele>67.0</ele><time>2026-04-07T13:42:27.833Z</time></trkpt><trkpt lat="42.2093333" lon="14.5630317"><ele>67.0</ele><time>2026-04-07T13:42:28.833Z</time></trkpt><trkpt lat="42.2092667" lon="14.5630183"><ele>67.0</ele><time>2026-04-07T13:42:29.834Z</time></trkpt><trkpt lat="42.2091983" lon="14.5629583"><ele>67.0</ele><time>2026-04-07T13:42:30.833Z</time></trkpt><trkpt lat="42.20914" lon="14.562875"><ele>67.0</ele><time>2026-04-07T13:42:31.833Z</time></trkpt><trkpt lat="42.2091" lon="14.56277"><ele>67.0</ele><time>2026-04-07T13:42:32.833Z</time></trkpt><trkpt lat="42.2090783" lon="14.5626533"><ele>67.0</ele><time>2026-04-07T13:42:33.833Z</time></trkpt><trkpt lat="42.209075" lon="14.5625233"><ele>67.0</ele><time>2026-04-07T13:42:34.834Z</time></trkpt><trkpt lat="42.20908" lon="14.5623983"><ele>67.0</ele><time>2026-04-07T13:42:35.833Z</time></trkpt><trkpt lat="42.209085" lon="14.5622733"><ele>67.0</ele><time>2026-04-07T13:42:36.833Z</time></trkpt><trkpt lat="42.2090967" lon="14.5621383"><ele>67.0</ele><time>2026-04-07T13:42:37.834Z</time></trkpt><trkpt lat="42.2090967" lon="14.5620067"><ele>66.2</ele><time>2026-04-07T13:42:38.833Z</time></trkpt><trkpt lat="42.2091033" lon="14.56187"><ele>65.4</ele><time>2026-04-07T13:42:39.833Z</time></trkpt><trkpt lat="42.2091067" lon="14.5617367"><ele>64.6</ele><time>2026-04-07T13:42:40.833Z</time></trkpt><trkpt lat="42.2091017" lon="14.561605"><ele>63.8</ele><time>2026-04-07T13:42:41.834Z</time></trkpt><trkpt lat="42.2091017" lon="14.5614717"><ele>63.0</ele><time>2026-04-07T13:42:42.833Z</time></trkpt><trkpt lat="42.2091067" lon="14.56135"><ele>63.0</ele><time>2026-04-07T13:42:43.833Z</time></trkpt><trkpt lat="42.2091033" lon="14.5612383"><ele>63.0</ele><time>2026-04-07T13:42:44.833Z</time></trkpt><trkpt lat="42.2091033" lon="14.561125"><ele>63.0</ele><time>2026-04-07T13:42:45.833Z</time></trkpt><trkpt lat="42.2091017" lon="14.5610133"><ele>63.0</ele><time>2026-04-07T13:42:46.834Z</time></trkpt><trkpt lat="42.2090883" lon="14.5609"><ele>63.0</ele><time>2026-04-07T13:42:47.833Z</time></trkpt><trkpt lat="42.2090683" lon="14.56079"><ele>63.0</ele><time>2026-04-07T13:42:48.833Z</time></trkpt><trkpt lat="42.209045" lon="14.5606917"><ele>62.166666666666664</ele><time>2026-04-07T13:42:49.833Z</time></trkpt><trkpt lat="42.2090233" lon="14.5606067"><ele>61.33333333333333</ele><time>2026-04-07T13:42:50.834Z</time></trkpt><trkpt lat="42.2089867" lon="14.5604583"><ele>60.5</ele><time>2026-04-07T13:42:52.833Z</time></trkpt><trkpt lat="42.20895" lon="14.5603733"><ele>59.666666666666664</ele><time>2026-04-07T13:42:54.834Z</time></trkpt><trkpt lat="42.208885" lon="14.560425"><ele>58.83333333333333</ele><time>2026-04-07T13:43:16.834Z</time></trkpt><trkpt lat="42.2088833" lon="14.56055"><ele>58.0</ele><time>2026-04-07T13:43:19.834Z</time></trkpt><trkpt lat="42.20888" lon="14.5606417"><ele>56.49999999999999</ele><time>2026-04-07T13:43:21.833Z</time></trkpt><trkpt lat="42.2088783" lon="14.56075"><ele>55.0</ele><time>2026-04-07T13:43:23.834Z</time></trkpt><trkpt lat="42.20887" lon="14.5608583"><ele>53.5</ele><time>2026-04-07T13:43:25.833Z</time></trkpt><trkpt lat="42.208865" lon="14.5609683"><ele>52.0</ele><time>2026-04-07T13:43:27.834Z</time></trkpt><trkpt lat="42.2088517" lon="14.5610833"><ele>50.49999999999999</ele><time>2026-04-07T13:43:29.834Z</time></trkpt><trkpt lat="42.2088367" lon="14.5612"><ele>49.0</ele><time>2026-04-07T13:43:31.833Z</time></trkpt><trkpt lat="42.2088233" lon="14.561315"><ele>49.0</ele><time>2026-04-07T13:43:33.833Z</time></trkpt><trkpt lat="42.20881" lon="14.5614383"><ele>49.0</ele><time>2026-04-07T13:43:35.833Z</time></trkpt><trkpt lat="42.2087967" lon="14.5615533"><ele>49.0</ele><time>2026-04-07T13:43:37.833Z</time></trkpt><trkpt lat="42.2087767" lon="14.56168"><ele>49.0</ele><time>2026-04-07T13:43:39.833Z</time></trkpt><trkpt lat="42.20876" lon="14.5618033"><ele>49.0</ele><time>2026-04-07T13:43:41.833Z</time></trkpt><trkpt lat="42.2087383" lon="14.56192"><ele>49.400000000000006</ele><time>2026-04-07T13:43:43.833Z</time></trkpt><trkpt lat="42.208715" lon="14.562045"><ele>49.8</ele><time>2026-04-07T13:43:45.833Z</time></trkpt><trkpt lat="42.2086967" lon="14.5621717"><ele>50.2</ele><time>2026-04-07T13:43:47.834Z</time></trkpt><trkpt lat="42.2086817" lon="14.5623133"><ele>50.599999999999994</ele><time>2026-04-07T13:43:49.834Z</time></trkpt><trkpt lat="42.20866" lon="14.5624467"><ele>51.0</ele><time>2026-04-07T13:43:51.834Z</time></trkpt><trkpt lat="42.2086433" lon="14.5625833"><ele>51.0</ele><time>2026-04-07T13:43:53.833Z</time></trkpt><trkpt lat="42.20862" lon="14.56272"><ele>51.0</ele><time>2026-04-07T13:43:55.833Z</time></trkpt><trkpt lat="42.2085933" lon="14.5628583"><ele>51.0</ele><time>2026-04-07T13:43:57.833Z</time></trkpt><trkpt lat="42.2085683" lon="14.562995"><ele>51.0</ele><time>2026-04-07T13:43:59.834Z</time></trkpt><trkpt lat="42.208545" lon="14.56314"><ele>51.0</ele><time>2026-04-07T13:44:01.833Z</time></trkpt><trkpt lat="42.2085267" lon="14.56328"><ele>50.8</ele><time>2026-04-07T13:44:03.833Z</time></trkpt><trkpt lat="42.2085133" lon="14.5634167"><ele>50.599999999999994</ele><time>2026-04-07T13:44:05.833Z</time></trkpt><trkpt lat="42.208495" lon="14.56356"><ele>50.4</ele><time>2026-04-07T13:44:07.833Z</time></trkpt><trkpt lat="42.20848" lon="14.5637067"><ele>50.2</ele><time>2026-04-07T13:44:09.833Z</time></trkpt><trkpt lat="42.20846" lon="14.5638517"><ele>50.0</ele><time>2026-04-07T13:44:11.833Z</time></trkpt><trkpt lat="42.20844" lon="14.5639917"><ele>50.0</ele><time>2026-04-07T13:44:13.833Z</time></trkpt><trkpt lat="42.2084167" lon="14.5641417"><ele>50.0</ele><time>2026-04-07T13:44:15.833Z</time></trkpt><trkpt lat="42.2083933" lon="14.5642933"><ele>50.0</ele><time>2026-04-07T13:44:17.833Z</time></trkpt><trkpt lat="42.2083667" lon="14.5644517"><ele>50.0</ele><time>2026-04-07T13:44:19.833Z</time></trkpt><trkpt lat="42.2083433" lon="14.5646133"><ele>49.8</ele><time>2026-04-07T13:44:21.833Z</time></trkpt><trkpt lat="42.208315" lon="14.5647717"><ele>49.6</ele><time>2026-04-07T13:44:23.833Z</time></trkpt><trkpt lat="42.20829" lon="14.5649367"><ele>49.400000000000006</ele><time>2026-04-07T13:44:25.833Z</time></trkpt><trkpt lat="42.2082733" lon="14.5650233"><ele>49.2</ele><time>2026-04-07T13:44:26.833Z</time></trkpt><trkpt lat="42.2082467" lon="14.5651867"><ele>49.0</ele><time>2026-04-07T13:44:28.833Z</time></trkpt><trkpt lat="42.208235" lon="14.5652717"><ele>48.99999999999999</ele><time>2026-04-07T13:44:29.833Z</time></trkpt><trkpt lat="42.2082233" lon="14.5653567"><ele>49.0</ele><time>2026-04-07T13:44:30.833Z</time></trkpt><trkpt lat="42.20821" lon="14.56544"><ele>49.0</ele><time>2026-04-07T13:44:31.833Z</time></trkpt><trkpt lat="42.2081967" lon="14.5655233"><ele>49.0</ele><time>2026-04-07T13:44:32.833Z</time></trkpt><trkpt lat="42.20817" lon="14.5656817"><ele>48.99999999999999</ele><time>2026-04-07T13:44:34.833Z</time></trkpt><trkpt lat="42.20814" lon="14.56584"><ele>49.0</ele><time>2026-04-07T13:44:36.834Z</time></trkpt><trkpt lat="42.2081267" lon="14.5660083"><ele>47.83333333333333</ele><time>2026-04-07T13:44:38.833Z</time></trkpt><trkpt lat="42.2081167" lon="14.5660983"><ele>46.666666666666664</ele><time>2026-04-07T13:44:39.833Z</time></trkpt><trkpt lat="42.2081067" lon="14.5661883"><ele>45.5</ele><time>2026-04-07T13:44:40.833Z</time></trkpt><trkpt lat="42.2080883" lon="14.5663517"><ele>44.33333333333333</ele><time>2026-04-07T13:44:42.833Z</time></trkpt><trkpt lat="42.2080617" lon="14.56651"><ele>43.166666666666664</ele><time>2026-04-07T13:44:44.833Z</time></trkpt><trkpt lat="42.2080483" lon="14.5665933"><ele>42.0</ele><time>2026-04-07T13:44:45.833Z</time></trkpt><trkpt lat="42.20802" lon="14.5667517"><ele>41.8</ele><time>2026-04-07T13:44:47.833Z</time></trkpt><trkpt lat="42.2079917" lon="14.5669133"><ele>41.6</ele><time>2026-04-07T13:44:49.833Z</time></trkpt><trkpt lat="42.20797" lon="14.56707"><ele>41.4</ele><time>2026-04-07T13:44:51.833Z</time></trkpt><trkpt lat="42.2079517" lon="14.5671517"><ele>41.199999999999996</ele><time>2026-04-07T13:44:52.833Z</time></trkpt><trkpt lat="42.2079267" lon="14.5673033"><ele>41.0</ele><time>2026-04-07T13:44:54.833Z</time></trkpt><trkpt lat="42.2078917" lon="14.567445"><ele>40.599999999999994</ele><time>2026-04-07T13:44:56.833Z</time></trkpt><trkpt lat="42.2078633" lon="14.5675867"><ele>40.199999999999996</ele><time>2026-04-07T13:44:58.833Z</time></trkpt><trkpt lat="42.2078083" lon="14.567705"><ele>39.8</ele><time>2026-04-07T13:45:00.833Z</time></trkpt><trkpt lat="42.2077233" lon="14.5677233"><ele>39.4</ele><time>2026-04-07T13:45:02.834Z</time></trkpt><trkpt lat="42.2075967" lon="14.5676683"><ele>39.0</ele><time>2026-04-07T13:45:04.833Z</time></trkpt><trkpt lat="42.2075133" lon="14.5676467"><ele>39.0</ele><time>2026-04-07T13:45:05.833Z</time></trkpt><trkpt lat="42.2074233" lon="14.5676167"><ele>39.0</ele><time>2026-04-07T13:45:06.833Z</time></trkpt><trkpt lat="42.2073317" lon="14.56758"><ele>39.0</ele><time>2026-04-07T13:45:07.833Z</time></trkpt><trkpt lat="42.20724" lon="14.567525"><ele>39.0</ele><time>2026-04-07T13:45:08.833Z</time></trkpt><trkpt lat="42.207145" lon="14.56745"><ele>39.0</ele><time>2026-04-07T13:45:09.833Z</time></trkpt><trkpt lat="42.2070617" lon="14.5673617"><ele>37.6</ele><time>2026-04-07T13:45:10.833Z</time></trkpt><trkpt lat="42.206985" lon="14.5672633"><ele>36.2</ele><time>2026-04-07T13:45:11.833Z</time></trkpt><trkpt lat="42.2069133" lon="14.5671683"><ele>34.800000000000004</ele><time>2026-04-07T13:45:12.833Z</time></trkpt><trkpt lat="42.20684" lon="14.56708"><ele>33.4</ele><time>2026-04-07T13:45:13.833Z</time></trkpt><trkpt lat="42.2067667" lon="14.566995"><ele>32.0</ele><time>2026-04-07T13:45:14.833Z</time></trkpt><trkpt lat="42.206705" lon="14.5668983"><ele>32.0</ele><time>2026-04-07T13:45:15.834Z</time></trkpt><trkpt lat="42.206635" lon="14.5668117"><ele>32.0</ele><time>2026-04-07T13:45:16.833Z</time></trkpt><trkpt lat="42.2065617" lon="14.5667233"><ele>32.0</ele><time>2026-04-07T13:45:17.833Z</time></trkpt><trkpt lat="42.206485" lon="14.5666383"><ele>32.0</ele><time>2026-04-07T13:45:18.833Z</time></trkpt><trkpt lat="42.2064067" lon="14.5665533"><ele>32.0</ele><time>2026-04-07T13:45:19.833Z</time></trkpt><trkpt lat="42.2063333" lon="14.5664633"><ele>30.8</ele><time>2026-04-07T13:45:20.833Z</time></trkpt><trkpt lat="42.2062517" lon="14.5663733"><ele>29.6</ele><time>2026-04-07T13:45:21.833Z</time></trkpt><trkpt lat="42.2061783" lon="14.5662833"><ele>28.400000000000002</ele><time>2026-04-07T13:45:22.833Z</time></trkpt><trkpt lat="42.2061033" lon="14.5661867"><ele>27.200000000000003</ele><time>2026-04-07T13:45:23.833Z</time></trkpt><trkpt lat="42.2060267" lon="14.5660833"><ele>26.0</ele><time>2026-04-07T13:45:24.833Z</time></trkpt><trkpt lat="42.2059433" lon="14.56599"><ele>26.0</ele><time>2026-04-07T13:45:25.833Z</time></trkpt><trkpt lat="42.20586" lon="14.565895"><ele>26.0</ele><time>2026-04-07T13:45:26.833Z</time></trkpt><trkpt lat="42.2057767" lon="14.5658033"><ele>26.0</ele><time>2026-04-07T13:45:27.834Z</time></trkpt><trkpt lat="42.205695" lon="14.565705"><ele>26.0</ele><time>2026-04-07T13:45:28.834Z</time></trkpt><trkpt lat="42.2056183" lon="14.5656"><ele>26.0</ele><time>2026-04-07T13:45:29.834Z</time></trkpt><trkpt lat="42.2055417" lon="14.56549"><ele>25.6</ele><time>2026-04-07T13:45:30.834Z</time></trkpt><trkpt lat="42.2054683" lon="14.5653833"><ele>25.200000000000003</ele><time>2026-04-07T13:45:31.833Z</time></trkpt><trkpt lat="42.2054017" lon="14.5652733"><ele>24.799999999999997</ele><time>2026-04-07T13:45:32.833Z</time></trkpt><trkpt lat="42.20534" lon="14.5651617"><ele>24.4</ele><time>2026-04-07T13:45:33.833Z</time></trkpt><trkpt lat="42.20528" lon="14.5650567"><ele>24.0</ele><time>2026-04-07T13:45:34.834Z</time></trkpt><trkpt lat="42.2052233" lon="14.5649567"><ele>24.0</ele><time>2026-04-07T13:45:35.833Z</time></trkpt><trkpt lat="42.2051667" lon="14.564865"><ele>24.0</ele><time>2026-04-07T13:45:36.833Z</time></trkpt><trkpt lat="42.2051183" lon="14.56476"><ele>24.0</ele><time>2026-04-07T13:45:37.833Z</time></trkpt><trkpt lat="42.2050617" lon="14.56466"><ele>24.0</ele><time>2026-04-07T13:45:38.833Z</time></trkpt><trkpt lat="42.2050067" lon="14.5645717"><ele>24.0</ele><time>2026-04-07T13:45:39.833Z</time></trkpt><trkpt lat="42.204965" lon="14.5644883"><ele>24.0</ele><time>2026-04-07T13:45:40.833Z</time></trkpt><trkpt lat="42.2049167" lon="14.56441"><ele>23.799999999999997</ele><time>2026-04-07T13:45:41.833Z</time></trkpt><trkpt lat="42.20487" lon="14.5643417"><ele>23.599999999999998</ele><time>2026-04-07T13:45:42.833Z</time></trkpt><trkpt lat="42.2048217" lon="14.56428"><ele>23.4</ele><time>2026-04-07T13:45:43.833Z</time></trkpt><trkpt lat="42.2047283" lon="14.5641733"><ele>23.2</ele><time>2026-04-07T13:45:45.833Z</time></trkpt><trkpt lat="42.20464" lon="14.5640733"><ele>23.0</ele><time>2026-04-07T13:45:47.833Z</time></trkpt><trkpt lat="42.2045633" lon="14.5639533"><ele>23.0</ele><time>2026-04-07T13:45:49.834Z</time></trkpt><trkpt lat="42.2044867" lon="14.563835"><ele>23.0</ele><time>2026-04-07T13:45:51.834Z</time></trkpt><trkpt lat="42.20442" lon="14.5637133"><ele>23.0</ele><time>2026-04-07T13:45:53.833Z</time></trkpt><trkpt lat="42.2043433" lon="14.5636"><ele>23.0</ele><time>2026-04-07T13:45:55.833Z</time></trkpt><trkpt lat="42.204265" lon="14.5634867"><ele>22.75</ele><time>2026-04-07T13:45:57.834Z</time></trkpt><trkpt lat="42.2041783" lon="14.563385"><ele>22.5</ele><time>2026-04-07T13:45:59.833Z</time></trkpt><trkpt lat="42.2040883" lon="14.5632933"><ele>22.25</ele><time>2026-04-07T13:46:01.833Z</time></trkpt><trkpt lat="42.2039983" lon="14.5632017"><ele>22.0</ele><time>2026-04-07T13:46:03.833Z</time></trkpt><trkpt lat="42.203905" lon="14.5631117"><ele>22.5</ele><time>2026-04-07T13:46:05.833Z</time></trkpt><trkpt lat="42.2038017" lon="14.56302"><ele>23.0</ele><time>2026-04-07T13:46:07.833Z</time></trkpt><trkpt lat="42.20371" lon="14.5629383"><ele>23.5</ele><time>2026-04-07T13:46:09.833Z</time></trkpt><trkpt lat="42.2036183" lon="14.5628467"><ele>24.0</ele><time>2026-04-07T13:46:11.833Z</time></trkpt><trkpt lat="42.2035233" lon="14.5627583"><ele>24.0</ele><time>2026-04-07T13:46:13.833Z</time></trkpt><trkpt lat="42.2034367" lon="14.5626667"><ele>24.0</ele><time>2026-04-07T13:46:15.833Z</time></trkpt><trkpt lat="42.20336" lon="14.56256"><ele>24.0</ele><time>2026-04-07T13:46:17.833Z</time></trkpt><trkpt lat="42.2032917" lon="14.562445"><ele>24.0</ele><time>2026-04-07T13:46:19.834Z</time></trkpt><trkpt lat="42.2032317" lon="14.5623167"><ele>24.0</ele><time>2026-04-07T13:46:21.833Z</time></trkpt><trkpt lat="42.2032017" lon="14.5622417"><ele>24.0</ele><time>2026-04-07T13:46:22.833Z</time></trkpt><trkpt lat="42.20314" lon="14.5621017"><ele>24.0</ele><time>2026-04-07T13:46:24.833Z</time></trkpt><trkpt lat="42.2030867" lon="14.5619567"><ele>24.0</ele><time>2026-04-07T13:46:26.833Z</time></trkpt><trkpt lat="42.2030233" lon="14.561825"><ele>24.0</ele><time>2026-04-07T13:46:28.834Z</time></trkpt><trkpt lat="42.20296" lon="14.5616883"><ele>24.2</ele><time>2026-04-07T13:46:30.833Z</time></trkpt><trkpt lat="42.2028967" lon="14.5615583"><ele>24.4</ele><time>2026-04-07T13:46:32.833Z</time></trkpt><trkpt lat="42.20284" lon="14.5614433"><ele>24.6</ele><time>2026-04-07T13:46:34.833Z</time></trkpt><trkpt lat="42.2027783" lon="14.56133"><ele>24.8</ele><time>2026-04-07T13:46:36.833Z</time></trkpt><trkpt lat="42.202705" lon="14.56122"><ele>25.0</ele><time>2026-04-07T13:46:38.833Z</time></trkpt><trkpt lat="42.2026233" lon="14.5611367"><ele>25.0</ele><time>2026-04-07T13:46:40.833Z</time></trkpt><trkpt lat="42.2025283" lon="14.5610783"><ele>25.0</ele><time>2026-04-07T13:46:42.833Z</time></trkpt><trkpt lat="42.2024283" lon="14.56103"><ele>25.0</ele><time>2026-04-07T13:46:44.834Z</time></trkpt><trkpt lat="42.2023333" lon="14.5609883"><ele>25.0</ele><time>2026-04-07T13:46:46.833Z</time></trkpt><trkpt lat="42.2022333" lon="14.5609533"><ele>25.0</ele><time>2026-04-07T13:46:48.833Z</time></trkpt><trkpt lat="42.20213" lon="14.5609183"><ele>25.4</ele><time>2026-04-07T13:46:50.833Z</time></trkpt><trkpt lat="42.2020283" lon="14.56088"><ele>25.8</ele><time>2026-04-07T13:46:52.834Z</time></trkpt><trkpt lat="42.2019267" lon="14.5608417"><ele>26.200000000000003</ele><time>2026-04-07T13:46:54.833Z</time></trkpt><trkpt lat="42.2018267" lon="14.5607983"><ele>26.6</ele><time>2026-04-07T13:46:56.833Z</time></trkpt><trkpt lat="42.20173" lon="14.5607517"><ele>27.0</ele><time>2026-04-07T13:46:58.833Z</time></trkpt><trkpt lat="42.2016333" lon="14.5607167"><ele>27.0</ele><time>2026-04-07T13:47:00.833Z</time></trkpt><trkpt lat="42.2015333" lon="14.5606733"><ele>27.000000000000004</ele><time>2026-04-07T13:47:02.834Z</time></trkpt><trkpt lat="42.2014383" lon="14.56066"><ele>27.000000000000004</ele><time>2026-04-07T13:47:04.833Z</time></trkpt><trkpt lat="42.2013533" lon="14.5606917"><ele>27.0</ele><time>2026-04-07T13:47:06.833Z</time></trkpt><trkpt lat="42.2012983" lon="14.5607733"><ele>27.0</ele><time>2026-04-07T13:47:08.833Z</time></trkpt><trkpt lat="42.201275" lon="14.5608833"><ele>27.8</ele><time>2026-04-07T13:47:10.833Z</time></trkpt><trkpt lat="42.2012567" lon="14.561005"><ele>28.6</ele><time>2026-04-07T13:47:12.833Z</time></trkpt><trkpt lat="42.2012367" lon="14.5611367"><ele>29.400000000000002</ele><time>2026-04-07T13:47:14.833Z</time></trkpt><trkpt lat="42.201225" lon="14.5612683"><ele>30.200000000000003</ele><time>2026-04-07T13:47:16.834Z</time></trkpt><trkpt lat="42.2012117" lon="14.5614"><ele>31.0</ele><time>2026-04-07T13:47:18.834Z</time></trkpt><trkpt lat="42.2012167" lon="14.5615383"><ele>31.0</ele><time>2026-04-07T13:47:20.834Z</time></trkpt><trkpt lat="42.2012233" lon="14.561675"><ele>31.0</ele><time>2026-04-07T13:47:22.834Z</time></trkpt><trkpt lat="42.201235" lon="14.5618067"><ele>31.0</ele><time>2026-04-07T13:47:24.834Z</time></trkpt><trkpt lat="42.201245" lon="14.5619283"><ele>31.0</ele><time>2026-04-07T13:47:26.833Z</time></trkpt><trkpt lat="42.2012567" lon="14.5620533"><ele>31.0</ele><time>2026-04-07T13:47:28.834Z</time></trkpt><trkpt lat="42.2012733" lon="14.562185"><ele>31.200000000000003</ele><time>2026-04-07T13:47:30.833Z</time></trkpt><trkpt lat="42.2012867" lon="14.5623067"><ele>31.400000000000002</ele><time>2026-04-07T13:47:32.834Z</time></trkpt><trkpt lat="42.2012883" lon="14.5624283"><ele>31.6</ele><time>2026-04-07T13:47:34.833Z</time></trkpt><trkpt lat="42.2012833" lon="14.56255"><ele>31.8</ele><time>2026-04-07T13:47:36.833Z</time></trkpt><trkpt lat="42.2012933" lon="14.5626783"><ele>32.0</ele><time>2026-04-07T13:47:38.834Z</time></trkpt><trkpt lat="42.2012967" lon="14.5628133"><ele>31.8</ele><time>2026-04-07T13:47:40.833Z</time></trkpt><trkpt lat="42.20125" lon="14.5629483"><ele>31.6</ele><time>2026-04-07T13:47:42.833Z</time></trkpt><trkpt lat="42.2012067" lon="14.5630833"><ele>31.400000000000002</ele><time>2026-04-07T13:47:44.833Z</time></trkpt><trkpt lat="42.201165" lon="14.5632117"><ele>31.200000000000003</ele><time>2026-04-07T13:47:46.833Z</time></trkpt><trkpt lat="42.2011167" lon="14.5633367"><ele>31.0</ele><time>2026-04-07T13:47:48.833Z</time></trkpt><trkpt lat="42.2010717" lon="14.56346"><ele>31.0</ele><time>2026-04-07T13:47:50.833Z</time></trkpt><trkpt lat="42.20102" lon="14.563575"><ele>31.0</ele><time>2026-04-07T13:47:52.833Z</time></trkpt><trkpt lat="42.20097" lon="14.5636917"><ele>31.0</ele><time>2026-04-07T13:47:54.833Z</time></trkpt><trkpt lat="42.2009117" lon="14.5637967"><ele>31.0</ele><time>2026-04-07T13:47:56.833Z</time></trkpt><trkpt lat="42.20084" lon="14.563875"><ele>31.0</ele><time>2026-04-07T13:47:58.833Z</time></trkpt><trkpt lat="42.2007567" lon="14.5639417"><ele>31.200000000000003</ele><time>2026-04-07T13:48:00.834Z</time></trkpt><trkpt lat="42.2006733" lon="14.5640083"><ele>31.400000000000002</ele><time>2026-04-07T13:48:02.833Z</time></trkpt><trkpt lat="42.2005867" lon="14.5640833"><ele>31.6</ele><time>2026-04-07T13:48:04.833Z</time></trkpt><trkpt lat="42.20051" lon="14.5641733"><ele>31.8</ele><time>2026-04-07T13:48:06.833Z</time></trkpt><trkpt lat="42.2004567" lon="14.5642767"><ele>32.0</ele><time>2026-04-07T13:48:08.833Z</time></trkpt><trkpt lat="42.20042" lon="14.564385"><ele>32.0</ele><time>2026-04-07T13:48:10.833Z</time></trkpt><trkpt lat="42.20037" lon="14.5645"><ele>32.0</ele><time>2026-04-07T13:48:12.833Z</time></trkpt><trkpt lat="42.20031" lon="14.5646083"><ele>32.0</ele><time>2026-04-07T13:48:14.833Z</time></trkpt><trkpt lat="42.2002317" lon="14.5646783"><ele>32.0</ele><time>2026-04-07T13:48:16.833Z</time></trkpt><trkpt lat="42.200145" lon="14.5647067"><ele>32.0</ele><time>2026-04-07T13:48:18.833Z</time></trkpt><trkpt lat="42.2000683" lon="14.5646817"><ele>32.166666666666664</ele><time>2026-04-07T13:48:20.834Z</time></trkpt><trkpt lat="42.199975" lon="14.564655"><ele>32.33333333333333</ele><time>2026-04-07T13:48:22.833Z</time></trkpt><trkpt lat="42.1998867" lon="14.5646217"><ele>32.5</ele><time>2026-04-07T13:48:24.833Z</time></trkpt><trkpt lat="42.1998117" lon="14.5645733"><ele>32.666666666666664</ele><time>2026-04-07T13:48:26.834Z</time></trkpt><trkpt lat="42.1997317" lon="14.5645217"><ele>32.833333333333336</ele><time>2026-04-07T13:48:28.833Z</time></trkpt><trkpt lat="42.1996517" lon="14.5644717"><ele>33.0</ele><time>2026-04-07T13:48:30.833Z</time></trkpt><trkpt lat="42.199585" lon="14.564435"><ele>33.0</ele><time>2026-04-07T13:48:32.833Z</time></trkpt><trkpt lat="42.1994717" lon="14.5643983"><ele>33.0</ele><time>2026-04-07T13:48:38.833Z</time></trkpt><trkpt lat="42.1994167" lon="14.564335"><ele>33.0</ele><time>2026-04-07T13:48:39.834Z</time></trkpt><trkpt lat="42.1993833" lon="14.5642583"><ele>33.0</ele><time>2026-04-07T13:48:40.833Z</time></trkpt><trkpt lat="42.19936" lon="14.5641117"><ele>33.0</ele><time>2026-04-07T13:48:42.833Z</time></trkpt><trkpt lat="42.1993633" lon="14.5639983"><ele>33.0</ele><time>2026-04-07T13:48:44.833Z</time></trkpt><trkpt lat="42.1993567" lon="14.5638967"><ele>33.0</ele><time>2026-04-07T13:48:46.833Z</time></trkpt><trkpt lat="42.19936" lon="14.5637983"><ele>33.0</ele><time>2026-04-07T13:48:48.834Z</time></trkpt><trkpt lat="42.1993833" lon="14.5636817"><ele>33.0</ele><time>2026-04-07T13:48:50.834Z</time></trkpt><trkpt lat="42.1993983" lon="14.56356"><ele>33.0</ele><time>2026-04-07T13:48:52.833Z</time></trkpt><trkpt lat="42.1994083" lon="14.5634383"><ele>33.0</ele><time>2026-04-07T13:48:54.833Z</time></trkpt><trkpt lat="42.1994083" lon="14.5633167"><ele>33.333333333333336</ele><time>2026-04-07T13:48:56.833Z</time></trkpt><trkpt lat="42.1993983" lon="14.5632017"><ele>33.666666666666664</ele><time>2026-04-07T13:48:58.833Z</time></trkpt><trkpt lat="42.1993683" lon="14.5630967"><ele>34.0</ele><time>2026-04-07T13:49:00.833Z</time></trkpt><trkpt lat="42.1993467" lon="14.56298"><ele>34.33333333333333</ele><time>2026-04-07T13:49:02.833Z</time></trkpt><trkpt lat="42.1993317" lon="14.56285"><ele>34.666666666666664</ele><time>2026-04-07T13:49:04.834Z</time></trkpt><trkpt lat="42.1993033" lon="14.5627317"><ele>35.0</ele><time>2026-04-07T13:49:06.834Z</time></trkpt><trkpt lat="42.1992917" lon="14.5626267"><ele>35.166666666666664</ele><time>2026-04-07T13:49:08.833Z</time></trkpt><trkpt lat="42.1993117" lon="14.56252"><ele>35.33333333333333</ele><time>2026-04-07T13:49:11.833Z</time></trkpt><trkpt lat="42.199345" lon="14.5624467"><ele>35.5</ele><time>2026-04-07T13:49:13.833Z</time></trkpt><trkpt lat="42.1993717" lon="14.5623383"><ele>35.666666666666664</ele><time>2026-04-07T13:49:15.833Z</time></trkpt><trkpt lat="42.199405" lon="14.5622267"><ele>35.833333333333336</ele><time>2026-04-07T13:49:17.833Z</time></trkpt><trkpt lat="42.1994433" lon="14.56211"><ele>36.0</ele><time>2026-04-07T13:49:19.833Z</time></trkpt><trkpt lat="42.199485" lon="14.5619783"><ele>35.6</ele><time>2026-04-07T13:49:21.833Z</time></trkpt><trkpt lat="42.1995283" lon="14.561845"><ele>35.2</ele><time>2026-04-07T13:49:23.833Z</time></trkpt><trkpt lat="42.1995683" lon="14.5617067"><ele>34.8</ele><time>2026-04-07T13:49:25.833Z</time></trkpt><trkpt lat="42.19959" lon="14.5616067"><ele>34.4</ele><time>2026-04-07T13:49:26.833Z</time></trkpt><trkpt lat="42.19959" lon="14.5614483"><ele>34.0</ele><time>2026-04-07T13:49:28.833Z</time></trkpt><trkpt lat="42.19955" lon="14.5613683"><ele>34.0</ele><time>2026-04-07T13:49:30.834Z</time></trkpt><trkpt lat="42.1994867" lon="14.5612883"><ele>34.0</ele><time>2026-04-07T13:49:32.833Z</time></trkpt><trkpt lat="42.19943" lon="14.561195"><ele>34.0</ele><time>2026-04-07T13:49:34.834Z</time></trkpt><trkpt lat="42.1993617" lon="14.561115"><ele>34.0</ele><time>2026-04-07T13:49:36.833Z</time></trkpt><trkpt lat="42.1992817" lon="14.56103"><ele>34.0</ele><time>2026-04-07T13:49:38.833Z</time></trkpt><trkpt lat="42.199195" lon="14.560955"><ele>34.0</ele><time>2026-04-07T13:49:40.833Z</time></trkpt><trkpt lat="42.1991133" lon="14.560885"><ele>34.0</ele><time>2026-04-07T13:49:42.833Z</time></trkpt><trkpt lat="42.1990317" lon="14.5608067"><ele>34.0</ele><time>2026-04-07T13:49:44.833Z</time></trkpt><trkpt lat="42.19895" lon="14.5607183"><ele>34.0</ele><time>2026-04-07T13:49:46.834Z</time></trkpt><trkpt lat="42.1988783" lon="14.5606433"><ele>34.0</ele><time>2026-04-07T13:49:48.834Z</time></trkpt><trkpt lat="42.1988083" lon="14.56057"><ele>34.0</ele><time>2026-04-07T13:49:50.834Z</time></trkpt><trkpt lat="42.1987433" lon="14.5604917"><ele>34.0</ele><time>2026-04-07T13:49:52.833Z</time></trkpt><trkpt lat="42.198675" lon="14.5604133"><ele>34.0</ele><time>2026-04-07T13:49:54.833Z</time></trkpt><trkpt lat="42.1985983" lon="14.5603383"><ele>34.0</ele><time>2026-04-07T13:49:56.834Z</time></trkpt><trkpt lat="42.1985267" lon="14.56028"><ele>34.0</ele><time>2026-04-07T13:49:58.833Z</time></trkpt><trkpt lat="42.1984567" lon="14.560235"><ele>34.0</ele><time>2026-04-07T13:50:00.834Z</time></trkpt><trkpt lat="42.19838" lon="14.5602883"><ele>34.0</ele><time>2026-04-07T13:50:03.833Z</time></trkpt><trkpt lat="42.198335" lon="14.5603733"><ele>34.0</ele><time>2026-04-07T13:50:05.834Z</time></trkpt><trkpt lat="42.1982733" lon="14.5604633"><ele>34.0</ele><time>2026-04-07T13:50:07.833Z</time></trkpt><trkpt lat="42.198205" lon="14.56057"><ele>34.0</ele><time>2026-04-07T13:50:09.834Z</time></trkpt><trkpt lat="42.19815" lon="14.56067"><ele>34.0</ele><time>2026-04-07T13:50:11.833Z</time></trkpt><trkpt lat="42.1980883" lon="14.5607617"><ele>34.5</ele><time>2026-04-07T13:50:13.833Z</time></trkpt><trkpt lat="42.1980267" lon="14.5608567"><ele>35.0</ele><time>2026-04-07T13:50:15.834Z</time></trkpt><trkpt lat="42.19796" lon="14.56095"><ele>35.5</ele><time>2026-04-07T13:50:17.833Z</time></trkpt><trkpt lat="42.1979083" lon="14.5610383"><ele>36.0</ele><time>2026-04-07T13:50:19.833Z</time></trkpt><trkpt lat="42.1978467" lon="14.5611267"><ele>36.5</ele><time>2026-04-07T13:50:21.833Z</time></trkpt><trkpt lat="42.1977917" lon="14.5612"><ele>37.0</ele><time>2026-04-07T13:50:23.833Z</time></trkpt><trkpt lat="42.1977467" lon="14.561275"><ele>37.833333333333336</ele><time>2026-04-07T13:50:25.833Z</time></trkpt><trkpt lat="42.1976967" lon="14.5613467"><ele>38.66666666666667</ele><time>2026-04-07T13:50:27.833Z</time></trkpt><trkpt lat="42.1976433" lon="14.561425"><ele>39.5</ele><time>2026-04-07T13:50:29.833Z</time></trkpt><trkpt lat="42.1975867" lon="14.5615117"><ele>40.333333333333336</ele><time>2026-04-07T13:50:31.833Z</time></trkpt><trkpt lat="42.1975317" lon="14.5615917"><ele>41.166666666666664</ele><time>2026-04-07T13:50:33.834Z</time></trkpt><trkpt lat="42.1974717" lon="14.5616667"><ele>42.0</ele><time>2026-04-07T13:50:35.833Z</time></trkpt><trkpt lat="42.1974217" lon="14.5617383"><ele>42.0</ele><time>2026-04-07T13:50:37.833Z</time></trkpt><trkpt lat="42.19737" lon="14.561815"><ele>42.0</ele><time>2026-04-07T13:50:39.833Z</time></trkpt><trkpt lat="42.1973117" lon="14.561885"><ele>42.0</ele><time>2026-04-07T13:50:41.834Z</time></trkpt><trkpt lat="42.1972533" lon="14.56196"><ele>42.0</ele><time>2026-04-07T13:50:43.834Z</time></trkpt><trkpt lat="42.1971983" lon="14.562025"><ele>42.0</ele><time>2026-04-07T13:50:45.833Z</time></trkpt><trkpt lat="42.1971467" lon="14.5620933"><ele>42.0</ele><time>2026-04-07T13:50:47.833Z</time></trkpt><trkpt lat="42.1970917" lon="14.56215"><ele>43.42857142857143</ele><time>2026-04-07T13:50:49.833Z</time></trkpt><trkpt lat="42.1970383" lon="14.562215"><ele>44.85714285714286</ele><time>2026-04-07T13:50:51.833Z</time></trkpt><trkpt lat="42.196975" lon="14.56227"><ele>46.285714285714285</ele><time>2026-04-07T13:50:53.833Z</time></trkpt><trkpt lat="42.1969083" lon="14.5623233"><ele>47.714285714285715</ele><time>2026-04-07T13:50:55.833Z</time></trkpt><trkpt lat="42.196845" lon="14.5623667"><ele>49.142857142857146</ele><time>2026-04-07T13:50:57.833Z</time></trkpt><trkpt lat="42.19678" lon="14.562415"><ele>50.57142857142857</ele><time>2026-04-07T13:50:59.833Z</time></trkpt><trkpt lat="42.1967133" lon="14.5624617"><ele>52.0</ele><time>2026-04-07T13:51:01.833Z</time></trkpt><trkpt lat="42.1966633" lon="14.5625167"><ele>52.0</ele><time>2026-04-07T13:51:03.833Z</time></trkpt><trkpt lat="42.196605" lon="14.56258"><ele>52.0</ele><time>2026-04-07T13:51:05.833Z</time></trkpt><trkpt lat="42.1965433" lon="14.5626533"><ele>52.0</ele><time>2026-04-07T13:51:07.833Z</time></trkpt><trkpt lat="42.1964867" lon="14.56272"><ele>52.0</ele><time>2026-04-07T13:51:09.833Z</time></trkpt><trkpt lat="42.1964333" lon="14.5627967"><ele>52.0</ele><time>2026-04-07T13:51:11.833Z</time></trkpt><trkpt lat="42.1963833" lon="14.5628633"><ele>52.0</ele><time>2026-04-07T13:51:13.833Z</time></trkpt><trkpt lat="42.196345" lon="14.562935"><ele>52.0</ele><time>2026-04-07T13:51:15.834Z</time></trkpt><trkpt lat="42.1963083" lon="14.563005"><ele>52.83333333333333</ele><time>2026-04-07T13:51:17.833Z</time></trkpt><trkpt lat="42.196255" lon="14.5631017"><ele>53.666666666666664</ele><time>2026-04-07T13:51:20.833Z</time></trkpt><trkpt lat="42.1962133" lon="14.5631967"><ele>54.5</ele><time>2026-04-07T13:51:23.833Z</time></trkpt><trkpt lat="42.1961617" lon="14.5632933"><ele>55.33333333333333</ele><time>2026-04-07T13:51:26.833Z</time></trkpt><trkpt lat="42.1961183" lon="14.5634"><ele>56.166666666666664</ele><time>2026-04-07T13:51:29.833Z</time></trkpt><trkpt lat="42.1960783" lon="14.5635067"><ele>57.0</ele><time>2026-04-07T13:51:32.833Z</time></trkpt><trkpt lat="42.1960467" lon="14.5636183"><ele>59.333333333333336</ele><time>2026-04-07T13:51:35.834Z</time></trkpt><trkpt lat="42.1960083" lon="14.5637283"><ele>61.66666666666667</ele><time>2026-04-07T13:51:38.833Z</time></trkpt><trkpt lat="42.1959817" lon="14.5638067"><ele>64.0</ele><time>2026-04-07T13:51:40.833Z</time></trkpt><trkpt lat="42.1959467" lon="14.56391"><ele>66.33333333333334</ele><time>2026-04-07T13:51:43.834Z</time></trkpt><trkpt lat="42.1959083" lon="14.5640133"><ele>68.66666666666667</ele><time>2026-04-07T13:51:46.833Z</time></trkpt><trkpt lat="42.19587" lon="14.564125"><ele>71.0</ele><time>2026-04-07T13:51:49.833Z</time></trkpt><trkpt lat="42.1958367" lon="14.5642367"><ele>71.0</ele><time>2026-04-07T13:51:52.833Z</time></trkpt><trkpt lat="42.1957733" lon="14.5643333"><ele>71.0</ele><time>2026-04-07T13:51:55.833Z</time></trkpt><trkpt lat="42.1957283" lon="14.5644033"><ele>71.0</ele><time>2026-04-07T13:51:57.833Z</time></trkpt><trkpt lat="42.1956783" lon="14.5645017"><ele>71.0</ele><time>2026-04-07T13:52:00.833Z</time></trkpt><trkpt lat="42.19564" lon="14.5645767"><ele>71.0</ele><time>2026-04-07T13:52:02.833Z</time></trkpt><trkpt lat="42.1955933" lon="14.5646867"><ele>71.0</ele><time>2026-04-07T13:52:05.834Z</time></trkpt><trkpt lat="42.1955517" lon="14.5647933"><ele>71.66666666666667</ele><time>2026-04-07T13:52:08.833Z</time></trkpt><trkpt lat="42.1955217" lon="14.564875"><ele>72.33333333333334</ele><time>2026-04-07T13:52:10.833Z</time></trkpt><trkpt lat="42.1954817" lon="14.5649467"><ele>73.0</ele><time>2026-04-07T13:52:12.833Z</time></trkpt><trkpt lat="42.195445" lon="14.5650183"><ele>73.66666666666667</ele><time>2026-04-07T13:52:14.833Z</time></trkpt><trkpt lat="42.1953983" lon="14.5650967"><ele>74.33333333333333</ele><time>2026-04-07T13:52:16.834Z</time></trkpt><trkpt lat="42.1953567" lon="14.5651933"><ele>75.0</ele><time>2026-04-07T13:52:18.833Z</time></trkpt><trkpt lat="42.1953083" lon="14.5653217"><ele>76.6</ele><time>2026-04-07T13:52:20.833Z</time></trkpt><trkpt lat="42.1952417" lon="14.5654433"><ele>78.2</ele><time>2026-04-07T13:52:22.834Z</time></trkpt><trkpt lat="42.1951783" lon="14.5655583"><ele>79.80000000000001</ele><time>2026-04-07T13:52:24.833Z</time></trkpt><trkpt lat="42.195125" lon="14.56567"><ele>81.4</ele><time>2026-04-07T13:52:26.833Z</time></trkpt><trkpt lat="42.1950783" lon="14.5657617"><ele>83.0</ele><time>2026-04-07T13:52:28.833Z</time></trkpt><trkpt lat="42.195045" lon="14.5658517"><ele>83.0</ele><time>2026-04-07T13:52:30.834Z</time></trkpt><trkpt lat="42.194995" lon="14.56595"><ele>83.0</ele><time>2026-04-07T13:52:32.833Z</time></trkpt><trkpt lat="42.1949417" lon="14.5660633"><ele>83.0</ele><time>2026-04-07T13:52:34.833Z</time></trkpt><trkpt lat="42.1948933" lon="14.566175"><ele>83.0</ele><time>2026-04-07T13:52:36.833Z</time></trkpt><trkpt lat="42.1948483" lon="14.5662933"><ele>83.0</ele><time>2026-04-07T13:52:38.833Z</time></trkpt><trkpt lat="42.1948017" lon="14.5664433"><ele>86.33333333333334</ele><time>2026-04-07T13:52:40.833Z</time></trkpt><trkpt lat="42.1947817" lon="14.566525"><ele>89.66666666666667</ele><time>2026-04-07T13:52:41.833Z</time></trkpt><trkpt lat="42.1947617" lon="14.5666217"><ele>93.0</ele><time>2026-04-07T13:52:42.833Z</time></trkpt><trkpt lat="42.1947433" lon="14.5667117"><ele>96.33333333333334</ele><time>2026-04-07T13:52:43.833Z</time></trkpt><trkpt lat="42.19473" lon="14.5667967"><ele>99.66666666666667</ele><time>2026-04-07T13:52:44.833Z</time></trkpt><trkpt lat="42.1947083" lon="14.566935"><ele>103.0</ele><time>2026-04-07T13:52:46.833Z</time></trkpt><trkpt lat="42.1946967" lon="14.5670517"><ele>103.0</ele><time>2026-04-07T13:52:48.833Z</time></trkpt><trkpt lat="42.19468" lon="14.5671717"><ele>103.0</ele><time>2026-04-07T13:52:50.833Z</time></trkpt><trkpt lat="42.1946667" lon="14.5673267"><ele>103.0</ele><time>2026-04-07T13:52:52.833Z</time></trkpt><trkpt lat="42.19463" lon="14.5674533"><ele>103.0</ele><time>2026-04-07T13:52:54.833Z</time></trkpt><trkpt lat="42.194565" lon="14.567555"><ele>103.0</ele><time>2026-04-07T13:52:56.834Z</time></trkpt><trkpt lat="42.1945017" lon="14.5676617"><ele>103.0</ele><time>2026-04-07T13:52:58.833Z</time></trkpt><trkpt lat="42.19444" lon="14.5677617"><ele>103.0</ele><time>2026-04-07T13:53:00.833Z</time></trkpt><trkpt lat="42.1943617" lon="14.5678617"><ele>103.0</ele><time>2026-04-07T13:53:02.834Z</time></trkpt><trkpt lat="42.19429" lon="14.56795"><ele>103.0</ele><time>2026-04-07T13:53:04.833Z</time></trkpt><trkpt lat="42.194215" lon="14.5680417"><ele>103.0</ele><time>2026-04-07T13:53:06.833Z</time></trkpt><trkpt lat="42.1941483" lon="14.5681417"><ele>103.2</ele><time>2026-04-07T13:53:08.833Z</time></trkpt><trkpt lat="42.194075" lon="14.5682367"><ele>103.4</ele><time>2026-04-07T13:53:10.833Z</time></trkpt><trkpt lat="42.1940017" lon="14.5683333"><ele>103.60000000000001</ele><time>2026-04-07T13:53:12.833Z</time></trkpt><trkpt lat="42.1939283" lon="14.5684367"><ele>103.80000000000001</ele><time>2026-04-07T13:53:14.833Z</time></trkpt><trkpt lat="42.1938717" lon="14.5685183"><ele>104.0</ele><time>2026-04-07T13:53:16.833Z</time></trkpt><trkpt lat="42.1938" lon="14.56861"><ele>105.6</ele><time>2026-04-07T13:53:18.833Z</time></trkpt><trkpt lat="42.19373" lon="14.5686767"><ele>107.2</ele><time>2026-04-07T13:53:20.833Z</time></trkpt><trkpt lat="42.193665" lon="14.5687433"><ele>108.79999999999998</ele><time>2026-04-07T13:53:22.833Z</time></trkpt><trkpt lat="42.193585" lon="14.5688033"><ele>110.39999999999999</ele><time>2026-04-07T13:53:24.833Z</time></trkpt><trkpt lat="42.1934233" lon="14.568905"><ele>112.0</ele><time>2026-04-07T13:53:26.833Z</time></trkpt><trkpt lat="42.1933533" lon="14.5689333"><ele>112.0</ele><time>2026-04-07T13:53:27.833Z</time></trkpt><trkpt lat="42.1932883" lon="14.5689617"><ele>111.99999999999999</ele><time>2026-04-07T13:53:28.834Z</time></trkpt><trkpt lat="42.193165" lon="14.569005"><ele>111.99999999999999</ele><time>2026-04-07T13:53:30.833Z</time></trkpt><trkpt lat="42.1930567" lon="14.5690567"><ele>112.0</ele><time>2026-04-07T13:53:32.833Z</time></trkpt><trkpt lat="42.19294" lon="14.56908"><ele>112.0</ele><time>2026-04-07T13:53:34.833Z</time></trkpt><trkpt lat="42.1928283" lon="14.56909"><ele>112.6</ele><time>2026-04-07T13:53:36.834Z</time></trkpt><trkpt lat="42.19273" lon="14.5690967"><ele>113.19999999999999</ele><time>2026-04-07T13:53:38.833Z</time></trkpt><trkpt lat="42.1926383" lon="14.56912"><ele>113.8</ele><time>2026-04-07T13:53:40.833Z</time></trkpt><trkpt lat="42.1925517" lon="14.569155"><ele>114.4</ele><time>2026-04-07T13:53:42.834Z</time></trkpt><trkpt lat="42.1924683" lon="14.5691983"><ele>115.0</ele><time>2026-04-07T13:53:44.834Z</time></trkpt><trkpt lat="42.1923983" lon="14.569255"><ele>116.00000000000001</ele><time>2026-04-07T13:53:46.833Z</time></trkpt><trkpt lat="42.1923283" lon="14.5693017"><ele>117.0</ele><time>2026-04-07T13:53:48.833Z</time></trkpt><trkpt lat="42.1922667" lon="14.5693317"><ele>118.0</ele><time>2026-04-07T13:53:50.833Z</time></trkpt><trkpt lat="42.1921817" lon="14.569365"><ele>119.0</ele><time>2026-04-07T13:53:52.833Z</time></trkpt><trkpt lat="42.1920967" lon="14.5693933"><ele>120.00000000000001</ele><time>2026-04-07T13:53:54.833Z</time></trkpt><trkpt lat="42.1920133" lon="14.5694117"><ele>121.0</ele><time>2026-04-07T13:53:56.833Z</time></trkpt><trkpt lat="42.1919283" lon="14.569415"><ele>121.00000000000001</ele><time>2026-04-07T13:53:58.833Z</time></trkpt><trkpt lat="42.1918483" lon="14.5694183"><ele>121.0</ele><time>2026-04-07T13:54:00.833Z</time></trkpt><trkpt lat="42.1917733" lon="14.569405"><ele>121.0</ele><time>2026-04-07T13:54:02.833Z</time></trkpt><trkpt lat="42.191695" lon="14.569385"><ele>121.0</ele><time>2026-04-07T13:54:04.833Z</time></trkpt><trkpt lat="42.1916167" lon="14.569355"><ele>121.00000000000001</ele><time>2026-04-07T13:54:06.833Z</time></trkpt><trkpt lat="42.1915233" lon="14.5693367"><ele>121.0</ele><time>2026-04-07T13:54:08.833Z</time></trkpt><trkpt lat="42.1914267" lon="14.5693217"><ele>121.6</ele><time>2026-04-07T13:54:10.833Z</time></trkpt><trkpt lat="42.1913317" lon="14.56931"><ele>122.19999999999999</ele><time>2026-04-07T13:54:12.834Z</time></trkpt><trkpt lat="42.1912317" lon="14.5693067"><ele>122.80000000000001</ele><time>2026-04-07T13:54:14.833Z</time></trkpt><trkpt lat="42.1911333" lon="14.5693083"><ele>123.4</ele><time>2026-04-07T13:54:16.833Z</time></trkpt><trkpt lat="42.1910367" lon="14.5693167"><ele>124.0</ele><time>2026-04-07T13:54:18.834Z</time></trkpt><trkpt lat="42.190945" lon="14.5693067"><ele>124.0</ele><time>2026-04-07T13:54:20.833Z</time></trkpt><trkpt lat="42.1908517" lon="14.569275"><ele>124.0</ele><time>2026-04-07T13:54:22.833Z</time></trkpt><trkpt lat="42.19076" lon="14.5692433"><ele>124.0</ele><time>2026-04-07T13:54:24.833Z</time></trkpt><trkpt lat="42.1906667" lon="14.5692267"><ele>124.0</ele><time>2026-04-07T13:54:26.833Z</time></trkpt><trkpt lat="42.1905767" lon="14.56924"><ele>124.0</ele><time>2026-04-07T13:54:28.833Z</time></trkpt><trkpt lat="42.19049" lon="14.5692767"><ele>125.0</ele><time>2026-04-07T13:54:30.833Z</time></trkpt><trkpt lat="42.19041" lon="14.5693217"><ele>126.0</ele><time>2026-04-07T13:54:32.833Z</time></trkpt><trkpt lat="42.1903233" lon="14.569365"><ele>127.0</ele><time>2026-04-07T13:54:34.833Z</time></trkpt><trkpt lat="42.190235" lon="14.56942"><ele>128.0</ele><time>2026-04-07T13:54:36.833Z</time></trkpt><trkpt lat="42.1901533" lon="14.5694767"><ele>129.0</ele><time>2026-04-07T13:54:38.833Z</time></trkpt><trkpt lat="42.1900683" lon="14.5695383"><ele>129.0</ele><time>2026-04-07T13:54:40.833Z</time></trkpt><trkpt lat="42.1899917" lon="14.5696033"><ele>129.0</ele><time>2026-04-07T13:54:42.833Z</time></trkpt><trkpt lat="42.1899183" lon="14.5696667"><ele>129.0</ele><time>2026-04-07T13:54:44.833Z</time></trkpt><trkpt lat="42.1898483" lon="14.56973"><ele>129.0</ele><time>2026-04-07T13:54:46.833Z</time></trkpt><trkpt lat="42.18978" lon="14.5697967"><ele>129.0</ele><time>2026-04-07T13:54:48.833Z</time></trkpt><trkpt lat="42.189705" lon="14.56987"><ele>129.0</ele><time>2026-04-07T13:54:50.833Z</time></trkpt><trkpt lat="42.189645" lon="14.5699417"><ele>129.33333333333334</ele><time>2026-04-07T13:54:52.834Z</time></trkpt><trkpt lat="42.1895817" lon="14.5699933"><ele>129.66666666666666</ele><time>2026-04-07T13:54:54.833Z</time></trkpt><trkpt lat="42.1895233" lon="14.5700567"><ele>130.0</ele><time>2026-04-07T13:54:56.834Z</time></trkpt><trkpt lat="42.1894683" lon="14.5701133"><ele>130.33333333333331</ele><time>2026-04-07T13:54:58.833Z</time></trkpt><trkpt lat="42.1893817" lon="14.5701817"><ele>130.66666666666666</ele><time>2026-04-07T13:55:01.833Z</time></trkpt><trkpt lat="42.189315" lon="14.5701517"><ele>131.0</ele><time>2026-04-07T13:55:03.833Z</time></trkpt><trkpt lat="42.18926" lon="14.5700817"><ele>131.0</ele><time>2026-04-07T13:55:05.833Z</time></trkpt><trkpt lat="42.1891983" lon="14.569995"><ele>131.0</ele><time>2026-04-07T13:55:07.833Z</time></trkpt><trkpt lat="42.18913" lon="14.569915"><ele>131.0</ele><time>2026-04-07T13:55:09.833Z</time></trkpt><trkpt lat="42.1890533" lon="14.5698333"><ele>131.0</ele><time>2026-04-07T13:55:11.833Z</time></trkpt><trkpt lat="42.1889683" lon="14.5697467"><ele>131.0</ele><time>2026-04-07T13:55:13.833Z</time></trkpt><trkpt lat="42.1888633" lon="14.569675"><ele>131.2</ele><time>2026-04-07T13:55:15.833Z</time></trkpt><trkpt lat="42.188805" lon="14.5696417"><ele>131.39999999999998</ele><time>2026-04-07T13:55:16.833Z</time></trkpt><trkpt lat="42.1886933" lon="14.569575"><ele>131.6</ele><time>2026-04-07T13:55:18.833Z</time></trkpt><trkpt lat="42.1885933" lon="14.5695133"><ele>131.79999999999998</ele><time>2026-04-07T13:55:20.833Z</time></trkpt><trkpt lat="42.1884933" lon="14.5694433"><ele>132.0</ele><time>2026-04-07T13:55:22.833Z</time></trkpt><trkpt lat="42.188395" lon="14.5693717"><ele>132.4</ele><time>2026-04-07T13:55:24.833Z</time></trkpt><trkpt lat="42.1883017" lon="14.5693"><ele>132.79999999999998</ele><time>2026-04-07T13:55:26.833Z</time></trkpt><trkpt lat="42.1882017" lon="14.569245"><ele>133.2</ele><time>2026-04-07T13:55:28.834Z</time></trkpt><trkpt lat="42.1881083" lon="14.56918"><ele>133.6</ele><time>2026-04-07T13:55:30.834Z</time></trkpt><trkpt lat="42.188005" lon="14.569125"><ele>134.0</ele><time>2026-04-07T13:55:32.833Z</time></trkpt><trkpt lat="42.1879017" lon="14.56908"><ele>134.6</ele><time>2026-04-07T13:55:34.833Z</time></trkpt><trkpt lat="42.1878033" lon="14.56903"><ele>135.2</ele><time>2026-04-07T13:55:36.833Z</time></trkpt><trkpt lat="42.1877083" lon="14.56898"><ele>135.79999999999998</ele><time>2026-04-07T13:55:38.834Z</time></trkpt><trkpt lat="42.187605" lon="14.568925"><ele>136.4</ele><time>2026-04-07T13:55:40.833Z</time></trkpt><trkpt lat="42.1875083" lon="14.5688833"><ele>137.0</ele><time>2026-04-07T13:55:42.833Z</time></trkpt><trkpt lat="42.1874117" lon="14.5688417"><ele>137.6</ele><time>2026-04-07T13:55:44.833Z</time></trkpt><trkpt lat="42.18731" lon="14.568795"><ele>138.2</ele><time>2026-04-07T13:55:46.833Z</time></trkpt><trkpt lat="42.1872117" lon="14.5687517"><ele>138.8</ele><time>2026-04-07T13:55:48.833Z</time></trkpt><trkpt lat="42.18711" lon="14.5687117"><ele>139.4</ele><time>2026-04-07T13:55:50.833Z</time></trkpt><trkpt lat="42.1870083" lon="14.568675"><ele>140.0</ele><time>2026-04-07T13:55:52.833Z</time></trkpt><trkpt lat="42.1869117" lon="14.5686433"><ele>140.4</ele><time>2026-04-07T13:55:54.834Z</time></trkpt><trkpt lat="42.1868167" lon="14.5686067"><ele>140.8</ele><time>2026-04-07T13:55:56.833Z</time></trkpt><trkpt lat="42.186715" lon="14.568575"><ele>141.2</ele><time>2026-04-07T13:55:58.833Z</time></trkpt><trkpt lat="42.18661" lon="14.56854"><ele>141.6</ele><time>2026-04-07T13:56:00.833Z</time></trkpt><trkpt lat="42.1864983" lon="14.5685033"><ele>142.0</ele><time>2026-04-07T13:56:02.833Z</time></trkpt><trkpt lat="42.1864" lon="14.56848"><ele>142.79999999999998</ele><time>2026-04-07T13:56:04.833Z</time></trkpt><trkpt lat="42.1863067" lon="14.5684483"><ele>143.6</ele><time>2026-04-07T13:56:06.833Z</time></trkpt><trkpt lat="42.1862117" lon="14.56842"><ele>144.39999999999998</ele><time>2026-04-07T13:56:08.834Z</time></trkpt><trkpt lat="42.186115" lon="14.5683983"><ele>145.2</ele><time>2026-04-07T13:56:10.833Z</time></trkpt><trkpt lat="42.1860117" lon="14.5683633"><ele>146.0</ele><time>2026-04-07T13:56:12.833Z</time></trkpt><trkpt lat="42.1859067" lon="14.56834"><ele>146.0</ele><time>2026-04-07T13:56:14.833Z</time></trkpt><trkpt lat="42.185795" lon="14.5683083"><ele>146.0</ele><time>2026-04-07T13:56:16.834Z</time></trkpt><trkpt lat="42.18568" lon="14.5682767"><ele>146.0</ele><time>2026-04-07T13:56:18.834Z</time></trkpt><trkpt lat="42.1855733" lon="14.568245"><ele>146.0</ele><time>2026-04-07T13:56:20.833Z</time></trkpt><trkpt lat="42.18547" lon="14.5682083"><ele>146.0</ele><time>2026-04-07T13:56:22.833Z</time></trkpt><trkpt lat="42.1853667" lon="14.5681717"><ele>146.6</ele><time>2026-04-07T13:56:24.833Z</time></trkpt><trkpt lat="42.1852583" lon="14.5681483"><ele>147.2</ele><time>2026-04-07T13:56:26.833Z</time></trkpt><trkpt lat="42.18517" lon="14.5681717"><ele>147.8</ele><time>2026-04-07T13:56:28.833Z</time></trkpt><trkpt lat="42.1851" lon="14.5682383"><ele>148.4</ele><time>2026-04-07T13:56:30.834Z</time></trkpt><trkpt lat="42.18502" lon="14.5683083"><ele>149.0</ele><time>2026-04-07T13:56:32.833Z</time></trkpt><trkpt lat="42.18494" lon="14.5683667"><ele>149.0</ele><time>2026-04-07T13:56:34.834Z</time></trkpt><trkpt lat="42.1848633" lon="14.568415"><ele>149.0</ele><time>2026-04-07T13:56:36.833Z</time></trkpt><trkpt lat="42.18478" lon="14.5684817"><ele>149.0</ele><time>2026-04-07T13:56:38.833Z</time></trkpt><trkpt lat="42.18469" lon="14.568555"><ele>149.0</ele><time>2026-04-07T13:56:40.833Z</time></trkpt><trkpt lat="42.1846033" lon="14.5686367"><ele>149.0</ele><time>2026-04-07T13:56:42.833Z</time></trkpt><trkpt lat="42.1845217" lon="14.568715"><ele>148.83333333333331</ele><time>2026-04-07T13:56:44.833Z</time></trkpt><trkpt lat="42.184455" lon="14.5687783"><ele>148.66666666666666</ele><time>2026-04-07T13:56:46.834Z</time></trkpt><trkpt lat="42.1843817" lon="14.56884"><ele>148.5</ele><time>2026-04-07T13:56:48.833Z</time></trkpt><trkpt lat="42.1843117" lon="14.5688983"><ele>148.33333333333334</ele><time>2026-04-07T13:56:50.833Z</time></trkpt><trkpt lat="42.1842467" lon="14.5689633"><ele>148.16666666666669</ele><time>2026-04-07T13:56:52.833Z</time></trkpt><trkpt lat="42.18417" lon="14.5690417"><ele>148.0</ele><time>2026-04-07T13:56:54.833Z</time></trkpt><trkpt lat="42.1840967" lon="14.56913"><ele>148.0</ele><time>2026-04-07T13:56:56.833Z</time></trkpt><trkpt lat="42.1840233" lon="14.56922"><ele>148.0</ele><time>2026-04-07T13:56:58.833Z</time></trkpt><trkpt lat="42.1839417" lon="14.569315"><ele>148.0</ele><time>2026-04-07T13:57:00.833Z</time></trkpt><trkpt lat="42.1838533" lon="14.5694133"><ele>148.0</ele><time>2026-04-07T13:57:02.834Z</time></trkpt><trkpt lat="42.1837733" lon="14.569525"><ele>148.0</ele><time>2026-04-07T13:57:04.833Z</time></trkpt><trkpt lat="42.1836917" lon="14.5696417"><ele>147.33333333333334</ele><time>2026-04-07T13:57:06.833Z</time></trkpt><trkpt lat="42.1836067" lon="14.569755"><ele>146.66666666666669</ele><time>2026-04-07T13:57:08.833Z</time></trkpt><trkpt lat="42.183515" lon="14.56987"><ele>146.0</ele><time>2026-04-07T13:57:10.833Z</time></trkpt><trkpt lat="42.183465" lon="14.56993"><ele>145.33333333333334</ele><time>2026-04-07T13:57:11.833Z</time></trkpt><trkpt lat="42.1834133" lon="14.5699867"><ele>144.66666666666666</ele><time>2026-04-07T13:57:12.833Z</time></trkpt><trkpt lat="42.1833567" lon="14.5700433"><ele>144.0</ele><time>2026-04-07T13:57:13.833Z</time></trkpt><trkpt lat="42.1832967" lon="14.5700983"><ele>144.0</ele><time>2026-04-07T13:57:14.833Z</time></trkpt><trkpt lat="42.183235" lon="14.5701533"><ele>144.0</ele><time>2026-04-07T13:57:15.834Z</time></trkpt><trkpt lat="42.1831683" lon="14.5702117"><ele>144.0</ele><time>2026-04-07T13:57:16.834Z</time></trkpt><trkpt lat="42.183095" lon="14.570275"><ele>144.0</ele><time>2026-04-07T13:57:17.833Z</time></trkpt><trkpt lat="42.18302" lon="14.5703367"><ele>144.0</ele><time>2026-04-07T13:57:18.833Z</time></trkpt><trkpt lat="42.1829467" lon="14.5703983"><ele>144.0</ele><time>2026-04-07T13:57:19.833Z</time></trkpt><trkpt lat="42.1828683" lon="14.5704733"><ele>142.83333333333334</ele><time>2026-04-07T13:57:20.833Z</time></trkpt><trkpt lat="42.1827933" lon="14.57055"><ele>141.66666666666666</ele><time>2026-04-07T13:57:21.833Z</time></trkpt><trkpt lat="42.18272" lon="14.5706217"><ele>140.5</ele><time>2026-04-07T13:57:22.833Z</time></trkpt><trkpt lat="42.1826433" lon="14.5706883"><ele>139.33333333333331</ele><time>2026-04-07T13:57:23.833Z</time></trkpt><trkpt lat="42.1825717" lon="14.570755"><ele>138.16666666666666</ele><time>2026-04-07T13:57:24.833Z</time></trkpt><trkpt lat="42.1825017" lon="14.5708167"><ele>137.0</ele><time>2026-04-07T13:57:25.833Z</time></trkpt><trkpt lat="42.1824283" lon="14.57086"><ele>137.0</ele><time>2026-04-07T13:57:26.833Z</time></trkpt><trkpt lat="42.1823567" lon="14.5708617"><ele>137.0</ele><time>2026-04-07T13:57:27.834Z</time></trkpt><trkpt lat="42.1822833" lon="14.57083"><ele>137.0</ele><time>2026-04-07T13:57:28.833Z</time></trkpt><trkpt lat="42.182205" lon="14.5707717"><ele>137.0</ele><time>2026-04-07T13:57:29.834Z</time></trkpt><trkpt lat="42.182125" lon="14.5707117"><ele>137.0</ele><time>2026-04-07T13:57:30.833Z</time></trkpt><trkpt lat="42.1820533" lon="14.5706567"><ele>137.0</ele><time>2026-04-07T13:57:31.833Z</time></trkpt><trkpt lat="42.1819733" lon="14.5706067"><ele>135.5</ele><time>2026-04-07T13:57:32.833Z</time></trkpt><trkpt lat="42.1818883" lon="14.5705633"><ele>134.0</ele><time>2026-04-07T13:57:33.834Z</time></trkpt><trkpt lat="42.1818033" lon="14.5705267"><ele>132.5</ele><time>2026-04-07T13:57:34.833Z</time></trkpt><trkpt lat="42.1817217" lon="14.5704983"><ele>131.0</ele><time>2026-04-07T13:57:35.833Z</time></trkpt><trkpt lat="42.1816383" lon="14.5704883"><ele>129.5</ele><time>2026-04-07T13:57:36.833Z</time></trkpt><trkpt lat="42.18156" lon="14.570505"><ele>128.0</ele><time>2026-04-07T13:57:37.833Z</time></trkpt><trkpt lat="42.181485" lon="14.570555"><ele>127.2</ele><time>2026-04-07T13:57:38.833Z</time></trkpt><trkpt lat="42.181415" lon="14.57063"><ele>126.4</ele><time>2026-04-07T13:57:39.833Z</time></trkpt><trkpt lat="42.181345" lon="14.57072"><ele>125.60000000000001</ele><time>2026-04-07T13:57:40.833Z</time></trkpt><trkpt lat="42.1812817" lon="14.5708033"><ele>124.80000000000001</ele><time>2026-04-07T13:57:41.833Z</time></trkpt><trkpt lat="42.181215" lon="14.5708867"><ele>124.0</ele><time>2026-04-07T13:57:42.833Z</time></trkpt><trkpt lat="42.181155" lon="14.5709683"><ele>124.0</ele><time>2026-04-07T13:57:43.833Z</time></trkpt><trkpt lat="42.1810883" lon="14.57104"><ele>124.0</ele><time>2026-04-07T13:57:44.833Z</time></trkpt><trkpt lat="42.1810283" lon="14.5711283"><ele>124.0</ele><time>2026-04-07T13:57:45.833Z</time></trkpt><trkpt lat="42.1809683" lon="14.5712167"><ele>124.0</ele><time>2026-04-07T13:57:46.833Z</time></trkpt><trkpt lat="42.1809117" lon="14.57132"><ele>124.0</ele><time>2026-04-07T13:57:47.833Z</time></trkpt><trkpt lat="42.18085" lon="14.571435"><ele>123.6</ele><time>2026-04-07T13:57:48.833Z</time></trkpt><trkpt lat="42.1807967" lon="14.5715533"><ele>123.2</ele><time>2026-04-07T13:57:49.833Z</time></trkpt><trkpt lat="42.1807567" lon="14.5716767"><ele>122.79999999999998</ele><time>2026-04-07T13:57:50.833Z</time></trkpt><trkpt lat="42.1807183" lon="14.5717983"><ele>122.39999999999999</ele><time>2026-04-07T13:57:51.833Z</time></trkpt><trkpt lat="42.1806783" lon="14.5719183"><ele>122.0</ele><time>2026-04-07T13:57:52.833Z</time></trkpt><trkpt lat="42.1806383" lon="14.5720383"><ele>120.6</ele><time>2026-04-07T13:57:53.833Z</time></trkpt><trkpt lat="42.1806" lon="14.5721717"><ele>119.19999999999999</ele><time>2026-04-07T13:57:54.833Z</time></trkpt><trkpt lat="42.180575" lon="14.5723083"><ele>117.8</ele><time>2026-04-07T13:57:55.833Z</time></trkpt><trkpt lat="42.1805567" lon="14.5724567"><ele>116.4</ele><time>2026-04-07T13:57:56.833Z</time></trkpt><trkpt lat="42.1805417" lon="14.572615"><ele>115.0</ele><time>2026-04-07T13:57:57.833Z</time></trkpt><trkpt lat="42.18052" lon="14.5727683"><ele>114.50000000000001</ele><time>2026-04-07T13:57:58.833Z</time></trkpt><trkpt lat="42.1804983" lon="14.5729083"><ele>114.0</ele><time>2026-04-07T13:57:59.833Z</time></trkpt><trkpt lat="42.1804683" lon="14.5730383"><ele>113.5</ele><time>2026-04-07T13:58:00.833Z</time></trkpt><trkpt lat="42.1804417" lon="14.573145"><ele>113.0</ele><time>2026-04-07T13:58:01.833Z</time></trkpt><trkpt lat="42.1804217" lon="14.5732417"><ele>112.50000000000001</ele><time>2026-04-07T13:58:02.833Z</time></trkpt><trkpt lat="42.180395" lon="14.5733217"><ele>112.0</ele><time>2026-04-07T13:58:03.834Z</time></trkpt><trkpt lat="42.18033" lon="14.5734533"><ele>112.0</ele><time>2026-04-07T13:58:05.834Z</time></trkpt><trkpt lat="42.1802467" lon="14.5735483"><ele>111.99999999999999</ele><time>2026-04-07T13:58:07.834Z</time></trkpt><trkpt lat="42.180175" lon="14.5736233"><ele>111.99999999999999</ele><time>2026-04-07T13:58:09.833Z</time></trkpt><trkpt lat="42.1801" lon="14.573705"><ele>112.0</ele><time>2026-04-07T13:58:11.833Z</time></trkpt><trkpt lat="42.1800233" lon="14.5738033"><ele>112.0</ele><time>2026-04-07T13:58:13.833Z</time></trkpt><trkpt lat="42.1799283" lon="14.5739033"><ele>112.0</ele><time>2026-04-07T13:58:15.833Z</time></trkpt><trkpt lat="42.1798517" lon="14.57401"><ele>111.99999999999999</ele><time>2026-04-07T13:58:17.833Z</time></trkpt><trkpt lat="42.179805" lon="14.5740683"><ele>111.99999999999999</ele><time>2026-04-07T13:58:18.834Z</time></trkpt><trkpt lat="42.17973" lon="14.5741867"><ele>112.0</ele><time>2026-04-07T13:58:20.833Z</time></trkpt><trkpt lat="42.1796633" lon="14.5743083"><ele>112.0</ele><time>2026-04-07T13:58:22.833Z</time></trkpt><trkpt lat="42.179595" lon="14.5744267"><ele>112.39999999999999</ele><time>2026-04-07T13:58:24.833Z</time></trkpt><trkpt lat="42.17953" lon="14.574545"><ele>112.79999999999998</ele><time>2026-04-07T13:58:26.833Z</time></trkpt><trkpt lat="42.1794617" lon="14.5746467"><ele>113.2</ele><time>2026-04-07T13:58:28.834Z</time></trkpt><trkpt lat="42.1793933" lon="14.5747433"><ele>113.6</ele><time>2026-04-07T13:58:30.833Z</time></trkpt><trkpt lat="42.179325" lon="14.574845"><ele>114.0</ele><time>2026-04-07T13:58:32.833Z</time></trkpt><trkpt lat="42.1792517" lon="14.5749417"><ele>114.0</ele><time>2026-04-07T13:58:34.833Z</time></trkpt><trkpt lat="42.1791833" lon="14.57501"><ele>114.0</ele><time>2026-04-07T13:58:36.833Z</time></trkpt><trkpt lat="42.179125" lon="14.5750783"><ele>114.0</ele><time>2026-04-07T13:58:38.834Z</time></trkpt><trkpt lat="42.179065" lon="14.5751417"><ele>114.0</ele><time>2026-04-07T13:58:40.833Z</time></trkpt><trkpt lat="42.1790067" lon="14.5752117"><ele>114.0</ele><time>2026-04-07T13:58:42.833Z</time></trkpt><trkpt lat="42.178955" lon="14.5752683"><ele>114.0</ele><time>2026-04-07T13:58:44.834Z</time></trkpt><trkpt lat="42.178895" lon="14.5753433"><ele>115.0</ele><time>2026-04-07T13:58:47.833Z</time></trkpt><trkpt lat="42.1788217" lon="14.5754283"><ele>116.0</ele><time>2026-04-07T13:58:50.833Z</time></trkpt><trkpt lat="42.1787667" lon="14.575475"><ele>117.0</ele><time>2026-04-07T13:58:52.833Z</time></trkpt><trkpt lat="42.1787033" lon="14.57555"><ele>118.0</ele><time>2026-04-07T13:58:55.833Z</time></trkpt><trkpt lat="42.17865" lon="14.5756017"><ele>119.0</ele><time>2026-04-07T13:58:57.833Z</time></trkpt><trkpt lat="42.1785967" lon="14.5756483"><ele>120.0</ele><time>2026-04-07T13:58:59.833Z</time></trkpt><trkpt lat="42.1785233" lon="14.5757183"><ele>120.0</ele><time>2026-04-07T13:59:02.834Z</time></trkpt><trkpt lat="42.17845" lon="14.575785"><ele>120.0</ele><time>2026-04-07T13:59:05.833Z</time></trkpt><trkpt lat="42.1784033" lon="14.5758483"><ele>120.0</ele><time>2026-04-07T13:59:07.833Z</time></trkpt><trkpt lat="42.1783583" lon="14.5759167"><ele>120.0</ele><time>2026-04-07T13:59:09.833Z</time></trkpt><trkpt lat="42.17829" lon="14.5759967"><ele>120.0</ele><time>2026-04-07T13:59:12.834Z</time></trkpt><trkpt lat="42.1782267" lon="14.5760583"><ele>120.0</ele><time>2026-04-07T13:59:15.833Z</time></trkpt><trkpt lat="42.1781517" lon="14.5761117"><ele>120.83333333333333</ele><time>2026-04-07T13:59:18.834Z</time></trkpt><trkpt lat="42.1780633" lon="14.576165"><ele>121.66666666666666</ele><time>2026-04-07T13:59:21.833Z</time></trkpt><trkpt lat="42.1780017" lon="14.5761983"><ele>122.5</ele><time>2026-04-07T13:59:23.833Z</time></trkpt><trkpt lat="42.1779217" lon="14.57622"><ele>123.33333333333333</ele><time>2026-04-07T13:59:26.833Z</time></trkpt><trkpt lat="42.1778467" lon="14.5762467"><ele>124.16666666666666</ele><time>2026-04-07T13:59:29.833Z</time></trkpt><trkpt lat="42.1777483" lon="14.5762733"><ele>125.0</ele><time>2026-04-07T13:59:32.833Z</time></trkpt><trkpt lat="42.17766" lon="14.5762933"><ele>126.4</ele><time>2026-04-07T13:59:34.833Z</time></trkpt><trkpt lat="42.1775817" lon="14.5763067"><ele>127.8</ele><time>2026-04-07T13:59:36.833Z</time></trkpt><trkpt lat="42.1774917" lon="14.57633"><ele>129.2</ele><time>2026-04-07T13:59:38.833Z</time></trkpt><trkpt lat="42.17739" lon="14.5763383"><ele>130.6</ele><time>2026-04-07T13:59:40.833Z</time></trkpt><trkpt lat="42.1772867" lon="14.5763467"><ele>132.0</ele><time>2026-04-07T13:59:42.833Z</time></trkpt><trkpt lat="42.177195" lon="14.57635"><ele>132.4</ele><time>2026-04-07T13:59:44.833Z</time></trkpt><trkpt lat="42.1771083" lon="14.5763483"><ele>132.79999999999998</ele><time>2026-04-07T13:59:46.833Z</time></trkpt><trkpt lat="42.1770183" lon="14.5763467"><ele>133.2</ele><time>2026-04-07T13:59:48.833Z</time></trkpt><trkpt lat="42.1769233" lon="14.5763517"><ele>133.6</ele><time>2026-04-07T13:59:50.833Z</time></trkpt><trkpt lat="42.1768317" lon="14.5763583"><ele>134.0</ele><time>2026-04-07T13:59:52.834Z</time></trkpt><trkpt lat="42.1767383" lon="14.5763583"><ele>134.0</ele><time>2026-04-07T13:59:54.833Z</time></trkpt><trkpt lat="42.1766533" lon="14.5763617"><ele>134.0</ele><time>2026-04-07T13:59:56.834Z</time></trkpt><trkpt lat="42.1765583" lon="14.57637"><ele>134.0</ele><time>2026-04-07T13:59:58.833Z</time></trkpt><trkpt lat="42.1764733" lon="14.5763783"><ele>134.0</ele><time>2026-04-07T14:00:00.833Z</time></trkpt><trkpt lat="42.176385" lon="14.5763917"><ele>134.0</ele><time>2026-04-07T14:00:02.833Z</time></trkpt><trkpt lat="42.176295" lon="14.5764017"><ele>134.0</ele><time>2026-04-07T14:00:04.833Z</time></trkpt><trkpt lat="42.1762033" lon="14.57641"><ele>134.33333333333331</ele><time>2026-04-07T14:00:06.832Z</time></trkpt><trkpt lat="42.1761117" lon="14.5764033"><ele>134.66666666666666</ele><time>2026-04-07T14:00:08.832Z</time></trkpt><trkpt lat="42.176025" lon="14.5763933"><ele>135.0</ele><time>2026-04-07T14:00:10.832Z</time></trkpt><trkpt lat="42.1759367" lon="14.5763683"><ele>135.33333333333334</ele><time>2026-04-07T14:00:12.832Z</time></trkpt><trkpt lat="42.17585" lon="14.5763467"><ele>135.66666666666669</ele><time>2026-04-07T14:00:14.832Z</time></trkpt><trkpt lat="42.1757783" lon="14.576315"><ele>136.0</ele><time>2026-04-07T14:00:16.832Z</time></trkpt><trkpt lat="42.1757" lon="14.576285"><ele>136.16666666666669</ele><time>2026-04-07T14:00:18.832Z</time></trkpt><trkpt lat="42.1756133" lon="14.576255"><ele>136.33333333333334</ele><time>2026-04-07T14:00:20.833Z</time></trkpt><trkpt lat="42.1755233" lon="14.5762383"><ele>136.5</ele><time>2026-04-07T14:00:22.832Z</time></trkpt><trkpt lat="42.1754317" lon="14.5762467"><ele>136.66666666666666</ele><time>2026-04-07T14:00:24.832Z</time></trkpt><trkpt lat="42.1753533" lon="14.5762983"><ele>136.83333333333331</ele><time>2026-04-07T14:00:26.832Z</time></trkpt><trkpt lat="42.1752783" lon="14.57636"><ele>137.0</ele><time>2026-04-07T14:00:28.832Z</time></trkpt><trkpt lat="42.175205" lon="14.5764267"><ele>137.0</ele><time>2026-04-07T14:00:30.832Z</time></trkpt><trkpt lat="42.175125" lon="14.5764867"><ele>137.0</ele><time>2026-04-07T14:00:32.832Z</time></trkpt><trkpt lat="42.175035" lon="14.576545"><ele>137.0</ele><time>2026-04-07T14:00:34.832Z</time></trkpt><trkpt lat="42.1749367" lon="14.5765733"><ele>137.0</ele><time>2026-04-07T14:00:36.832Z</time></trkpt><trkpt lat="42.1748317" lon="14.5765733"><ele>137.0</ele><time>2026-04-07T14:00:38.832Z</time></trkpt><trkpt lat="42.1747283" lon="14.5765583"><ele>137.6</ele><time>2026-04-07T14:00:40.832Z</time></trkpt><trkpt lat="42.1746283" lon="14.5765367"><ele>138.2</ele><time>2026-04-07T14:00:42.832Z</time></trkpt><trkpt lat="42.174525" lon="14.57653"><ele>138.8</ele><time>2026-04-07T14:00:44.832Z</time></trkpt><trkpt lat="42.1744233" lon="14.5765267"><ele>139.4</ele><time>2026-04-07T14:00:46.833Z</time></trkpt><trkpt lat="42.174315" lon="14.57653"><ele>140.0</ele><time>2026-04-07T14:00:48.832Z</time></trkpt><trkpt lat="42.17421" lon="14.5765367"><ele>140.0</ele><time>2026-04-07T14:00:50.833Z</time></trkpt><trkpt lat="42.174105" lon="14.5765283"><ele>140.0</ele><time>2026-04-07T14:00:52.832Z</time></trkpt><trkpt lat="42.1739983" lon="14.576495"><ele>140.0</ele><time>2026-04-07T14:00:54.832Z</time></trkpt><trkpt lat="42.1738817" lon="14.576455"><ele>140.0</ele><time>2026-04-07T14:00:56.832Z</time></trkpt><trkpt lat="42.1737767" lon="14.5764183"><ele>140.0</ele><time>2026-04-07T14:00:58.832Z</time></trkpt><trkpt lat="42.1736717" lon="14.576375"><ele>140.75</ele><time>2026-04-07T14:01:00.832Z</time></trkpt><trkpt lat="42.1735583" lon="14.57634"><ele>141.5</ele><time>2026-04-07T14:01:02.832Z</time></trkpt><trkpt lat="42.1734517" lon="14.5763017"><ele>142.25</ele><time>2026-04-07T14:01:04.832Z</time></trkpt><trkpt lat="42.173345" lon="14.576275"><ele>143.0</ele><time>2026-04-07T14:01:06.833Z</time></trkpt><trkpt lat="42.1732333" lon="14.57623"><ele>143.25</ele><time>2026-04-07T14:01:08.832Z</time></trkpt><trkpt lat="42.1731183" lon="14.5761817"><ele>143.5</ele><time>2026-04-07T14:01:10.832Z</time></trkpt><trkpt lat="42.1730067" lon="14.57614"><ele>143.75</ele><time>2026-04-07T14:01:12.832Z</time></trkpt><trkpt lat="42.1728967" lon="14.5760967"><ele>144.0</ele><time>2026-04-07T14:01:14.833Z</time></trkpt><trkpt lat="42.172785" lon="14.5760583"><ele>144.0</ele><time>2026-04-07T14:01:16.832Z</time></trkpt><trkpt lat="42.1726717" lon="14.5760283"><ele>144.0</ele><time>2026-04-07T14:01:18.832Z</time></trkpt><trkpt lat="42.17256" lon="14.5759967"><ele>144.0</ele><time>2026-04-07T14:01:20.833Z</time></trkpt><trkpt lat="42.1724517" lon="14.5759633"><ele>144.0</ele><time>2026-04-07T14:01:22.832Z</time></trkpt><trkpt lat="42.1723433" lon="14.575935"><ele>145.2</ele><time>2026-04-07T14:01:24.832Z</time></trkpt><trkpt lat="42.1722417" lon="14.5759033"><ele>146.4</ele><time>2026-04-07T14:01:26.832Z</time></trkpt><trkpt lat="42.1721317" lon="14.5758717"><ele>147.6</ele><time>2026-04-07T14:01:28.832Z</time></trkpt><trkpt lat="42.1720183" lon="14.5758367"><ele>148.8</ele><time>2026-04-07T14:01:30.832Z</time></trkpt><trkpt lat="42.17191" lon="14.5758083"><ele>150.0</ele><time>2026-04-07T14:01:32.832Z</time></trkpt><trkpt lat="42.171795" lon="14.5757817"><ele>150.0</ele><time>2026-04-07T14:01:34.832Z</time></trkpt><trkpt lat="42.17168" lon="14.57575"><ele>150.0</ele><time>2026-04-07T14:01:36.833Z</time></trkpt><trkpt lat="42.1715767" lon="14.5757283"><ele>150.0</ele><time>2026-04-07T14:01:38.832Z</time></trkpt><trkpt lat="42.1714667" lon="14.5756983"><ele>150.0</ele><time>2026-04-07T14:01:40.832Z</time></trkpt><trkpt lat="42.17136" lon="14.5756667"><ele>150.0</ele><time>2026-04-07T14:01:42.832Z</time></trkpt><trkpt lat="42.1712583" lon="14.5756233"><ele>150.4</ele><time>2026-04-07T14:01:44.832Z</time></trkpt><trkpt lat="42.171175" lon="14.5755983"><ele>150.8</ele><time>2026-04-07T14:01:46.833Z</time></trkpt><trkpt lat="42.1710933" lon="14.5756"><ele>151.2</ele><time>2026-04-07T14:01:48.833Z</time></trkpt><trkpt lat="42.1710133" lon="14.575665"><ele>151.6</ele><time>2026-04-07T14:01:50.832Z</time></trkpt><trkpt lat="42.1709383" lon="14.5757667"><ele>152.0</ele><time>2026-04-07T14:01:52.832Z</time></trkpt><trkpt lat="42.1708733" lon="14.5758867"><ele>152.0</ele><time>2026-04-07T14:01:54.832Z</time></trkpt><trkpt lat="42.1708133" lon="14.5760117"><ele>152.0</ele><time>2026-04-07T14:01:56.832Z</time></trkpt><trkpt lat="42.1707533" lon="14.5761417"><ele>152.0</ele><time>2026-04-07T14:01:58.832Z</time></trkpt><trkpt lat="42.1706867" lon="14.5762667"><ele>152.0</ele><time>2026-04-07T14:02:00.832Z</time></trkpt><trkpt lat="42.1706283" lon="14.5764033"><ele>152.75</ele><time>2026-04-07T14:02:02.832Z</time></trkpt><trkpt lat="42.1705667" lon="14.5765383"><ele>153.5</ele><time>2026-04-07T14:02:04.833Z</time></trkpt><trkpt lat="42.1705067" lon="14.5766667"><ele>154.25</ele><time>2026-04-07T14:02:06.832Z</time></trkpt><trkpt lat="42.1704433" lon="14.5767983"><ele>155.0</ele><time>2026-04-07T14:02:08.832Z</time></trkpt><trkpt lat="42.1703767" lon="14.5769233"><ele>154.8</ele><time>2026-04-07T14:02:10.832Z</time></trkpt><trkpt lat="42.1703183" lon="14.5770533"><ele>154.6</ele><time>2026-04-07T14:02:12.832Z</time></trkpt><trkpt lat="42.170265" lon="14.5771867"><ele>154.4</ele><time>2026-04-07T14:02:14.832Z</time></trkpt><trkpt lat="42.1702167" lon="14.5773217"><ele>154.2</ele><time>2026-04-07T14:02:16.832Z</time></trkpt><trkpt lat="42.1701667" lon="14.5774567"><ele>154.0</ele><time>2026-04-07T14:02:18.832Z</time></trkpt><trkpt lat="42.17012" lon="14.5775867"><ele>154.0</ele><time>2026-04-07T14:02:20.832Z</time></trkpt><trkpt lat="42.1700733" lon="14.5777267"><ele>154.0</ele><time>2026-04-07T14:02:22.833Z</time></trkpt><trkpt lat="42.1700183" lon="14.5778533"><ele>154.0</ele><time>2026-04-07T14:02:24.832Z</time></trkpt><trkpt lat="42.16997" lon="14.5779817"><ele>154.0</ele><time>2026-04-07T14:02:26.832Z</time></trkpt><trkpt lat="42.1699117" lon="14.578115"><ele>154.0</ele><time>2026-04-07T14:02:28.832Z</time></trkpt><trkpt lat="42.16986" lon="14.5782583"><ele>154.25</ele><time>2026-04-07T14:02:30.832Z</time></trkpt><trkpt lat="42.1698017" lon="14.5783883"><ele>154.5</ele><time>2026-04-07T14:02:32.833Z</time></trkpt><trkpt lat="42.169745" lon="14.5785183"><ele>154.75</ele><time>2026-04-07T14:02:34.832Z</time></trkpt><trkpt lat="42.1696833" lon="14.57865"><ele>155.0</ele><time>2026-04-07T14:02:36.832Z</time></trkpt><trkpt lat="42.1696217" lon="14.5787733"><ele>155.0</ele><time>2026-04-07T14:02:38.832Z</time></trkpt><trkpt lat="42.16957" lon="14.5789017"><ele>155.0</ele><time>2026-04-07T14:02:40.832Z</time></trkpt><trkpt lat="42.1695017" lon="14.579035"><ele>155.0</ele><time>2026-04-07T14:02:42.832Z</time></trkpt><trkpt lat="42.16943" lon="14.5791633"><ele>155.0</ele><time>2026-04-07T14:02:44.832Z</time></trkpt><trkpt lat="42.16936" lon="14.5792867"><ele>155.0</ele><time>2026-04-07T14:02:46.832Z</time></trkpt><trkpt lat="42.1692833" lon="14.57941"><ele>155.0</ele><time>2026-04-07T14:02:48.832Z</time></trkpt><trkpt lat="42.16921" lon="14.579525"><ele>155.0</ele><time>2026-04-07T14:02:50.832Z</time></trkpt><trkpt lat="42.1691283" lon="14.5796267"><ele>155.0</ele><time>2026-04-07T14:02:52.832Z</time></trkpt><trkpt lat="42.1690433" lon="14.5797233"><ele>154.71428571428572</ele><time>2026-04-07T14:02:54.833Z</time></trkpt><trkpt lat="42.168995" lon="14.5797817"><ele>154.42857142857142</ele><time>2026-04-07T14:02:55.832Z</time></trkpt><trkpt lat="42.1689467" lon="14.5798483"><ele>154.14285714285714</ele><time>2026-04-07T14:02:56.832Z</time></trkpt><trkpt lat="42.1689017" lon="14.57991"><ele>153.85714285714286</ele><time>2026-04-07T14:02:57.833Z</time></trkpt><trkpt lat="42.1688483" lon="14.579975"><ele>153.57142857142858</ele><time>2026-04-07T14:02:58.832Z</time></trkpt><trkpt lat="42.168795" lon="14.5800433"><ele>153.28571428571428</ele><time>2026-04-07T14:02:59.832Z</time></trkpt><trkpt lat="42.168745" lon="14.5801083"><ele>153.0</ele><time>2026-04-07T14:03:00.833Z</time></trkpt><trkpt lat="42.168695" lon="14.580175"><ele>153.0</ele><time>2026-04-07T14:03:01.832Z</time></trkpt><trkpt lat="42.1686433" lon="14.580245"><ele>153.0</ele><time>2026-04-07T14:03:02.832Z</time></trkpt><trkpt lat="42.1685883" lon="14.580315"><ele>153.0</ele><time>2026-04-07T14:03:03.832Z</time></trkpt><trkpt lat="42.168535" lon="14.580395"><ele>153.0</ele><time>2026-04-07T14:03:04.833Z</time></trkpt><trkpt lat="42.1684783" lon="14.5804767"><ele>153.0</ele><time>2026-04-07T14:03:05.832Z</time></trkpt><trkpt lat="42.1684233" lon="14.5805683"><ele>153.0</ele><time>2026-04-07T14:03:06.832Z</time></trkpt><trkpt lat="42.1683683" lon="14.5806633"><ele>152.0</ele><time>2026-04-07T14:03:07.832Z</time></trkpt><trkpt lat="42.1683167" lon="14.5807767"><ele>151.0</ele><time>2026-04-07T14:03:08.832Z</time></trkpt><trkpt lat="42.1682817" lon="14.58089"><ele>150.0</ele><time>2026-04-07T14:03:09.833Z</time></trkpt><trkpt lat="42.1682617" lon="14.58102"><ele>149.0</ele><time>2026-04-07T14:03:10.832Z</time></trkpt><trkpt lat="42.1682617" lon="14.58115"><ele>148.0</ele><time>2026-04-07T14:03:11.832Z</time></trkpt><trkpt lat="42.1682783" lon="14.58128"><ele>146.8</ele><time>2026-04-07T14:03:12.832Z</time></trkpt><trkpt lat="42.1682983" lon="14.581415"><ele>145.60000000000002</ele><time>2026-04-07T14:03:13.832Z</time></trkpt><trkpt lat="42.1683283" lon="14.5815533"><ele>144.39999999999998</ele><time>2026-04-07T14:03:14.833Z</time></trkpt><trkpt lat="42.1683617" lon="14.5816867"><ele>143.2</ele><time>2026-04-07T14:03:15.832Z</time></trkpt><trkpt lat="42.1684" lon="14.5818267"><ele>142.0</ele><time>2026-04-07T14:03:16.832Z</time></trkpt><trkpt lat="42.16844" lon="14.5819617"><ele>141.79999999999998</ele><time>2026-04-07T14:03:17.832Z</time></trkpt><trkpt lat="42.1684783" lon="14.5820867"><ele>141.6</ele><time>2026-04-07T14:03:18.833Z</time></trkpt><trkpt lat="42.1685267" lon="14.582215"><ele>141.39999999999998</ele><time>2026-04-07T14:03:19.832Z</time></trkpt><trkpt lat="42.16858" lon="14.5823433"><ele>141.2</ele><time>2026-04-07T14:03:20.832Z</time></trkpt><trkpt lat="42.1686317" lon="14.5824683"><ele>141.0</ele><time>2026-04-07T14:03:21.832Z</time></trkpt><trkpt lat="42.1686733" lon="14.5825833"><ele>141.0</ele><time>2026-04-07T14:03:22.832Z</time></trkpt><trkpt lat="42.1687117" lon="14.5826933"><ele>141.0</ele><time>2026-04-07T14:03:23.832Z</time></trkpt><trkpt lat="42.1687517" lon="14.582805"><ele>141.0</ele><time>2026-04-07T14:03:24.832Z</time></trkpt><trkpt lat="42.1687967" lon="14.58294"><ele>141.0</ele><time>2026-04-07T14:03:25.832Z</time></trkpt><trkpt lat="42.168845" lon="14.5830583"><ele>141.0</ele><time>2026-04-07T14:03:26.832Z</time></trkpt><trkpt lat="42.1688967" lon="14.58318"><ele>141.33333333333334</ele><time>2026-04-07T14:03:27.833Z</time></trkpt><trkpt lat="42.1689433" lon="14.5832967"><ele>141.66666666666666</ele><time>2026-04-07T14:03:28.832Z</time></trkpt><trkpt lat="42.1689883" lon="14.5834017"><ele>142.0</ele><time>2026-04-07T14:03:29.832Z</time></trkpt><trkpt lat="42.169035" lon="14.5834983"><ele>142.33333333333331</ele><time>2026-04-07T14:03:30.833Z</time></trkpt><trkpt lat="42.1690883" lon="14.5835867"><ele>142.66666666666666</ele><time>2026-04-07T14:03:31.832Z</time></trkpt><trkpt lat="42.1691433" lon="14.5836633"><ele>143.0</ele><time>2026-04-07T14:03:32.832Z</time></trkpt><trkpt lat="42.1692" lon="14.5837283"><ele>142.33333333333331</ele><time>2026-04-07T14:03:33.832Z</time></trkpt><trkpt lat="42.1692567" lon="14.5837833"><ele>141.66666666666666</ele><time>2026-04-07T14:03:34.832Z</time></trkpt><trkpt lat="42.1693183" lon="14.58383"><ele>141.0</ele><time>2026-04-07T14:03:35.832Z</time></trkpt><trkpt lat="42.169375" lon="14.5838717"><ele>140.33333333333334</ele><time>2026-04-07T14:03:36.833Z</time></trkpt><trkpt lat="42.1694783" lon="14.5839417"><ele>139.66666666666669</ele><time>2026-04-07T14:03:38.832Z</time></trkpt><trkpt lat="42.1695817" lon="14.584005"><ele>139.0</ele><time>2026-04-07T14:03:40.832Z</time></trkpt><trkpt lat="42.1696867" lon="14.5840567"><ele>139.0</ele><time>2026-04-07T14:03:42.832Z</time></trkpt><trkpt lat="42.169785" lon="14.5840967"><ele>139.0</ele><time>2026-04-07T14:03:44.832Z</time></trkpt><trkpt lat="42.1698917" lon="14.58415"><ele>139.0</ele><time>2026-04-07T14:03:46.832Z</time></trkpt><trkpt lat="42.1700017" lon="14.5841883"><ele>139.0</ele><time>2026-04-07T14:03:48.832Z</time></trkpt><trkpt lat="42.1701067" lon="14.5842133"><ele>139.0</ele><time>2026-04-07T14:03:50.833Z</time></trkpt><trkpt lat="42.1702117" lon="14.5842383"><ele>138.8</ele><time>2026-04-07T14:03:52.832Z</time></trkpt><trkpt lat="42.1703183" lon="14.5842633"><ele>138.60000000000002</ele><time>2026-04-07T14:03:54.832Z</time></trkpt><trkpt lat="42.170425" lon="14.5842983"><ele>138.4</ele><time>2026-04-07T14:03:56.832Z</time></trkpt><trkpt lat="42.17053" lon="14.5843333"><ele>138.20000000000002</ele><time>2026-04-07T14:03:58.832Z</time></trkpt><trkpt lat="42.1706367" lon="14.58436"><ele>138.0</ele><time>2026-04-07T14:04:00.832Z</time></trkpt><trkpt lat="42.1707433" lon="14.5843883"><ele>138.0</ele><time>2026-04-07T14:04:02.832Z</time></trkpt><trkpt lat="42.1708367" lon="14.584405"><ele>138.0</ele><time>2026-04-07T14:04:04.832Z</time></trkpt><trkpt lat="42.1708983" lon="14.58443"><ele>138.0</ele><time>2026-04-07T14:04:06.833Z</time></trkpt><trkpt lat="42.1708183" lon="14.584495"><ele>138.0</ele><time>2026-04-07T14:04:11.832Z</time></trkpt><trkpt lat="42.1707233" lon="14.5845533"><ele>138.0</ele><time>2026-04-07T14:04:13.833Z</time></trkpt><trkpt lat="42.1706217" lon="14.584605"><ele>139.20000000000002</ele><time>2026-04-07T14:04:15.833Z</time></trkpt><trkpt lat="42.1705233" lon="14.5846617"><ele>140.4</ele><time>2026-04-07T14:04:17.832Z</time></trkpt><trkpt lat="42.1704267" lon="14.5847"><ele>141.60000000000002</ele><time>2026-04-07T14:04:19.832Z</time></trkpt><trkpt lat="42.17032" lon="14.5847317"><ele>142.8</ele><time>2026-04-07T14:04:21.832Z</time></trkpt><trkpt lat="42.1702083" lon="14.584745"><ele>144.0</ele><time>2026-04-07T14:04:23.833Z</time></trkpt><trkpt lat="42.1700983" lon="14.584765"><ele>144.0</ele><time>2026-04-07T14:04:25.832Z</time></trkpt><trkpt lat="42.16999" lon="14.5847867"><ele>144.0</ele><time>2026-04-07T14:04:27.832Z</time></trkpt><trkpt lat="42.1698833" lon="14.5847917"><ele>144.0</ele><time>2026-04-07T14:04:29.832Z</time></trkpt><trkpt lat="42.1697783" lon="14.5847883"><ele>144.0</ele><time>2026-04-07T14:04:31.832Z</time></trkpt><trkpt lat="42.1696833" lon="14.584785"><ele>144.0</ele><time>2026-04-07T14:04:33.832Z</time></trkpt><trkpt lat="42.1695867" lon="14.5847733"><ele>144.2</ele><time>2026-04-07T14:04:35.832Z</time></trkpt><trkpt lat="42.169485" lon="14.5847583"><ele>144.4</ele><time>2026-04-07T14:04:37.832Z</time></trkpt><trkpt lat="42.16938" lon="14.58475"><ele>144.6</ele><time>2026-04-07T14:04:39.832Z</time></trkpt><trkpt lat="42.169275" lon="14.5847383"><ele>144.8</ele><time>2026-04-07T14:04:41.833Z</time></trkpt><trkpt lat="42.1691567" lon="14.584725"><ele>145.0</ele><time>2026-04-07T14:04:43.832Z</time></trkpt><trkpt lat="42.1690433" lon="14.5847117"><ele>146.0</ele><time>2026-04-07T14:04:45.832Z</time></trkpt><trkpt lat="42.168935" lon="14.5846733"><ele>147.0</ele><time>2026-04-07T14:04:47.832Z</time></trkpt><trkpt lat="42.1688283" lon="14.58463"><ele>148.0</ele><time>2026-04-07T14:04:49.832Z</time></trkpt><trkpt lat="42.1687217" lon="14.5845833"><ele>149.0</ele><time>2026-04-07T14:04:51.832Z</time></trkpt><trkpt lat="42.1686117" lon="14.5845383"><ele>149.0</ele><time>2026-04-07T14:04:53.832Z</time></trkpt><trkpt lat="42.1685033" lon="14.5845"><ele>149.0</ele><time>2026-04-07T14:04:55.832Z</time></trkpt><trkpt lat="42.1683933" lon="14.5844683"><ele>149.0</ele><time>2026-04-07T14:04:57.832Z</time></trkpt><trkpt lat="42.1682833" lon="14.5844483"><ele>149.0</ele><time>2026-04-07T14:04:59.832Z</time></trkpt><trkpt lat="42.16817" lon="14.5844467"><ele>149.0</ele><time>2026-04-07T14:05:01.833Z</time></trkpt><trkpt lat="42.168065" lon="14.584485"><ele>149.2</ele><time>2026-04-07T14:05:03.832Z</time></trkpt><trkpt lat="42.1679617" lon="14.5845317"><ele>149.4</ele><time>2026-04-07T14:05:05.832Z</time></trkpt><trkpt lat="42.1678617" lon="14.58458"><ele>149.6</ele><time>2026-04-07T14:05:07.832Z</time></trkpt><trkpt lat="42.1677533" lon="14.5846333"><ele>149.8</ele><time>2026-04-07T14:05:09.832Z</time></trkpt><trkpt lat="42.16765" lon="14.5846683"><ele>150.0</ele><time>2026-04-07T14:05:11.832Z</time></trkpt><trkpt lat="42.1675467" lon="14.5846933"><ele>150.0</ele><time>2026-04-07T14:05:13.833Z</time></trkpt><trkpt lat="42.1674417" lon="14.5847133"><ele>150.0</ele><time>2026-04-07T14:05:15.832Z</time></trkpt><trkpt lat="42.16732" lon="14.5847317"><ele>150.0</ele><time>2026-04-07T14:05:17.832Z</time></trkpt><trkpt lat="42.1672133" lon="14.5847517"><ele>150.0</ele><time>2026-04-07T14:05:19.833Z</time></trkpt><trkpt lat="42.167105" lon="14.5847783"><ele>150.0</ele><time>2026-04-07T14:05:21.833Z</time></trkpt><trkpt lat="42.16704" lon="14.5847917"><ele>149.8</ele><time>2026-04-07T14:05:22.832Z</time></trkpt><trkpt lat="42.1669233" lon="14.5848183"><ele>149.6</ele><time>2026-04-07T14:05:24.832Z</time></trkpt><trkpt lat="42.1668117" lon="14.5848433"><ele>149.4</ele><time>2026-04-07T14:05:26.832Z</time></trkpt><trkpt lat="42.1667017" lon="14.5848783"><ele>149.2</ele><time>2026-04-07T14:05:28.832Z</time></trkpt><trkpt lat="42.1666067" lon="14.5849083"><ele>149.0</ele><time>2026-04-07T14:05:30.832Z</time></trkpt><trkpt lat="42.1665183" lon="14.5849217"><ele>149.0</ele><time>2026-04-07T14:05:32.832Z</time></trkpt><trkpt lat="42.166445" lon="14.5849383"><ele>149.0</ele><time>2026-04-07T14:05:34.832Z</time></trkpt><trkpt lat="42.1663617" lon="14.58494"><ele>149.0</ele><time>2026-04-07T14:05:37.832Z</time></trkpt><trkpt lat="42.166275" lon="14.5849217"><ele>149.0</ele><time>2026-04-07T14:05:39.832Z</time></trkpt><trkpt lat="42.166165" lon="14.5848833"><ele>149.0</ele><time>2026-04-07T14:05:41.832Z</time></trkpt><trkpt lat="42.1661033" lon="14.5848633"><ele>149.0</ele><time>2026-04-07T14:05:42.832Z</time></trkpt><trkpt lat="42.1660417" lon="14.58484"><ele>149.0</ele><time>2026-04-07T14:05:43.833Z</time></trkpt><trkpt lat="42.1659367" lon="14.5847867"><ele>149.0</ele><time>2026-04-07T14:05:45.832Z</time></trkpt><trkpt lat="42.1658383" lon="14.58473"><ele>149.0</ele><time>2026-04-07T14:05:47.832Z</time></trkpt><trkpt lat="42.1657283" lon="14.58468"><ele>149.0</ele><time>2026-04-07T14:05:49.832Z</time></trkpt><trkpt lat="42.1656233" lon="14.58463"><ele>149.0</ele><time>2026-04-07T14:05:51.832Z</time></trkpt><trkpt lat="42.1655133" lon="14.58458"><ele>149.25</ele><time>2026-04-07T14:05:53.832Z</time></trkpt><trkpt lat="42.1653983" lon="14.5845267"><ele>149.5</ele><time>2026-04-07T14:05:55.832Z</time></trkpt><trkpt lat="42.1652883" lon="14.58448"><ele>149.75</ele><time>2026-04-07T14:05:57.832Z</time></trkpt><trkpt lat="42.16519" lon="14.5844333"><ele>150.0</ele><time>2026-04-07T14:05:59.832Z</time></trkpt><trkpt lat="42.1650767" lon="14.58439"><ele>150.5</ele><time>2026-04-07T14:06:01.833Z</time></trkpt><trkpt lat="42.1649683" lon="14.5843433"><ele>151.0</ele><time>2026-04-07T14:06:03.832Z</time></trkpt><trkpt lat="42.164855" lon="14.5842967"><ele>151.5</ele><time>2026-04-07T14:06:05.832Z</time></trkpt><trkpt lat="42.1647367" lon="14.5842467"><ele>152.0</ele><time>2026-04-07T14:06:07.832Z</time></trkpt><trkpt lat="42.1646217" lon="14.5842"><ele>152.5</ele><time>2026-04-07T14:06:09.832Z</time></trkpt><trkpt lat="42.164505" lon="14.584155"><ele>153.0</ele><time>2026-04-07T14:06:11.832Z</time></trkpt><trkpt lat="42.1643867" lon="14.5841117"><ele>153.5</ele><time>2026-04-07T14:06:13.832Z</time></trkpt><trkpt lat="42.16427" lon="14.5840667"><ele>154.0</ele><time>2026-04-07T14:06:15.832Z</time></trkpt><trkpt lat="42.1641583" lon="14.5840217"><ele>154.0</ele><time>2026-04-07T14:06:17.832Z</time></trkpt><trkpt lat="42.1640517" lon="14.5839867"><ele>154.0</ele><time>2026-04-07T14:06:19.832Z</time></trkpt><trkpt lat="42.163945" lon="14.5839517"><ele>154.0</ele><time>2026-04-07T14:06:21.832Z</time></trkpt><trkpt lat="42.1638317" lon="14.5839183"><ele>154.0</ele><time>2026-04-07T14:06:23.833Z</time></trkpt><trkpt lat="42.1637217" lon="14.5838817"><ele>154.0</ele><time>2026-04-07T14:06:25.832Z</time></trkpt><trkpt lat="42.1636083" lon="14.5838417"><ele>154.0</ele><time>2026-04-07T14:06:27.832Z</time></trkpt><trkpt lat="42.1634933" lon="14.5838"><ele>154.0</ele><time>2026-04-07T14:06:29.832Z</time></trkpt><trkpt lat="42.1633817" lon="14.5837683"><ele>154.0</ele><time>2026-04-07T14:06:31.833Z</time></trkpt><trkpt lat="42.163275" lon="14.5837417"><ele>154.0</ele><time>2026-04-07T14:06:33.832Z</time></trkpt><trkpt lat="42.1631817" lon="14.583715"><ele>154.0</ele><time>2026-04-07T14:06:35.832Z</time></trkpt><trkpt lat="42.1630817" lon="14.58368"><ele>154.8</ele><time>2026-04-07T14:06:37.832Z</time></trkpt><trkpt lat="42.16297" lon="14.5836433"><ele>155.60000000000002</ele><time>2026-04-07T14:06:39.832Z</time></trkpt><trkpt lat="42.162875" lon="14.5836067"><ele>156.4</ele><time>2026-04-07T14:06:41.832Z</time></trkpt><trkpt lat="42.1627633" lon="14.5835667"><ele>157.20000000000002</ele><time>2026-04-07T14:06:43.832Z</time></trkpt><trkpt lat="42.162655" lon="14.5835183"><ele>158.0</ele><time>2026-04-07T14:06:45.832Z</time></trkpt><trkpt lat="42.16254" lon="14.5834767"><ele>158.0</ele><time>2026-04-07T14:06:47.832Z</time></trkpt><trkpt lat="42.162425" lon="14.58344"><ele>158.0</ele><time>2026-04-07T14:06:49.832Z</time></trkpt><trkpt lat="42.1623133" lon="14.58342"><ele>158.0</ele><time>2026-04-07T14:06:51.832Z</time></trkpt><trkpt lat="42.1621933" lon="14.5834283"><ele>158.0</ele><time>2026-04-07T14:06:53.832Z</time></trkpt><trkpt lat="42.1620733" lon="14.58347"><ele>158.20000000000002</ele><time>2026-04-07T14:06:55.832Z</time></trkpt><trkpt lat="42.1619767" lon="14.5835333"><ele>158.4</ele><time>2026-04-07T14:06:57.832Z</time></trkpt><trkpt lat="42.1618917" lon="14.583615"><ele>158.60000000000002</ele><time>2026-04-07T14:06:59.833Z</time></trkpt><trkpt lat="42.1618133" lon="14.583705"><ele>158.8</ele><time>2026-04-07T14:07:01.833Z</time></trkpt><trkpt lat="42.1617367" lon="14.5837933"><ele>159.0</ele><time>2026-04-07T14:07:03.832Z</time></trkpt><trkpt lat="42.161665" lon="14.5838783"><ele>159.2</ele><time>2026-04-07T14:07:05.832Z</time></trkpt><trkpt lat="42.1615917" lon="14.583975"><ele>159.4</ele><time>2026-04-07T14:07:07.832Z</time></trkpt><trkpt lat="42.161515" lon="14.58406"><ele>159.6</ele><time>2026-04-07T14:07:09.833Z</time></trkpt><trkpt lat="42.161435" lon="14.584145"><ele>159.8</ele><time>2026-04-07T14:07:11.832Z</time></trkpt><trkpt lat="42.1613567" lon="14.5842283"><ele>160.0</ele><time>2026-04-07T14:07:13.832Z</time></trkpt><trkpt lat="42.16127" lon="14.584305"><ele>160.0</ele><time>2026-04-07T14:07:15.832Z</time></trkpt><trkpt lat="42.1611817" lon="14.5843817"><ele>160.0</ele><time>2026-04-07T14:07:17.833Z</time></trkpt><trkpt lat="42.1610983" lon="14.5844483"><ele>160.0</ele><time>2026-04-07T14:07:19.832Z</time></trkpt><trkpt lat="42.1610083" lon="14.5845133"><ele>160.0</ele><time>2026-04-07T14:07:21.832Z</time></trkpt><trkpt lat="42.1609117" lon="14.584585"><ele>160.0</ele><time>2026-04-07T14:07:23.832Z</time></trkpt><trkpt lat="42.1608167" lon="14.58465"><ele>160.0</ele><time>2026-04-07T14:07:25.832Z</time></trkpt><trkpt lat="42.1607333" lon="14.5847133"><ele>160.0</ele><time>2026-04-07T14:07:27.832Z</time></trkpt><trkpt lat="42.1606417" lon="14.5847883"><ele>160.0</ele><time>2026-04-07T14:07:29.832Z</time></trkpt><trkpt lat="42.1605433" lon="14.5848583"><ele>160.0</ele><time>2026-04-07T14:07:31.832Z</time></trkpt><trkpt lat="42.1604417" lon="14.5849267"><ele>160.0</ele><time>2026-04-07T14:07:33.832Z</time></trkpt><trkpt lat="42.1603333" lon="14.585"><ele>160.0</ele><time>2026-04-07T14:07:35.832Z</time></trkpt><trkpt lat="42.1602217" lon="14.5850733"><ele>160.0</ele><time>2026-04-07T14:07:37.832Z</time></trkpt><trkpt lat="42.160115" lon="14.58515"><ele>160.0</ele><time>2026-04-07T14:07:39.832Z</time></trkpt><trkpt lat="42.16002" lon="14.585225"><ele>160.0</ele><time>2026-04-07T14:07:41.832Z</time></trkpt><trkpt lat="42.1599217" lon="14.5853067"><ele>160.25</ele><time>2026-04-07T14:07:43.832Z</time></trkpt><trkpt lat="42.1598283" lon="14.5853783"><ele>160.5</ele><time>2026-04-07T14:07:45.832Z</time></trkpt><trkpt lat="42.1597283" lon="14.5854517"><ele>160.75</ele><time>2026-04-07T14:07:47.833Z</time></trkpt><trkpt lat="42.1596267" lon="14.5855217"><ele>161.0</ele><time>2026-04-07T14:07:49.832Z</time></trkpt><trkpt lat="42.159525" lon="14.5856017"><ele>161.0</ele><time>2026-04-07T14:07:51.832Z</time></trkpt><trkpt lat="42.1594183" lon="14.5856817"><ele>161.0</ele><time>2026-04-07T14:07:53.832Z</time></trkpt><trkpt lat="42.1593233" lon="14.5857533"><ele>161.0</ele><time>2026-04-07T14:07:55.832Z</time></trkpt><trkpt lat="42.15922" lon="14.585825"><ele>161.0</ele><time>2026-04-07T14:07:57.832Z</time></trkpt><trkpt lat="42.159125" lon="14.5858933"><ele>161.75</ele><time>2026-04-07T14:07:59.832Z</time></trkpt><trkpt lat="42.1590317" lon="14.5859517"><ele>162.5</ele><time>2026-04-07T14:08:01.832Z</time></trkpt><trkpt lat="42.1589283" lon="14.586005"><ele>163.25</ele><time>2026-04-07T14:08:03.833Z</time></trkpt><trkpt lat="42.15881" lon="14.586045"><ele>164.0</ele><time>2026-04-07T14:08:05.832Z</time></trkpt><trkpt lat="42.1586917" lon="14.58608"><ele>164.0</ele><time>2026-04-07T14:08:07.832Z</time></trkpt><trkpt lat="42.1585833" lon="14.586115"><ele>164.0</ele><time>2026-04-07T14:08:09.832Z</time></trkpt><trkpt lat="42.1584733" lon="14.586145"><ele>164.0</ele><time>2026-04-07T14:08:11.832Z</time></trkpt><trkpt lat="42.1583617" lon="14.5861767"><ele>164.0</ele><time>2026-04-07T14:08:13.832Z</time></trkpt><trkpt lat="42.1582467" lon="14.5862033"><ele>164.25</ele><time>2026-04-07T14:08:15.832Z</time></trkpt><trkpt lat="42.158135" lon="14.5862317"><ele>164.5</ele><time>2026-04-07T14:08:17.832Z</time></trkpt><trkpt lat="42.1580217" lon="14.5862583"><ele>164.75</ele><time>2026-04-07T14:08:19.832Z</time></trkpt><trkpt lat="42.157915" lon="14.5862917"><ele>165.0</ele><time>2026-04-07T14:08:21.832Z</time></trkpt><trkpt lat="42.1577983" lon="14.5863233"><ele>165.0</ele><time>2026-04-07T14:08:23.832Z</time></trkpt><trkpt lat="42.1576867" lon="14.5863583"><ele>165.0</ele><time>2026-04-07T14:08:25.832Z</time></trkpt><trkpt lat="42.1575733" lon="14.5863917"><ele>165.0</ele><time>2026-04-07T14:08:27.833Z</time></trkpt><trkpt lat="42.1574583" lon="14.5864283"><ele>165.0</ele><time>2026-04-07T14:08:29.832Z</time></trkpt><trkpt lat="42.1573483" lon="14.5864683"><ele>166.0</ele><time>2026-04-07T14:08:31.832Z</time></trkpt><trkpt lat="42.1572367" lon="14.586495"><ele>167.0</ele><time>2026-04-07T14:08:33.832Z</time></trkpt><trkpt lat="42.1571183" lon="14.58652"><ele>168.0</ele><time>2026-04-07T14:08:35.832Z</time></trkpt><trkpt lat="42.1570017" lon="14.58654"><ele>169.0</ele><time>2026-04-07T14:08:37.832Z</time></trkpt><trkpt lat="42.1568833" lon="14.586535"><ele>169.0</ele><time>2026-04-07T14:08:39.833Z</time></trkpt><trkpt lat="42.1567617" lon="14.5865183"><ele>169.0</ele><time>2026-04-07T14:08:41.832Z</time></trkpt><trkpt lat="42.1566517" lon="14.5864917"><ele>169.0</ele><time>2026-04-07T14:08:43.833Z</time></trkpt><trkpt lat="42.1565417" lon="14.5864533"><ele>169.0</ele><time>2026-04-07T14:08:45.832Z</time></trkpt><trkpt lat="42.1564267" lon="14.5864083"><ele>168.25</ele><time>2026-04-07T14:08:47.832Z</time></trkpt><trkpt lat="42.156315" lon="14.5863733"><ele>167.5</ele><time>2026-04-07T14:08:49.832Z</time></trkpt><trkpt lat="42.1562" lon="14.5863433"><ele>166.75</ele><time>2026-04-07T14:08:51.832Z</time></trkpt><trkpt lat="42.1560883" lon="14.5863033"><ele>166.0</ele><time>2026-04-07T14:08:53.832Z</time></trkpt><trkpt lat="42.1559733" lon="14.5862633"><ele>166.0</ele><time>2026-04-07T14:08:55.833Z</time></trkpt><trkpt lat="42.1558683" lon="14.58622"><ele>166.0</ele><time>2026-04-07T14:08:57.832Z</time></trkpt><trkpt lat="42.1557583" lon="14.5861833"><ele>166.0</ele><time>2026-04-07T14:08:59.832Z</time></trkpt><trkpt lat="42.15565" lon="14.5861433"><ele>166.0</ele><time>2026-04-07T14:09:01.832Z</time></trkpt><trkpt lat="42.15554" lon="14.5861067"><ele>166.0</ele><time>2026-04-07T14:09:03.833Z</time></trkpt><trkpt lat="42.155425" lon="14.5860617"><ele>167.0</ele><time>2026-04-07T14:09:05.833Z</time></trkpt><trkpt lat="42.1553117" lon="14.5860167"><ele>168.0</ele><time>2026-04-07T14:09:07.832Z</time></trkpt><trkpt lat="42.1552067" lon="14.5859767"><ele>169.0</ele><time>2026-04-07T14:09:09.832Z</time></trkpt><trkpt lat="42.1550967" lon="14.5859333"><ele>170.0</ele><time>2026-04-07T14:09:11.832Z</time></trkpt><trkpt lat="42.15499" lon="14.58588"><ele>170.0</ele><time>2026-04-07T14:09:13.832Z</time></trkpt><trkpt lat="42.1548933" lon="14.5858217"><ele>170.0</ele><time>2026-04-07T14:09:15.832Z</time></trkpt><trkpt lat="42.1547967" lon="14.5857417"><ele>170.0</ele><time>2026-04-07T14:09:17.833Z</time></trkpt><trkpt lat="42.154715" lon="14.5856533"><ele>170.0</ele><time>2026-04-07T14:09:19.832Z</time></trkpt><trkpt lat="42.1546467" lon="14.5855483"><ele>170.0</ele><time>2026-04-07T14:09:21.832Z</time></trkpt><trkpt lat="42.1545817" lon="14.5854567"><ele>170.5</ele><time>2026-04-07T14:09:23.832Z</time></trkpt><trkpt lat="42.1544933" lon="14.5853383"><ele>171.0</ele><time>2026-04-07T14:09:25.832Z</time></trkpt><trkpt lat="42.1543983" lon="14.5852433"><ele>171.5</ele><time>2026-04-07T14:09:27.832Z</time></trkpt><trkpt lat="42.15429" lon="14.5851933"><ele>172.0</ele><time>2026-04-07T14:09:29.832Z</time></trkpt><trkpt lat="42.1541867" lon="14.585185"><ele>172.0</ele><time>2026-04-07T14:09:31.833Z</time></trkpt><trkpt lat="42.154085" lon="14.585185"><ele>172.0</ele><time>2026-04-07T14:09:33.832Z</time></trkpt><trkpt lat="42.1539833" lon="14.585185"><ele>172.0</ele><time>2026-04-07T14:09:35.833Z</time></trkpt><trkpt lat="42.1538833" lon="14.585185"><ele>172.0</ele><time>2026-04-07T14:09:37.832Z</time></trkpt><trkpt lat="42.1537917" lon="14.58519"><ele>172.0</ele><time>2026-04-07T14:09:39.832Z</time></trkpt><trkpt lat="42.1537033" lon="14.5852033"><ele>172.83333333333334</ele><time>2026-04-07T14:09:41.832Z</time></trkpt><trkpt lat="42.1536183" lon="14.5852167"><ele>173.66666666666669</ele><time>2026-04-07T14:09:43.832Z</time></trkpt><trkpt lat="42.1535267" lon="14.58523"><ele>174.5</ele><time>2026-04-07T14:09:46.832Z</time></trkpt><trkpt lat="42.1534633" lon="14.58526"><ele>175.33333333333334</ele><time>2026-04-07T14:09:49.832Z</time></trkpt><trkpt lat="42.1533583" lon="14.5852717"><ele>176.16666666666666</ele><time>2026-04-07T14:09:52.832Z</time></trkpt><trkpt lat="42.15326" lon="14.58529"><ele>177.0</ele><time>2026-04-07T14:09:54.832Z</time></trkpt><trkpt lat="42.15316" lon="14.5853017"><ele>179.0</ele><time>2026-04-07T14:09:56.832Z</time></trkpt><trkpt lat="42.1530667" lon="14.58528"><ele>181.0</ele><time>2026-04-07T14:09:58.832Z</time></trkpt><trkpt lat="42.152995" lon="14.58524"><ele>183.0</ele><time>2026-04-07T14:10:00.832Z</time></trkpt><trkpt lat="42.152925" lon="14.5851967"><ele>185.0</ele><time>2026-04-07T14:10:02.832Z</time></trkpt><trkpt lat="42.1528567" lon="14.5851583"><ele>187.0</ele><time>2026-04-07T14:10:04.832Z</time></trkpt><trkpt lat="42.1527783" lon="14.5851117"><ele>189.0</ele><time>2026-04-07T14:10:07.832Z</time></trkpt><trkpt lat="42.1526917" lon="14.5850717"><ele>189.0</ele><time>2026-04-07T14:10:10.832Z</time></trkpt><trkpt lat="42.1526117" lon="14.5850083"><ele>189.0</ele><time>2026-04-07T14:10:13.832Z</time></trkpt><trkpt lat="42.1525533" lon="14.5849617"><ele>189.0</ele><time>2026-04-07T14:10:15.833Z</time></trkpt><trkpt lat="42.1524917" lon="14.5849083"><ele>189.0</ele><time>2026-04-07T14:10:17.832Z</time></trkpt><trkpt lat="42.152415" lon="14.5848483"><ele>189.0</ele><time>2026-04-07T14:10:19.833Z</time></trkpt><trkpt lat="42.1523417" lon="14.584795"><ele>189.0</ele><time>2026-04-07T14:10:21.832Z</time></trkpt><trkpt lat="42.1522583" lon="14.584775"><ele>190.57142857142858</ele><time>2026-04-07T14:10:23.832Z</time></trkpt><trkpt lat="42.1521917" lon="14.5847717"><ele>192.14285714285714</ele><time>2026-04-07T14:10:25.832Z</time></trkpt><trkpt lat="42.152115" lon="14.5847667"><ele>193.71428571428572</ele><time>2026-04-07T14:10:28.832Z</time></trkpt><trkpt lat="42.1520267" lon="14.5848"><ele>195.28571428571428</ele><time>2026-04-07T14:10:31.832Z</time></trkpt><trkpt lat="42.1519617" lon="14.5848167"><ele>196.85714285714286</ele><time>2026-04-07T14:10:33.832Z</time></trkpt><trkpt lat="42.1518933" lon="14.5848283"><ele>198.42857142857144</ele><time>2026-04-07T14:10:35.832Z</time></trkpt><trkpt lat="42.15183" lon="14.584845"><ele>200.0</ele><time>2026-04-07T14:10:36.832Z</time></trkpt><trkpt lat="42.1517633" lon="14.5848467"><ele>200.00000000000003</ele><time>2026-04-07T14:10:37.832Z</time></trkpt><trkpt lat="42.1516767" lon="14.58486"><ele>200.0</ele><time>2026-04-07T14:10:39.832Z</time></trkpt><trkpt lat="42.15161" lon="14.5848733"><ele>200.0</ele><time>2026-04-07T14:10:41.832Z</time></trkpt><trkpt lat="42.1515183" lon="14.5848817"><ele>200.0</ele><time>2026-04-07T14:10:44.832Z</time></trkpt><trkpt lat="42.1514517" lon="14.5848833"><ele>200.00000000000003</ele><time>2026-04-07T14:10:47.832Z</time></trkpt><trkpt lat="42.15138" lon="14.584825"><ele>200.0</ele><time>2026-04-07T14:10:50.832Z</time></trkpt><trkpt lat="42.1512933" lon="14.584775"><ele>201.2</ele><time>2026-04-07T14:10:53.832Z</time></trkpt><trkpt lat="42.1512333" lon="14.5847333"><ele>202.4</ele><time>2026-04-07T14:10:55.832Z</time></trkpt><trkpt lat="42.1511483" lon="14.5846933"><ele>203.60000000000002</ele><time>2026-04-07T14:10:58.832Z</time></trkpt><trkpt lat="42.1510733" lon="14.5846767"><ele>204.8</ele><time>2026-04-07T14:11:02.832Z</time></trkpt><trkpt lat="42.1509333" lon="14.58476"><ele>206.0</ele><time>2026-04-07T14:11:05.832Z</time></trkpt><trkpt lat="42.15086" lon="14.5847233"><ele>205.99999999999997</ele><time>2026-04-07T14:11:07.832Z</time></trkpt><trkpt lat="42.15078" lon="14.5847483"><ele>206.0</ele><time>2026-04-07T14:11:09.833Z</time></trkpt><trkpt lat="42.15072" lon="14.5848167"><ele>206.0</ele><time>2026-04-07T14:11:11.832Z</time></trkpt><trkpt lat="42.1506683" lon="14.5848833"><ele>206.0</ele><time>2026-04-07T14:11:13.832Z</time></trkpt><trkpt lat="42.15061" lon="14.5849333"><ele>206.0</ele><time>2026-04-07T14:11:15.832Z</time></trkpt><trkpt lat="42.1505567" lon="14.5849967"><ele>205.99999999999997</ele><time>2026-04-07T14:11:17.833Z</time></trkpt><trkpt lat="42.1505083" lon="14.5850567"><ele>206.0</ele><time>2026-04-07T14:11:19.832Z</time></trkpt><trkpt lat="42.150455" lon="14.58511"><ele>205.83333333333334</ele><time>2026-04-07T14:11:21.832Z</time></trkpt><trkpt lat="42.1503883" lon="14.5851433"><ele>205.66666666666669</ele><time>2026-04-07T14:11:23.832Z</time></trkpt><trkpt lat="42.1503167" lon="14.585185"><ele>205.5</ele><time>2026-04-07T14:11:25.832Z</time></trkpt><trkpt lat="42.1502417" lon="14.5852233"><ele>205.33333333333331</ele><time>2026-04-07T14:11:27.832Z</time></trkpt><trkpt lat="42.1501667" lon="14.5852433"><ele>205.16666666666666</ele><time>2026-04-07T14:11:29.832Z</time></trkpt><trkpt lat="42.1500933" lon="14.585265"><ele>205.0</ele><time>2026-04-07T14:11:32.832Z</time></trkpt><trkpt lat="42.1500067" lon="14.5852533"><ele>205.0</ele><time>2026-04-07T14:11:34.833Z</time></trkpt><trkpt lat="42.1498917" lon="14.5851717"><ele>205.0</ele><time>2026-04-07T14:12:37.059Z</time></trkpt><trkpt lat="42.1497333" lon="14.5846967"><ele>205.0</ele><time>2026-04-07T14:12:38.331Z</time></trkpt><trkpt lat="42.1498417" lon="14.58515"><ele>205.0</ele><time>2026-04-07T14:12:40.331Z</time></trkpt><trkpt lat="42.1498767" lon="14.5852283"><ele>205.0</ele><time>2026-04-07T14:12:42.83Z</time></trkpt><trkpt lat="42.1499017" lon="14.5853067"><ele>205.0</ele><time>2026-04-07T14:12:49.83Z</time></trkpt><trkpt lat="42.150035" lon="14.5852433"><ele>205.0</ele><time>2026-04-07T14:13:24.331Z</time></trkpt><trkpt lat="42.1499617" lon="14.5852667"><ele>205.0</ele><time>2026-04-07T14:13:24.831Z</time></trkpt></trkseg></trk></gpx>